<?xml version="1.0" encoding="UTF-8" standalone="no" ?>
<gpx xmlns="http://www.topografix.com/GPX/1/1" xmlns:xsi="http://www.w3.org/2001/XMLSchema-instance" xsi:schemaLocation="http://www.topografix.com/GPX/1/1 http://www.topografix.com/GPX/1/1/gpx.xsd" version="1.1" creator="VisuGPX - https://www.visugpx.com">
  <metadata>
    <name>6000D 2012</name>
    <desc><![CDATA[Trail 6000D 2012]]></desc>
  </metadata>
  <trk>
    <name><![CDATA[6000D 2012_1]]></name>
    <cmt><![CDATA[6000D]]></cmt>
    <trkseg>
      <trkpt lat="45.5559" lon="6.65146">
        <ele>681.79998779297</ele>
        <time>2012-07-28T04:00:06Z</time>
      </trkpt>
      <trkpt lat="45.5559" lon="6.65148">
        <ele>681.59997558594</ele>
        <time>2012-07-28T04:00:08Z</time>
      </trkpt>
      <trkpt lat="45.55598" lon="6.65165">
        <ele>681.59997558594</ele>
        <time>2012-07-28T04:00:13Z</time>
      </trkpt>
      <trkpt lat="45.55609" lon="6.65189">
        <ele>681.59997558594</ele>
        <time>2012-07-28T04:00:19Z</time>
      </trkpt>
      <trkpt lat="45.55618" lon="6.65213">
        <ele>681.59997558594</ele>
        <time>2012-07-28T04:00:25Z</time>
      </trkpt>
      <trkpt lat="45.55628" lon="6.65237">
        <ele>681.59997558594</ele>
        <time>2012-07-28T04:00:31Z</time>
      </trkpt>
      <trkpt lat="45.55642" lon="6.65256">
        <ele>681.59997558594</ele>
        <time>2012-07-28T04:00:37Z</time>
      </trkpt>
      <trkpt lat="45.55657" lon="6.65276">
        <ele>681.59997558594</ele>
        <time>2012-07-28T04:00:43Z</time>
      </trkpt>
      <trkpt lat="45.55671" lon="6.65297">
        <ele>681.40002441406</ele>
        <time>2012-07-28T04:00:50Z</time>
      </trkpt>
      <trkpt lat="45.55686" lon="6.65318">
        <ele>681.20001220703</ele>
        <time>2012-07-28T04:00:57Z</time>
      </trkpt>
      <trkpt lat="45.55696" lon="6.6534">
        <ele>681.20001220703</ele>
        <time>2012-07-28T04:01:03Z</time>
      </trkpt>
      <trkpt lat="45.55711" lon="6.65362">
        <ele>681</ele>
        <time>2012-07-28T04:01:09Z</time>
      </trkpt>
      <trkpt lat="45.55719" lon="6.65385">
        <ele>681</ele>
        <time>2012-07-28T04:01:14Z</time>
      </trkpt>
      <trkpt lat="45.55727" lon="6.65412">
        <ele>680.79998779297</ele>
        <time>2012-07-28T04:01:20Z</time>
      </trkpt>
      <trkpt lat="45.5573" lon="6.65442">
        <ele>680.59997558594</ele>
        <time>2012-07-28T04:01:26Z</time>
      </trkpt>
      <trkpt lat="45.55734" lon="6.65472">
        <ele>680.20001220703</ele>
        <time>2012-07-28T04:01:32Z</time>
      </trkpt>
      <trkpt lat="45.55736" lon="6.65501">
        <ele>679.79998779297</ele>
        <time>2012-07-28T04:01:38Z</time>
      </trkpt>
      <trkpt lat="45.55736" lon="6.65531">
        <ele>679.40002441406</ele>
        <time>2012-07-28T04:01:44Z</time>
      </trkpt>
      <trkpt lat="45.55733" lon="6.65561">
        <ele>679</ele>
        <time>2012-07-28T04:01:50Z</time>
      </trkpt>
      <trkpt lat="45.55727" lon="6.65585">
        <ele>678.59997558594</ele>
        <time>2012-07-28T04:01:55Z</time>
      </trkpt>
      <trkpt lat="45.55721" lon="6.6561">
        <ele>678.40002441406</ele>
        <time>2012-07-28T04:02:01Z</time>
      </trkpt>
      <trkpt lat="45.55713" lon="6.65637">
        <ele>677.79998779297</ele>
        <time>2012-07-28T04:02:07Z</time>
      </trkpt>
      <trkpt lat="45.557" lon="6.65656">
        <ele>677.59997558594</ele>
        <time>2012-07-28T04:02:13Z</time>
      </trkpt>
      <trkpt lat="45.55683" lon="6.65672">
        <ele>677.40002441406</ele>
        <time>2012-07-28T04:02:19Z</time>
      </trkpt>
      <trkpt lat="45.55672" lon="6.65694">
        <ele>677</ele>
        <time>2012-07-28T04:02:24Z</time>
      </trkpt>
      <trkpt lat="45.55668" lon="6.6572">
        <ele>676.79998779297</ele>
        <time>2012-07-28T04:02:29Z</time>
      </trkpt>
      <trkpt lat="45.55664" lon="6.65748">
        <ele>676.40002441406</ele>
        <time>2012-07-28T04:02:34Z</time>
      </trkpt>
      <trkpt lat="45.55661" lon="6.65774">
        <ele>676</ele>
        <time>2012-07-28T04:02:39Z</time>
      </trkpt>
      <trkpt lat="45.55657" lon="6.65801">
        <ele>675.59997558594</ele>
        <time>2012-07-28T04:02:44Z</time>
      </trkpt>
      <trkpt lat="45.55655" lon="6.65828">
        <ele>675.20001220703</ele>
        <time>2012-07-28T04:02:49Z</time>
      </trkpt>
      <trkpt lat="45.55653" lon="6.65854">
        <ele>674.79998779297</ele>
        <time>2012-07-28T04:02:54Z</time>
      </trkpt>
      <trkpt lat="45.55653" lon="6.65882">
        <ele>674.20001220703</ele>
        <time>2012-07-28T04:02:59Z</time>
      </trkpt>
      <trkpt lat="45.5565" lon="6.65908">
        <ele>673.59997558594</ele>
        <time>2012-07-28T04:03:04Z</time>
      </trkpt>
      <trkpt lat="45.55651" lon="6.65937">
        <ele>672.79998779297</ele>
        <time>2012-07-28T04:03:10Z</time>
      </trkpt>
      <trkpt lat="45.5565" lon="6.65968">
        <ele>671.79998779297</ele>
        <time>2012-07-28T04:03:16Z</time>
      </trkpt>
      <trkpt lat="45.55646" lon="6.65996">
        <ele>671</ele>
        <time>2012-07-28T04:03:22Z</time>
      </trkpt>
      <trkpt lat="45.5563" lon="6.6601">
        <ele>670.40002441406</ele>
        <time>2012-07-28T04:03:27Z</time>
      </trkpt>
      <trkpt lat="45.55613" lon="6.66025">
        <ele>670.20001220703</ele>
        <time>2012-07-28T04:03:32Z</time>
      </trkpt>
      <trkpt lat="45.55598" lon="6.6604">
        <ele>669.79998779297</ele>
        <time>2012-07-28T04:03:37Z</time>
      </trkpt>
      <trkpt lat="45.55585" lon="6.66063">
        <ele>669.59997558594</ele>
        <time>2012-07-28T04:03:42Z</time>
      </trkpt>
      <trkpt lat="45.55574" lon="6.66089">
        <ele>669.40002441406</ele>
        <time>2012-07-28T04:03:47Z</time>
      </trkpt>
      <trkpt lat="45.55567" lon="6.66108">
        <ele>669.20001220703</ele>
        <time>2012-07-28T04:03:51Z</time>
      </trkpt>
      <trkpt lat="45.55566" lon="6.66113">
        <ele>669.20001220703</ele>
        <time>2012-07-28T04:03:52Z</time>
      </trkpt>
      <trkpt lat="45.55556" lon="6.66135">
        <ele>669</ele>
        <time>2012-07-28T04:03:57Z</time>
      </trkpt>
      <trkpt lat="45.55554" lon="6.66139">
        <ele>669</ele>
        <time>2012-07-28T04:03:58Z</time>
      </trkpt>
      <trkpt lat="45.55542" lon="6.66154">
        <ele>668.79998779297</ele>
        <time>2012-07-28T04:04:03Z</time>
      </trkpt>
      <trkpt lat="45.55523" lon="6.66162">
        <ele>668.59997558594</ele>
        <time>2012-07-28T04:04:09Z</time>
      </trkpt>
      <trkpt lat="45.55504" lon="6.66157">
        <ele>668.59997558594</ele>
        <time>2012-07-28T04:04:15Z</time>
      </trkpt>
      <trkpt lat="45.55491" lon="6.66135">
        <ele>668.59997558594</ele>
        <time>2012-07-28T04:04:21Z</time>
      </trkpt>
      <trkpt lat="45.55484" lon="6.66109">
        <ele>668.59997558594</ele>
        <time>2012-07-28T04:04:27Z</time>
      </trkpt>
      <trkpt lat="45.55487" lon="6.66079">
        <ele>668.79998779297</ele>
        <time>2012-07-28T04:04:33Z</time>
      </trkpt>
      <trkpt lat="45.55492" lon="6.66052">
        <ele>669</ele>
        <time>2012-07-28T04:04:39Z</time>
      </trkpt>
      <trkpt lat="45.55491" lon="6.66048">
        <ele>669</ele>
        <time>2012-07-28T04:04:40Z</time>
      </trkpt>
      <trkpt lat="45.55487" lon="6.66027">
        <ele>669.20001220703</ele>
        <time>2012-07-28T04:04:44Z</time>
      </trkpt>
      <trkpt lat="45.55479" lon="6.66003">
        <ele>669.20001220703</ele>
        <time>2012-07-28T04:04:49Z</time>
      </trkpt>
      <trkpt lat="45.55471" lon="6.65977">
        <ele>669</ele>
        <time>2012-07-28T04:04:55Z</time>
      </trkpt>
      <trkpt lat="45.55465" lon="6.65953">
        <ele>669</ele>
        <time>2012-07-28T04:05:00Z</time>
      </trkpt>
      <trkpt lat="45.55459" lon="6.65925">
        <ele>668.79998779297</ele>
        <time>2012-07-28T04:05:06Z</time>
      </trkpt>
      <trkpt lat="45.55454" lon="6.65896">
        <ele>668.59997558594</ele>
        <time>2012-07-28T04:05:12Z</time>
      </trkpt>
      <trkpt lat="45.55449" lon="6.65867">
        <ele>668.59997558594</ele>
        <time>2012-07-28T04:05:18Z</time>
      </trkpt>
      <trkpt lat="45.55445" lon="6.65841">
        <ele>668.59997558594</ele>
        <time>2012-07-28T04:05:23Z</time>
      </trkpt>
      <trkpt lat="45.55442" lon="6.65813">
        <ele>668.59997558594</ele>
        <time>2012-07-28T04:05:29Z</time>
      </trkpt>
      <trkpt lat="45.55441" lon="6.65786">
        <ele>668.40002441406</ele>
        <time>2012-07-28T04:05:35Z</time>
      </trkpt>
      <trkpt lat="45.55436" lon="6.6576">
        <ele>668.40002441406</ele>
        <time>2012-07-28T04:05:41Z</time>
      </trkpt>
      <trkpt lat="45.55426" lon="6.65735">
        <ele>668.40002441406</ele>
        <time>2012-07-28T04:05:47Z</time>
      </trkpt>
      <trkpt lat="45.55411" lon="6.65721">
        <ele>669.20001220703</ele>
        <time>2012-07-28T04:05:53Z</time>
      </trkpt>
      <trkpt lat="45.55392" lon="6.65713">
        <ele>669.79998779297</ele>
        <time>2012-07-28T04:05:59Z</time>
      </trkpt>
      <trkpt lat="45.55377" lon="6.65697">
        <ele>670.40002441406</ele>
        <time>2012-07-28T04:06:05Z</time>
      </trkpt>
      <trkpt lat="45.55363" lon="6.65677">
        <ele>670.79998779297</ele>
        <time>2012-07-28T04:06:11Z</time>
      </trkpt>
      <trkpt lat="45.5535" lon="6.65655">
        <ele>671.20001220703</ele>
        <time>2012-07-28T04:06:17Z</time>
      </trkpt>
      <trkpt lat="45.55336" lon="6.65633">
        <ele>671.59997558594</ele>
        <time>2012-07-28T04:06:23Z</time>
      </trkpt>
      <trkpt lat="45.55322" lon="6.65613">
        <ele>671.59997558594</ele>
        <time>2012-07-28T04:06:29Z</time>
      </trkpt>
      <trkpt lat="45.55305" lon="6.65595">
        <ele>671.59997558594</ele>
        <time>2012-07-28T04:06:35Z</time>
      </trkpt>
      <trkpt lat="45.5529" lon="6.65576">
        <ele>671.59997558594</ele>
        <time>2012-07-28T04:06:41Z</time>
      </trkpt>
      <trkpt lat="45.55276" lon="6.65554">
        <ele>671.59997558594</ele>
        <time>2012-07-28T04:06:47Z</time>
      </trkpt>
      <trkpt lat="45.55266" lon="6.65528">
        <ele>671.59997558594</ele>
        <time>2012-07-28T04:06:53Z</time>
      </trkpt>
      <trkpt lat="45.55259" lon="6.65501">
        <ele>671.40002441406</ele>
        <time>2012-07-28T04:06:59Z</time>
      </trkpt>
      <trkpt lat="45.55252" lon="6.65474">
        <ele>671.40002441406</ele>
        <time>2012-07-28T04:07:05Z</time>
      </trkpt>
      <trkpt lat="45.55244" lon="6.65449">
        <ele>671.40002441406</ele>
        <time>2012-07-28T04:07:11Z</time>
      </trkpt>
      <trkpt lat="45.55231" lon="6.65427">
        <ele>671.59997558594</ele>
        <time>2012-07-28T04:07:17Z</time>
      </trkpt>
      <trkpt lat="45.55216" lon="6.65409">
        <ele>671.40002441406</ele>
        <time>2012-07-28T04:07:23Z</time>
      </trkpt>
      <trkpt lat="45.55202" lon="6.65392">
        <ele>671.40002441406</ele>
        <time>2012-07-28T04:07:28Z</time>
      </trkpt>
      <trkpt lat="45.5519" lon="6.65367">
        <ele>671.20001220703</ele>
        <time>2012-07-28T04:07:34Z</time>
      </trkpt>
      <trkpt lat="45.5518" lon="6.65341">
        <ele>671</ele>
        <time>2012-07-28T04:07:40Z</time>
      </trkpt>
      <trkpt lat="45.55172" lon="6.65319">
        <ele>670.59997558594</ele>
        <time>2012-07-28T04:07:45Z</time>
      </trkpt>
      <trkpt lat="45.55162" lon="6.65297">
        <ele>670.40002441406</ele>
        <time>2012-07-28T04:07:50Z</time>
      </trkpt>
      <trkpt lat="45.55151" lon="6.65271">
        <ele>670</ele>
        <time>2012-07-28T04:07:56Z</time>
      </trkpt>
      <trkpt lat="45.5514" lon="6.65246">
        <ele>669.59997558594</ele>
        <time>2012-07-28T04:08:02Z</time>
      </trkpt>
      <trkpt lat="45.55136" lon="6.65221">
        <ele>669.20001220703</ele>
        <time>2012-07-28T04:08:07Z</time>
      </trkpt>
      <trkpt lat="45.5514" lon="6.65195">
        <ele>669</ele>
        <time>2012-07-28T04:08:12Z</time>
      </trkpt>
      <trkpt lat="45.55141" lon="6.65167">
        <ele>668.59997558594</ele>
        <time>2012-07-28T04:08:18Z</time>
      </trkpt>
      <trkpt lat="45.55126" lon="6.65151">
        <ele>668.40002441406</ele>
        <time>2012-07-28T04:08:23Z</time>
      </trkpt>
      <trkpt lat="45.55111" lon="6.65138">
        <ele>668.20001220703</ele>
        <time>2012-07-28T04:08:28Z</time>
      </trkpt>
      <trkpt lat="45.55098" lon="6.65114">
        <ele>667.79998779297</ele>
        <time>2012-07-28T04:08:34Z</time>
      </trkpt>
      <trkpt lat="45.55092" lon="6.65085">
        <ele>667.59997558594</ele>
        <time>2012-07-28T04:08:40Z</time>
      </trkpt>
      <trkpt lat="45.55088" lon="6.65058">
        <ele>667.20001220703</ele>
        <time>2012-07-28T04:08:46Z</time>
      </trkpt>
      <trkpt lat="45.55084" lon="6.65028">
        <ele>667</ele>
        <time>2012-07-28T04:08:52Z</time>
      </trkpt>
      <trkpt lat="45.5508" lon="6.65003">
        <ele>666.59997558594</ele>
        <time>2012-07-28T04:08:57Z</time>
      </trkpt>
      <trkpt lat="45.55069" lon="6.64978">
        <ele>666.20001220703</ele>
        <time>2012-07-28T04:09:03Z</time>
      </trkpt>
      <trkpt lat="45.55051" lon="6.64962">
        <ele>665.79998779297</ele>
        <time>2012-07-28T04:09:09Z</time>
      </trkpt>
      <trkpt lat="45.55036" lon="6.64942">
        <ele>665.40002441406</ele>
        <time>2012-07-28T04:09:15Z</time>
      </trkpt>
      <trkpt lat="45.55027" lon="6.64915">
        <ele>665</ele>
        <time>2012-07-28T04:09:21Z</time>
      </trkpt>
      <trkpt lat="45.55019" lon="6.64892">
        <ele>664.59997558594</ele>
        <time>2012-07-28T04:09:26Z</time>
      </trkpt>
      <trkpt lat="45.5501" lon="6.64864">
        <ele>664.20001220703</ele>
        <time>2012-07-28T04:09:32Z</time>
      </trkpt>
      <trkpt lat="45.55003" lon="6.64836">
        <ele>663.79998779297</ele>
        <time>2012-07-28T04:09:38Z</time>
      </trkpt>
      <trkpt lat="45.54996" lon="6.64808">
        <ele>663.40002441406</ele>
        <time>2012-07-28T04:09:44Z</time>
      </trkpt>
      <trkpt lat="45.5499" lon="6.64775">
        <ele>663</ele>
        <time>2012-07-28T04:09:50Z</time>
      </trkpt>
      <trkpt lat="45.54984" lon="6.64748">
        <ele>662.59997558594</ele>
        <time>2012-07-28T04:09:56Z</time>
      </trkpt>
      <trkpt lat="45.54977" lon="6.6472">
        <ele>662.40002441406</ele>
        <time>2012-07-28T04:10:02Z</time>
      </trkpt>
      <trkpt lat="45.54976" lon="6.64693">
        <ele>662.20001220703</ele>
        <time>2012-07-28T04:10:07Z</time>
      </trkpt>
      <trkpt lat="45.54975" lon="6.64667">
        <ele>662.20001220703</ele>
        <time>2012-07-28T04:10:12Z</time>
      </trkpt>
      <trkpt lat="45.54976" lon="6.64638">
        <ele>663.20001220703</ele>
        <time>2012-07-28T04:10:18Z</time>
      </trkpt>
      <trkpt lat="45.54977" lon="6.6461">
        <ele>663.79998779297</ele>
        <time>2012-07-28T04:10:23Z</time>
      </trkpt>
      <trkpt lat="45.54977" lon="6.64583">
        <ele>664</ele>
        <time>2012-07-28T04:10:28Z</time>
      </trkpt>
      <trkpt lat="45.54974" lon="6.64555">
        <ele>663.79998779297</ele>
        <time>2012-07-28T04:10:34Z</time>
      </trkpt>
      <trkpt lat="45.5497" lon="6.64529">
        <ele>663.40002441406</ele>
        <time>2012-07-28T04:10:40Z</time>
      </trkpt>
      <trkpt lat="45.54966" lon="6.64506">
        <ele>663.20001220703</ele>
        <time>2012-07-28T04:10:46Z</time>
      </trkpt>
      <trkpt lat="45.54963" lon="6.64478">
        <ele>662.79998779297</ele>
        <time>2012-07-28T04:10:52Z</time>
      </trkpt>
      <trkpt lat="45.54966" lon="6.64445">
        <ele>662.59997558594</ele>
        <time>2012-07-28T04:10:58Z</time>
      </trkpt>
      <trkpt lat="45.54972" lon="6.64421">
        <ele>662.20001220703</ele>
        <time>2012-07-28T04:11:04Z</time>
      </trkpt>
      <trkpt lat="45.54969" lon="6.64391">
        <ele>661.79998779297</ele>
        <time>2012-07-28T04:11:10Z</time>
      </trkpt>
      <trkpt lat="45.54967" lon="6.64367">
        <ele>661.40002441406</ele>
        <time>2012-07-28T04:11:16Z</time>
      </trkpt>
      <trkpt lat="45.54964" lon="6.6434">
        <ele>661.20001220703</ele>
        <time>2012-07-28T04:11:22Z</time>
      </trkpt>
      <trkpt lat="45.54961" lon="6.6431">
        <ele>661</ele>
        <time>2012-07-28T04:11:28Z</time>
      </trkpt>
      <trkpt lat="45.54959" lon="6.64282">
        <ele>660.79998779297</ele>
        <time>2012-07-28T04:11:33Z</time>
      </trkpt>
      <trkpt lat="45.54959" lon="6.64253">
        <ele>660.59997558594</ele>
        <time>2012-07-28T04:11:39Z</time>
      </trkpt>
      <trkpt lat="45.54965" lon="6.64225">
        <ele>661.20001220703</ele>
        <time>2012-07-28T04:11:45Z</time>
      </trkpt>
      <trkpt lat="45.54963" lon="6.64202">
        <ele>661.20001220703</ele>
        <time>2012-07-28T04:11:51Z</time>
      </trkpt>
      <trkpt lat="45.54956" lon="6.6417">
        <ele>661</ele>
        <time>2012-07-28T04:11:57Z</time>
      </trkpt>
      <trkpt lat="45.54953" lon="6.64143">
        <ele>660.79998779297</ele>
        <time>2012-07-28T04:12:03Z</time>
      </trkpt>
      <trkpt lat="45.54952" lon="6.64119">
        <ele>660.79998779297</ele>
        <time>2012-07-28T04:12:09Z</time>
      </trkpt>
      <trkpt lat="45.54953" lon="6.64086">
        <ele>661.20001220703</ele>
        <time>2012-07-28T04:12:14Z</time>
      </trkpt>
      <trkpt lat="45.54957" lon="6.64071">
        <ele>661</ele>
        <time>2012-07-28T04:12:17Z</time>
      </trkpt>
      <trkpt lat="45.54963" lon="6.64065">
        <ele>661.20001220703</ele>
        <time>2012-07-28T04:12:19Z</time>
      </trkpt>
      <trkpt lat="45.54976" lon="6.64041">
        <ele>661</ele>
        <time>2012-07-28T04:12:25Z</time>
      </trkpt>
      <trkpt lat="45.54987" lon="6.6402">
        <ele>661</ele>
        <time>2012-07-28T04:12:31Z</time>
      </trkpt>
      <trkpt lat="45.54989" lon="6.6399">
        <ele>660.79998779297</ele>
        <time>2012-07-28T04:12:38Z</time>
      </trkpt>
      <trkpt lat="45.54986" lon="6.63965">
        <ele>660.40002441406</ele>
        <time>2012-07-28T04:12:43Z</time>
      </trkpt>
      <trkpt lat="45.54982" lon="6.63935">
        <ele>660.20001220703</ele>
        <time>2012-07-28T04:12:49Z</time>
      </trkpt>
      <trkpt lat="45.5498" lon="6.63906">
        <ele>660</ele>
        <time>2012-07-28T04:12:55Z</time>
      </trkpt>
      <trkpt lat="45.5498" lon="6.63878">
        <ele>661.20001220703</ele>
        <time>2012-07-28T04:13:01Z</time>
      </trkpt>
      <trkpt lat="45.54978" lon="6.63868">
        <ele>661.20001220703</ele>
        <time>2012-07-28T04:13:03Z</time>
      </trkpt>
      <trkpt lat="45.54976" lon="6.63853">
        <ele>661.59997558594</ele>
        <time>2012-07-28T04:13:06Z</time>
      </trkpt>
      <trkpt lat="45.54971" lon="6.63824">
        <ele>661.59997558594</ele>
        <time>2012-07-28T04:13:12Z</time>
      </trkpt>
      <trkpt lat="45.54966" lon="6.63799">
        <ele>661.59997558594</ele>
        <time>2012-07-28T04:13:17Z</time>
      </trkpt>
      <trkpt lat="45.54958" lon="6.63779">
        <ele>661.40002441406</ele>
        <time>2012-07-28T04:13:22Z</time>
      </trkpt>
      <trkpt lat="45.54956" lon="6.63775">
        <ele>661.20001220703</ele>
        <time>2012-07-28T04:13:23Z</time>
      </trkpt>
      <trkpt lat="45.54942" lon="6.63754">
        <ele>660.79998779297</ele>
        <time>2012-07-28T04:13:29Z</time>
      </trkpt>
      <trkpt lat="45.5493" lon="6.63733">
        <ele>660.59997558594</ele>
        <time>2012-07-28T04:13:34Z</time>
      </trkpt>
      <trkpt lat="45.54918" lon="6.6371">
        <ele>660.59997558594</ele>
        <time>2012-07-28T04:13:40Z</time>
      </trkpt>
      <trkpt lat="45.54908" lon="6.63692">
        <ele>660.40002441406</ele>
        <time>2012-07-28T04:13:46Z</time>
      </trkpt>
      <trkpt lat="45.54895" lon="6.63673">
        <ele>660.40002441406</ele>
        <time>2012-07-28T04:13:52Z</time>
      </trkpt>
      <trkpt lat="45.54879" lon="6.63652">
        <ele>660.40002441406</ele>
        <time>2012-07-28T04:13:57Z</time>
      </trkpt>
      <trkpt lat="45.54868" lon="6.63632">
        <ele>660.40002441406</ele>
        <time>2012-07-28T04:14:02Z</time>
      </trkpt>
      <trkpt lat="45.54859" lon="6.63609">
        <ele>660.40002441406</ele>
        <time>2012-07-28T04:14:08Z</time>
      </trkpt>
      <trkpt lat="45.54849" lon="6.63588">
        <ele>660.40002441406</ele>
        <time>2012-07-28T04:14:13Z</time>
      </trkpt>
      <trkpt lat="45.54847" lon="6.63585">
        <ele>660.40002441406</ele>
        <time>2012-07-28T04:14:14Z</time>
      </trkpt>
      <trkpt lat="45.54845" lon="6.63581">
        <ele>660.40002441406</ele>
        <time>2012-07-28T04:14:15Z</time>
      </trkpt>
      <trkpt lat="45.54839" lon="6.63557">
        <ele>660.20001220703</ele>
        <time>2012-07-28T04:14:20Z</time>
      </trkpt>
      <trkpt lat="45.54837" lon="6.63529">
        <ele>660.40002441406</ele>
        <time>2012-07-28T04:14:25Z</time>
      </trkpt>
      <trkpt lat="45.54843" lon="6.63505">
        <ele>660.79998779297</ele>
        <time>2012-07-28T04:14:30Z</time>
      </trkpt>
      <trkpt lat="45.54852" lon="6.6348">
        <ele>661</ele>
        <time>2012-07-28T04:14:36Z</time>
      </trkpt>
      <trkpt lat="45.54845" lon="6.63455">
        <ele>660.79998779297</ele>
        <time>2012-07-28T04:14:42Z</time>
      </trkpt>
      <trkpt lat="45.54829" lon="6.63437">
        <ele>660.20001220703</ele>
        <time>2012-07-28T04:14:48Z</time>
      </trkpt>
      <trkpt lat="45.54815" lon="6.63417">
        <ele>659.79998779297</ele>
        <time>2012-07-28T04:14:54Z</time>
      </trkpt>
      <trkpt lat="45.54799" lon="6.63396">
        <ele>659.40002441406</ele>
        <time>2012-07-28T04:15:00Z</time>
      </trkpt>
      <trkpt lat="45.54785" lon="6.63375">
        <ele>659.20001220703</ele>
        <time>2012-07-28T04:15:06Z</time>
      </trkpt>
      <trkpt lat="45.5477" lon="6.63355">
        <ele>659.20001220703</ele>
        <time>2012-07-28T04:15:12Z</time>
      </trkpt>
      <trkpt lat="45.54753" lon="6.63337">
        <ele>659</ele>
        <time>2012-07-28T04:15:18Z</time>
      </trkpt>
      <trkpt lat="45.54739" lon="6.63318">
        <ele>659.40002441406</ele>
        <time>2012-07-28T04:15:24Z</time>
      </trkpt>
      <trkpt lat="45.54722" lon="6.63305">
        <ele>660.40002441406</ele>
        <time>2012-07-28T04:15:30Z</time>
      </trkpt>
      <trkpt lat="45.54705" lon="6.63296">
        <ele>662.40002441406</ele>
        <time>2012-07-28T04:15:36Z</time>
      </trkpt>
      <trkpt lat="45.54687" lon="6.63284">
        <ele>665.20001220703</ele>
        <time>2012-07-28T04:15:43Z</time>
      </trkpt>
      <trkpt lat="45.54669" lon="6.63272">
        <ele>666.79998779297</ele>
        <time>2012-07-28T04:15:51Z</time>
      </trkpt>
      <trkpt lat="45.54658" lon="6.63251">
        <ele>668.40002441406</ele>
        <time>2012-07-28T04:15:59Z</time>
      </trkpt>
      <trkpt lat="45.54649" lon="6.63231">
        <ele>670.40002441406</ele>
        <time>2012-07-28T04:16:05Z</time>
      </trkpt>
      <trkpt lat="45.54647" lon="6.63229">
        <ele>670.59997558594</ele>
        <time>2012-07-28T04:16:06Z</time>
      </trkpt>
      <trkpt lat="45.54636" lon="6.63207">
        <ele>672.59997558594</ele>
        <time>2012-07-28T04:16:13Z</time>
      </trkpt>
      <trkpt lat="45.54622" lon="6.63188">
        <ele>673.59997558594</ele>
        <time>2012-07-28T04:16:21Z</time>
      </trkpt>
      <trkpt lat="45.54614" lon="6.63163">
        <ele>674.20001220703</ele>
        <time>2012-07-28T04:16:28Z</time>
      </trkpt>
      <trkpt lat="45.5461" lon="6.63138">
        <ele>675.20001220703</ele>
        <time>2012-07-28T04:16:36Z</time>
      </trkpt>
      <trkpt lat="45.54605" lon="6.63109">
        <ele>677.20001220703</ele>
        <time>2012-07-28T04:16:43Z</time>
      </trkpt>
      <trkpt lat="45.54602" lon="6.63099">
        <ele>677</ele>
        <time>2012-07-28T04:16:46Z</time>
      </trkpt>
      <trkpt lat="45.54602" lon="6.63082">
        <ele>678.40002441406</ele>
        <time>2012-07-28T04:16:51Z</time>
      </trkpt>
      <trkpt lat="45.54603" lon="6.63077">
        <ele>678.59997558594</ele>
        <time>2012-07-28T04:16:53Z</time>
      </trkpt>
      <trkpt lat="45.54602" lon="6.6307">
        <ele>679</ele>
        <time>2012-07-28T04:16:55Z</time>
      </trkpt>
      <trkpt lat="45.54596" lon="6.63056">
        <ele>679.40002441406</ele>
        <time>2012-07-28T04:16:58Z</time>
      </trkpt>
      <trkpt lat="45.54595" lon="6.63037">
        <ele>680.20001220703</ele>
        <time>2012-07-28T04:17:03Z</time>
      </trkpt>
      <trkpt lat="45.54593" lon="6.6303">
        <ele>680.59997558594</ele>
        <time>2012-07-28T04:17:05Z</time>
      </trkpt>
      <trkpt lat="45.54589" lon="6.63019">
        <ele>681</ele>
        <time>2012-07-28T04:17:08Z</time>
      </trkpt>
      <trkpt lat="45.54584" lon="6.63007">
        <ele>681.40002441406</ele>
        <time>2012-07-28T04:17:12Z</time>
      </trkpt>
      <trkpt lat="45.54577" lon="6.62982">
        <ele>682.59997558594</ele>
        <time>2012-07-28T04:17:20Z</time>
      </trkpt>
      <trkpt lat="45.54575" lon="6.62967">
        <ele>683.40002441406</ele>
        <time>2012-07-28T04:17:24Z</time>
      </trkpt>
      <trkpt lat="45.54573" lon="6.62954">
        <ele>684.20001220703</ele>
        <time>2012-07-28T04:17:27Z</time>
      </trkpt>
      <trkpt lat="45.54567" lon="6.62937">
        <ele>685.20001220703</ele>
        <time>2012-07-28T04:17:32Z</time>
      </trkpt>
      <trkpt lat="45.54564" lon="6.6293">
        <ele>685.40002441406</ele>
        <time>2012-07-28T04:17:34Z</time>
      </trkpt>
      <trkpt lat="45.54558" lon="6.62907">
        <ele>687.40002441406</ele>
        <time>2012-07-28T04:17:40Z</time>
      </trkpt>
      <trkpt lat="45.54552" lon="6.62879">
        <ele>689.40002441406</ele>
        <time>2012-07-28T04:17:48Z</time>
      </trkpt>
      <trkpt lat="45.54545" lon="6.62855">
        <ele>691</ele>
        <time>2012-07-28T04:17:55Z</time>
      </trkpt>
      <trkpt lat="45.54535" lon="6.62832">
        <ele>692.40002441406</ele>
        <time>2012-07-28T04:18:02Z</time>
      </trkpt>
      <trkpt lat="45.54527" lon="6.62808">
        <ele>694</ele>
        <time>2012-07-28T04:18:09Z</time>
      </trkpt>
      <trkpt lat="45.5452" lon="6.62786">
        <ele>694.59997558594</ele>
        <time>2012-07-28T04:18:17Z</time>
      </trkpt>
      <trkpt lat="45.54514" lon="6.62771">
        <ele>695.20001220703</ele>
        <time>2012-07-28T04:18:23Z</time>
      </trkpt>
      <trkpt lat="45.54511" lon="6.62763">
        <ele>696.20001220703</ele>
        <time>2012-07-28T04:18:26Z</time>
      </trkpt>
      <trkpt lat="45.54506" lon="6.62741">
        <ele>698</ele>
        <time>2012-07-28T04:18:33Z</time>
      </trkpt>
      <trkpt lat="45.54505" lon="6.62737">
        <ele>698.20001220703</ele>
        <time>2012-07-28T04:18:34Z</time>
      </trkpt>
      <trkpt lat="45.545" lon="6.62709">
        <ele>700</ele>
        <time>2012-07-28T04:18:41Z</time>
      </trkpt>
      <trkpt lat="45.54493" lon="6.62686">
        <ele>701.20001220703</ele>
        <time>2012-07-28T04:18:48Z</time>
      </trkpt>
      <trkpt lat="45.54485" lon="6.62663">
        <ele>702.59997558594</ele>
        <time>2012-07-28T04:18:55Z</time>
      </trkpt>
      <trkpt lat="45.54477" lon="6.62638">
        <ele>705</ele>
        <time>2012-07-28T04:19:03Z</time>
      </trkpt>
      <trkpt lat="45.54463" lon="6.62618">
        <ele>708.20001220703</ele>
        <time>2012-07-28T04:19:11Z</time>
      </trkpt>
      <trkpt lat="45.54459" lon="6.6259">
        <ele>712.59997558594</ele>
        <time>2012-07-28T04:19:19Z</time>
      </trkpt>
      <trkpt lat="45.54449" lon="6.62567">
        <ele>714.79998779297</ele>
        <time>2012-07-28T04:19:27Z</time>
      </trkpt>
      <trkpt lat="45.5444" lon="6.62542">
        <ele>716.59997558594</ele>
        <time>2012-07-28T04:19:35Z</time>
      </trkpt>
      <trkpt lat="45.54432" lon="6.62518">
        <ele>719.79998779297</ele>
        <time>2012-07-28T04:19:42Z</time>
      </trkpt>
      <trkpt lat="45.54425" lon="6.62494">
        <ele>722.59997558594</ele>
        <time>2012-07-28T04:19:51Z</time>
      </trkpt>
      <trkpt lat="45.54413" lon="6.62473">
        <ele>723.79998779297</ele>
        <time>2012-07-28T04:20:00Z</time>
      </trkpt>
      <trkpt lat="45.54406" lon="6.6246">
        <ele>724.20001220703</ele>
        <time>2012-07-28T04:20:06Z</time>
      </trkpt>
      <trkpt lat="45.54401" lon="6.62452">
        <ele>724.59997558594</ele>
        <time>2012-07-28T04:20:09Z</time>
      </trkpt>
      <trkpt lat="45.54391" lon="6.62428">
        <ele>726</ele>
        <time>2012-07-28T04:20:18Z</time>
      </trkpt>
      <trkpt lat="45.54385" lon="6.62406">
        <ele>727.59997558594</ele>
        <time>2012-07-28T04:20:26Z</time>
      </trkpt>
      <trkpt lat="45.54383" lon="6.62403">
        <ele>727.79998779297</ele>
        <time>2012-07-28T04:20:27Z</time>
      </trkpt>
      <trkpt lat="45.54376" lon="6.62375">
        <ele>729.40002441406</ele>
        <time>2012-07-28T04:20:35Z</time>
      </trkpt>
      <trkpt lat="45.54369" lon="6.6235">
        <ele>730.79998779297</ele>
        <time>2012-07-28T04:20:43Z</time>
      </trkpt>
      <trkpt lat="45.54361" lon="6.62323">
        <ele>731.79998779297</ele>
        <time>2012-07-28T04:20:51Z</time>
      </trkpt>
      <trkpt lat="45.54354" lon="6.62309">
        <ele>733.40002441406</ele>
        <time>2012-07-28T04:20:56Z</time>
      </trkpt>
      <trkpt lat="45.54352" lon="6.62299">
        <ele>734.40002441406</ele>
        <time>2012-07-28T04:20:59Z</time>
      </trkpt>
      <trkpt lat="45.54344" lon="6.62273">
        <ele>736.20001220703</ele>
        <time>2012-07-28T04:21:07Z</time>
      </trkpt>
      <trkpt lat="45.54335" lon="6.62247">
        <ele>737.59997558594</ele>
        <time>2012-07-28T04:21:16Z</time>
      </trkpt>
      <trkpt lat="45.54327" lon="6.62222">
        <ele>738.59997558594</ele>
        <time>2012-07-28T04:21:24Z</time>
      </trkpt>
      <trkpt lat="45.54319" lon="6.62197">
        <ele>741.40002441406</ele>
        <time>2012-07-28T04:21:31Z</time>
      </trkpt>
      <trkpt lat="45.54308" lon="6.62175">
        <ele>744.40002441406</ele>
        <time>2012-07-28T04:21:39Z</time>
      </trkpt>
      <trkpt lat="45.54303" lon="6.62158">
        <ele>745.79998779297</ele>
        <time>2012-07-28T04:21:45Z</time>
      </trkpt>
      <trkpt lat="45.543" lon="6.6215">
        <ele>746</ele>
        <time>2012-07-28T04:21:48Z</time>
      </trkpt>
      <trkpt lat="45.543" lon="6.62148">
        <ele>746.20001220703</ele>
        <time>2012-07-28T04:21:49Z</time>
      </trkpt>
      <trkpt lat="45.54288" lon="6.62128">
        <ele>747.79998779297</ele>
        <time>2012-07-28T04:21:56Z</time>
      </trkpt>
      <trkpt lat="45.54279" lon="6.62105">
        <ele>750.40002441406</ele>
        <time>2012-07-28T04:22:02Z</time>
      </trkpt>
      <trkpt lat="45.54268" lon="6.62082">
        <ele>751.79998779297</ele>
        <time>2012-07-28T04:22:10Z</time>
      </trkpt>
      <trkpt lat="45.54263" lon="6.62076">
        <ele>752.40002441406</ele>
        <time>2012-07-28T04:22:13Z</time>
      </trkpt>
      <trkpt lat="45.54253" lon="6.62067">
        <ele>752.20001220703</ele>
        <time>2012-07-28T04:22:18Z</time>
      </trkpt>
      <trkpt lat="45.54251" lon="6.62059">
        <ele>752.59997558594</ele>
        <time>2012-07-28T04:22:21Z</time>
      </trkpt>
      <trkpt lat="45.54244" lon="6.62043">
        <ele>753.40002441406</ele>
        <time>2012-07-28T04:22:27Z</time>
      </trkpt>
      <trkpt lat="45.54234" lon="6.62019">
        <ele>756.59997558594</ele>
        <time>2012-07-28T04:22:35Z</time>
      </trkpt>
      <trkpt lat="45.54225" lon="6.62">
        <ele>758.59997558594</ele>
        <time>2012-07-28T04:22:42Z</time>
      </trkpt>
      <trkpt lat="45.54224" lon="6.61997">
        <ele>758.79998779297</ele>
        <time>2012-07-28T04:22:43Z</time>
      </trkpt>
      <trkpt lat="45.54215" lon="6.61971">
        <ele>760.79998779297</ele>
        <time>2012-07-28T04:22:52Z</time>
      </trkpt>
      <trkpt lat="45.54212" lon="6.61963">
        <ele>761.59997558594</ele>
        <time>2012-07-28T04:22:55Z</time>
      </trkpt>
      <trkpt lat="45.54205" lon="6.61951">
        <ele>762.59997558594</ele>
        <time>2012-07-28T04:23:01Z</time>
      </trkpt>
      <trkpt lat="45.54195" lon="6.61928">
        <ele>765.20001220703</ele>
        <time>2012-07-28T04:23:09Z</time>
      </trkpt>
      <trkpt lat="45.54184" lon="6.61909">
        <ele>768.20001220703</ele>
        <time>2012-07-28T04:23:18Z</time>
      </trkpt>
      <trkpt lat="45.54183" lon="6.61906">
        <ele>768.40002441406</ele>
        <time>2012-07-28T04:23:19Z</time>
      </trkpt>
      <trkpt lat="45.54176" lon="6.61895">
        <ele>770.20001220703</ele>
        <time>2012-07-28T04:23:24Z</time>
      </trkpt>
      <trkpt lat="45.54171" lon="6.61886">
        <ele>771.59997558594</ele>
        <time>2012-07-28T04:23:28Z</time>
      </trkpt>
      <trkpt lat="45.54157" lon="6.61869">
        <ele>774</ele>
        <time>2012-07-28T04:23:37Z</time>
      </trkpt>
      <trkpt lat="45.54148" lon="6.61844">
        <ele>777.79998779297</ele>
        <time>2012-07-28T04:23:46Z</time>
      </trkpt>
      <trkpt lat="45.54141" lon="6.6182">
        <ele>782.20001220703</ele>
        <time>2012-07-28T04:23:57Z</time>
      </trkpt>
      <trkpt lat="45.54137" lon="6.61815">
        <ele>783</ele>
        <time>2012-07-28T04:24:00Z</time>
      </trkpt>
      <trkpt lat="45.54136" lon="6.61826">
        <ele>784.59997558594</ele>
        <time>2012-07-28T04:24:06Z</time>
      </trkpt>
      <trkpt lat="45.54137" lon="6.61832">
        <ele>784.79998779297</ele>
        <time>2012-07-28T04:24:08Z</time>
      </trkpt>
      <trkpt lat="45.54137" lon="6.61842">
        <ele>785.59997558594</ele>
        <time>2012-07-28T04:24:11Z</time>
      </trkpt>
      <trkpt lat="45.54139" lon="6.61859">
        <ele>786.59997558594</ele>
        <time>2012-07-28T04:24:16Z</time>
      </trkpt>
      <trkpt lat="45.54143" lon="6.61871">
        <ele>787.59997558594</ele>
        <time>2012-07-28T04:24:20Z</time>
      </trkpt>
      <trkpt lat="45.54144" lon="6.61885">
        <ele>788.40002441406</ele>
        <time>2012-07-28T04:24:25Z</time>
      </trkpt>
      <trkpt lat="45.54155" lon="6.61909">
        <ele>791</ele>
        <time>2012-07-28T04:24:34Z</time>
      </trkpt>
      <trkpt lat="45.54156" lon="6.61914">
        <ele>791.40002441406</ele>
        <time>2012-07-28T04:24:36Z</time>
      </trkpt>
      <trkpt lat="45.54147" lon="6.61918">
        <ele>792.79998779297</ele>
        <time>2012-07-28T04:24:43Z</time>
      </trkpt>
      <trkpt lat="45.54143" lon="6.61904">
        <ele>794.20001220703</ele>
        <time>2012-07-28T04:24:47Z</time>
      </trkpt>
      <trkpt lat="45.54137" lon="6.61891">
        <ele>795.59997558594</ele>
        <time>2012-07-28T04:24:51Z</time>
      </trkpt>
      <trkpt lat="45.54124" lon="6.61869">
        <ele>798.59997558594</ele>
        <time>2012-07-28T04:24:59Z</time>
      </trkpt>
      <trkpt lat="45.54121" lon="6.61859">
        <ele>800.20001220703</ele>
        <time>2012-07-28T04:25:02Z</time>
      </trkpt>
      <trkpt lat="45.54114" lon="6.61847">
        <ele>802</ele>
        <time>2012-07-28T04:25:06Z</time>
      </trkpt>
      <trkpt lat="45.54103" lon="6.61826">
        <ele>805.59997558594</ele>
        <time>2012-07-28T04:25:14Z</time>
      </trkpt>
      <trkpt lat="45.54099" lon="6.6182">
        <ele>806.79998779297</ele>
        <time>2012-07-28T04:25:17Z</time>
      </trkpt>
      <trkpt lat="45.54094" lon="6.61808">
        <ele>808</ele>
        <time>2012-07-28T04:25:22Z</time>
      </trkpt>
      <trkpt lat="45.54093" lon="6.61805">
        <ele>808.59997558594</ele>
        <time>2012-07-28T04:25:23Z</time>
      </trkpt>
      <trkpt lat="45.54083" lon="6.61789">
        <ele>810</ele>
        <time>2012-07-28T04:25:29Z</time>
      </trkpt>
      <trkpt lat="45.54081" lon="6.61786">
        <ele>810.20001220703</ele>
        <time>2012-07-28T04:25:30Z</time>
      </trkpt>
      <trkpt lat="45.54078" lon="6.6178">
        <ele>810.79998779297</ele>
        <time>2012-07-28T04:25:32Z</time>
      </trkpt>
      <trkpt lat="45.54071" lon="6.61764">
        <ele>811.59997558594</ele>
        <time>2012-07-28T04:25:38Z</time>
      </trkpt>
      <trkpt lat="45.54064" lon="6.61739">
        <ele>813.20001220703</ele>
        <time>2012-07-28T04:25:46Z</time>
      </trkpt>
      <trkpt lat="45.54054" lon="6.61715">
        <ele>813.40002441406</ele>
        <time>2012-07-28T04:25:55Z</time>
      </trkpt>
      <trkpt lat="45.54052" lon="6.617">
        <ele>813.59997558594</ele>
        <time>2012-07-28T04:25:59Z</time>
      </trkpt>
      <trkpt lat="45.54049" lon="6.6169">
        <ele>813.79998779297</ele>
        <time>2012-07-28T04:26:02Z</time>
      </trkpt>
      <trkpt lat="45.54042" lon="6.61666">
        <ele>814.40002441406</ele>
        <time>2012-07-28T04:26:09Z</time>
      </trkpt>
      <trkpt lat="45.54034" lon="6.61639">
        <ele>815</ele>
        <time>2012-07-28T04:26:17Z</time>
      </trkpt>
      <trkpt lat="45.54025" lon="6.61616">
        <ele>816.20001220703</ele>
        <time>2012-07-28T04:26:25Z</time>
      </trkpt>
      <trkpt lat="45.54013" lon="6.61595">
        <ele>818</ele>
        <time>2012-07-28T04:26:33Z</time>
      </trkpt>
      <trkpt lat="45.53996" lon="6.61581">
        <ele>820</ele>
        <time>2012-07-28T04:26:41Z</time>
      </trkpt>
      <trkpt lat="45.53983" lon="6.6157">
        <ele>822</ele>
        <time>2012-07-28T04:26:48Z</time>
      </trkpt>
      <trkpt lat="45.53981" lon="6.61567">
        <ele>822.40002441406</ele>
        <time>2012-07-28T04:26:49Z</time>
      </trkpt>
      <trkpt lat="45.53968" lon="6.61559">
        <ele>824</ele>
        <time>2012-07-28T04:26:55Z</time>
      </trkpt>
      <trkpt lat="45.53963" lon="6.61555">
        <ele>824.59997558594</ele>
        <time>2012-07-28T04:26:57Z</time>
      </trkpt>
      <trkpt lat="45.53949" lon="6.61539">
        <ele>826.79998779297</ele>
        <time>2012-07-28T04:27:05Z</time>
      </trkpt>
      <trkpt lat="45.53933" lon="6.61526">
        <ele>829</ele>
        <time>2012-07-28T04:27:13Z</time>
      </trkpt>
      <trkpt lat="45.53917" lon="6.61512">
        <ele>830.79998779297</ele>
        <time>2012-07-28T04:27:21Z</time>
      </trkpt>
      <trkpt lat="45.53915" lon="6.6151">
        <ele>831.20001220703</ele>
        <time>2012-07-28T04:27:22Z</time>
      </trkpt>
      <trkpt lat="45.539" lon="6.61499">
        <ele>833.40002441406</ele>
        <time>2012-07-28T04:27:29Z</time>
      </trkpt>
      <trkpt lat="45.53892" lon="6.61496">
        <ele>834.20001220703</ele>
        <time>2012-07-28T04:27:32Z</time>
      </trkpt>
      <trkpt lat="45.53882" lon="6.61495">
        <ele>835.20001220703</ele>
        <time>2012-07-28T04:27:36Z</time>
      </trkpt>
      <trkpt lat="45.53864" lon="6.61487">
        <ele>837.20001220703</ele>
        <time>2012-07-28T04:27:43Z</time>
      </trkpt>
      <trkpt lat="45.53848" lon="6.61472">
        <ele>838.40002441406</ele>
        <time>2012-07-28T04:27:51Z</time>
      </trkpt>
      <trkpt lat="45.53836" lon="6.61452">
        <ele>840</ele>
        <time>2012-07-28T04:27:59Z</time>
      </trkpt>
      <trkpt lat="45.53822" lon="6.61433">
        <ele>841.59997558594</ele>
        <time>2012-07-28T04:28:08Z</time>
      </trkpt>
      <trkpt lat="45.53817" lon="6.61429">
        <ele>842</ele>
        <time>2012-07-28T04:28:11Z</time>
      </trkpt>
      <trkpt lat="45.53815" lon="6.61431">
        <ele>842.79998779297</ele>
        <time>2012-07-28T04:28:15Z</time>
      </trkpt>
      <trkpt lat="45.53813" lon="6.61438">
        <ele>843.20001220703</ele>
        <time>2012-07-28T04:28:20Z</time>
      </trkpt>
      <trkpt lat="45.53813" lon="6.61442">
        <ele>843.40002441406</ele>
        <time>2012-07-28T04:28:23Z</time>
      </trkpt>
      <trkpt lat="45.53814" lon="6.61444">
        <ele>843.40002441406</ele>
        <time>2012-07-28T04:28:25Z</time>
      </trkpt>
      <trkpt lat="45.53815" lon="6.61459">
        <ele>844.40002441406</ele>
        <time>2012-07-28T04:28:34Z</time>
      </trkpt>
      <trkpt lat="45.53819" lon="6.61472">
        <ele>846.79998779297</ele>
        <time>2012-07-28T04:28:42Z</time>
      </trkpt>
      <trkpt lat="45.53819" lon="6.61473">
        <ele>847.40002441406</ele>
        <time>2012-07-28T04:28:43Z</time>
      </trkpt>
      <trkpt lat="45.53822" lon="6.61486">
        <ele>851.40002441406</ele>
        <time>2012-07-28T04:28:51Z</time>
      </trkpt>
      <trkpt lat="45.53823" lon="6.61492">
        <ele>855.79998779297</ele>
        <time>2012-07-28T04:28:57Z</time>
      </trkpt>
      <trkpt lat="45.53828" lon="6.61493">
        <ele>857.59997558594</ele>
        <time>2012-07-28T04:28:59Z</time>
      </trkpt>
      <trkpt lat="45.53827" lon="6.61502">
        <ele>860.40002441406</ele>
        <time>2012-07-28T04:29:04Z</time>
      </trkpt>
      <trkpt lat="45.5383" lon="6.61512">
        <ele>866</ele>
        <time>2012-07-28T04:29:12Z</time>
      </trkpt>
      <trkpt lat="45.53831" lon="6.61523">
        <ele>871.20001220703</ele>
        <time>2012-07-28T04:29:19Z</time>
      </trkpt>
      <trkpt lat="45.53832" lon="6.61525">
        <ele>872</ele>
        <time>2012-07-28T04:29:20Z</time>
      </trkpt>
      <trkpt lat="45.53834" lon="6.61526">
        <ele>873.20001220703</ele>
        <time>2012-07-28T04:29:22Z</time>
      </trkpt>
      <trkpt lat="45.53835" lon="6.61536">
        <ele>876.20001220703</ele>
        <time>2012-07-28T04:29:28Z</time>
      </trkpt>
      <trkpt lat="45.53837" lon="6.61543">
        <ele>878.40002441406</ele>
        <time>2012-07-28T04:29:33Z</time>
      </trkpt>
      <trkpt lat="45.53838" lon="6.61547">
        <ele>879.20001220703</ele>
        <time>2012-07-28T04:29:35Z</time>
      </trkpt>
      <trkpt lat="45.53848" lon="6.61569">
        <ele>879</ele>
        <time>2012-07-28T04:29:44Z</time>
      </trkpt>
      <trkpt lat="45.53857" lon="6.61586">
        <ele>878.40002441406</ele>
        <time>2012-07-28T04:29:54Z</time>
      </trkpt>
      <trkpt lat="45.53859" lon="6.61591">
        <ele>878.59997558594</ele>
        <time>2012-07-28T04:29:56Z</time>
      </trkpt>
      <trkpt lat="45.53861" lon="6.61599">
        <ele>878.59997558594</ele>
        <time>2012-07-28T04:30:00Z</time>
      </trkpt>
      <trkpt lat="45.53865" lon="6.61616">
        <ele>880.40002441406</ele>
        <time>2012-07-28T04:30:11Z</time>
      </trkpt>
      <trkpt lat="45.53874" lon="6.61633">
        <ele>882.79998779297</ele>
        <time>2012-07-28T04:30:22Z</time>
      </trkpt>
      <trkpt lat="45.53876" lon="6.61638">
        <ele>883.40002441406</ele>
        <time>2012-07-28T04:30:25Z</time>
      </trkpt>
      <trkpt lat="45.53877" lon="6.6164">
        <ele>883.79998779297</ele>
        <time>2012-07-28T04:30:26Z</time>
      </trkpt>
      <trkpt lat="45.53885" lon="6.61661">
        <ele>887.40002441406</ele>
        <time>2012-07-28T04:30:41Z</time>
      </trkpt>
      <trkpt lat="45.53887" lon="6.61667">
        <ele>887.79998779297</ele>
        <time>2012-07-28T04:30:45Z</time>
      </trkpt>
      <trkpt lat="45.53886" lon="6.61668">
        <ele>888</ele>
        <time>2012-07-28T04:30:46Z</time>
      </trkpt>
      <trkpt lat="45.53885" lon="6.61668">
        <ele>888.40002441406</ele>
        <time>2012-07-28T04:30:48Z</time>
      </trkpt>
      <trkpt lat="45.53881" lon="6.61665">
        <ele>888.59997558594</ele>
        <time>2012-07-28T04:30:51Z</time>
      </trkpt>
      <trkpt lat="45.53874" lon="6.61665">
        <ele>889.40002441406</ele>
        <time>2012-07-28T04:30:59Z</time>
      </trkpt>
      <trkpt lat="45.53865" lon="6.61659">
        <ele>891.40002441406</ele>
        <time>2012-07-28T04:31:06Z</time>
      </trkpt>
      <trkpt lat="45.53858" lon="6.61652">
        <ele>892.79998779297</ele>
        <time>2012-07-28T04:31:14Z</time>
      </trkpt>
      <trkpt lat="45.53857" lon="6.61651">
        <ele>892.79998779297</ele>
        <time>2012-07-28T04:31:15Z</time>
      </trkpt>
      <trkpt lat="45.53857" lon="6.61649">
        <ele>893</ele>
        <time>2012-07-28T04:31:17Z</time>
      </trkpt>
      <trkpt lat="45.53849" lon="6.61643">
        <ele>893</ele>
        <time>2012-07-28T04:31:25Z</time>
      </trkpt>
      <trkpt lat="45.53845" lon="6.61634">
        <ele>894.40002441406</ele>
        <time>2012-07-28T04:31:31Z</time>
      </trkpt>
      <trkpt lat="45.53836" lon="6.61628">
        <ele>897</ele>
        <time>2012-07-28T04:31:40Z</time>
      </trkpt>
      <trkpt lat="45.53828" lon="6.61623">
        <ele>900.40002441406</ele>
        <time>2012-07-28T04:31:47Z</time>
      </trkpt>
      <trkpt lat="45.53823" lon="6.61621">
        <ele>902</ele>
        <time>2012-07-28T04:31:51Z</time>
      </trkpt>
      <trkpt lat="45.53823" lon="6.61617">
        <ele>903.20001220703</ele>
        <time>2012-07-28T04:31:54Z</time>
      </trkpt>
      <trkpt lat="45.53815" lon="6.61604">
        <ele>905.79998779297</ele>
        <time>2012-07-28T04:32:04Z</time>
      </trkpt>
      <trkpt lat="45.53806" lon="6.61588">
        <ele>909.79998779297</ele>
        <time>2012-07-28T04:32:15Z</time>
      </trkpt>
      <trkpt lat="45.53802" lon="6.61586">
        <ele>910.79998779297</ele>
        <time>2012-07-28T04:32:18Z</time>
      </trkpt>
      <trkpt lat="45.53801" lon="6.61586">
        <ele>911.40002441406</ele>
        <time>2012-07-28T04:32:19Z</time>
      </trkpt>
      <trkpt lat="45.53794" lon="6.61585">
        <ele>913.20001220703</ele>
        <time>2012-07-28T04:32:26Z</time>
      </trkpt>
      <trkpt lat="45.53785" lon="6.61585">
        <ele>914.40002441406</ele>
        <time>2012-07-28T04:32:32Z</time>
      </trkpt>
      <trkpt lat="45.53774" lon="6.61587">
        <ele>919.20001220703</ele>
        <time>2012-07-28T04:32:44Z</time>
      </trkpt>
      <trkpt lat="45.53766" lon="6.61588">
        <ele>919.79998779297</ele>
        <time>2012-07-28T04:32:48Z</time>
      </trkpt>
      <trkpt lat="45.53758" lon="6.6159">
        <ele>920.20001220703</ele>
        <time>2012-07-28T04:32:54Z</time>
      </trkpt>
      <trkpt lat="45.53747" lon="6.61599">
        <ele>921.40002441406</ele>
        <time>2012-07-28T04:33:05Z</time>
      </trkpt>
      <trkpt lat="45.53729" lon="6.61598">
        <ele>921.79998779297</ele>
        <time>2012-07-28T04:33:18Z</time>
      </trkpt>
      <trkpt lat="45.53727" lon="6.61595">
        <ele>922.40002441406</ele>
        <time>2012-07-28T04:33:21Z</time>
      </trkpt>
      <trkpt lat="45.53719" lon="6.6159">
        <ele>924.59997558594</ele>
        <time>2012-07-28T04:33:30Z</time>
      </trkpt>
      <trkpt lat="45.53716" lon="6.61587">
        <ele>925.59997558594</ele>
        <time>2012-07-28T04:33:34Z</time>
      </trkpt>
      <trkpt lat="45.53713" lon="6.61585">
        <ele>926.20001220703</ele>
        <time>2012-07-28T04:33:37Z</time>
      </trkpt>
      <trkpt lat="45.53695" lon="6.61584">
        <ele>929.79998779297</ele>
        <time>2012-07-28T04:33:52Z</time>
      </trkpt>
      <trkpt lat="45.53693" lon="6.61583">
        <ele>930.59997558594</ele>
        <time>2012-07-28T04:33:54Z</time>
      </trkpt>
      <trkpt lat="45.53689" lon="6.61584">
        <ele>932.20001220703</ele>
        <time>2012-07-28T04:33:58Z</time>
      </trkpt>
      <trkpt lat="45.53681" lon="6.61582">
        <ele>934.20001220703</ele>
        <time>2012-07-28T04:34:05Z</time>
      </trkpt>
      <trkpt lat="45.53676" lon="6.61583">
        <ele>935</ele>
        <time>2012-07-28T04:34:09Z</time>
      </trkpt>
      <trkpt lat="45.53662" lon="6.61589">
        <ele>938</ele>
        <time>2012-07-28T04:34:20Z</time>
      </trkpt>
      <trkpt lat="45.5366" lon="6.61589">
        <ele>939.40002441406</ele>
        <time>2012-07-28T04:34:23Z</time>
      </trkpt>
      <trkpt lat="45.53658" lon="6.61588">
        <ele>940</ele>
        <time>2012-07-28T04:34:24Z</time>
      </trkpt>
      <trkpt lat="45.5365" lon="6.61587">
        <ele>941.59997558594</ele>
        <time>2012-07-28T04:34:29Z</time>
      </trkpt>
      <trkpt lat="45.5364" lon="6.61588">
        <ele>943.20001220703</ele>
        <time>2012-07-28T04:34:36Z</time>
      </trkpt>
      <trkpt lat="45.53633" lon="6.61588">
        <ele>944.40002441406</ele>
        <time>2012-07-28T04:34:42Z</time>
      </trkpt>
      <trkpt lat="45.53628" lon="6.61579">
        <ele>946.40002441406</ele>
        <time>2012-07-28T04:34:48Z</time>
      </trkpt>
      <trkpt lat="45.53623" lon="6.61576">
        <ele>947.59997558594</ele>
        <time>2012-07-28T04:34:53Z</time>
      </trkpt>
      <trkpt lat="45.53617" lon="6.61576">
        <ele>947.59997558594</ele>
        <time>2012-07-28T04:34:56Z</time>
      </trkpt>
      <trkpt lat="45.53613" lon="6.61574">
        <ele>948</ele>
        <time>2012-07-28T04:34:59Z</time>
      </trkpt>
      <trkpt lat="45.53608" lon="6.61571">
        <ele>948.40002441406</ele>
        <time>2012-07-28T04:35:03Z</time>
      </trkpt>
      <trkpt lat="45.53608" lon="6.61575">
        <ele>948.59997558594</ele>
        <time>2012-07-28T04:35:06Z</time>
      </trkpt>
      <trkpt lat="45.53608" lon="6.61577">
        <ele>948.59997558594</ele>
        <time>2012-07-28T04:35:07Z</time>
      </trkpt>
      <trkpt lat="45.53616" lon="6.61584">
        <ele>949.20001220703</ele>
        <time>2012-07-28T04:35:13Z</time>
      </trkpt>
      <trkpt lat="45.53624" lon="6.61593">
        <ele>951</ele>
        <time>2012-07-28T04:35:18Z</time>
      </trkpt>
      <trkpt lat="45.53628" lon="6.616">
        <ele>952.40002441406</ele>
        <time>2012-07-28T04:35:21Z</time>
      </trkpt>
      <trkpt lat="45.53635" lon="6.61612">
        <ele>955.59997558594</ele>
        <time>2012-07-28T04:35:28Z</time>
      </trkpt>
      <trkpt lat="45.53637" lon="6.61614">
        <ele>957.20001220703</ele>
        <time>2012-07-28T04:35:30Z</time>
      </trkpt>
      <trkpt lat="45.53645" lon="6.61624">
        <ele>962</ele>
        <time>2012-07-28T04:35:36Z</time>
      </trkpt>
      <trkpt lat="45.53646" lon="6.61626">
        <ele>962.79998779297</ele>
        <time>2012-07-28T04:35:37Z</time>
      </trkpt>
      <trkpt lat="45.53654" lon="6.61631">
        <ele>965</ele>
        <time>2012-07-28T04:35:40Z</time>
      </trkpt>
      <trkpt lat="45.53658" lon="6.61638">
        <ele>968</ele>
        <time>2012-07-28T04:35:44Z</time>
      </trkpt>
      <trkpt lat="45.53667" lon="6.61651">
        <ele>973.20001220703</ele>
        <time>2012-07-28T04:35:54Z</time>
      </trkpt>
      <trkpt lat="45.53671" lon="6.61654">
        <ele>974.20001220703</ele>
        <time>2012-07-28T04:35:56Z</time>
      </trkpt>
      <trkpt lat="45.53679" lon="6.61656">
        <ele>977.20001220703</ele>
        <time>2012-07-28T04:36:02Z</time>
      </trkpt>
      <trkpt lat="45.53681" lon="6.61657">
        <ele>978.40002441406</ele>
        <time>2012-07-28T04:36:04Z</time>
      </trkpt>
      <trkpt lat="45.53685" lon="6.61659">
        <ele>980</ele>
        <time>2012-07-28T04:36:08Z</time>
      </trkpt>
      <trkpt lat="45.53687" lon="6.6166">
        <ele>980.20001220703</ele>
        <time>2012-07-28T04:36:09Z</time>
      </trkpt>
      <trkpt lat="45.53695" lon="6.61668">
        <ele>985.59997558594</ele>
        <time>2012-07-28T04:36:20Z</time>
      </trkpt>
      <trkpt lat="45.53702" lon="6.61675">
        <ele>988.79998779297</ele>
        <time>2012-07-28T04:36:26Z</time>
      </trkpt>
      <trkpt lat="45.53706" lon="6.61684">
        <ele>992.20001220703</ele>
        <time>2012-07-28T04:36:31Z</time>
      </trkpt>
      <trkpt lat="45.53703" lon="6.6169">
        <ele>994</ele>
        <time>2012-07-28T04:36:34Z</time>
      </trkpt>
      <trkpt lat="45.53699" lon="6.61692">
        <ele>995.20001220703</ele>
        <time>2012-07-28T04:36:37Z</time>
      </trkpt>
      <trkpt lat="45.53696" lon="6.61695">
        <ele>996.59997558594</ele>
        <time>2012-07-28T04:36:40Z</time>
      </trkpt>
      <trkpt lat="45.5369" lon="6.61702">
        <ele>997.40002441406</ele>
        <time>2012-07-28T04:36:44Z</time>
      </trkpt>
      <trkpt lat="45.53688" lon="6.61704">
        <ele>997.20001220703</ele>
        <time>2012-07-28T04:36:46Z</time>
      </trkpt>
      <trkpt lat="45.53686" lon="6.61708">
        <ele>997.40002441406</ele>
        <time>2012-07-28T04:36:50Z</time>
      </trkpt>
      <trkpt lat="45.53689" lon="6.61713">
        <ele>997.79998779297</ele>
        <time>2012-07-28T04:36:53Z</time>
      </trkpt>
      <trkpt lat="45.53689" lon="6.61714">
        <ele>997.59997558594</ele>
        <time>2012-07-28T04:36:54Z</time>
      </trkpt>
      <trkpt lat="45.53691" lon="6.61715">
        <ele>997.59997558594</ele>
        <time>2012-07-28T04:36:55Z</time>
      </trkpt>
      <trkpt lat="45.53696" lon="6.61717">
        <ele>997.79998779297</ele>
        <time>2012-07-28T04:36:59Z</time>
      </trkpt>
      <trkpt lat="45.53704" lon="6.6173">
        <ele>997.59997558594</ele>
        <time>2012-07-28T04:37:07Z</time>
      </trkpt>
      <trkpt lat="45.53706" lon="6.61731">
        <ele>997.79998779297</ele>
        <time>2012-07-28T04:37:08Z</time>
      </trkpt>
      <trkpt lat="45.53711" lon="6.61736">
        <ele>999.59997558594</ele>
        <time>2012-07-28T04:37:14Z</time>
      </trkpt>
      <trkpt lat="45.53714" lon="6.61743">
        <ele>1001.799987793</ele>
        <time>2012-07-28T04:37:19Z</time>
      </trkpt>
      <trkpt lat="45.53718" lon="6.61749">
        <ele>1003.4000244141</ele>
        <time>2012-07-28T04:37:24Z</time>
      </trkpt>
      <trkpt lat="45.53719" lon="6.61751">
        <ele>1003.5999755859</ele>
        <time>2012-07-28T04:37:25Z</time>
      </trkpt>
      <trkpt lat="45.53721" lon="6.61759">
        <ele>1005.4000244141</ele>
        <time>2012-07-28T04:37:30Z</time>
      </trkpt>
      <trkpt lat="45.53722" lon="6.61759">
        <ele>1005.799987793</ele>
        <time>2012-07-28T04:37:31Z</time>
      </trkpt>
      <trkpt lat="45.53727" lon="6.61763">
        <ele>1008</ele>
        <time>2012-07-28T04:37:35Z</time>
      </trkpt>
      <trkpt lat="45.53728" lon="6.61764">
        <ele>1008.4000244141</ele>
        <time>2012-07-28T04:37:36Z</time>
      </trkpt>
      <trkpt lat="45.53727" lon="6.61767">
        <ele>1009.5999755859</ele>
        <time>2012-07-28T04:37:38Z</time>
      </trkpt>
      <trkpt lat="45.53727" lon="6.61773">
        <ele>1011</ele>
        <time>2012-07-28T04:37:41Z</time>
      </trkpt>
      <trkpt lat="45.53724" lon="6.61774">
        <ele>1011</ele>
        <time>2012-07-28T04:37:42Z</time>
      </trkpt>
      <trkpt lat="45.53716" lon="6.61775">
        <ele>1012</ele>
        <time>2012-07-28T04:37:47Z</time>
      </trkpt>
      <trkpt lat="45.53711" lon="6.61772">
        <ele>1013.4000244141</ele>
        <time>2012-07-28T04:37:51Z</time>
      </trkpt>
      <trkpt lat="45.53707" lon="6.61773">
        <ele>1013.5999755859</ele>
        <time>2012-07-28T04:37:54Z</time>
      </trkpt>
      <trkpt lat="45.53706" lon="6.61773">
        <ele>1013.799987793</ele>
        <time>2012-07-28T04:37:55Z</time>
      </trkpt>
      <trkpt lat="45.5369" lon="6.61781">
        <ele>1016.200012207</ele>
        <time>2012-07-28T04:38:04Z</time>
      </trkpt>
      <trkpt lat="45.53687" lon="6.61779">
        <ele>1016.799987793</ele>
        <time>2012-07-28T04:38:07Z</time>
      </trkpt>
      <trkpt lat="45.53682" lon="6.61783">
        <ele>1017.200012207</ele>
        <time>2012-07-28T04:38:13Z</time>
      </trkpt>
      <trkpt lat="45.5369" lon="6.61791">
        <ele>1018.4000244141</ele>
        <time>2012-07-28T04:38:20Z</time>
      </trkpt>
      <trkpt lat="45.53691" lon="6.61792">
        <ele>1018.200012207</ele>
        <time>2012-07-28T04:38:21Z</time>
      </trkpt>
      <trkpt lat="45.53696" lon="6.61798">
        <ele>1019.4000244141</ele>
        <time>2012-07-28T04:38:26Z</time>
      </trkpt>
      <trkpt lat="45.53696" lon="6.61799">
        <ele>1019.5999755859</ele>
        <time>2012-07-28T04:38:27Z</time>
      </trkpt>
      <trkpt lat="45.53698" lon="6.61802">
        <ele>1020.4000244141</ele>
        <time>2012-07-28T04:38:30Z</time>
      </trkpt>
      <trkpt lat="45.53703" lon="6.61807">
        <ele>1022.5999755859</ele>
        <time>2012-07-28T04:38:35Z</time>
      </trkpt>
      <trkpt lat="45.53707" lon="6.6181">
        <ele>1025</ele>
        <time>2012-07-28T04:38:40Z</time>
      </trkpt>
      <trkpt lat="45.5371" lon="6.61813">
        <ele>1026.8000488281</ele>
        <time>2012-07-28T04:38:43Z</time>
      </trkpt>
      <trkpt lat="45.53725" lon="6.61832">
        <ele>1032.8000488281</ele>
        <time>2012-07-28T04:38:57Z</time>
      </trkpt>
      <trkpt lat="45.53725" lon="6.61835">
        <ele>1033.1999511719</ele>
        <time>2012-07-28T04:38:58Z</time>
      </trkpt>
      <trkpt lat="45.53732" lon="6.61852">
        <ele>1042.1999511719</ele>
        <time>2012-07-28T04:39:12Z</time>
      </trkpt>
      <trkpt lat="45.53735" lon="6.61855">
        <ele>1043.5999755859</ele>
        <time>2012-07-28T04:39:15Z</time>
      </trkpt>
      <trkpt lat="45.5374" lon="6.61861">
        <ele>1045</ele>
        <time>2012-07-28T04:39:21Z</time>
      </trkpt>
      <trkpt lat="45.53741" lon="6.61871">
        <ele>1045.8000488281</ele>
        <time>2012-07-28T04:39:26Z</time>
      </trkpt>
      <trkpt lat="45.53742" lon="6.61876">
        <ele>1046.1999511719</ele>
        <time>2012-07-28T04:39:29Z</time>
      </trkpt>
      <trkpt lat="45.53744" lon="6.61884">
        <ele>1047.8000488281</ele>
        <time>2012-07-28T04:39:34Z</time>
      </trkpt>
      <trkpt lat="45.53745" lon="6.61888">
        <ele>1049.1999511719</ele>
        <time>2012-07-28T04:39:38Z</time>
      </trkpt>
      <trkpt lat="45.53747" lon="6.61899">
        <ele>1052.1999511719</ele>
        <time>2012-07-28T04:39:44Z</time>
      </trkpt>
      <trkpt lat="45.53747" lon="6.619">
        <ele>1053</ele>
        <time>2012-07-28T04:39:45Z</time>
      </trkpt>
      <trkpt lat="45.53747" lon="6.61902">
        <ele>1054</ele>
        <time>2012-07-28T04:39:46Z</time>
      </trkpt>
      <trkpt lat="45.53758" lon="6.61921">
        <ele>1065.8000488281</ele>
        <time>2012-07-28T04:40:00Z</time>
      </trkpt>
      <trkpt lat="45.5376" lon="6.61926">
        <ele>1068</ele>
        <time>2012-07-28T04:40:04Z</time>
      </trkpt>
      <trkpt lat="45.53764" lon="6.61928">
        <ele>1069.8000488281</ele>
        <time>2012-07-28T04:40:08Z</time>
      </trkpt>
      <trkpt lat="45.53771" lon="6.61932">
        <ele>1071.5999755859</ele>
        <time>2012-07-28T04:40:13Z</time>
      </trkpt>
      <trkpt lat="45.53772" lon="6.61934">
        <ele>1071.8000488281</ele>
        <time>2012-07-28T04:40:14Z</time>
      </trkpt>
      <trkpt lat="45.53774" lon="6.61936">
        <ele>1072</ele>
        <time>2012-07-28T04:40:16Z</time>
      </trkpt>
      <trkpt lat="45.53774" lon="6.61951">
        <ele>1071.8000488281</ele>
        <time>2012-07-28T04:40:23Z</time>
      </trkpt>
      <trkpt lat="45.53776" lon="6.61953">
        <ele>1072</ele>
        <time>2012-07-28T04:40:25Z</time>
      </trkpt>
      <trkpt lat="45.53777" lon="6.61961">
        <ele>1071.4000244141</ele>
        <time>2012-07-28T04:40:31Z</time>
      </trkpt>
      <trkpt lat="45.53777" lon="6.61963">
        <ele>1071.4000244141</ele>
        <time>2012-07-28T04:40:33Z</time>
      </trkpt>
      <trkpt lat="45.53777" lon="6.61967">
        <ele>1071</ele>
        <time>2012-07-28T04:40:36Z</time>
      </trkpt>
      <trkpt lat="45.53777" lon="6.61969">
        <ele>1071</ele>
        <time>2012-07-28T04:40:37Z</time>
      </trkpt>
      <trkpt lat="45.5378" lon="6.61979">
        <ele>1070.4000244141</ele>
        <time>2012-07-28T04:40:43Z</time>
      </trkpt>
      <trkpt lat="45.53779" lon="6.61981">
        <ele>1070.4000244141</ele>
        <time>2012-07-28T04:40:44Z</time>
      </trkpt>
      <trkpt lat="45.53777" lon="6.61985">
        <ele>1070.4000244141</ele>
        <time>2012-07-28T04:40:47Z</time>
      </trkpt>
      <trkpt lat="45.53779" lon="6.61986">
        <ele>1070.4000244141</ele>
        <time>2012-07-28T04:40:49Z</time>
      </trkpt>
      <trkpt lat="45.53778" lon="6.6199">
        <ele>1070.5999755859</ele>
        <time>2012-07-28T04:40:51Z</time>
      </trkpt>
      <trkpt lat="45.53785" lon="6.6201">
        <ele>1074.1999511719</ele>
        <time>2012-07-28T04:41:01Z</time>
      </trkpt>
      <trkpt lat="45.53785" lon="6.62015">
        <ele>1074.8000488281</ele>
        <time>2012-07-28T04:41:03Z</time>
      </trkpt>
      <trkpt lat="45.53789" lon="6.62025">
        <ele>1078.8000488281</ele>
        <time>2012-07-28T04:41:10Z</time>
      </trkpt>
      <trkpt lat="45.53793" lon="6.62034">
        <ele>1081.1999511719</ele>
        <time>2012-07-28T04:41:16Z</time>
      </trkpt>
      <trkpt lat="45.53793" lon="6.62037">
        <ele>1082</ele>
        <time>2012-07-28T04:41:18Z</time>
      </trkpt>
      <trkpt lat="45.53796" lon="6.62042">
        <ele>1083.5999755859</ele>
        <time>2012-07-28T04:41:22Z</time>
      </trkpt>
      <trkpt lat="45.53809" lon="6.62052">
        <ele>1086.8000488281</ele>
        <time>2012-07-28T04:41:32Z</time>
      </trkpt>
      <trkpt lat="45.53809" lon="6.62053">
        <ele>1087</ele>
        <time>2012-07-28T04:41:33Z</time>
      </trkpt>
      <trkpt lat="45.53812" lon="6.62057">
        <ele>1088.5999755859</ele>
        <time>2012-07-28T04:41:37Z</time>
      </trkpt>
      <trkpt lat="45.53813" lon="6.62058">
        <ele>1089</ele>
        <time>2012-07-28T04:41:38Z</time>
      </trkpt>
      <trkpt lat="45.53819" lon="6.62066">
        <ele>1091.4000244141</ele>
        <time>2012-07-28T04:41:46Z</time>
      </trkpt>
      <trkpt lat="45.53822" lon="6.62073">
        <ele>1093.4000244141</ele>
        <time>2012-07-28T04:41:52Z</time>
      </trkpt>
      <trkpt lat="45.53823" lon="6.62081">
        <ele>1094.4000244141</ele>
        <time>2012-07-28T04:41:58Z</time>
      </trkpt>
      <trkpt lat="45.53825" lon="6.62083">
        <ele>1094</ele>
        <time>2012-07-28T04:42:03Z</time>
      </trkpt>
      <trkpt lat="45.5383" lon="6.6209">
        <ele>1094.4000244141</ele>
        <time>2012-07-28T04:42:09Z</time>
      </trkpt>
      <trkpt lat="45.5383" lon="6.62095">
        <ele>1094.4000244141</ele>
        <time>2012-07-28T04:42:12Z</time>
      </trkpt>
      <trkpt lat="45.5383" lon="6.62096">
        <ele>1094.5999755859</ele>
        <time>2012-07-28T04:42:13Z</time>
      </trkpt>
      <trkpt lat="45.53834" lon="6.62104">
        <ele>1095</ele>
        <time>2012-07-28T04:42:19Z</time>
      </trkpt>
      <trkpt lat="45.53833" lon="6.62107">
        <ele>1095.5999755859</ele>
        <time>2012-07-28T04:42:22Z</time>
      </trkpt>
      <trkpt lat="45.53836" lon="6.62112">
        <ele>1096.5999755859</ele>
        <time>2012-07-28T04:42:27Z</time>
      </trkpt>
      <trkpt lat="45.53836" lon="6.62121">
        <ele>1097.5999755859</ele>
        <time>2012-07-28T04:42:31Z</time>
      </trkpt>
      <trkpt lat="45.53834" lon="6.62129">
        <ele>1099.5999755859</ele>
        <time>2012-07-28T04:42:36Z</time>
      </trkpt>
      <trkpt lat="45.53838" lon="6.62139">
        <ele>1101.4000244141</ele>
        <time>2012-07-28T04:42:42Z</time>
      </trkpt>
      <trkpt lat="45.53841" lon="6.62146">
        <ele>1101.8000488281</ele>
        <time>2012-07-28T04:42:45Z</time>
      </trkpt>
      <trkpt lat="45.53842" lon="6.62148">
        <ele>1102.1999511719</ele>
        <time>2012-07-28T04:42:46Z</time>
      </trkpt>
      <trkpt lat="45.53844" lon="6.62151">
        <ele>1102.8000488281</ele>
        <time>2012-07-28T04:42:47Z</time>
      </trkpt>
      <trkpt lat="45.53846" lon="6.62172">
        <ele>1106.5999755859</ele>
        <time>2012-07-28T04:42:56Z</time>
      </trkpt>
      <trkpt lat="45.53851" lon="6.62196">
        <ele>1112.1999511719</ele>
        <time>2012-07-28T04:43:08Z</time>
      </trkpt>
      <trkpt lat="45.53849" lon="6.62199">
        <ele>1113</ele>
        <time>2012-07-28T04:43:09Z</time>
      </trkpt>
      <trkpt lat="45.53846" lon="6.62209">
        <ele>1115.1999511719</ele>
        <time>2012-07-28T04:43:14Z</time>
      </trkpt>
      <trkpt lat="45.53846" lon="6.62211">
        <ele>1115.1999511719</ele>
        <time>2012-07-28T04:43:15Z</time>
      </trkpt>
      <trkpt lat="45.53845" lon="6.62221">
        <ele>1116.4000244141</ele>
        <time>2012-07-28T04:43:22Z</time>
      </trkpt>
      <trkpt lat="45.53844" lon="6.62222">
        <ele>1116.5999755859</ele>
        <time>2012-07-28T04:43:23Z</time>
      </trkpt>
      <trkpt lat="45.53844" lon="6.62223">
        <ele>1116.5999755859</ele>
        <time>2012-07-28T04:43:24Z</time>
      </trkpt>
      <trkpt lat="45.53843" lon="6.62237">
        <ele>1117.1999511719</ele>
        <time>2012-07-28T04:43:32Z</time>
      </trkpt>
      <trkpt lat="45.53848" lon="6.62241">
        <ele>1117.5999755859</ele>
        <time>2012-07-28T04:43:36Z</time>
      </trkpt>
      <trkpt lat="45.53851" lon="6.62245">
        <ele>1117.1999511719</ele>
        <time>2012-07-28T04:43:39Z</time>
      </trkpt>
      <trkpt lat="45.53851" lon="6.62249">
        <ele>1117.1999511719</ele>
        <time>2012-07-28T04:43:42Z</time>
      </trkpt>
      <trkpt lat="45.53852" lon="6.62257">
        <ele>1117.1999511719</ele>
        <time>2012-07-28T04:43:48Z</time>
      </trkpt>
      <trkpt lat="45.53851" lon="6.62272">
        <ele>1119</ele>
        <time>2012-07-28T04:43:55Z</time>
      </trkpt>
      <trkpt lat="45.53854" lon="6.62276">
        <ele>1120.4000244141</ele>
        <time>2012-07-28T04:43:59Z</time>
      </trkpt>
      <trkpt lat="45.53855" lon="6.62278">
        <ele>1120.8000488281</ele>
        <time>2012-07-28T04:44:00Z</time>
      </trkpt>
      <trkpt lat="45.5386" lon="6.62296">
        <ele>1123.4000244141</ele>
        <time>2012-07-28T04:44:07Z</time>
      </trkpt>
      <trkpt lat="45.53865" lon="6.6231">
        <ele>1126.5999755859</ele>
        <time>2012-07-28T04:44:13Z</time>
      </trkpt>
      <trkpt lat="45.53865" lon="6.6232">
        <ele>1128.1999511719</ele>
        <time>2012-07-28T04:44:16Z</time>
      </trkpt>
      <trkpt lat="45.53867" lon="6.62325">
        <ele>1129.1999511719</ele>
        <time>2012-07-28T04:44:18Z</time>
      </trkpt>
      <trkpt lat="45.53876" lon="6.62344">
        <ele>1133</ele>
        <time>2012-07-28T04:44:25Z</time>
      </trkpt>
      <trkpt lat="45.53887" lon="6.62361">
        <ele>1136</ele>
        <time>2012-07-28T04:44:32Z</time>
      </trkpt>
      <trkpt lat="45.53888" lon="6.62363">
        <ele>1136.4000244141</ele>
        <time>2012-07-28T04:44:33Z</time>
      </trkpt>
      <trkpt lat="45.53894" lon="6.6237">
        <ele>1137.4000244141</ele>
        <time>2012-07-28T04:44:36Z</time>
      </trkpt>
      <trkpt lat="45.539" lon="6.62383">
        <ele>1139.1999511719</ele>
        <time>2012-07-28T04:44:42Z</time>
      </trkpt>
      <trkpt lat="45.53906" lon="6.62408">
        <ele>1139.8000488281</ele>
        <time>2012-07-28T04:44:51Z</time>
      </trkpt>
      <trkpt lat="45.53906" lon="6.62411">
        <ele>1139.8000488281</ele>
        <time>2012-07-28T04:44:52Z</time>
      </trkpt>
      <trkpt lat="45.53907" lon="6.62436">
        <ele>1141</ele>
        <time>2012-07-28T04:45:00Z</time>
      </trkpt>
      <trkpt lat="45.53908" lon="6.62458">
        <ele>1142.5999755859</ele>
        <time>2012-07-28T04:45:08Z</time>
      </trkpt>
      <trkpt lat="45.53907" lon="6.62463">
        <ele>1143.1999511719</ele>
        <time>2012-07-28T04:45:10Z</time>
      </trkpt>
      <trkpt lat="45.53907" lon="6.62474">
        <ele>1144.1999511719</ele>
        <time>2012-07-28T04:45:14Z</time>
      </trkpt>
      <trkpt lat="45.53905" lon="6.62488">
        <ele>1145.5999755859</ele>
        <time>2012-07-28T04:45:19Z</time>
      </trkpt>
      <trkpt lat="45.53907" lon="6.62508">
        <ele>1147.8000488281</ele>
        <time>2012-07-28T04:45:26Z</time>
      </trkpt>
      <trkpt lat="45.53907" lon="6.62516">
        <ele>1148.5999755859</ele>
        <time>2012-07-28T04:45:29Z</time>
      </trkpt>
      <trkpt lat="45.53907" lon="6.6252">
        <ele>1149</ele>
        <time>2012-07-28T04:45:30Z</time>
      </trkpt>
      <trkpt lat="45.53909" lon="6.62525">
        <ele>1149.5999755859</ele>
        <time>2012-07-28T04:45:32Z</time>
      </trkpt>
      <trkpt lat="45.53909" lon="6.62541">
        <ele>1151</ele>
        <time>2012-07-28T04:45:37Z</time>
      </trkpt>
      <trkpt lat="45.53905" lon="6.62557">
        <ele>1152.8000488281</ele>
        <time>2012-07-28T04:45:42Z</time>
      </trkpt>
      <trkpt lat="45.53901" lon="6.62565">
        <ele>1153.8000488281</ele>
        <time>2012-07-28T04:45:45Z</time>
      </trkpt>
      <trkpt lat="45.53889" lon="6.62587">
        <ele>1157.4000244141</ele>
        <time>2012-07-28T04:45:55Z</time>
      </trkpt>
      <trkpt lat="45.53885" lon="6.62596">
        <ele>1159</ele>
        <time>2012-07-28T04:45:59Z</time>
      </trkpt>
      <trkpt lat="45.53878" lon="6.62601">
        <ele>1160.5999755859</ele>
        <time>2012-07-28T04:46:06Z</time>
      </trkpt>
      <trkpt lat="45.53872" lon="6.6258">
        <ele>1161.4000244141</ele>
        <time>2012-07-28T04:46:12Z</time>
      </trkpt>
      <trkpt lat="45.53871" lon="6.62576">
        <ele>1161.5999755859</ele>
        <time>2012-07-28T04:46:13Z</time>
      </trkpt>
      <trkpt lat="45.53864" lon="6.62555">
        <ele>1162.8000488281</ele>
        <time>2012-07-28T04:46:20Z</time>
      </trkpt>
      <trkpt lat="45.53862" lon="6.62553">
        <ele>1163</ele>
        <time>2012-07-28T04:46:21Z</time>
      </trkpt>
      <trkpt lat="45.53851" lon="6.62569">
        <ele>1165</ele>
        <time>2012-07-28T04:46:30Z</time>
      </trkpt>
      <trkpt lat="45.53851" lon="6.62572">
        <ele>1165.1999511719</ele>
        <time>2012-07-28T04:46:31Z</time>
      </trkpt>
      <trkpt lat="45.53851" lon="6.62597">
        <ele>1166.5999755859</ele>
        <time>2012-07-28T04:46:38Z</time>
      </trkpt>
      <trkpt lat="45.53849" lon="6.62624">
        <ele>1168.4000244141</ele>
        <time>2012-07-28T04:46:45Z</time>
      </trkpt>
      <trkpt lat="45.53842" lon="6.62646">
        <ele>1171</ele>
        <time>2012-07-28T04:46:53Z</time>
      </trkpt>
      <trkpt lat="45.53827" lon="6.62661">
        <ele>1173.1999511719</ele>
        <time>2012-07-28T04:47:00Z</time>
      </trkpt>
      <trkpt lat="45.53809" lon="6.62673">
        <ele>1175.8000488281</ele>
        <time>2012-07-28T04:47:08Z</time>
      </trkpt>
      <trkpt lat="45.53791" lon="6.62679">
        <ele>1178</ele>
        <time>2012-07-28T04:47:15Z</time>
      </trkpt>
      <trkpt lat="45.53771" lon="6.62686">
        <ele>1179.8000488281</ele>
        <time>2012-07-28T04:47:23Z</time>
      </trkpt>
      <trkpt lat="45.53754" lon="6.62693">
        <ele>1180.4000244141</ele>
        <time>2012-07-28T04:47:29Z</time>
      </trkpt>
      <trkpt lat="45.53735" lon="6.62702">
        <ele>1181.8000488281</ele>
        <time>2012-07-28T04:47:35Z</time>
      </trkpt>
      <trkpt lat="45.53721" lon="6.62724">
        <ele>1182.4000244141</ele>
        <time>2012-07-28T04:47:42Z</time>
      </trkpt>
      <trkpt lat="45.53714" lon="6.6274">
        <ele>1182.1999511719</ele>
        <time>2012-07-28T04:47:48Z</time>
      </trkpt>
      <trkpt lat="45.53716" lon="6.62749">
        <ele>1182.1999511719</ele>
        <time>2012-07-28T04:47:50Z</time>
      </trkpt>
      <trkpt lat="45.53723" lon="6.62775">
        <ele>1182.1999511719</ele>
        <time>2012-07-28T04:47:56Z</time>
      </trkpt>
      <trkpt lat="45.53725" lon="6.6278">
        <ele>1182.1999511719</ele>
        <time>2012-07-28T04:47:57Z</time>
      </trkpt>
      <trkpt lat="45.53729" lon="6.62796">
        <ele>1182</ele>
        <time>2012-07-28T04:48:02Z</time>
      </trkpt>
      <trkpt lat="45.53727" lon="6.62797">
        <ele>1182</ele>
        <time>2012-07-28T04:48:03Z</time>
      </trkpt>
      <trkpt lat="45.5371" lon="6.62808">
        <ele>1181.5999755859</ele>
        <time>2012-07-28T04:48:10Z</time>
      </trkpt>
      <trkpt lat="45.53693" lon="6.62824">
        <ele>1181.4000244141</ele>
        <time>2012-07-28T04:48:18Z</time>
      </trkpt>
      <trkpt lat="45.5368" lon="6.62845">
        <ele>1181.4000244141</ele>
        <time>2012-07-28T04:48:26Z</time>
      </trkpt>
      <trkpt lat="45.53675" lon="6.62847">
        <ele>1181.4000244141</ele>
        <time>2012-07-28T04:48:28Z</time>
      </trkpt>
      <trkpt lat="45.53668" lon="6.62852">
        <ele>1181.5999755859</ele>
        <time>2012-07-28T04:48:33Z</time>
      </trkpt>
      <trkpt lat="45.53663" lon="6.62856">
        <ele>1181.8000488281</ele>
        <time>2012-07-28T04:48:38Z</time>
      </trkpt>
      <trkpt lat="45.53658" lon="6.6286">
        <ele>1182.4000244141</ele>
        <time>2012-07-28T04:48:43Z</time>
      </trkpt>
      <trkpt lat="45.53651" lon="6.62865">
        <ele>1183.1999511719</ele>
        <time>2012-07-28T04:48:49Z</time>
      </trkpt>
      <trkpt lat="45.53647" lon="6.62868">
        <ele>1183.5999755859</ele>
        <time>2012-07-28T04:48:52Z</time>
      </trkpt>
      <trkpt lat="45.53641" lon="6.62872">
        <ele>1184.4000244141</ele>
        <time>2012-07-28T04:48:58Z</time>
      </trkpt>
      <trkpt lat="45.53641" lon="6.6288">
        <ele>1185.4000244141</ele>
        <time>2012-07-28T04:49:02Z</time>
      </trkpt>
      <trkpt lat="45.53642" lon="6.62882">
        <ele>1185.5999755859</ele>
        <time>2012-07-28T04:49:03Z</time>
      </trkpt>
      <trkpt lat="45.53645" lon="6.62889">
        <ele>1186.4000244141</ele>
        <time>2012-07-28T04:49:06Z</time>
      </trkpt>
      <trkpt lat="45.53648" lon="6.62903">
        <ele>1187.8000488281</ele>
        <time>2012-07-28T04:49:11Z</time>
      </trkpt>
      <trkpt lat="45.53651" lon="6.62916">
        <ele>1189.5999755859</ele>
        <time>2012-07-28T04:49:16Z</time>
      </trkpt>
      <trkpt lat="45.53656" lon="6.62941">
        <ele>1193.8000488281</ele>
        <time>2012-07-28T04:49:25Z</time>
      </trkpt>
      <trkpt lat="45.5366" lon="6.62968">
        <ele>1198</ele>
        <time>2012-07-28T04:49:35Z</time>
      </trkpt>
      <trkpt lat="45.53663" lon="6.62993">
        <ele>1201.5999755859</ele>
        <time>2012-07-28T04:49:44Z</time>
      </trkpt>
      <trkpt lat="45.53667" lon="6.63019">
        <ele>1204.4000244141</ele>
        <time>2012-07-28T04:49:53Z</time>
      </trkpt>
      <trkpt lat="45.53674" lon="6.63045">
        <ele>1206.4000244141</ele>
        <time>2012-07-28T04:50:02Z</time>
      </trkpt>
      <trkpt lat="45.5368" lon="6.6307">
        <ele>1208</ele>
        <time>2012-07-28T04:50:11Z</time>
      </trkpt>
      <trkpt lat="45.53684" lon="6.63096">
        <ele>1210.1999511719</ele>
        <time>2012-07-28T04:50:21Z</time>
      </trkpt>
      <trkpt lat="45.53691" lon="6.63121">
        <ele>1212.8000488281</ele>
        <time>2012-07-28T04:50:30Z</time>
      </trkpt>
      <trkpt lat="45.53697" lon="6.63143">
        <ele>1215.1999511719</ele>
        <time>2012-07-28T04:50:38Z</time>
      </trkpt>
      <trkpt lat="45.53697" lon="6.63146">
        <ele>1215.4000244141</ele>
        <time>2012-07-28T04:50:39Z</time>
      </trkpt>
      <trkpt lat="45.53701" lon="6.63167">
        <ele>1217.4000244141</ele>
        <time>2012-07-28T04:50:47Z</time>
      </trkpt>
      <trkpt lat="45.53702" lon="6.63171">
        <ele>1217.8000488281</ele>
        <time>2012-07-28T04:50:49Z</time>
      </trkpt>
      <trkpt lat="45.53704" lon="6.63183">
        <ele>1219</ele>
        <time>2012-07-28T04:50:53Z</time>
      </trkpt>
      <trkpt lat="45.53707" lon="6.63198">
        <ele>1220.1999511719</ele>
        <time>2012-07-28T04:50:59Z</time>
      </trkpt>
      <trkpt lat="45.53712" lon="6.63224">
        <ele>1222.5999755859</ele>
        <time>2012-07-28T04:51:09Z</time>
      </trkpt>
      <trkpt lat="45.53714" lon="6.63237">
        <ele>1224.4000244141</ele>
        <time>2012-07-28T04:51:13Z</time>
      </trkpt>
      <trkpt lat="45.53717" lon="6.63252">
        <ele>1226.4000244141</ele>
        <time>2012-07-28T04:51:18Z</time>
      </trkpt>
      <trkpt lat="45.53719" lon="6.63273">
        <ele>1229.5999755859</ele>
        <time>2012-07-28T04:51:25Z</time>
      </trkpt>
      <trkpt lat="45.5372" lon="6.63279">
        <ele>1230.1999511719</ele>
        <time>2012-07-28T04:51:27Z</time>
      </trkpt>
      <trkpt lat="45.53724" lon="6.63304">
        <ele>1233.5999755859</ele>
        <time>2012-07-28T04:51:36Z</time>
      </trkpt>
      <trkpt lat="45.53724" lon="6.63332">
        <ele>1237</ele>
        <time>2012-07-28T04:51:45Z</time>
      </trkpt>
      <trkpt lat="45.53722" lon="6.6334">
        <ele>1237.8000488281</ele>
        <time>2012-07-28T04:51:48Z</time>
      </trkpt>
      <trkpt lat="45.53712" lon="6.63332">
        <ele>1238.4000244141</ele>
        <time>2012-07-28T04:51:54Z</time>
      </trkpt>
      <trkpt lat="45.53711" lon="6.63326">
        <ele>1238.5999755859</ele>
        <time>2012-07-28T04:51:56Z</time>
      </trkpt>
      <trkpt lat="45.53704" lon="6.63308">
        <ele>1238.5999755859</ele>
        <time>2012-07-28T04:52:02Z</time>
      </trkpt>
      <trkpt lat="45.53698" lon="6.63283">
        <ele>1239</ele>
        <time>2012-07-28T04:52:11Z</time>
      </trkpt>
      <trkpt lat="45.53692" lon="6.63259">
        <ele>1240.4000244141</ele>
        <time>2012-07-28T04:52:19Z</time>
      </trkpt>
      <trkpt lat="45.53679" lon="6.63241">
        <ele>1242</ele>
        <time>2012-07-28T04:52:28Z</time>
      </trkpt>
      <trkpt lat="45.53663" lon="6.63229">
        <ele>1244.4000244141</ele>
        <time>2012-07-28T04:52:37Z</time>
      </trkpt>
      <trkpt lat="45.53646" lon="6.63215">
        <ele>1247.1999511719</ele>
        <time>2012-07-28T04:52:47Z</time>
      </trkpt>
      <trkpt lat="45.53635" lon="6.63206">
        <ele>1249.5999755859</ele>
        <time>2012-07-28T04:52:55Z</time>
      </trkpt>
      <trkpt lat="45.53632" lon="6.63211">
        <ele>1250.5999755859</ele>
        <time>2012-07-28T04:52:59Z</time>
      </trkpt>
      <trkpt lat="45.53632" lon="6.63214">
        <ele>1251.1999511719</ele>
        <time>2012-07-28T04:53:01Z</time>
      </trkpt>
      <trkpt lat="45.53629" lon="6.63226">
        <ele>1253.4000244141</ele>
        <time>2012-07-28T04:53:10Z</time>
      </trkpt>
      <trkpt lat="45.53626" lon="6.63227">
        <ele>1254.1999511719</ele>
        <time>2012-07-28T04:53:13Z</time>
      </trkpt>
      <trkpt lat="45.53624" lon="6.63232">
        <ele>1255.1999511719</ele>
        <time>2012-07-28T04:53:17Z</time>
      </trkpt>
      <trkpt lat="45.53619" lon="6.63257">
        <ele>1259.5999755859</ele>
        <time>2012-07-28T04:53:34Z</time>
      </trkpt>
      <trkpt lat="45.53616" lon="6.63283">
        <ele>1264</ele>
        <time>2012-07-28T04:53:51Z</time>
      </trkpt>
      <trkpt lat="45.53609" lon="6.63307">
        <ele>1268.5999755859</ele>
        <time>2012-07-28T04:54:09Z</time>
      </trkpt>
      <trkpt lat="45.53608" lon="6.6331">
        <ele>1269.1999511719</ele>
        <time>2012-07-28T04:54:11Z</time>
      </trkpt>
      <trkpt lat="45.53604" lon="6.63329">
        <ele>1272.8000488281</ele>
        <time>2012-07-28T04:54:23Z</time>
      </trkpt>
      <trkpt lat="45.53604" lon="6.63331">
        <ele>1273.4000244141</ele>
        <time>2012-07-28T04:54:24Z</time>
      </trkpt>
      <trkpt lat="45.53598" lon="6.63355">
        <ele>1278.5999755859</ele>
        <time>2012-07-28T04:54:42Z</time>
      </trkpt>
      <trkpt lat="45.53596" lon="6.63359">
        <ele>1279.1999511719</ele>
        <time>2012-07-28T04:54:45Z</time>
      </trkpt>
      <trkpt lat="45.53594" lon="6.63366">
        <ele>1280.4000244141</ele>
        <time>2012-07-28T04:54:50Z</time>
      </trkpt>
      <trkpt lat="45.53595" lon="6.63379">
        <ele>1281.4000244141</ele>
        <time>2012-07-28T04:54:54Z</time>
      </trkpt>
      <trkpt lat="45.53597" lon="6.63395">
        <ele>1282.5999755859</ele>
        <time>2012-07-28T04:54:59Z</time>
      </trkpt>
      <trkpt lat="45.53598" lon="6.63405">
        <ele>1283.4000244141</ele>
        <time>2012-07-28T04:55:02Z</time>
      </trkpt>
      <trkpt lat="45.53603" lon="6.63431">
        <ele>1285.8000488281</ele>
        <time>2012-07-28T04:55:10Z</time>
      </trkpt>
      <trkpt lat="45.53604" lon="6.6345">
        <ele>1287.8000488281</ele>
        <time>2012-07-28T04:55:16Z</time>
      </trkpt>
      <trkpt lat="45.53605" lon="6.63457">
        <ele>1288.4000244141</ele>
        <time>2012-07-28T04:55:18Z</time>
      </trkpt>
      <trkpt lat="45.53606" lon="6.63467">
        <ele>1289.4000244141</ele>
        <time>2012-07-28T04:55:21Z</time>
      </trkpt>
      <trkpt lat="45.53607" lon="6.63483">
        <ele>1291.1999511719</ele>
        <time>2012-07-28T04:55:26Z</time>
      </trkpt>
      <trkpt lat="45.5361" lon="6.63508">
        <ele>1294.1999511719</ele>
        <time>2012-07-28T04:55:35Z</time>
      </trkpt>
      <trkpt lat="45.5362" lon="6.63533">
        <ele>1296.8000488281</ele>
        <time>2012-07-28T04:55:44Z</time>
      </trkpt>
      <trkpt lat="45.53622" lon="6.63561">
        <ele>1297.5999755859</ele>
        <time>2012-07-28T04:55:52Z</time>
      </trkpt>
      <trkpt lat="45.53624" lon="6.63586">
        <ele>1298</ele>
        <time>2012-07-28T04:55:59Z</time>
      </trkpt>
      <trkpt lat="45.53629" lon="6.63613">
        <ele>1299.4000244141</ele>
        <time>2012-07-28T04:56:05Z</time>
      </trkpt>
      <trkpt lat="45.53633" lon="6.63637">
        <ele>1300.8000488281</ele>
        <time>2012-07-28T04:56:11Z</time>
      </trkpt>
      <trkpt lat="45.53641" lon="6.63664">
        <ele>1303</ele>
        <time>2012-07-28T04:56:18Z</time>
      </trkpt>
      <trkpt lat="45.53645" lon="6.6369">
        <ele>1305.4000244141</ele>
        <time>2012-07-28T04:56:25Z</time>
      </trkpt>
      <trkpt lat="45.53645" lon="6.63716">
        <ele>1308</ele>
        <time>2012-07-28T04:56:33Z</time>
      </trkpt>
      <trkpt lat="45.53644" lon="6.63728">
        <ele>1309.4000244141</ele>
        <time>2012-07-28T04:56:37Z</time>
      </trkpt>
      <trkpt lat="45.53643" lon="6.63742">
        <ele>1310.5999755859</ele>
        <time>2012-07-28T04:56:42Z</time>
      </trkpt>
      <trkpt lat="45.53647" lon="6.63764">
        <ele>1312.1999511719</ele>
        <time>2012-07-28T04:56:48Z</time>
      </trkpt>
      <trkpt lat="45.53648" lon="6.63767">
        <ele>1312.4000244141</ele>
        <time>2012-07-28T04:56:49Z</time>
      </trkpt>
      <trkpt lat="45.53654" lon="6.63792">
        <ele>1314</ele>
        <time>2012-07-28T04:56:57Z</time>
      </trkpt>
      <trkpt lat="45.53658" lon="6.63819">
        <ele>1314.8000488281</ele>
        <time>2012-07-28T04:57:04Z</time>
      </trkpt>
      <trkpt lat="45.53659" lon="6.63846">
        <ele>1315.5999755859</ele>
        <time>2012-07-28T04:57:12Z</time>
      </trkpt>
      <trkpt lat="45.53658" lon="6.63873">
        <ele>1315.5999755859</ele>
        <time>2012-07-28T04:57:19Z</time>
      </trkpt>
      <trkpt lat="45.53657" lon="6.63901">
        <ele>1316.5999755859</ele>
        <time>2012-07-28T04:57:26Z</time>
      </trkpt>
      <trkpt lat="45.53656" lon="6.6393">
        <ele>1316.4000244141</ele>
        <time>2012-07-28T04:57:34Z</time>
      </trkpt>
      <trkpt lat="45.53648" lon="6.63947">
        <ele>1316.4000244141</ele>
        <time>2012-07-28T04:57:41Z</time>
      </trkpt>
      <trkpt lat="45.53643" lon="6.63946">
        <ele>1317</ele>
        <time>2012-07-28T04:57:44Z</time>
      </trkpt>
      <trkpt lat="45.5364" lon="6.63941">
        <ele>1317.4000244141</ele>
        <time>2012-07-28T04:57:47Z</time>
      </trkpt>
      <trkpt lat="45.53634" lon="6.63924">
        <ele>1318.8000488281</ele>
        <time>2012-07-28T04:57:54Z</time>
      </trkpt>
      <trkpt lat="45.53624" lon="6.63903">
        <ele>1321</ele>
        <time>2012-07-28T04:58:04Z</time>
      </trkpt>
      <trkpt lat="45.53613" lon="6.6388">
        <ele>1323.5999755859</ele>
        <time>2012-07-28T04:58:13Z</time>
      </trkpt>
      <trkpt lat="45.53603" lon="6.63855">
        <ele>1326.1999511719</ele>
        <time>2012-07-28T04:58:23Z</time>
      </trkpt>
      <trkpt lat="45.53596" lon="6.6383">
        <ele>1328.4000244141</ele>
        <time>2012-07-28T04:58:34Z</time>
      </trkpt>
      <trkpt lat="45.53593" lon="6.63816">
        <ele>1329.4000244141</ele>
        <time>2012-07-28T04:58:40Z</time>
      </trkpt>
      <trkpt lat="45.53589" lon="6.63803">
        <ele>1330.1999511719</ele>
        <time>2012-07-28T04:58:45Z</time>
      </trkpt>
      <trkpt lat="45.53583" lon="6.63777">
        <ele>1331.4000244141</ele>
        <time>2012-07-28T04:58:53Z</time>
      </trkpt>
      <trkpt lat="45.53577" lon="6.63752">
        <ele>1332.1999511719</ele>
        <time>2012-07-28T04:59:00Z</time>
      </trkpt>
      <trkpt lat="45.53576" lon="6.63726">
        <ele>1333.4000244141</ele>
        <time>2012-07-28T04:59:06Z</time>
      </trkpt>
      <trkpt lat="45.53577" lon="6.637">
        <ele>1334.1999511719</ele>
        <time>2012-07-28T04:59:12Z</time>
      </trkpt>
      <trkpt lat="45.53576" lon="6.63674">
        <ele>1334.8000488281</ele>
        <time>2012-07-28T04:59:18Z</time>
      </trkpt>
      <trkpt lat="45.53572" lon="6.63648">
        <ele>1335.4000244141</ele>
        <time>2012-07-28T04:59:25Z</time>
      </trkpt>
      <trkpt lat="45.53561" lon="6.63626">
        <ele>1336.1999511719</ele>
        <time>2012-07-28T04:59:33Z</time>
      </trkpt>
      <trkpt lat="45.53547" lon="6.63607">
        <ele>1337</ele>
        <time>2012-07-28T04:59:40Z</time>
      </trkpt>
      <trkpt lat="45.53535" lon="6.63591">
        <ele>1337.5999755859</ele>
        <time>2012-07-28T04:59:47Z</time>
      </trkpt>
      <trkpt lat="45.53535" lon="6.63595">
        <ele>1337.8000488281</ele>
        <time>2012-07-28T04:59:49Z</time>
      </trkpt>
      <trkpt lat="45.53536" lon="6.63607">
        <ele>1337.5999755859</ele>
        <time>2012-07-28T04:59:52Z</time>
      </trkpt>
      <trkpt lat="45.53536" lon="6.63624">
        <ele>1337.5999755859</ele>
        <time>2012-07-28T04:59:56Z</time>
      </trkpt>
      <trkpt lat="45.53531" lon="6.63629">
        <ele>1337.5999755859</ele>
        <time>2012-07-28T05:00:00Z</time>
      </trkpt>
      <trkpt lat="45.53523" lon="6.63614">
        <ele>1338</ele>
        <time>2012-07-28T05:00:05Z</time>
      </trkpt>
      <trkpt lat="45.53519" lon="6.63607">
        <ele>1338.1999511719</ele>
        <time>2012-07-28T05:00:07Z</time>
      </trkpt>
      <trkpt lat="45.53513" lon="6.63591">
        <ele>1339.1999511719</ele>
        <time>2012-07-28T05:00:13Z</time>
      </trkpt>
      <trkpt lat="45.5351" lon="6.63585">
        <ele>1339.5999755859</ele>
        <time>2012-07-28T05:00:15Z</time>
      </trkpt>
      <trkpt lat="45.53498" lon="6.63574">
        <ele>1341.5999755859</ele>
        <time>2012-07-28T05:00:21Z</time>
      </trkpt>
      <trkpt lat="45.53497" lon="6.63576">
        <ele>1341.8000488281</ele>
        <time>2012-07-28T05:00:22Z</time>
      </trkpt>
      <trkpt lat="45.53487" lon="6.63589">
        <ele>1344.4000244141</ele>
        <time>2012-07-28T05:00:31Z</time>
      </trkpt>
      <trkpt lat="45.53489" lon="6.63593">
        <ele>1344.5999755859</ele>
        <time>2012-07-28T05:00:32Z</time>
      </trkpt>
      <trkpt lat="45.53498" lon="6.63609">
        <ele>1345.5999755859</ele>
        <time>2012-07-28T05:00:36Z</time>
      </trkpt>
      <trkpt lat="45.53499" lon="6.63618">
        <ele>1346</ele>
        <time>2012-07-28T05:00:38Z</time>
      </trkpt>
      <trkpt lat="45.5351" lon="6.63643">
        <ele>1347.5999755859</ele>
        <time>2012-07-28T05:00:45Z</time>
      </trkpt>
      <trkpt lat="45.5351" lon="6.6367">
        <ele>1349.1999511719</ele>
        <time>2012-07-28T05:00:52Z</time>
      </trkpt>
      <trkpt lat="45.53509" lon="6.63675">
        <ele>1349.8000488281</ele>
        <time>2012-07-28T05:00:55Z</time>
      </trkpt>
      <trkpt lat="45.53502" lon="6.63695">
        <ele>1351.5999755859</ele>
        <time>2012-07-28T05:01:03Z</time>
      </trkpt>
      <trkpt lat="45.5349" lon="6.63714">
        <ele>1353.5999755859</ele>
        <time>2012-07-28T05:01:11Z</time>
      </trkpt>
      <trkpt lat="45.53478" lon="6.63735">
        <ele>1355.5999755859</ele>
        <time>2012-07-28T05:01:21Z</time>
      </trkpt>
      <trkpt lat="45.53475" lon="6.6374">
        <ele>1356.4000244141</ele>
        <time>2012-07-28T05:01:25Z</time>
      </trkpt>
      <trkpt lat="45.53472" lon="6.63745">
        <ele>1357.4000244141</ele>
        <time>2012-07-28T05:01:29Z</time>
      </trkpt>
      <trkpt lat="45.53466" lon="6.63755">
        <ele>1358.8000488281</ele>
        <time>2012-07-28T05:01:36Z</time>
      </trkpt>
      <trkpt lat="45.53452" lon="6.63773">
        <ele>1362.1999511719</ele>
        <time>2012-07-28T05:01:51Z</time>
      </trkpt>
      <trkpt lat="45.53453" lon="6.63775">
        <ele>1362.4000244141</ele>
        <time>2012-07-28T05:01:53Z</time>
      </trkpt>
      <trkpt lat="45.53445" lon="6.63785">
        <ele>1363.4000244141</ele>
        <time>2012-07-28T05:02:00Z</time>
      </trkpt>
      <trkpt lat="45.5344" lon="6.63793">
        <ele>1364.4000244141</ele>
        <time>2012-07-28T05:02:07Z</time>
      </trkpt>
      <trkpt lat="45.5344" lon="6.63794">
        <ele>1364.4000244141</ele>
        <time>2012-07-28T05:02:08Z</time>
      </trkpt>
      <trkpt lat="45.5344" lon="6.63796">
        <ele>1364.5999755859</ele>
        <time>2012-07-28T05:02:09Z</time>
      </trkpt>
      <trkpt lat="45.53442" lon="6.63804">
        <ele>1365.8000488281</ele>
        <time>2012-07-28T05:02:17Z</time>
      </trkpt>
      <trkpt lat="45.53431" lon="6.63811">
        <ele>1367.4000244141</ele>
        <time>2012-07-28T05:02:23Z</time>
      </trkpt>
      <trkpt lat="45.53414" lon="6.63821">
        <ele>1371.1999511719</ele>
        <time>2012-07-28T05:02:36Z</time>
      </trkpt>
      <trkpt lat="45.53399" lon="6.63836">
        <ele>1376.5999755859</ele>
        <time>2012-07-28T05:02:51Z</time>
      </trkpt>
      <trkpt lat="45.53384" lon="6.6385">
        <ele>1380.8000488281</ele>
        <time>2012-07-28T05:03:05Z</time>
      </trkpt>
      <trkpt lat="45.5337" lon="6.63869">
        <ele>1385</ele>
        <time>2012-07-28T05:03:19Z</time>
      </trkpt>
      <trkpt lat="45.53366" lon="6.63876">
        <ele>1385.8000488281</ele>
        <time>2012-07-28T05:03:22Z</time>
      </trkpt>
      <trkpt lat="45.53362" lon="6.63893">
        <ele>1387.5999755859</ele>
        <time>2012-07-28T05:03:30Z</time>
      </trkpt>
      <trkpt lat="45.53353" lon="6.63918">
        <ele>1390</ele>
        <time>2012-07-28T05:03:40Z</time>
      </trkpt>
      <trkpt lat="45.53344" lon="6.6394">
        <ele>1392.1999511719</ele>
        <time>2012-07-28T05:03:48Z</time>
      </trkpt>
      <trkpt lat="45.53333" lon="6.63963">
        <ele>1394.1999511719</ele>
        <time>2012-07-28T05:03:56Z</time>
      </trkpt>
      <trkpt lat="45.53323" lon="6.63986">
        <ele>1396.8000488281</ele>
        <time>2012-07-28T05:04:04Z</time>
      </trkpt>
      <trkpt lat="45.53312" lon="6.64008">
        <ele>1399.1999511719</ele>
        <time>2012-07-28T05:04:12Z</time>
      </trkpt>
      <trkpt lat="45.53303" lon="6.64023">
        <ele>1401</ele>
        <time>2012-07-28T05:04:19Z</time>
      </trkpt>
      <trkpt lat="45.53299" lon="6.64028">
        <ele>1401.8000488281</ele>
        <time>2012-07-28T05:04:22Z</time>
      </trkpt>
      <trkpt lat="45.53295" lon="6.64054">
        <ele>1403.5999755859</ele>
        <time>2012-07-28T05:04:31Z</time>
      </trkpt>
      <trkpt lat="45.53294" lon="6.6408">
        <ele>1405.4000244141</ele>
        <time>2012-07-28T05:04:37Z</time>
      </trkpt>
      <trkpt lat="45.53291" lon="6.64108">
        <ele>1408</ele>
        <time>2012-07-28T05:04:44Z</time>
      </trkpt>
      <trkpt lat="45.53286" lon="6.64135">
        <ele>1410.8000488281</ele>
        <time>2012-07-28T05:04:51Z</time>
      </trkpt>
      <trkpt lat="45.53281" lon="6.64162">
        <ele>1413.8000488281</ele>
        <time>2012-07-28T05:04:59Z</time>
      </trkpt>
      <trkpt lat="45.53275" lon="6.64189">
        <ele>1416.8000488281</ele>
        <time>2012-07-28T05:05:06Z</time>
      </trkpt>
      <trkpt lat="45.53272" lon="6.64214">
        <ele>1418.8000488281</ele>
        <time>2012-07-28T05:05:13Z</time>
      </trkpt>
      <trkpt lat="45.53273" lon="6.64243">
        <ele>1420.1999511719</ele>
        <time>2012-07-28T05:05:20Z</time>
      </trkpt>
      <trkpt lat="45.53272" lon="6.6427">
        <ele>1421.1999511719</ele>
        <time>2012-07-28T05:05:27Z</time>
      </trkpt>
      <trkpt lat="45.53262" lon="6.64295">
        <ele>1422.8000488281</ele>
        <time>2012-07-28T05:05:36Z</time>
      </trkpt>
      <trkpt lat="45.53248" lon="6.64313">
        <ele>1424.1999511719</ele>
        <time>2012-07-28T05:05:44Z</time>
      </trkpt>
      <trkpt lat="45.53233" lon="6.64328">
        <ele>1425.4000244141</ele>
        <time>2012-07-28T05:05:53Z</time>
      </trkpt>
      <trkpt lat="45.53215" lon="6.64342">
        <ele>1426.1999511719</ele>
        <time>2012-07-28T05:06:03Z</time>
      </trkpt>
      <trkpt lat="45.53204" lon="6.6436">
        <ele>1427.5999755859</ele>
        <time>2012-07-28T05:06:12Z</time>
      </trkpt>
      <trkpt lat="45.53204" lon="6.64364">
        <ele>1428.1999511719</ele>
        <time>2012-07-28T05:06:13Z</time>
      </trkpt>
      <trkpt lat="45.53198" lon="6.64386">
        <ele>1430.8000488281</ele>
        <time>2012-07-28T05:06:19Z</time>
      </trkpt>
      <trkpt lat="45.53197" lon="6.6439">
        <ele>1431.1999511719</ele>
        <time>2012-07-28T05:06:20Z</time>
      </trkpt>
      <trkpt lat="45.53189" lon="6.64414">
        <ele>1433.5999755859</ele>
        <time>2012-07-28T05:06:28Z</time>
      </trkpt>
      <trkpt lat="45.5318" lon="6.64437">
        <ele>1435.5999755859</ele>
        <time>2012-07-28T05:06:36Z</time>
      </trkpt>
      <trkpt lat="45.53172" lon="6.6446">
        <ele>1436.4000244141</ele>
        <time>2012-07-28T05:06:44Z</time>
      </trkpt>
      <trkpt lat="45.53156" lon="6.64475">
        <ele>1436.8000488281</ele>
        <time>2012-07-28T05:06:53Z</time>
      </trkpt>
      <trkpt lat="45.53139" lon="6.64484">
        <ele>1437</ele>
        <time>2012-07-28T05:07:01Z</time>
      </trkpt>
      <trkpt lat="45.53123" lon="6.64495">
        <ele>1437</ele>
        <time>2012-07-28T05:07:09Z</time>
      </trkpt>
      <trkpt lat="45.53106" lon="6.64507">
        <ele>1437.4000244141</ele>
        <time>2012-07-28T05:07:18Z</time>
      </trkpt>
      <trkpt lat="45.53092" lon="6.64526">
        <ele>1439.1999511719</ele>
        <time>2012-07-28T05:07:27Z</time>
      </trkpt>
      <trkpt lat="45.53087" lon="6.64552">
        <ele>1442</ele>
        <time>2012-07-28T05:07:35Z</time>
      </trkpt>
      <trkpt lat="45.5308" lon="6.64578">
        <ele>1445.8000488281</ele>
        <time>2012-07-28T05:07:44Z</time>
      </trkpt>
      <trkpt lat="45.53071" lon="6.64602">
        <ele>1449.8000488281</ele>
        <time>2012-07-28T05:07:54Z</time>
      </trkpt>
      <trkpt lat="45.53063" lon="6.64619">
        <ele>1453</ele>
        <time>2012-07-28T05:08:01Z</time>
      </trkpt>
      <trkpt lat="45.53061" lon="6.64625">
        <ele>1453.8000488281</ele>
        <time>2012-07-28T05:08:03Z</time>
      </trkpt>
      <trkpt lat="45.53059" lon="6.64653">
        <ele>1457.8000488281</ele>
        <time>2012-07-28T05:08:11Z</time>
      </trkpt>
      <trkpt lat="45.53056" lon="6.64679">
        <ele>1461</ele>
        <time>2012-07-28T05:08:18Z</time>
      </trkpt>
      <trkpt lat="45.53049" lon="6.64705">
        <ele>1464.1999511719</ele>
        <time>2012-07-28T05:08:26Z</time>
      </trkpt>
      <trkpt lat="45.53041" lon="6.6472">
        <ele>1466</ele>
        <time>2012-07-28T05:08:31Z</time>
      </trkpt>
      <trkpt lat="45.53038" lon="6.64727">
        <ele>1466.5999755859</ele>
        <time>2012-07-28T05:08:33Z</time>
      </trkpt>
      <trkpt lat="45.53033" lon="6.64736">
        <ele>1467.4000244141</ele>
        <time>2012-07-28T05:08:36Z</time>
      </trkpt>
      <trkpt lat="45.53028" lon="6.64751">
        <ele>1468.5999755859</ele>
        <time>2012-07-28T05:08:41Z</time>
      </trkpt>
      <trkpt lat="45.53024" lon="6.64779">
        <ele>1470.4000244141</ele>
        <time>2012-07-28T05:08:48Z</time>
      </trkpt>
      <trkpt lat="45.53024" lon="6.64806">
        <ele>1471.5999755859</ele>
        <time>2012-07-28T05:08:54Z</time>
      </trkpt>
      <trkpt lat="45.53022" lon="6.64835">
        <ele>1472.1999511719</ele>
        <time>2012-07-28T05:09:01Z</time>
      </trkpt>
      <trkpt lat="45.53019" lon="6.64861">
        <ele>1472.1999511719</ele>
        <time>2012-07-28T05:09:07Z</time>
      </trkpt>
      <trkpt lat="45.53012" lon="6.6489">
        <ele>1472</ele>
        <time>2012-07-28T05:09:13Z</time>
      </trkpt>
      <trkpt lat="45.53004" lon="6.64916">
        <ele>1471.5999755859</ele>
        <time>2012-07-28T05:09:19Z</time>
      </trkpt>
      <trkpt lat="45.52988" lon="6.64931">
        <ele>1470.8000488281</ele>
        <time>2012-07-28T05:09:26Z</time>
      </trkpt>
      <trkpt lat="45.52969" lon="6.64935">
        <ele>1469.5999755859</ele>
        <time>2012-07-28T05:09:33Z</time>
      </trkpt>
      <trkpt lat="45.52949" lon="6.64937">
        <ele>1468.1999511719</ele>
        <time>2012-07-28T05:09:40Z</time>
      </trkpt>
      <trkpt lat="45.52934" lon="6.64951">
        <ele>1467.1999511719</ele>
        <time>2012-07-28T05:09:46Z</time>
      </trkpt>
      <trkpt lat="45.52927" lon="6.64978">
        <ele>1466.4000244141</ele>
        <time>2012-07-28T05:09:53Z</time>
      </trkpt>
      <trkpt lat="45.52944" lon="6.64996">
        <ele>1466.5999755859</ele>
        <time>2012-07-28T05:10:00Z</time>
      </trkpt>
      <trkpt lat="45.52959" lon="6.65009">
        <ele>1467.8000488281</ele>
        <time>2012-07-28T05:10:06Z</time>
      </trkpt>
      <trkpt lat="45.52975" lon="6.65021">
        <ele>1469</ele>
        <time>2012-07-28T05:10:11Z</time>
      </trkpt>
      <trkpt lat="45.52976" lon="6.65024">
        <ele>1469.1999511719</ele>
        <time>2012-07-28T05:10:12Z</time>
      </trkpt>
      <trkpt lat="45.52974" lon="6.65041">
        <ele>1469.5999755859</ele>
        <time>2012-07-28T05:10:16Z</time>
      </trkpt>
      <trkpt lat="45.52972" lon="6.65048">
        <ele>1469.5999755859</ele>
        <time>2012-07-28T05:10:18Z</time>
      </trkpt>
      <trkpt lat="45.5296" lon="6.65067">
        <ele>1469.5999755859</ele>
        <time>2012-07-28T05:10:25Z</time>
      </trkpt>
      <trkpt lat="45.52943" lon="6.65081">
        <ele>1469.1999511719</ele>
        <time>2012-07-28T05:10:33Z</time>
      </trkpt>
      <trkpt lat="45.52927" lon="6.651">
        <ele>1468.4000244141</ele>
        <time>2012-07-28T05:10:42Z</time>
      </trkpt>
      <trkpt lat="45.52913" lon="6.65116">
        <ele>1467.8000488281</ele>
        <time>2012-07-28T05:10:49Z</time>
      </trkpt>
      <trkpt lat="45.52896" lon="6.65131">
        <ele>1467.1999511719</ele>
        <time>2012-07-28T05:10:57Z</time>
      </trkpt>
      <trkpt lat="45.5288" lon="6.65147">
        <ele>1466.8000488281</ele>
        <time>2012-07-28T05:11:04Z</time>
      </trkpt>
      <trkpt lat="45.52874" lon="6.65171">
        <ele>1467</ele>
        <time>2012-07-28T05:11:10Z</time>
      </trkpt>
      <trkpt lat="45.52876" lon="6.65184">
        <ele>1468</ele>
        <time>2012-07-28T05:11:13Z</time>
      </trkpt>
      <trkpt lat="45.52885" lon="6.65192">
        <ele>1469.4000244141</ele>
        <time>2012-07-28T05:11:16Z</time>
      </trkpt>
      <trkpt lat="45.52904" lon="6.65205">
        <ele>1473.8000488281</ele>
        <time>2012-07-28T05:11:22Z</time>
      </trkpt>
      <trkpt lat="45.52919" lon="6.65221">
        <ele>1479.1999511719</ele>
        <time>2012-07-28T05:11:28Z</time>
      </trkpt>
      <trkpt lat="45.5293" lon="6.65242">
        <ele>1486.1999511719</ele>
        <time>2012-07-28T05:11:36Z</time>
      </trkpt>
      <trkpt lat="45.5294" lon="6.65265">
        <ele>1494.4000244141</ele>
        <time>2012-07-28T05:11:46Z</time>
      </trkpt>
      <trkpt lat="45.52944" lon="6.65294">
        <ele>1500</ele>
        <time>2012-07-28T05:11:56Z</time>
      </trkpt>
      <trkpt lat="45.52945" lon="6.65297">
        <ele>1500.1999511719</ele>
        <time>2012-07-28T05:11:57Z</time>
      </trkpt>
      <trkpt lat="45.52943" lon="6.65314">
        <ele>1500.4000244141</ele>
        <time>2012-07-28T05:12:03Z</time>
      </trkpt>
      <trkpt lat="45.52942" lon="6.65323">
        <ele>1500.4000244141</ele>
        <time>2012-07-28T05:12:07Z</time>
      </trkpt>
      <trkpt lat="45.52939" lon="6.65328">
        <ele>1500.1999511719</ele>
        <time>2012-07-28T05:12:10Z</time>
      </trkpt>
      <trkpt lat="45.52938" lon="6.65329">
        <ele>1500.1999511719</ele>
        <time>2012-07-28T05:12:11Z</time>
      </trkpt>
      <trkpt lat="45.52929" lon="6.65335">
        <ele>1499.8000488281</ele>
        <time>2012-07-28T05:12:16Z</time>
      </trkpt>
      <trkpt lat="45.52925" lon="6.65336">
        <ele>1499.5999755859</ele>
        <time>2012-07-28T05:12:18Z</time>
      </trkpt>
      <trkpt lat="45.52907" lon="6.65346">
        <ele>1498.5999755859</ele>
        <time>2012-07-28T05:12:29Z</time>
      </trkpt>
      <trkpt lat="45.52888" lon="6.65352">
        <ele>1498.1999511719</ele>
        <time>2012-07-28T05:12:41Z</time>
      </trkpt>
      <trkpt lat="45.52884" lon="6.65353">
        <ele>1498</ele>
        <time>2012-07-28T05:12:44Z</time>
      </trkpt>
      <trkpt lat="45.52882" lon="6.65356">
        <ele>1498</ele>
        <time>2012-07-28T05:12:47Z</time>
      </trkpt>
      <trkpt lat="45.52886" lon="6.65365">
        <ele>1498.8000488281</ele>
        <time>2012-07-28T05:12:52Z</time>
      </trkpt>
      <trkpt lat="45.5289" lon="6.65366">
        <ele>1499.4000244141</ele>
        <time>2012-07-28T05:12:54Z</time>
      </trkpt>
      <trkpt lat="45.52895" lon="6.65369">
        <ele>1500.1999511719</ele>
        <time>2012-07-28T05:12:56Z</time>
      </trkpt>
      <trkpt lat="45.52908" lon="6.65379">
        <ele>1503.5999755859</ele>
        <time>2012-07-28T05:13:03Z</time>
      </trkpt>
      <trkpt lat="45.52911" lon="6.65396">
        <ele>1507</ele>
        <time>2012-07-28T05:13:11Z</time>
      </trkpt>
      <trkpt lat="45.52913" lon="6.65405">
        <ele>1508.8000488281</ele>
        <time>2012-07-28T05:13:15Z</time>
      </trkpt>
      <trkpt lat="45.52912" lon="6.6541">
        <ele>1509.4000244141</ele>
        <time>2012-07-28T05:13:18Z</time>
      </trkpt>
      <trkpt lat="45.52913" lon="6.65418">
        <ele>1510.1999511719</ele>
        <time>2012-07-28T05:13:22Z</time>
      </trkpt>
      <trkpt lat="45.52911" lon="6.65427">
        <ele>1510.8000488281</ele>
        <time>2012-07-28T05:13:27Z</time>
      </trkpt>
      <trkpt lat="45.52908" lon="6.65431">
        <ele>1510.8000488281</ele>
        <time>2012-07-28T05:13:30Z</time>
      </trkpt>
      <trkpt lat="45.52896" lon="6.65441">
        <ele>1511</ele>
        <time>2012-07-28T05:13:39Z</time>
      </trkpt>
      <trkpt lat="45.52893" lon="6.65442">
        <ele>1511</ele>
        <time>2012-07-28T05:13:41Z</time>
      </trkpt>
      <trkpt lat="45.52882" lon="6.65454">
        <ele>1510.8000488281</ele>
        <time>2012-07-28T05:13:49Z</time>
      </trkpt>
      <trkpt lat="45.5288" lon="6.6546">
        <ele>1511</ele>
        <time>2012-07-28T05:13:51Z</time>
      </trkpt>
      <trkpt lat="45.52872" lon="6.65473">
        <ele>1510.8000488281</ele>
        <time>2012-07-28T05:13:57Z</time>
      </trkpt>
      <trkpt lat="45.52868" lon="6.65483">
        <ele>1511</ele>
        <time>2012-07-28T05:14:01Z</time>
      </trkpt>
      <trkpt lat="45.5286" lon="6.65507">
        <ele>1512.1999511719</ele>
        <time>2012-07-28T05:14:11Z</time>
      </trkpt>
      <trkpt lat="45.52856" lon="6.65514">
        <ele>1512.5999755859</ele>
        <time>2012-07-28T05:14:15Z</time>
      </trkpt>
      <trkpt lat="45.52856" lon="6.65516">
        <ele>1512.5999755859</ele>
        <time>2012-07-28T05:14:16Z</time>
      </trkpt>
      <trkpt lat="45.52849" lon="6.65532">
        <ele>1513.5999755859</ele>
        <time>2012-07-28T05:14:21Z</time>
      </trkpt>
      <trkpt lat="45.52848" lon="6.65535">
        <ele>1513.8000488281</ele>
        <time>2012-07-28T05:14:22Z</time>
      </trkpt>
      <trkpt lat="45.52842" lon="6.6556">
        <ele>1516.8000488281</ele>
        <time>2012-07-28T05:14:30Z</time>
      </trkpt>
      <trkpt lat="45.52836" lon="6.65585">
        <ele>1521.4000244141</ele>
        <time>2012-07-28T05:14:40Z</time>
      </trkpt>
      <trkpt lat="45.52835" lon="6.65599">
        <ele>1523.8000488281</ele>
        <time>2012-07-28T05:14:47Z</time>
      </trkpt>
      <trkpt lat="45.52832" lon="6.65611">
        <ele>1525</ele>
        <time>2012-07-28T05:14:52Z</time>
      </trkpt>
      <trkpt lat="45.52833" lon="6.65636">
        <ele>1527.4000244141</ele>
        <time>2012-07-28T05:15:04Z</time>
      </trkpt>
      <trkpt lat="45.52834" lon="6.65638">
        <ele>1527.5999755859</ele>
        <time>2012-07-28T05:15:05Z</time>
      </trkpt>
      <trkpt lat="45.52829" lon="6.6566">
        <ele>1529.5999755859</ele>
        <time>2012-07-28T05:15:17Z</time>
      </trkpt>
      <trkpt lat="45.52829" lon="6.65663">
        <ele>1530.1999511719</ele>
        <time>2012-07-28T05:15:19Z</time>
      </trkpt>
      <trkpt lat="45.52829" lon="6.65667">
        <ele>1531</ele>
        <time>2012-07-28T05:15:21Z</time>
      </trkpt>
      <trkpt lat="45.52828" lon="6.65671">
        <ele>1531.4000244141</ele>
        <time>2012-07-28T05:15:23Z</time>
      </trkpt>
      <trkpt lat="45.52822" lon="6.65678">
        <ele>1532.1999511719</ele>
        <time>2012-07-28T05:15:28Z</time>
      </trkpt>
      <trkpt lat="45.52819" lon="6.65684">
        <ele>1532.5999755859</ele>
        <time>2012-07-28T05:15:32Z</time>
      </trkpt>
      <trkpt lat="45.52818" lon="6.65686">
        <ele>1532.8000488281</ele>
        <time>2012-07-28T05:15:34Z</time>
      </trkpt>
      <trkpt lat="45.52816" lon="6.65708">
        <ele>1534.8000488281</ele>
        <time>2012-07-28T05:15:43Z</time>
      </trkpt>
      <trkpt lat="45.52816" lon="6.6571">
        <ele>1535</ele>
        <time>2012-07-28T05:15:44Z</time>
      </trkpt>
      <trkpt lat="45.52819" lon="6.6572">
        <ele>1535.8000488281</ele>
        <time>2012-07-28T05:15:48Z</time>
      </trkpt>
      <trkpt lat="45.52818" lon="6.65733">
        <ele>1536.8000488281</ele>
        <time>2012-07-28T05:15:52Z</time>
      </trkpt>
      <trkpt lat="45.52813" lon="6.65759">
        <ele>1540.4000244141</ele>
        <time>2012-07-28T05:16:01Z</time>
      </trkpt>
      <trkpt lat="45.52811" lon="6.65766">
        <ele>1541.4000244141</ele>
        <time>2012-07-28T05:16:04Z</time>
      </trkpt>
      <trkpt lat="45.52808" lon="6.65775">
        <ele>1543</ele>
        <time>2012-07-28T05:16:08Z</time>
      </trkpt>
      <trkpt lat="45.52808" lon="6.65785">
        <ele>1544.4000244141</ele>
        <time>2012-07-28T05:16:12Z</time>
      </trkpt>
      <trkpt lat="45.528" lon="6.6581">
        <ele>1548</ele>
        <time>2012-07-28T05:16:23Z</time>
      </trkpt>
      <trkpt lat="45.52786" lon="6.65828">
        <ele>1550</ele>
        <time>2012-07-28T05:16:37Z</time>
      </trkpt>
      <trkpt lat="45.52781" lon="6.65834">
        <ele>1550.4000244141</ele>
        <time>2012-07-28T05:16:41Z</time>
      </trkpt>
      <trkpt lat="45.52771" lon="6.65846">
        <ele>1551</ele>
        <time>2012-07-28T05:16:51Z</time>
      </trkpt>
      <trkpt lat="45.52757" lon="6.65862">
        <ele>1552.5999755859</ele>
        <time>2012-07-28T05:17:03Z</time>
      </trkpt>
      <trkpt lat="45.5275" lon="6.65873">
        <ele>1554</ele>
        <time>2012-07-28T05:17:10Z</time>
      </trkpt>
      <trkpt lat="45.52748" lon="6.65874">
        <ele>1554.8000488281</ele>
        <time>2012-07-28T05:17:13Z</time>
      </trkpt>
      <trkpt lat="45.52744" lon="6.65882">
        <ele>1556.4000244141</ele>
        <time>2012-07-28T05:17:16Z</time>
      </trkpt>
      <trkpt lat="45.5274" lon="6.65891">
        <ele>1558.8000488281</ele>
        <time>2012-07-28T05:17:22Z</time>
      </trkpt>
      <trkpt lat="45.52738" lon="6.65896">
        <ele>1560.4000244141</ele>
        <time>2012-07-28T05:17:27Z</time>
      </trkpt>
      <trkpt lat="45.52734" lon="6.65904">
        <ele>1562.1999511719</ele>
        <time>2012-07-28T05:17:31Z</time>
      </trkpt>
      <trkpt lat="45.52724" lon="6.65925">
        <ele>1565.4000244141</ele>
        <time>2012-07-28T05:17:44Z</time>
      </trkpt>
      <trkpt lat="45.52722" lon="6.65928">
        <ele>1565.8000488281</ele>
        <time>2012-07-28T05:17:45Z</time>
      </trkpt>
      <trkpt lat="45.52718" lon="6.65934">
        <ele>1566.5999755859</ele>
        <time>2012-07-28T05:17:50Z</time>
      </trkpt>
      <trkpt lat="45.52717" lon="6.65937">
        <ele>1567.1999511719</ele>
        <time>2012-07-28T05:17:53Z</time>
      </trkpt>
      <trkpt lat="45.52714" lon="6.65944">
        <ele>1568.5999755859</ele>
        <time>2012-07-28T05:17:57Z</time>
      </trkpt>
      <trkpt lat="45.52713" lon="6.65946">
        <ele>1568.8000488281</ele>
        <time>2012-07-28T05:17:58Z</time>
      </trkpt>
      <trkpt lat="45.52704" lon="6.65962">
        <ele>1572.4000244141</ele>
        <time>2012-07-28T05:18:09Z</time>
      </trkpt>
      <trkpt lat="45.52702" lon="6.65967">
        <ele>1573.4000244141</ele>
        <time>2012-07-28T05:18:12Z</time>
      </trkpt>
      <trkpt lat="45.52697" lon="6.65977">
        <ele>1575.1999511719</ele>
        <time>2012-07-28T05:18:17Z</time>
      </trkpt>
      <trkpt lat="45.5269" lon="6.65988">
        <ele>1577.4000244141</ele>
        <time>2012-07-28T05:18:22Z</time>
      </trkpt>
      <trkpt lat="45.52688" lon="6.65991">
        <ele>1578</ele>
        <time>2012-07-28T05:18:23Z</time>
      </trkpt>
      <trkpt lat="45.52678" lon="6.66007">
        <ele>1582.5999755859</ele>
        <time>2012-07-28T05:18:32Z</time>
      </trkpt>
      <trkpt lat="45.52668" lon="6.66028">
        <ele>1588.5999755859</ele>
        <time>2012-07-28T05:18:42Z</time>
      </trkpt>
      <trkpt lat="45.52661" lon="6.66037">
        <ele>1592.4000244141</ele>
        <time>2012-07-28T05:18:51Z</time>
      </trkpt>
      <trkpt lat="45.52654" lon="6.66048">
        <ele>1594.1999511719</ele>
        <time>2012-07-28T05:18:59Z</time>
      </trkpt>
      <trkpt lat="45.52653" lon="6.6605">
        <ele>1594.4000244141</ele>
        <time>2012-07-28T05:19:00Z</time>
      </trkpt>
      <trkpt lat="45.52647" lon="6.66061">
        <ele>1595.1999511719</ele>
        <time>2012-07-28T05:19:05Z</time>
      </trkpt>
      <trkpt lat="45.52642" lon="6.66067">
        <ele>1595.8000488281</ele>
        <time>2012-07-28T05:19:08Z</time>
      </trkpt>
      <trkpt lat="45.52629" lon="6.66089">
        <ele>1598</ele>
        <time>2012-07-28T05:19:17Z</time>
      </trkpt>
      <trkpt lat="45.52627" lon="6.66095">
        <ele>1599</ele>
        <time>2012-07-28T05:19:20Z</time>
      </trkpt>
      <trkpt lat="45.52623" lon="6.66106">
        <ele>1600.4000244141</ele>
        <time>2012-07-28T05:19:25Z</time>
      </trkpt>
      <trkpt lat="45.5262" lon="6.66112">
        <ele>1601.4000244141</ele>
        <time>2012-07-28T05:19:29Z</time>
      </trkpt>
      <trkpt lat="45.52619" lon="6.66115">
        <ele>1601.8000488281</ele>
        <time>2012-07-28T05:19:31Z</time>
      </trkpt>
      <trkpt lat="45.52614" lon="6.66125">
        <ele>1602</ele>
        <time>2012-07-28T05:19:38Z</time>
      </trkpt>
      <trkpt lat="45.52608" lon="6.66129">
        <ele>1602</ele>
        <time>2012-07-28T05:19:42Z</time>
      </trkpt>
      <trkpt lat="45.52599" lon="6.66138">
        <ele>1601.8000488281</ele>
        <time>2012-07-28T05:19:50Z</time>
      </trkpt>
      <trkpt lat="45.52592" lon="6.66148">
        <ele>1603</ele>
        <time>2012-07-28T05:19:54Z</time>
      </trkpt>
      <trkpt lat="45.52591" lon="6.66173">
        <ele>1607.4000244141</ele>
        <time>2012-07-28T05:20:09Z</time>
      </trkpt>
      <trkpt lat="45.5259" lon="6.66176">
        <ele>1607.8000488281</ele>
        <time>2012-07-28T05:20:11Z</time>
      </trkpt>
      <trkpt lat="45.52584" lon="6.66192">
        <ele>1610.1999511719</ele>
        <time>2012-07-28T05:20:20Z</time>
      </trkpt>
      <trkpt lat="45.52581" lon="6.66195">
        <ele>1610.8000488281</ele>
        <time>2012-07-28T05:20:21Z</time>
      </trkpt>
      <trkpt lat="45.52565" lon="6.66214">
        <ele>1612.8000488281</ele>
        <time>2012-07-28T05:20:29Z</time>
      </trkpt>
      <trkpt lat="45.52561" lon="6.66221">
        <ele>1614</ele>
        <time>2012-07-28T05:20:31Z</time>
      </trkpt>
      <trkpt lat="45.52554" lon="6.66235">
        <ele>1616.1999511719</ele>
        <time>2012-07-28T05:20:35Z</time>
      </trkpt>
      <trkpt lat="45.52552" lon="6.66243">
        <ele>1617.8000488281</ele>
        <time>2012-07-28T05:20:39Z</time>
      </trkpt>
      <trkpt lat="45.52553" lon="6.66248">
        <ele>1618.5999755859</ele>
        <time>2012-07-28T05:20:42Z</time>
      </trkpt>
      <trkpt lat="45.52554" lon="6.66261">
        <ele>1620.5999755859</ele>
        <time>2012-07-28T05:20:49Z</time>
      </trkpt>
      <trkpt lat="45.52544" lon="6.66276">
        <ele>1622</ele>
        <time>2012-07-28T05:20:56Z</time>
      </trkpt>
      <trkpt lat="45.52541" lon="6.66281">
        <ele>1622.4000244141</ele>
        <time>2012-07-28T05:20:58Z</time>
      </trkpt>
      <trkpt lat="45.52526" lon="6.66299">
        <ele>1624.5999755859</ele>
        <time>2012-07-28T05:21:07Z</time>
      </trkpt>
      <trkpt lat="45.5252" lon="6.66309">
        <ele>1625.4000244141</ele>
        <time>2012-07-28T05:21:12Z</time>
      </trkpt>
      <trkpt lat="45.52514" lon="6.66317">
        <ele>1626.1999511719</ele>
        <time>2012-07-28T05:21:16Z</time>
      </trkpt>
      <trkpt lat="45.52496" lon="6.6633">
        <ele>1628.5999755859</ele>
        <time>2012-07-28T05:21:25Z</time>
      </trkpt>
      <trkpt lat="45.52494" lon="6.66339">
        <ele>1630.1999511719</ele>
        <time>2012-07-28T05:21:28Z</time>
      </trkpt>
      <trkpt lat="45.52487" lon="6.6635">
        <ele>1631</ele>
        <time>2012-07-28T05:21:33Z</time>
      </trkpt>
      <trkpt lat="45.5248" lon="6.66354">
        <ele>1631.4000244141</ele>
        <time>2012-07-28T05:21:36Z</time>
      </trkpt>
      <trkpt lat="45.52467" lon="6.66357">
        <ele>1631.4000244141</ele>
        <time>2012-07-28T05:21:42Z</time>
      </trkpt>
      <trkpt lat="45.52449" lon="6.66366">
        <ele>1631.5999755859</ele>
        <time>2012-07-28T05:21:50Z</time>
      </trkpt>
      <trkpt lat="45.52433" lon="6.66378">
        <ele>1633.1999511719</ele>
        <time>2012-07-28T05:22:00Z</time>
      </trkpt>
      <trkpt lat="45.52415" lon="6.66381">
        <ele>1637</ele>
        <time>2012-07-28T05:22:15Z</time>
      </trkpt>
      <trkpt lat="45.52411" lon="6.6638">
        <ele>1637.4000244141</ele>
        <time>2012-07-28T05:22:17Z</time>
      </trkpt>
      <trkpt lat="45.52396" lon="6.66375">
        <ele>1639.1999511719</ele>
        <time>2012-07-28T05:22:27Z</time>
      </trkpt>
      <trkpt lat="45.52378" lon="6.66375">
        <ele>1639.8000488281</ele>
        <time>2012-07-28T05:22:37Z</time>
      </trkpt>
      <trkpt lat="45.52359" lon="6.6638">
        <ele>1641</ele>
        <time>2012-07-28T05:22:47Z</time>
      </trkpt>
      <trkpt lat="45.52354" lon="6.66379">
        <ele>1641.1999511719</ele>
        <time>2012-07-28T05:22:50Z</time>
      </trkpt>
      <trkpt lat="45.52347" lon="6.66382">
        <ele>1642</ele>
        <time>2012-07-28T05:22:55Z</time>
      </trkpt>
      <trkpt lat="45.5234" lon="6.66382">
        <ele>1643.1999511719</ele>
        <time>2012-07-28T05:23:01Z</time>
      </trkpt>
      <trkpt lat="45.5234" lon="6.66385">
        <ele>1643.5999755859</ele>
        <time>2012-07-28T05:23:02Z</time>
      </trkpt>
      <trkpt lat="45.52333" lon="6.66393">
        <ele>1645.5999755859</ele>
        <time>2012-07-28T05:23:06Z</time>
      </trkpt>
      <trkpt lat="45.52324" lon="6.6639">
        <ele>1646.8000488281</ele>
        <time>2012-07-28T05:23:11Z</time>
      </trkpt>
      <trkpt lat="45.52309" lon="6.66398">
        <ele>1650</ele>
        <time>2012-07-28T05:23:24Z</time>
      </trkpt>
      <trkpt lat="45.52306" lon="6.664">
        <ele>1651</ele>
        <time>2012-07-28T05:23:26Z</time>
      </trkpt>
      <trkpt lat="45.52289" lon="6.66413">
        <ele>1658</ele>
        <time>2012-07-28T05:23:36Z</time>
      </trkpt>
      <trkpt lat="45.52273" lon="6.66421">
        <ele>1667.8000488281</ele>
        <time>2012-07-28T05:23:48Z</time>
      </trkpt>
      <trkpt lat="45.52267" lon="6.66423">
        <ele>1671.4000244141</ele>
        <time>2012-07-28T05:23:53Z</time>
      </trkpt>
      <trkpt lat="45.52264" lon="6.66418">
        <ele>1673.1999511719</ele>
        <time>2012-07-28T05:23:57Z</time>
      </trkpt>
      <trkpt lat="45.52257" lon="6.66407">
        <ele>1676.4000244141</ele>
        <time>2012-07-28T05:24:06Z</time>
      </trkpt>
      <trkpt lat="45.52241" lon="6.66401">
        <ele>1680.8000488281</ele>
        <time>2012-07-28T05:24:20Z</time>
      </trkpt>
      <trkpt lat="45.52238" lon="6.66402">
        <ele>1681.1999511719</ele>
        <time>2012-07-28T05:24:23Z</time>
      </trkpt>
      <trkpt lat="45.52232" lon="6.66393">
        <ele>1681.4000244141</ele>
        <time>2012-07-28T05:24:29Z</time>
      </trkpt>
      <trkpt lat="45.52233" lon="6.66389">
        <ele>1681.5999755859</ele>
        <time>2012-07-28T05:24:30Z</time>
      </trkpt>
      <trkpt lat="45.52235" lon="6.66383">
        <ele>1682.4000244141</ele>
        <time>2012-07-28T05:24:36Z</time>
      </trkpt>
      <trkpt lat="45.52234" lon="6.66382">
        <ele>1682.8000488281</ele>
        <time>2012-07-28T05:24:38Z</time>
      </trkpt>
      <trkpt lat="45.5223" lon="6.6638">
        <ele>1682.8000488281</ele>
        <time>2012-07-28T05:24:42Z</time>
      </trkpt>
      <trkpt lat="45.52217" lon="6.6639">
        <ele>1686.5999755859</ele>
        <time>2012-07-28T05:24:52Z</time>
      </trkpt>
      <trkpt lat="45.52216" lon="6.66388">
        <ele>1687.4000244141</ele>
        <time>2012-07-28T05:24:54Z</time>
      </trkpt>
      <trkpt lat="45.52211" lon="6.66388">
        <ele>1690.1999511719</ele>
        <time>2012-07-28T05:25:00Z</time>
      </trkpt>
      <trkpt lat="45.52207" lon="6.66387">
        <ele>1693</ele>
        <time>2012-07-28T05:25:06Z</time>
      </trkpt>
      <trkpt lat="45.522" lon="6.66379">
        <ele>1695.1999511719</ele>
        <time>2012-07-28T05:25:19Z</time>
      </trkpt>
      <trkpt lat="45.52199" lon="6.66379">
        <ele>1695.1999511719</ele>
        <time>2012-07-28T05:25:20Z</time>
      </trkpt>
      <trkpt lat="45.52182" lon="6.6638">
        <ele>1696.5999755859</ele>
        <time>2012-07-28T05:25:31Z</time>
      </trkpt>
      <trkpt lat="45.52164" lon="6.66368">
        <ele>1697.1999511719</ele>
        <time>2012-07-28T05:25:38Z</time>
      </trkpt>
      <trkpt lat="45.52145" lon="6.66364">
        <ele>1697.1999511719</ele>
        <time>2012-07-28T05:25:45Z</time>
      </trkpt>
      <trkpt lat="45.52129" lon="6.66379">
        <ele>1697.5999755859</ele>
        <time>2012-07-28T05:25:53Z</time>
      </trkpt>
      <trkpt lat="45.52126" lon="6.66384">
        <ele>1699</ele>
        <time>2012-07-28T05:25:56Z</time>
      </trkpt>
      <trkpt lat="45.52122" lon="6.66383">
        <ele>1701.1999511719</ele>
        <time>2012-07-28T05:26:02Z</time>
      </trkpt>
      <trkpt lat="45.52118" lon="6.66381">
        <ele>1702.5999755859</ele>
        <time>2012-07-28T05:26:07Z</time>
      </trkpt>
      <trkpt lat="45.52111" lon="6.66379">
        <ele>1704.5999755859</ele>
        <time>2012-07-28T05:26:15Z</time>
      </trkpt>
      <trkpt lat="45.52095" lon="6.66381">
        <ele>1707.4000244141</ele>
        <time>2012-07-28T05:26:31Z</time>
      </trkpt>
      <trkpt lat="45.52094" lon="6.66382">
        <ele>1707.8000488281</ele>
        <time>2012-07-28T05:26:32Z</time>
      </trkpt>
      <trkpt lat="45.52085" lon="6.66388">
        <ele>1710.4000244141</ele>
        <time>2012-07-28T05:26:38Z</time>
      </trkpt>
      <trkpt lat="45.52077" lon="6.6638">
        <ele>1713.1999511719</ele>
        <time>2012-07-28T05:26:43Z</time>
      </trkpt>
      <trkpt lat="45.52072" lon="6.6638">
        <ele>1715.1999511719</ele>
        <time>2012-07-28T05:26:47Z</time>
      </trkpt>
      <trkpt lat="45.52069" lon="6.66383">
        <ele>1716.8000488281</ele>
        <time>2012-07-28T05:26:50Z</time>
      </trkpt>
      <trkpt lat="45.52059" lon="6.66381">
        <ele>1720.5999755859</ele>
        <time>2012-07-28T05:27:01Z</time>
      </trkpt>
      <trkpt lat="45.52043" lon="6.66367">
        <ele>1723.1999511719</ele>
        <time>2012-07-28T05:27:16Z</time>
      </trkpt>
      <trkpt lat="45.52041" lon="6.66365">
        <ele>1723.4000244141</ele>
        <time>2012-07-28T05:27:18Z</time>
      </trkpt>
      <trkpt lat="45.52039" lon="6.66361">
        <ele>1723.4000244141</ele>
        <time>2012-07-28T05:27:21Z</time>
      </trkpt>
      <trkpt lat="45.5203" lon="6.66351">
        <ele>1724.4000244141</ele>
        <time>2012-07-28T05:27:30Z</time>
      </trkpt>
      <trkpt lat="45.52029" lon="6.6635">
        <ele>1724.5999755859</ele>
        <time>2012-07-28T05:27:32Z</time>
      </trkpt>
      <trkpt lat="45.52026" lon="6.66349">
        <ele>1725.1999511719</ele>
        <time>2012-07-28T05:27:36Z</time>
      </trkpt>
      <trkpt lat="45.52022" lon="6.66347">
        <ele>1726</ele>
        <time>2012-07-28T05:27:40Z</time>
      </trkpt>
      <trkpt lat="45.52013" lon="6.66345">
        <ele>1728.4000244141</ele>
        <time>2012-07-28T05:27:50Z</time>
      </trkpt>
      <trkpt lat="45.51997" lon="6.6633">
        <ele>1733</ele>
        <time>2012-07-28T05:28:05Z</time>
      </trkpt>
      <trkpt lat="45.51996" lon="6.66329">
        <ele>1733.1999511719</ele>
        <time>2012-07-28T05:28:06Z</time>
      </trkpt>
      <trkpt lat="45.51984" lon="6.66327">
        <ele>1737.5999755859</ele>
        <time>2012-07-28T05:28:19Z</time>
      </trkpt>
      <trkpt lat="45.51982" lon="6.66326">
        <ele>1738</ele>
        <time>2012-07-28T05:28:20Z</time>
      </trkpt>
      <trkpt lat="45.51979" lon="6.66326">
        <ele>1739.1999511719</ele>
        <time>2012-07-28T05:28:23Z</time>
      </trkpt>
      <trkpt lat="45.51976" lon="6.66327">
        <ele>1740.5999755859</ele>
        <time>2012-07-28T05:28:26Z</time>
      </trkpt>
      <trkpt lat="45.51972" lon="6.66326">
        <ele>1741.5999755859</ele>
        <time>2012-07-28T05:28:30Z</time>
      </trkpt>
      <trkpt lat="45.51966" lon="6.66323">
        <ele>1743.5999755859</ele>
        <time>2012-07-28T05:28:36Z</time>
      </trkpt>
      <trkpt lat="45.51961" lon="6.66322">
        <ele>1745.1999511719</ele>
        <time>2012-07-28T05:28:42Z</time>
      </trkpt>
      <trkpt lat="45.51948" lon="6.66319">
        <ele>1747.4000244141</ele>
        <time>2012-07-28T05:28:52Z</time>
      </trkpt>
      <trkpt lat="45.51943" lon="6.6632">
        <ele>1748.8000488281</ele>
        <time>2012-07-28T05:28:56Z</time>
      </trkpt>
      <trkpt lat="45.51939" lon="6.66321">
        <ele>1749.8000488281</ele>
        <time>2012-07-28T05:28:59Z</time>
      </trkpt>
      <trkpt lat="45.51929" lon="6.66314">
        <ele>1752.1999511719</ele>
        <time>2012-07-28T05:29:06Z</time>
      </trkpt>
      <trkpt lat="45.51925" lon="6.66315">
        <ele>1753.4000244141</ele>
        <time>2012-07-28T05:29:09Z</time>
      </trkpt>
      <trkpt lat="45.51917" lon="6.66312">
        <ele>1756</ele>
        <time>2012-07-28T05:29:15Z</time>
      </trkpt>
      <trkpt lat="45.5191" lon="6.663">
        <ele>1757.4000244141</ele>
        <time>2012-07-28T05:29:21Z</time>
      </trkpt>
      <trkpt lat="45.51899" lon="6.66279">
        <ele>1759.4000244141</ele>
        <time>2012-07-28T05:29:33Z</time>
      </trkpt>
      <trkpt lat="45.51897" lon="6.66275">
        <ele>1759.8000488281</ele>
        <time>2012-07-28T05:29:35Z</time>
      </trkpt>
      <trkpt lat="45.51896" lon="6.66264">
        <ele>1762.4000244141</ele>
        <time>2012-07-28T05:29:41Z</time>
      </trkpt>
      <trkpt lat="45.51894" lon="6.66258">
        <ele>1765</ele>
        <time>2012-07-28T05:29:46Z</time>
      </trkpt>
      <trkpt lat="45.51892" lon="6.66254">
        <ele>1766.4000244141</ele>
        <time>2012-07-28T05:29:49Z</time>
      </trkpt>
      <trkpt lat="45.51889" lon="6.66237">
        <ele>1772</ele>
        <time>2012-07-28T05:29:59Z</time>
      </trkpt>
      <trkpt lat="45.51883" lon="6.66234">
        <ele>1774.4000244141</ele>
        <time>2012-07-28T05:30:04Z</time>
      </trkpt>
      <trkpt lat="45.51868" lon="6.66219">
        <ele>1780.4000244141</ele>
        <time>2012-07-28T05:30:18Z</time>
      </trkpt>
      <trkpt lat="45.51863" lon="6.66214">
        <ele>1781.4000244141</ele>
        <time>2012-07-28T05:30:22Z</time>
      </trkpt>
      <trkpt lat="45.51855" lon="6.66205">
        <ele>1782</ele>
        <time>2012-07-28T05:30:28Z</time>
      </trkpt>
      <trkpt lat="45.51851" lon="6.66199">
        <ele>1782</ele>
        <time>2012-07-28T05:30:31Z</time>
      </trkpt>
      <trkpt lat="45.51842" lon="6.66184">
        <ele>1782.1999511719</ele>
        <time>2012-07-28T05:30:37Z</time>
      </trkpt>
      <trkpt lat="45.51831" lon="6.66163">
        <ele>1784.4000244141</ele>
        <time>2012-07-28T05:30:48Z</time>
      </trkpt>
      <trkpt lat="45.5182" lon="6.6615">
        <ele>1787</ele>
        <time>2012-07-28T05:30:57Z</time>
      </trkpt>
      <trkpt lat="45.51817" lon="6.66145">
        <ele>1788.1999511719</ele>
        <time>2012-07-28T05:31:00Z</time>
      </trkpt>
      <trkpt lat="45.518" lon="6.66135">
        <ele>1791.4000244141</ele>
        <time>2012-07-28T05:31:09Z</time>
      </trkpt>
      <trkpt lat="45.5179" lon="6.66127">
        <ele>1793</ele>
        <time>2012-07-28T05:31:15Z</time>
      </trkpt>
      <trkpt lat="45.51784" lon="6.66119">
        <ele>1793.5999755859</ele>
        <time>2012-07-28T05:31:20Z</time>
      </trkpt>
      <trkpt lat="45.51779" lon="6.66114">
        <ele>1794.1999511719</ele>
        <time>2012-07-28T05:31:24Z</time>
      </trkpt>
      <trkpt lat="45.51769" lon="6.66103">
        <ele>1794.5999755859</ele>
        <time>2012-07-28T05:31:33Z</time>
      </trkpt>
      <trkpt lat="45.51766" lon="6.66098">
        <ele>1795</ele>
        <time>2012-07-28T05:31:37Z</time>
      </trkpt>
      <trkpt lat="45.51762" lon="6.66093">
        <ele>1795.5999755859</ele>
        <time>2012-07-28T05:31:42Z</time>
      </trkpt>
      <trkpt lat="45.5176" lon="6.66092">
        <ele>1795.8000488281</ele>
        <time>2012-07-28T05:31:44Z</time>
      </trkpt>
      <trkpt lat="45.51756" lon="6.66086">
        <ele>1796.4000244141</ele>
        <time>2012-07-28T05:31:48Z</time>
      </trkpt>
      <trkpt lat="45.51755" lon="6.66085">
        <ele>1796.5999755859</ele>
        <time>2012-07-28T05:31:49Z</time>
      </trkpt>
      <trkpt lat="45.51748" lon="6.6607">
        <ele>1798.4000244141</ele>
        <time>2012-07-28T05:32:00Z</time>
      </trkpt>
      <trkpt lat="45.51745" lon="6.66067">
        <ele>1798.5999755859</ele>
        <time>2012-07-28T05:32:02Z</time>
      </trkpt>
      <trkpt lat="45.51743" lon="6.66064">
        <ele>1798.5999755859</ele>
        <time>2012-07-28T05:32:04Z</time>
      </trkpt>
      <trkpt lat="45.51736" lon="6.66045">
        <ele>1799.8000488281</ele>
        <time>2012-07-28T05:32:15Z</time>
      </trkpt>
      <trkpt lat="45.51736" lon="6.6604">
        <ele>1800</ele>
        <time>2012-07-28T05:32:18Z</time>
      </trkpt>
      <trkpt lat="45.51727" lon="6.66023">
        <ele>1801</ele>
        <time>2012-07-28T05:32:24Z</time>
      </trkpt>
      <trkpt lat="45.51713" lon="6.66008">
        <ele>1801.8000488281</ele>
        <time>2012-07-28T05:32:31Z</time>
      </trkpt>
      <trkpt lat="45.51696" lon="6.65994">
        <ele>1803.4000244141</ele>
        <time>2012-07-28T05:32:40Z</time>
      </trkpt>
      <trkpt lat="45.51693" lon="6.65989">
        <ele>1804.1999511719</ele>
        <time>2012-07-28T05:32:43Z</time>
      </trkpt>
      <trkpt lat="45.51681" lon="6.65979">
        <ele>1807.8000488281</ele>
        <time>2012-07-28T05:32:54Z</time>
      </trkpt>
      <trkpt lat="45.51667" lon="6.65977">
        <ele>1812.1999511719</ele>
        <time>2012-07-28T05:33:08Z</time>
      </trkpt>
      <trkpt lat="45.51663" lon="6.65975">
        <ele>1813.1999511719</ele>
        <time>2012-07-28T05:33:11Z</time>
      </trkpt>
      <trkpt lat="45.51658" lon="6.65976">
        <ele>1814.8000488281</ele>
        <time>2012-07-28T05:33:17Z</time>
      </trkpt>
      <trkpt lat="45.51654" lon="6.65976">
        <ele>1816</ele>
        <time>2012-07-28T05:33:22Z</time>
      </trkpt>
      <trkpt lat="45.51651" lon="6.6598">
        <ele>1817.1999511719</ele>
        <time>2012-07-28T05:33:28Z</time>
      </trkpt>
      <trkpt lat="45.51647" lon="6.6598">
        <ele>1818.4000244141</ele>
        <time>2012-07-28T05:33:33Z</time>
      </trkpt>
      <trkpt lat="45.51636" lon="6.65984">
        <ele>1821.4000244141</ele>
        <time>2012-07-28T05:33:46Z</time>
      </trkpt>
      <trkpt lat="45.51628" lon="6.65985">
        <ele>1824</ele>
        <time>2012-07-28T05:33:53Z</time>
      </trkpt>
      <trkpt lat="45.51614" lon="6.65987">
        <ele>1828</ele>
        <time>2012-07-28T05:34:08Z</time>
      </trkpt>
      <trkpt lat="45.51614" lon="6.65991">
        <ele>1828.5999755859</ele>
        <time>2012-07-28T05:34:13Z</time>
      </trkpt>
      <trkpt lat="45.51615" lon="6.66011">
        <ele>1831.5999755859</ele>
        <time>2012-07-28T05:34:27Z</time>
      </trkpt>
      <trkpt lat="45.51615" lon="6.66017">
        <ele>1832.5999755859</ele>
        <time>2012-07-28T05:34:31Z</time>
      </trkpt>
      <trkpt lat="45.51615" lon="6.66019">
        <ele>1832.8000488281</ele>
        <time>2012-07-28T05:34:32Z</time>
      </trkpt>
      <trkpt lat="45.51614" lon="6.6603">
        <ele>1834.8000488281</ele>
        <time>2012-07-28T05:34:41Z</time>
      </trkpt>
      <trkpt lat="45.51615" lon="6.66036">
        <ele>1835.5999755859</ele>
        <time>2012-07-28T05:34:45Z</time>
      </trkpt>
      <trkpt lat="45.51615" lon="6.66043">
        <ele>1836.5999755859</ele>
        <time>2012-07-28T05:34:50Z</time>
      </trkpt>
      <trkpt lat="45.51615" lon="6.66045">
        <ele>1837</ele>
        <time>2012-07-28T05:34:52Z</time>
      </trkpt>
      <trkpt lat="45.51614" lon="6.66047">
        <ele>1837.1999511719</ele>
        <time>2012-07-28T05:34:53Z</time>
      </trkpt>
      <trkpt lat="45.51614" lon="6.66057">
        <ele>1839</ele>
        <time>2012-07-28T05:35:01Z</time>
      </trkpt>
      <trkpt lat="45.51613" lon="6.66067">
        <ele>1841.1999511719</ele>
        <time>2012-07-28T05:35:09Z</time>
      </trkpt>
      <trkpt lat="45.51613" lon="6.6607">
        <ele>1841.8000488281</ele>
        <time>2012-07-28T05:35:11Z</time>
      </trkpt>
      <trkpt lat="45.51614" lon="6.66076">
        <ele>1842.8000488281</ele>
        <time>2012-07-28T05:35:15Z</time>
      </trkpt>
      <trkpt lat="45.51614" lon="6.66086">
        <ele>1844.5999755859</ele>
        <time>2012-07-28T05:35:21Z</time>
      </trkpt>
      <trkpt lat="45.51613" lon="6.66094">
        <ele>1846</ele>
        <time>2012-07-28T05:35:25Z</time>
      </trkpt>
      <trkpt lat="45.51609" lon="6.66119">
        <ele>1851.1999511719</ele>
        <time>2012-07-28T05:35:42Z</time>
      </trkpt>
      <trkpt lat="45.51608" lon="6.66144">
        <ele>1855.1999511719</ele>
        <time>2012-07-28T05:35:59Z</time>
      </trkpt>
      <trkpt lat="45.51608" lon="6.66146">
        <ele>1855.5999755859</ele>
        <time>2012-07-28T05:36:00Z</time>
      </trkpt>
      <trkpt lat="45.51609" lon="6.66156">
        <ele>1857.4000244141</ele>
        <time>2012-07-28T05:36:05Z</time>
      </trkpt>
      <trkpt lat="45.5161" lon="6.66165">
        <ele>1860.1999511719</ele>
        <time>2012-07-28T05:36:13Z</time>
      </trkpt>
      <trkpt lat="45.51611" lon="6.66172">
        <ele>1862</ele>
        <time>2012-07-28T05:36:18Z</time>
      </trkpt>
      <trkpt lat="45.51614" lon="6.6619">
        <ele>1866.5999755859</ele>
        <time>2012-07-28T05:36:32Z</time>
      </trkpt>
      <trkpt lat="45.51616" lon="6.66196">
        <ele>1868.5999755859</ele>
        <time>2012-07-28T05:36:38Z</time>
      </trkpt>
      <trkpt lat="45.51617" lon="6.66201">
        <ele>1869.8000488281</ele>
        <time>2012-07-28T05:36:42Z</time>
      </trkpt>
      <trkpt lat="45.51619" lon="6.66218">
        <ele>1874.1999511719</ele>
        <time>2012-07-28T05:36:57Z</time>
      </trkpt>
      <trkpt lat="45.51619" lon="6.66222">
        <ele>1875</ele>
        <time>2012-07-28T05:37:00Z</time>
      </trkpt>
      <trkpt lat="45.51621" lon="6.66237">
        <ele>1879.4000244141</ele>
        <time>2012-07-28T05:37:13Z</time>
      </trkpt>
      <trkpt lat="45.51622" lon="6.66247">
        <ele>1882.4000244141</ele>
        <time>2012-07-28T05:37:22Z</time>
      </trkpt>
      <trkpt lat="45.51622" lon="6.66251">
        <ele>1883.4000244141</ele>
        <time>2012-07-28T05:37:25Z</time>
      </trkpt>
      <trkpt lat="45.51626" lon="6.66271">
        <ele>1886.8000488281</ele>
        <time>2012-07-28T05:37:38Z</time>
      </trkpt>
      <trkpt lat="45.51626" lon="6.66273">
        <ele>1887</ele>
        <time>2012-07-28T05:37:39Z</time>
      </trkpt>
      <trkpt lat="45.51635" lon="6.66295">
        <ele>1890.1999511719</ele>
        <time>2012-07-28T05:37:55Z</time>
      </trkpt>
      <trkpt lat="45.51644" lon="6.66321">
        <ele>1895.1999511719</ele>
        <time>2012-07-28T05:38:08Z</time>
      </trkpt>
      <trkpt lat="45.51648" lon="6.66345">
        <ele>1899.5999755859</ele>
        <time>2012-07-28T05:38:17Z</time>
      </trkpt>
      <trkpt lat="45.51646" lon="6.66363">
        <ele>1901.8000488281</ele>
        <time>2012-07-28T05:38:23Z</time>
      </trkpt>
      <trkpt lat="45.51648" lon="6.66374">
        <ele>1903.1999511719</ele>
        <time>2012-07-28T05:38:27Z</time>
      </trkpt>
      <trkpt lat="45.51648" lon="6.66377">
        <ele>1903.5999755859</ele>
        <time>2012-07-28T05:38:28Z</time>
      </trkpt>
      <trkpt lat="45.51651" lon="6.66401">
        <ele>1907</ele>
        <time>2012-07-28T05:38:37Z</time>
      </trkpt>
      <trkpt lat="45.51654" lon="6.66429">
        <ele>1910.8000488281</ele>
        <time>2012-07-28T05:38:48Z</time>
      </trkpt>
      <trkpt lat="45.51655" lon="6.66434">
        <ele>1911.4000244141</ele>
        <time>2012-07-28T05:38:50Z</time>
      </trkpt>
      <trkpt lat="45.51654" lon="6.66449">
        <ele>1912.8000488281</ele>
        <time>2012-07-28T05:38:55Z</time>
      </trkpt>
      <trkpt lat="45.51653" lon="6.66456">
        <ele>1913.4000244141</ele>
        <time>2012-07-28T05:38:58Z</time>
      </trkpt>
      <trkpt lat="45.51652" lon="6.66464">
        <ele>1914.1999511719</ele>
        <time>2012-07-28T05:39:02Z</time>
      </trkpt>
      <trkpt lat="45.5165" lon="6.66475">
        <ele>1915.1999511719</ele>
        <time>2012-07-28T05:39:08Z</time>
      </trkpt>
      <trkpt lat="45.51649" lon="6.66482">
        <ele>1915.8000488281</ele>
        <time>2012-07-28T05:39:11Z</time>
      </trkpt>
      <trkpt lat="45.51649" lon="6.66508">
        <ele>1918.5999755859</ele>
        <time>2012-07-28T05:39:28Z</time>
      </trkpt>
      <trkpt lat="45.5165" lon="6.66533">
        <ele>1921.4000244141</ele>
        <time>2012-07-28T05:39:43Z</time>
      </trkpt>
      <trkpt lat="45.51649" lon="6.66551">
        <ele>1922.8000488281</ele>
        <time>2012-07-28T05:39:52Z</time>
      </trkpt>
      <trkpt lat="45.51649" lon="6.66558">
        <ele>1923.1999511719</ele>
        <time>2012-07-28T05:39:55Z</time>
      </trkpt>
      <trkpt lat="45.51649" lon="6.66582">
        <ele>1925.1999511719</ele>
        <time>2012-07-28T05:40:05Z</time>
      </trkpt>
      <trkpt lat="45.51649" lon="6.66585">
        <ele>1925.4000244141</ele>
        <time>2012-07-28T05:40:06Z</time>
      </trkpt>
      <trkpt lat="45.51643" lon="6.6661">
        <ele>1928.8000488281</ele>
        <time>2012-07-28T05:40:19Z</time>
      </trkpt>
      <trkpt lat="45.51633" lon="6.66613">
        <ele>1931</ele>
        <time>2012-07-28T05:40:28Z</time>
      </trkpt>
      <trkpt lat="45.51631" lon="6.66613">
        <ele>1931.4000244141</ele>
        <time>2012-07-28T05:40:30Z</time>
      </trkpt>
      <trkpt lat="45.51625" lon="6.66618">
        <ele>1933.5999755859</ele>
        <time>2012-07-28T05:40:38Z</time>
      </trkpt>
      <trkpt lat="45.51614" lon="6.66628">
        <ele>1938.8000488281</ele>
        <time>2012-07-28T05:40:52Z</time>
      </trkpt>
      <trkpt lat="45.51611" lon="6.66633">
        <ele>1940.5999755859</ele>
        <time>2012-07-28T05:40:58Z</time>
      </trkpt>
      <trkpt lat="45.51606" lon="6.66638">
        <ele>1943.5999755859</ele>
        <time>2012-07-28T05:41:05Z</time>
      </trkpt>
      <trkpt lat="45.51601" lon="6.66647">
        <ele>1946.5999755859</ele>
        <time>2012-07-28T05:41:12Z</time>
      </trkpt>
      <trkpt lat="45.51598" lon="6.66652">
        <ele>1948.4000244141</ele>
        <time>2012-07-28T05:41:18Z</time>
      </trkpt>
      <trkpt lat="45.51595" lon="6.66654">
        <ele>1949.5999755859</ele>
        <time>2012-07-28T05:41:22Z</time>
      </trkpt>
      <trkpt lat="45.51587" lon="6.66668">
        <ele>1953.5999755859</ele>
        <time>2012-07-28T05:41:40Z</time>
      </trkpt>
      <trkpt lat="45.51587" lon="6.66671">
        <ele>1954.1999511719</ele>
        <time>2012-07-28T05:41:42Z</time>
      </trkpt>
      <trkpt lat="45.51586" lon="6.66674">
        <ele>1955</ele>
        <time>2012-07-28T05:41:44Z</time>
      </trkpt>
      <trkpt lat="45.51584" lon="6.66679">
        <ele>1956.5999755859</ele>
        <time>2012-07-28T05:41:49Z</time>
      </trkpt>
      <trkpt lat="45.51578" lon="6.66688">
        <ele>1959.8000488281</ele>
        <time>2012-07-28T05:41:59Z</time>
      </trkpt>
      <trkpt lat="45.51575" lon="6.6669">
        <ele>1961.1999511719</ele>
        <time>2012-07-28T05:42:04Z</time>
      </trkpt>
      <trkpt lat="45.51561" lon="6.66706">
        <ele>1967.1999511719</ele>
        <time>2012-07-28T05:42:28Z</time>
      </trkpt>
      <trkpt lat="45.51559" lon="6.66709">
        <ele>1967.8000488281</ele>
        <time>2012-07-28T05:42:32Z</time>
      </trkpt>
      <trkpt lat="45.51551" lon="6.66728">
        <ele>1973.4000244141</ele>
        <time>2012-07-28T05:42:53Z</time>
      </trkpt>
      <trkpt lat="45.51548" lon="6.66732">
        <ele>1975</ele>
        <time>2012-07-28T05:42:58Z</time>
      </trkpt>
      <trkpt lat="45.5154" lon="6.66748">
        <ele>1981.5999755859</ele>
        <time>2012-07-28T05:43:14Z</time>
      </trkpt>
      <trkpt lat="45.51527" lon="6.66766">
        <ele>1991.4000244141</ele>
        <time>2012-07-28T05:43:41Z</time>
      </trkpt>
      <trkpt lat="45.5151" lon="6.66769">
        <ele>1998.4000244141</ele>
        <time>2012-07-28T05:44:07Z</time>
      </trkpt>
      <trkpt lat="45.51498" lon="6.66751">
        <ele>2002.5999755859</ele>
        <time>2012-07-28T05:44:25Z</time>
      </trkpt>
      <trkpt lat="45.51497" lon="6.6675">
        <ele>2002.8000488281</ele>
        <time>2012-07-28T05:44:26Z</time>
      </trkpt>
      <trkpt lat="45.51484" lon="6.66735">
        <ele>2007.5999755859</ele>
        <time>2012-07-28T05:44:41Z</time>
      </trkpt>
      <trkpt lat="45.51484" lon="6.66735">
        <ele>2008</ele>
        <time>2012-07-28T05:44:42Z</time>
      </trkpt>
      <trkpt lat="45.51481" lon="6.66729">
        <ele>2009.8000488281</ele>
        <time>2012-07-28T05:44:48Z</time>
      </trkpt>
      <trkpt lat="45.51471" lon="6.66717">
        <ele>2014</ele>
        <time>2012-07-28T05:45:03Z</time>
      </trkpt>
      <trkpt lat="45.51459" lon="6.66696">
        <ele>2019.4000244141</ele>
        <time>2012-07-28T05:45:22Z</time>
      </trkpt>
      <trkpt lat="45.51445" lon="6.66677">
        <ele>2023.5999755859</ele>
        <time>2012-07-28T05:45:38Z</time>
      </trkpt>
      <trkpt lat="45.51433" lon="6.66658">
        <ele>2029</ele>
        <time>2012-07-28T05:45:57Z</time>
      </trkpt>
      <trkpt lat="45.5142" lon="6.66638">
        <ele>2035.8000488281</ele>
        <time>2012-07-28T05:46:17Z</time>
      </trkpt>
      <trkpt lat="45.51416" lon="6.66634">
        <ele>2037.4000244141</ele>
        <time>2012-07-28T05:46:21Z</time>
      </trkpt>
      <trkpt lat="45.51413" lon="6.66629">
        <ele>2039</ele>
        <time>2012-07-28T05:46:26Z</time>
      </trkpt>
      <trkpt lat="45.51408" lon="6.66621">
        <ele>2042.4000244141</ele>
        <time>2012-07-28T05:46:36Z</time>
      </trkpt>
      <trkpt lat="45.51407" lon="6.66621">
        <ele>2042.5999755859</ele>
        <time>2012-07-28T05:46:37Z</time>
      </trkpt>
      <trkpt lat="45.51403" lon="6.66614">
        <ele>2044.1999511719</ele>
        <time>2012-07-28T05:46:42Z</time>
      </trkpt>
      <trkpt lat="45.514" lon="6.66611">
        <ele>2045.4000244141</ele>
        <time>2012-07-28T05:46:46Z</time>
      </trkpt>
      <trkpt lat="45.514" lon="6.6661">
        <ele>2045.8000488281</ele>
        <time>2012-07-28T05:46:47Z</time>
      </trkpt>
      <trkpt lat="45.51395" lon="6.66603">
        <ele>2047.8000488281</ele>
        <time>2012-07-28T05:46:53Z</time>
      </trkpt>
      <trkpt lat="45.51395" lon="6.66602">
        <ele>2048</ele>
        <time>2012-07-28T05:46:54Z</time>
      </trkpt>
      <trkpt lat="45.51382" lon="6.66583">
        <ele>2053</ele>
        <time>2012-07-28T05:47:13Z</time>
      </trkpt>
      <trkpt lat="45.5137" lon="6.66565">
        <ele>2056.8000488281</ele>
        <time>2012-07-28T05:47:28Z</time>
      </trkpt>
      <trkpt lat="45.51358" lon="6.66545">
        <ele>2060.1999511719</ele>
        <time>2012-07-28T05:47:44Z</time>
      </trkpt>
      <trkpt lat="45.51345" lon="6.66526">
        <ele>2063.6000976562</ele>
        <time>2012-07-28T05:47:59Z</time>
      </trkpt>
      <trkpt lat="45.51336" lon="6.66513">
        <ele>2067</ele>
        <time>2012-07-28T05:48:11Z</time>
      </trkpt>
      <trkpt lat="45.51332" lon="6.6651">
        <ele>2068.1999511719</ele>
        <time>2012-07-28T05:48:16Z</time>
      </trkpt>
      <trkpt lat="45.51331" lon="6.66508">
        <ele>2068.3999023438</ele>
        <time>2012-07-28T05:48:17Z</time>
      </trkpt>
      <trkpt lat="45.51328" lon="6.66503">
        <ele>2069.3999023438</ele>
        <time>2012-07-28T05:48:21Z</time>
      </trkpt>
      <trkpt lat="45.51318" lon="6.66489">
        <ele>2074</ele>
        <time>2012-07-28T05:48:36Z</time>
      </trkpt>
      <trkpt lat="45.51303" lon="6.66474">
        <ele>2078.8000488281</ele>
        <time>2012-07-28T05:48:54Z</time>
      </trkpt>
      <trkpt lat="45.51297" lon="6.6647">
        <ele>2080</ele>
        <time>2012-07-28T05:49:01Z</time>
      </trkpt>
      <trkpt lat="45.51294" lon="6.66468">
        <ele>2080.3999023438</ele>
        <time>2012-07-28T05:49:05Z</time>
      </trkpt>
      <trkpt lat="45.51287" lon="6.66465">
        <ele>2081.1999511719</ele>
        <time>2012-07-28T05:49:12Z</time>
      </trkpt>
      <trkpt lat="45.51268" lon="6.66457">
        <ele>2084.1999511719</ele>
        <time>2012-07-28T05:49:29Z</time>
      </trkpt>
      <trkpt lat="45.5125" lon="6.66449">
        <ele>2087.3999023438</ele>
        <time>2012-07-28T05:49:45Z</time>
      </trkpt>
      <trkpt lat="45.51232" lon="6.66441">
        <ele>2089.8000488281</ele>
        <time>2012-07-28T05:49:56Z</time>
      </trkpt>
      <trkpt lat="45.51213" lon="6.66435">
        <ele>2093.3999023438</ele>
        <time>2012-07-28T05:50:08Z</time>
      </trkpt>
      <trkpt lat="45.51198" lon="6.6643">
        <ele>2097.8000488281</ele>
        <time>2012-07-28T05:50:23Z</time>
      </trkpt>
      <trkpt lat="45.51195" lon="6.66429">
        <ele>2098.8000488281</ele>
        <time>2012-07-28T05:50:26Z</time>
      </trkpt>
      <trkpt lat="45.51192" lon="6.66429">
        <ele>2099.3999023438</ele>
        <time>2012-07-28T05:50:28Z</time>
      </trkpt>
      <trkpt lat="45.51177" lon="6.66433">
        <ele>2101.3999023438</ele>
        <time>2012-07-28T05:50:36Z</time>
      </trkpt>
      <trkpt lat="45.5116" lon="6.66443">
        <ele>2103.8000488281</ele>
        <time>2012-07-28T05:50:46Z</time>
      </trkpt>
      <trkpt lat="45.51159" lon="6.66444">
        <ele>2104</ele>
        <time>2012-07-28T05:50:47Z</time>
      </trkpt>
      <trkpt lat="45.51147" lon="6.66463">
        <ele>2106.1999511719</ele>
        <time>2012-07-28T05:50:56Z</time>
      </trkpt>
      <trkpt lat="45.51145" lon="6.66465">
        <ele>2106.3999023438</ele>
        <time>2012-07-28T05:50:57Z</time>
      </trkpt>
      <trkpt lat="45.51131" lon="6.66477">
        <ele>2107.8000488281</ele>
        <time>2012-07-28T05:51:04Z</time>
      </trkpt>
      <trkpt lat="45.51124" lon="6.66483">
        <ele>2108.8000488281</ele>
        <time>2012-07-28T05:51:08Z</time>
      </trkpt>
      <trkpt lat="45.51114" lon="6.66486">
        <ele>2109.8000488281</ele>
        <time>2012-07-28T05:51:13Z</time>
      </trkpt>
      <trkpt lat="45.511" lon="6.66493">
        <ele>2111.3999023438</ele>
        <time>2012-07-28T05:51:20Z</time>
      </trkpt>
      <trkpt lat="45.51095" lon="6.66495">
        <ele>2112</ele>
        <time>2012-07-28T05:51:22Z</time>
      </trkpt>
      <trkpt lat="45.51078" lon="6.66501">
        <ele>2114</ele>
        <time>2012-07-28T05:51:28Z</time>
      </trkpt>
      <trkpt lat="45.51074" lon="6.66503">
        <ele>2114.3999023438</ele>
        <time>2012-07-28T05:51:29Z</time>
      </trkpt>
      <trkpt lat="45.51062" lon="6.66515">
        <ele>2116.6000976562</ele>
        <time>2012-07-28T05:51:34Z</time>
      </trkpt>
      <trkpt lat="45.51047" lon="6.66535">
        <ele>2120.3999023438</ele>
        <time>2012-07-28T05:51:42Z</time>
      </trkpt>
      <trkpt lat="45.51034" lon="6.66555">
        <ele>2124</ele>
        <time>2012-07-28T05:51:51Z</time>
      </trkpt>
      <trkpt lat="45.51023" lon="6.66578">
        <ele>2125.1999511719</ele>
        <time>2012-07-28T05:51:59Z</time>
      </trkpt>
      <trkpt lat="45.51012" lon="6.666">
        <ele>2125.3999023438</ele>
        <time>2012-07-28T05:52:06Z</time>
      </trkpt>
      <trkpt lat="45.50999" lon="6.66619">
        <ele>2124.8000488281</ele>
        <time>2012-07-28T05:52:15Z</time>
      </trkpt>
      <trkpt lat="45.50982" lon="6.66633">
        <ele>2124</ele>
        <time>2012-07-28T05:52:22Z</time>
      </trkpt>
      <trkpt lat="45.50969" lon="6.66652">
        <ele>2122.8000488281</ele>
        <time>2012-07-28T05:52:29Z</time>
      </trkpt>
      <trkpt lat="45.50953" lon="6.66669">
        <ele>2121.8000488281</ele>
        <time>2012-07-28T05:52:36Z</time>
      </trkpt>
      <trkpt lat="45.50939" lon="6.66686">
        <ele>2121</ele>
        <time>2012-07-28T05:52:42Z</time>
      </trkpt>
      <trkpt lat="45.5092" lon="6.66696">
        <ele>2120</ele>
        <time>2012-07-28T05:52:49Z</time>
      </trkpt>
      <trkpt lat="45.50903" lon="6.66711">
        <ele>2118.8000488281</ele>
        <time>2012-07-28T05:52:55Z</time>
      </trkpt>
      <trkpt lat="45.50889" lon="6.66727">
        <ele>2117.8000488281</ele>
        <time>2012-07-28T05:53:02Z</time>
      </trkpt>
      <trkpt lat="45.50888" lon="6.66735">
        <ele>2117.6000976562</ele>
        <time>2012-07-28T05:53:04Z</time>
      </trkpt>
      <trkpt lat="45.50875" lon="6.66745">
        <ele>2116.6000976562</ele>
        <time>2012-07-28T05:53:08Z</time>
      </trkpt>
      <trkpt lat="45.50863" lon="6.66762">
        <ele>2115.6000976562</ele>
        <time>2012-07-28T05:53:15Z</time>
      </trkpt>
      <trkpt lat="45.50851" lon="6.66783">
        <ele>2114.3999023438</ele>
        <time>2012-07-28T05:53:21Z</time>
      </trkpt>
      <trkpt lat="45.50842" lon="6.66801">
        <ele>2113.6000976562</ele>
        <time>2012-07-28T05:53:26Z</time>
      </trkpt>
      <trkpt lat="45.5084" lon="6.66803">
        <ele>2113.3999023438</ele>
        <time>2012-07-28T05:53:27Z</time>
      </trkpt>
      <trkpt lat="45.50821" lon="6.66816">
        <ele>2112</ele>
        <time>2012-07-28T05:53:34Z</time>
      </trkpt>
      <trkpt lat="45.50809" lon="6.66836">
        <ele>2110.8000488281</ele>
        <time>2012-07-28T05:53:39Z</time>
      </trkpt>
      <trkpt lat="45.508" lon="6.66859">
        <ele>2109.6000976562</ele>
        <time>2012-07-28T05:53:46Z</time>
      </trkpt>
      <trkpt lat="45.50796" lon="6.66884">
        <ele>2108.3999023438</ele>
        <time>2012-07-28T05:53:52Z</time>
      </trkpt>
      <trkpt lat="45.50788" lon="6.66909">
        <ele>2106.8000488281</ele>
        <time>2012-07-28T05:54:00Z</time>
      </trkpt>
      <trkpt lat="45.50774" lon="6.66928">
        <ele>2105</ele>
        <time>2012-07-28T05:54:07Z</time>
      </trkpt>
      <trkpt lat="45.50759" lon="6.66946">
        <ele>2102.8000488281</ele>
        <time>2012-07-28T05:54:13Z</time>
      </trkpt>
      <trkpt lat="45.50744" lon="6.66961">
        <ele>2101</ele>
        <time>2012-07-28T05:54:20Z</time>
      </trkpt>
      <trkpt lat="45.50726" lon="6.66967">
        <ele>2099</ele>
        <time>2012-07-28T05:54:25Z</time>
      </trkpt>
      <trkpt lat="45.50707" lon="6.6697">
        <ele>2096.8000488281</ele>
        <time>2012-07-28T05:54:32Z</time>
      </trkpt>
      <trkpt lat="45.50688" lon="6.66969">
        <ele>2094.8000488281</ele>
        <time>2012-07-28T05:54:37Z</time>
      </trkpt>
      <trkpt lat="45.50668" lon="6.66967">
        <ele>2093</ele>
        <time>2012-07-28T05:54:44Z</time>
      </trkpt>
      <trkpt lat="45.5065" lon="6.66976">
        <ele>2091</ele>
        <time>2012-07-28T05:54:50Z</time>
      </trkpt>
      <trkpt lat="45.50633" lon="6.66991">
        <ele>2089.1999511719</ele>
        <time>2012-07-28T05:54:55Z</time>
      </trkpt>
      <trkpt lat="45.50615" lon="6.67">
        <ele>2087.1999511719</ele>
        <time>2012-07-28T05:55:02Z</time>
      </trkpt>
      <trkpt lat="45.50599" lon="6.67011">
        <ele>2085</ele>
        <time>2012-07-28T05:55:09Z</time>
      </trkpt>
      <trkpt lat="45.50595" lon="6.67016">
        <ele>2084.3999023438</ele>
        <time>2012-07-28T05:55:11Z</time>
      </trkpt>
      <trkpt lat="45.50588" lon="6.67031">
        <ele>2082.8000488281</ele>
        <time>2012-07-28T05:55:15Z</time>
      </trkpt>
      <trkpt lat="45.50587" lon="6.67034">
        <ele>2082.6000976562</ele>
        <time>2012-07-28T05:55:16Z</time>
      </trkpt>
      <trkpt lat="45.50581" lon="6.67059">
        <ele>2080.1999511719</ele>
        <time>2012-07-28T05:55:23Z</time>
      </trkpt>
      <trkpt lat="45.50577" lon="6.67085">
        <ele>2077.6000976562</ele>
        <time>2012-07-28T05:55:32Z</time>
      </trkpt>
      <trkpt lat="45.50571" lon="6.67112">
        <ele>2074.8000488281</ele>
        <time>2012-07-28T05:55:40Z</time>
      </trkpt>
      <trkpt lat="45.50563" lon="6.67139">
        <ele>2072.1999511719</ele>
        <time>2012-07-28T05:55:47Z</time>
      </trkpt>
      <trkpt lat="45.50553" lon="6.67161">
        <ele>2069.8000488281</ele>
        <time>2012-07-28T05:55:53Z</time>
      </trkpt>
      <trkpt lat="45.50541" lon="6.67184">
        <ele>2067</ele>
        <time>2012-07-28T05:56:00Z</time>
      </trkpt>
      <trkpt lat="45.50526" lon="6.67202">
        <ele>2064.1999511719</ele>
        <time>2012-07-28T05:56:07Z</time>
      </trkpt>
      <trkpt lat="45.50512" lon="6.6722">
        <ele>2061.1999511719</ele>
        <time>2012-07-28T05:56:14Z</time>
      </trkpt>
      <trkpt lat="45.50512" lon="6.67248">
        <ele>2058</ele>
        <time>2012-07-28T05:56:21Z</time>
      </trkpt>
      <trkpt lat="45.50512" lon="6.67262">
        <ele>2056.3999023438</ele>
        <time>2012-07-28T05:56:26Z</time>
      </trkpt>
      <trkpt lat="45.50515" lon="6.67273">
        <ele>2055</ele>
        <time>2012-07-28T05:56:28Z</time>
      </trkpt>
      <trkpt lat="45.50514" lon="6.67292">
        <ele>2053</ele>
        <time>2012-07-28T05:56:34Z</time>
      </trkpt>
      <trkpt lat="45.50513" lon="6.67301">
        <ele>2052</ele>
        <time>2012-07-28T05:56:35Z</time>
      </trkpt>
      <trkpt lat="45.50512" lon="6.6733">
        <ele>2049.1999511719</ele>
        <time>2012-07-28T05:56:43Z</time>
      </trkpt>
      <trkpt lat="45.5051" lon="6.67356">
        <ele>2046.5999755859</ele>
        <time>2012-07-28T05:56:49Z</time>
      </trkpt>
      <trkpt lat="45.50501" lon="6.6738">
        <ele>2044.4000244141</ele>
        <time>2012-07-28T05:56:55Z</time>
      </trkpt>
      <trkpt lat="45.50501" lon="6.67407">
        <ele>2042</ele>
        <time>2012-07-28T05:57:01Z</time>
      </trkpt>
      <trkpt lat="45.50504" lon="6.67436">
        <ele>2040</ele>
        <time>2012-07-28T05:57:07Z</time>
      </trkpt>
      <trkpt lat="45.50507" lon="6.67464">
        <ele>2038.1999511719</ele>
        <time>2012-07-28T05:57:13Z</time>
      </trkpt>
      <trkpt lat="45.50512" lon="6.67492">
        <ele>2036.4000244141</ele>
        <time>2012-07-28T05:57:19Z</time>
      </trkpt>
      <trkpt lat="45.50518" lon="6.6752">
        <ele>2034.8000488281</ele>
        <time>2012-07-28T05:57:25Z</time>
      </trkpt>
      <trkpt lat="45.50529" lon="6.67543">
        <ele>2033.1999511719</ele>
        <time>2012-07-28T05:57:30Z</time>
      </trkpt>
      <trkpt lat="45.50536" lon="6.67569">
        <ele>2031.4000244141</ele>
        <time>2012-07-28T05:57:36Z</time>
      </trkpt>
      <trkpt lat="45.50545" lon="6.67595">
        <ele>2029.5999755859</ele>
        <time>2012-07-28T05:57:43Z</time>
      </trkpt>
      <trkpt lat="45.50551" lon="6.67621">
        <ele>2028.1999511719</ele>
        <time>2012-07-28T05:57:48Z</time>
      </trkpt>
      <trkpt lat="45.5056" lon="6.67647">
        <ele>2026.5999755859</ele>
        <time>2012-07-28T05:57:54Z</time>
      </trkpt>
      <trkpt lat="45.5057" lon="6.67673">
        <ele>2024.5999755859</ele>
        <time>2012-07-28T05:58:01Z</time>
      </trkpt>
      <trkpt lat="45.50577" lon="6.67699">
        <ele>2021.5999755859</ele>
        <time>2012-07-28T05:58:11Z</time>
      </trkpt>
      <trkpt lat="45.50573" lon="6.67703">
        <ele>2015.1999511719</ele>
        <time>2012-07-28T05:58:41Z</time>
      </trkpt>
      <trkpt lat="45.5057" lon="6.67707">
        <ele>2014.5999755859</ele>
        <time>2012-07-28T05:58:44Z</time>
      </trkpt>
      <trkpt lat="45.50566" lon="6.67713">
        <ele>2013.5999755859</ele>
        <time>2012-07-28T05:58:50Z</time>
      </trkpt>
      <trkpt lat="45.50555" lon="6.6772">
        <ele>2012.5999755859</ele>
        <time>2012-07-28T05:58:59Z</time>
      </trkpt>
      <trkpt lat="45.50545" lon="6.67743">
        <ele>2010.8000488281</ele>
        <time>2012-07-28T05:59:12Z</time>
      </trkpt>
      <trkpt lat="45.50533" lon="6.67762">
        <ele>2010</ele>
        <time>2012-07-28T05:59:21Z</time>
      </trkpt>
      <trkpt lat="45.50518" lon="6.67779">
        <ele>2009.5999755859</ele>
        <time>2012-07-28T05:59:28Z</time>
      </trkpt>
      <trkpt lat="45.50501" lon="6.67791">
        <ele>2009</ele>
        <time>2012-07-28T05:59:39Z</time>
      </trkpt>
      <trkpt lat="45.50484" lon="6.67803">
        <ele>2008.4000244141</ele>
        <time>2012-07-28T05:59:53Z</time>
      </trkpt>
      <trkpt lat="45.50467" lon="6.67813">
        <ele>2008.1999511719</ele>
        <time>2012-07-28T06:00:06Z</time>
      </trkpt>
      <trkpt lat="45.50451" lon="6.67824">
        <ele>2008.1999511719</ele>
        <time>2012-07-28T06:00:17Z</time>
      </trkpt>
      <trkpt lat="45.50443" lon="6.67827">
        <ele>2008.1999511719</ele>
        <time>2012-07-28T06:00:23Z</time>
      </trkpt>
      <trkpt lat="45.50433" lon="6.67829">
        <ele>2008.4000244141</ele>
        <time>2012-07-28T06:00:29Z</time>
      </trkpt>
      <trkpt lat="45.50414" lon="6.67832">
        <ele>2009.4000244141</ele>
        <time>2012-07-28T06:00:42Z</time>
      </trkpt>
      <trkpt lat="45.50397" lon="6.67842">
        <ele>2011</ele>
        <time>2012-07-28T06:00:55Z</time>
      </trkpt>
      <trkpt lat="45.50386" lon="6.67862">
        <ele>2013.4000244141</ele>
        <time>2012-07-28T06:01:08Z</time>
      </trkpt>
      <trkpt lat="45.50383" lon="6.67873">
        <ele>2015</ele>
        <time>2012-07-28T06:01:14Z</time>
      </trkpt>
      <trkpt lat="45.50382" lon="6.67885">
        <ele>2016.5999755859</ele>
        <time>2012-07-28T06:01:22Z</time>
      </trkpt>
      <trkpt lat="45.50383" lon="6.67903">
        <ele>2019.1999511719</ele>
        <time>2012-07-28T06:01:32Z</time>
      </trkpt>
      <trkpt lat="45.50385" lon="6.67911">
        <ele>2020.5999755859</ele>
        <time>2012-07-28T06:01:38Z</time>
      </trkpt>
      <trkpt lat="45.50385" lon="6.67912">
        <ele>2020.8000488281</ele>
        <time>2012-07-28T06:01:39Z</time>
      </trkpt>
      <trkpt lat="45.50388" lon="6.67922">
        <ele>2022.1999511719</ele>
        <time>2012-07-28T06:01:46Z</time>
      </trkpt>
      <trkpt lat="45.50393" lon="6.67934">
        <ele>2024.1999511719</ele>
        <time>2012-07-28T06:01:55Z</time>
      </trkpt>
      <trkpt lat="45.50396" lon="6.67938">
        <ele>2025</ele>
        <time>2012-07-28T06:01:58Z</time>
      </trkpt>
      <trkpt lat="45.50402" lon="6.67945">
        <ele>2027.1999511719</ele>
        <time>2012-07-28T06:02:04Z</time>
      </trkpt>
      <trkpt lat="45.50403" lon="6.67946">
        <ele>2028.4000244141</ele>
        <time>2012-07-28T06:02:07Z</time>
      </trkpt>
      <trkpt lat="45.50408" lon="6.67949">
        <ele>2029.8000488281</ele>
        <time>2012-07-28T06:02:11Z</time>
      </trkpt>
      <trkpt lat="45.5041" lon="6.67951">
        <ele>2030.4000244141</ele>
        <time>2012-07-28T06:02:12Z</time>
      </trkpt>
      <trkpt lat="45.50423" lon="6.67965">
        <ele>2034.8000488281</ele>
        <time>2012-07-28T06:02:24Z</time>
      </trkpt>
      <trkpt lat="45.50428" lon="6.67969">
        <ele>2035.8000488281</ele>
        <time>2012-07-28T06:02:29Z</time>
      </trkpt>
      <trkpt lat="45.50437" lon="6.67982">
        <ele>2037.5999755859</ele>
        <time>2012-07-28T06:02:40Z</time>
      </trkpt>
      <trkpt lat="45.50441" lon="6.67992">
        <ele>2038.8000488281</ele>
        <time>2012-07-28T06:02:47Z</time>
      </trkpt>
      <trkpt lat="45.50452" lon="6.67988">
        <ele>2047</ele>
        <time>2012-07-28T06:03:21Z</time>
      </trkpt>
      <trkpt lat="45.50454" lon="6.67992">
        <ele>2047.1999511719</ele>
        <time>2012-07-28T06:03:31Z</time>
      </trkpt>
      <trkpt lat="45.50455" lon="6.67999">
        <ele>2047.1999511719</ele>
        <time>2012-07-28T06:03:35Z</time>
      </trkpt>
      <trkpt lat="45.50459" lon="6.68009">
        <ele>2047</ele>
        <time>2012-07-28T06:03:42Z</time>
      </trkpt>
      <trkpt lat="45.50463" lon="6.68035">
        <ele>2046.8000488281</ele>
        <time>2012-07-28T06:03:59Z</time>
      </trkpt>
      <trkpt lat="45.50471" lon="6.68059">
        <ele>2047</ele>
        <time>2012-07-28T06:04:11Z</time>
      </trkpt>
      <trkpt lat="45.50479" lon="6.68083">
        <ele>2047.8000488281</ele>
        <time>2012-07-28T06:04:24Z</time>
      </trkpt>
      <trkpt lat="45.50481" lon="6.68087">
        <ele>2048.1999511719</ele>
        <time>2012-07-28T06:04:27Z</time>
      </trkpt>
      <trkpt lat="45.50485" lon="6.68101">
        <ele>2049</ele>
        <time>2012-07-28T06:04:34Z</time>
      </trkpt>
      <trkpt lat="45.50486" lon="6.68108">
        <ele>2049.3999023438</ele>
        <time>2012-07-28T06:04:38Z</time>
      </trkpt>
      <trkpt lat="45.50487" lon="6.68115">
        <ele>2050</ele>
        <time>2012-07-28T06:04:42Z</time>
      </trkpt>
      <trkpt lat="45.50491" lon="6.68134">
        <ele>2050.8000488281</ele>
        <time>2012-07-28T06:04:50Z</time>
      </trkpt>
      <trkpt lat="45.50504" lon="6.68155">
        <ele>2052.3999023438</ele>
        <time>2012-07-28T06:05:01Z</time>
      </trkpt>
      <trkpt lat="45.50515" lon="6.68178">
        <ele>2054.6000976562</ele>
        <time>2012-07-28T06:05:10Z</time>
      </trkpt>
      <trkpt lat="45.50523" lon="6.68203">
        <ele>2056.6000976562</ele>
        <time>2012-07-28T06:05:20Z</time>
      </trkpt>
      <trkpt lat="45.50534" lon="6.68226">
        <ele>2059</ele>
        <time>2012-07-28T06:05:33Z</time>
      </trkpt>
      <trkpt lat="45.50538" lon="6.68251">
        <ele>2062</ele>
        <time>2012-07-28T06:05:46Z</time>
      </trkpt>
      <trkpt lat="45.50529" lon="6.68273">
        <ele>2065.3999023438</ele>
        <time>2012-07-28T06:05:59Z</time>
      </trkpt>
      <trkpt lat="45.50528" lon="6.68301">
        <ele>2068.6000976562</ele>
        <time>2012-07-28T06:06:10Z</time>
      </trkpt>
      <trkpt lat="45.50527" lon="6.68303">
        <ele>2068.8000488281</ele>
        <time>2012-07-28T06:06:11Z</time>
      </trkpt>
      <trkpt lat="45.50512" lon="6.68309">
        <ele>2072.3999023438</ele>
        <time>2012-07-28T06:06:24Z</time>
      </trkpt>
      <trkpt lat="45.50498" lon="6.6831">
        <ele>2075.8000488281</ele>
        <time>2012-07-28T06:06:36Z</time>
      </trkpt>
      <trkpt lat="45.50494" lon="6.68308">
        <ele>2076.6000976562</ele>
        <time>2012-07-28T06:06:39Z</time>
      </trkpt>
      <trkpt lat="45.50478" lon="6.68318">
        <ele>2079.6000976562</ele>
        <time>2012-07-28T06:06:51Z</time>
      </trkpt>
      <trkpt lat="45.50465" lon="6.68339">
        <ele>2083</ele>
        <time>2012-07-28T06:07:02Z</time>
      </trkpt>
      <trkpt lat="45.5046" lon="6.68359">
        <ele>2086.6000976562</ele>
        <time>2012-07-28T06:07:14Z</time>
      </trkpt>
      <trkpt lat="45.50459" lon="6.68364">
        <ele>2088</ele>
        <time>2012-07-28T06:07:18Z</time>
      </trkpt>
      <trkpt lat="45.50457" lon="6.68368">
        <ele>2089.1999511719</ele>
        <time>2012-07-28T06:07:22Z</time>
      </trkpt>
      <trkpt lat="45.50455" lon="6.68373">
        <ele>2090.6000976562</ele>
        <time>2012-07-28T06:07:27Z</time>
      </trkpt>
      <trkpt lat="45.50452" lon="6.68383">
        <ele>2093.6000976562</ele>
        <time>2012-07-28T06:07:37Z</time>
      </trkpt>
      <trkpt lat="45.5045" lon="6.68385">
        <ele>2094.6000976562</ele>
        <time>2012-07-28T06:07:40Z</time>
      </trkpt>
      <trkpt lat="45.50441" lon="6.68398">
        <ele>2099.1999511719</ele>
        <time>2012-07-28T06:07:56Z</time>
      </trkpt>
      <trkpt lat="45.50438" lon="6.68403">
        <ele>2100.6000976562</ele>
        <time>2012-07-28T06:08:01Z</time>
      </trkpt>
      <trkpt lat="45.50434" lon="6.68407">
        <ele>2102</ele>
        <time>2012-07-28T06:08:06Z</time>
      </trkpt>
      <trkpt lat="45.50429" lon="6.68411">
        <ele>2104.1999511719</ele>
        <time>2012-07-28T06:08:13Z</time>
      </trkpt>
      <trkpt lat="45.50423" lon="6.6842">
        <ele>2107</ele>
        <time>2012-07-28T06:08:22Z</time>
      </trkpt>
      <trkpt lat="45.50419" lon="6.68446">
        <ele>2110</ele>
        <time>2012-07-28T06:08:33Z</time>
      </trkpt>
      <trkpt lat="45.50414" lon="6.68474">
        <ele>2112.3999023438</ele>
        <time>2012-07-28T06:08:42Z</time>
      </trkpt>
      <trkpt lat="45.50407" lon="6.68499">
        <ele>2114.8000488281</ele>
        <time>2012-07-28T06:08:50Z</time>
      </trkpt>
      <trkpt lat="45.50401" lon="6.68524">
        <ele>2117.1999511719</ele>
        <time>2012-07-28T06:08:58Z</time>
      </trkpt>
      <trkpt lat="45.50394" lon="6.68549">
        <ele>2120.3999023438</ele>
        <time>2012-07-28T06:09:09Z</time>
      </trkpt>
      <trkpt lat="45.50389" lon="6.68575">
        <ele>2124</ele>
        <time>2012-07-28T06:09:20Z</time>
      </trkpt>
      <trkpt lat="45.50375" lon="6.68594">
        <ele>2126.3999023438</ele>
        <time>2012-07-28T06:09:29Z</time>
      </trkpt>
      <trkpt lat="45.50363" lon="6.68613">
        <ele>2128.8000488281</ele>
        <time>2012-07-28T06:09:39Z</time>
      </trkpt>
      <trkpt lat="45.50361" lon="6.6864">
        <ele>2130.8000488281</ele>
        <time>2012-07-28T06:09:48Z</time>
      </trkpt>
      <trkpt lat="45.50359" lon="6.68657">
        <ele>2132</ele>
        <time>2012-07-28T06:09:54Z</time>
      </trkpt>
      <trkpt lat="45.50359" lon="6.68667">
        <ele>2132.8000488281</ele>
        <time>2012-07-28T06:09:58Z</time>
      </trkpt>
      <trkpt lat="45.50358" lon="6.68694">
        <ele>2134.8000488281</ele>
        <time>2012-07-28T06:10:12Z</time>
      </trkpt>
      <trkpt lat="45.50359" lon="6.68702">
        <ele>2135.3999023438</ele>
        <time>2012-07-28T06:10:16Z</time>
      </trkpt>
      <trkpt lat="45.50356" lon="6.68719">
        <ele>2136.6000976562</ele>
        <time>2012-07-28T06:10:25Z</time>
      </trkpt>
      <trkpt lat="45.5035" lon="6.68734">
        <ele>2137.8000488281</ele>
        <time>2012-07-28T06:10:33Z</time>
      </trkpt>
      <trkpt lat="45.50348" lon="6.68744">
        <ele>2138.6000976562</ele>
        <time>2012-07-28T06:10:37Z</time>
      </trkpt>
      <trkpt lat="45.50346" lon="6.68771">
        <ele>2141</ele>
        <time>2012-07-28T06:10:47Z</time>
      </trkpt>
      <trkpt lat="45.50339" lon="6.68795">
        <ele>2142.8000488281</ele>
        <time>2012-07-28T06:10:55Z</time>
      </trkpt>
      <trkpt lat="45.50324" lon="6.68814">
        <ele>2145</ele>
        <time>2012-07-28T06:11:04Z</time>
      </trkpt>
      <trkpt lat="45.50311" lon="6.68832">
        <ele>2146.6000976562</ele>
        <time>2012-07-28T06:11:12Z</time>
      </trkpt>
      <trkpt lat="45.50303" lon="6.68855">
        <ele>2148.3999023438</ele>
        <time>2012-07-28T06:11:20Z</time>
      </trkpt>
      <trkpt lat="45.50301" lon="6.68881">
        <ele>2150.1999511719</ele>
        <time>2012-07-28T06:11:28Z</time>
      </trkpt>
      <trkpt lat="45.50299" lon="6.68908">
        <ele>2151.6000976562</ele>
        <time>2012-07-28T06:11:36Z</time>
      </trkpt>
      <trkpt lat="45.50294" lon="6.68936">
        <ele>2153</ele>
        <time>2012-07-28T06:11:44Z</time>
      </trkpt>
      <trkpt lat="45.50288" lon="6.6896">
        <ele>2154.1999511719</ele>
        <time>2012-07-28T06:11:51Z</time>
      </trkpt>
      <trkpt lat="45.50281" lon="6.68987">
        <ele>2155.3999023438</ele>
        <time>2012-07-28T06:11:59Z</time>
      </trkpt>
      <trkpt lat="45.50282" lon="6.69016">
        <ele>2156.1999511719</ele>
        <time>2012-07-28T06:12:07Z</time>
      </trkpt>
      <trkpt lat="45.50285" lon="6.69041">
        <ele>2156.3999023438</ele>
        <time>2012-07-28T06:12:14Z</time>
      </trkpt>
      <trkpt lat="45.5029" lon="6.69066">
        <ele>2156.6000976562</ele>
        <time>2012-07-28T06:12:21Z</time>
      </trkpt>
      <trkpt lat="45.50292" lon="6.69093">
        <ele>2156.8000488281</ele>
        <time>2012-07-28T06:12:28Z</time>
      </trkpt>
      <trkpt lat="45.50294" lon="6.69119">
        <ele>2157</ele>
        <time>2012-07-28T06:12:35Z</time>
      </trkpt>
      <trkpt lat="45.50299" lon="6.69144">
        <ele>2157.1999511719</ele>
        <time>2012-07-28T06:12:42Z</time>
      </trkpt>
      <trkpt lat="45.50306" lon="6.6917">
        <ele>2157.3999023438</ele>
        <time>2012-07-28T06:12:49Z</time>
      </trkpt>
      <trkpt lat="45.50309" lon="6.69197">
        <ele>2157.3999023438</ele>
        <time>2012-07-28T06:12:56Z</time>
      </trkpt>
      <trkpt lat="45.50316" lon="6.69224">
        <ele>2157.3999023438</ele>
        <time>2012-07-28T06:13:03Z</time>
      </trkpt>
      <trkpt lat="45.50326" lon="6.69246">
        <ele>2157.1999511719</ele>
        <time>2012-07-28T06:13:10Z</time>
      </trkpt>
      <trkpt lat="45.50339" lon="6.69264">
        <ele>2157.3999023438</ele>
        <time>2012-07-28T06:13:17Z</time>
      </trkpt>
      <trkpt lat="45.50348" lon="6.69286">
        <ele>2157.3999023438</ele>
        <time>2012-07-28T06:13:24Z</time>
      </trkpt>
      <trkpt lat="45.50355" lon="6.69313">
        <ele>2157.6000976562</ele>
        <time>2012-07-28T06:13:31Z</time>
      </trkpt>
      <trkpt lat="45.50356" lon="6.69341">
        <ele>2157.6000976562</ele>
        <time>2012-07-28T06:13:38Z</time>
      </trkpt>
      <trkpt lat="45.50352" lon="6.69366">
        <ele>2157.6000976562</ele>
        <time>2012-07-28T06:13:44Z</time>
      </trkpt>
      <trkpt lat="45.50343" lon="6.69391">
        <ele>2157.8000488281</ele>
        <time>2012-07-28T06:13:51Z</time>
      </trkpt>
      <trkpt lat="45.50325" lon="6.69402">
        <ele>2158</ele>
        <time>2012-07-28T06:13:58Z</time>
      </trkpt>
      <trkpt lat="45.50306" lon="6.6941">
        <ele>2158.3999023438</ele>
        <time>2012-07-28T06:14:05Z</time>
      </trkpt>
      <trkpt lat="45.50296" lon="6.69433">
        <ele>2158.8000488281</ele>
        <time>2012-07-28T06:14:12Z</time>
      </trkpt>
      <trkpt lat="45.50291" lon="6.69454">
        <ele>2159.1999511719</ele>
        <time>2012-07-28T06:14:18Z</time>
      </trkpt>
      <trkpt lat="45.50288" lon="6.69455">
        <ele>2159.3999023438</ele>
        <time>2012-07-28T06:14:19Z</time>
      </trkpt>
      <trkpt lat="45.50269" lon="6.69459">
        <ele>2159.6000976562</ele>
        <time>2012-07-28T06:14:26Z</time>
      </trkpt>
      <trkpt lat="45.50251" lon="6.69467">
        <ele>2159.8000488281</ele>
        <time>2012-07-28T06:14:33Z</time>
      </trkpt>
      <trkpt lat="45.50233" lon="6.69474">
        <ele>2160.1999511719</ele>
        <time>2012-07-28T06:14:40Z</time>
      </trkpt>
      <trkpt lat="45.50214" lon="6.69478">
        <ele>2160.3999023438</ele>
        <time>2012-07-28T06:14:47Z</time>
      </trkpt>
      <trkpt lat="45.50196" lon="6.69488">
        <ele>2160.3999023438</ele>
        <time>2012-07-28T06:14:54Z</time>
      </trkpt>
      <trkpt lat="45.50183" lon="6.69508">
        <ele>2160.6000976562</ele>
        <time>2012-07-28T06:15:01Z</time>
      </trkpt>
      <trkpt lat="45.50168" lon="6.69526">
        <ele>2160.8000488281</ele>
        <time>2012-07-28T06:15:08Z</time>
      </trkpt>
      <trkpt lat="45.50152" lon="6.69538">
        <ele>2160.8000488281</ele>
        <time>2012-07-28T06:15:15Z</time>
      </trkpt>
      <trkpt lat="45.50137" lon="6.69558">
        <ele>2161</ele>
        <time>2012-07-28T06:15:23Z</time>
      </trkpt>
      <trkpt lat="45.50127" lon="6.69582">
        <ele>2161.3999023438</ele>
        <time>2012-07-28T06:15:30Z</time>
      </trkpt>
      <trkpt lat="45.50119" lon="6.69606">
        <ele>2161.8000488281</ele>
        <time>2012-07-28T06:15:37Z</time>
      </trkpt>
      <trkpt lat="45.50109" lon="6.69629">
        <ele>2162.3999023438</ele>
        <time>2012-07-28T06:15:44Z</time>
      </trkpt>
      <trkpt lat="45.50105" lon="6.69655">
        <ele>2163</ele>
        <time>2012-07-28T06:15:51Z</time>
      </trkpt>
      <trkpt lat="45.50104" lon="6.69684">
        <ele>2163.3999023438</ele>
        <time>2012-07-28T06:15:59Z</time>
      </trkpt>
      <trkpt lat="45.50104" lon="6.6971">
        <ele>2164</ele>
        <time>2012-07-28T06:16:06Z</time>
      </trkpt>
      <trkpt lat="45.50107" lon="6.69735">
        <ele>2164.6000976562</ele>
        <time>2012-07-28T06:16:13Z</time>
      </trkpt>
      <trkpt lat="45.50105" lon="6.69761">
        <ele>2165.1999511719</ele>
        <time>2012-07-28T06:16:20Z</time>
      </trkpt>
      <trkpt lat="45.50098" lon="6.69785">
        <ele>2166</ele>
        <time>2012-07-28T06:16:27Z</time>
      </trkpt>
      <trkpt lat="45.50092" lon="6.69809">
        <ele>2167</ele>
        <time>2012-07-28T06:16:34Z</time>
      </trkpt>
      <trkpt lat="45.50088" lon="6.69837">
        <ele>2168.1999511719</ele>
        <time>2012-07-28T06:16:42Z</time>
      </trkpt>
      <trkpt lat="45.50082" lon="6.69864">
        <ele>2169.1999511719</ele>
        <time>2012-07-28T06:16:50Z</time>
      </trkpt>
      <trkpt lat="45.50081" lon="6.6989">
        <ele>2170.3999023438</ele>
        <time>2012-07-28T06:16:58Z</time>
      </trkpt>
      <trkpt lat="45.50077" lon="6.69915">
        <ele>2171</ele>
        <time>2012-07-28T06:17:06Z</time>
      </trkpt>
      <trkpt lat="45.50064" lon="6.69934">
        <ele>2171.8000488281</ele>
        <time>2012-07-28T06:17:14Z</time>
      </trkpt>
      <trkpt lat="45.50047" lon="6.69946">
        <ele>2173</ele>
        <time>2012-07-28T06:17:23Z</time>
      </trkpt>
      <trkpt lat="45.50038" lon="6.69952">
        <ele>2174</ele>
        <time>2012-07-28T06:17:30Z</time>
      </trkpt>
      <trkpt lat="45.5003" lon="6.69959">
        <ele>2175.1999511719</ele>
        <time>2012-07-28T06:17:37Z</time>
      </trkpt>
      <trkpt lat="45.50016" lon="6.69974">
        <ele>2178</ele>
        <time>2012-07-28T06:17:52Z</time>
      </trkpt>
      <trkpt lat="45.50002" lon="6.69993">
        <ele>2180</ele>
        <time>2012-07-28T06:18:02Z</time>
      </trkpt>
      <trkpt lat="45.49987" lon="6.7001">
        <ele>2182.8000488281</ele>
        <time>2012-07-28T06:18:15Z</time>
      </trkpt>
      <trkpt lat="45.49974" lon="6.70028">
        <ele>2185.8000488281</ele>
        <time>2012-07-28T06:18:29Z</time>
      </trkpt>
      <trkpt lat="45.49962" lon="6.70047">
        <ele>2189.1999511719</ele>
        <time>2012-07-28T06:18:44Z</time>
      </trkpt>
      <trkpt lat="45.49945" lon="6.70058">
        <ele>2192.3999023438</ele>
        <time>2012-07-28T06:18:58Z</time>
      </trkpt>
      <trkpt lat="45.49931" lon="6.70074">
        <ele>2195.3999023438</ele>
        <time>2012-07-28T06:19:12Z</time>
      </trkpt>
      <trkpt lat="45.49916" lon="6.7009">
        <ele>2198.1999511719</ele>
        <time>2012-07-28T06:19:26Z</time>
      </trkpt>
      <trkpt lat="45.49907" lon="6.70114">
        <ele>2200.1999511719</ele>
        <time>2012-07-28T06:19:40Z</time>
      </trkpt>
      <trkpt lat="45.49898" lon="6.70137">
        <ele>2202.8000488281</ele>
        <time>2012-07-28T06:19:55Z</time>
      </trkpt>
      <trkpt lat="45.49889" lon="6.7016">
        <ele>2205.6000976562</ele>
        <time>2012-07-28T06:20:09Z</time>
      </trkpt>
      <trkpt lat="45.4988" lon="6.70182">
        <ele>2207.8000488281</ele>
        <time>2012-07-28T06:20:22Z</time>
      </trkpt>
      <trkpt lat="45.49878" lon="6.70188">
        <ele>2208.1999511719</ele>
        <time>2012-07-28T06:20:25Z</time>
      </trkpt>
      <trkpt lat="45.49881" lon="6.70197">
        <ele>2209.1999511719</ele>
        <time>2012-07-28T06:20:31Z</time>
      </trkpt>
      <trkpt lat="45.49885" lon="6.70202">
        <ele>2210</ele>
        <time>2012-07-28T06:20:35Z</time>
      </trkpt>
      <trkpt lat="45.49886" lon="6.70203">
        <ele>2210.1999511719</ele>
        <time>2012-07-28T06:20:36Z</time>
      </trkpt>
      <trkpt lat="45.49889" lon="6.70206">
        <ele>2210.6000976562</ele>
        <time>2012-07-28T06:20:38Z</time>
      </trkpt>
      <trkpt lat="45.49887" lon="6.70228">
        <ele>2213</ele>
        <time>2012-07-28T06:20:50Z</time>
      </trkpt>
      <trkpt lat="45.4988" lon="6.70252">
        <ele>2217.1999511719</ele>
        <time>2012-07-28T06:21:06Z</time>
      </trkpt>
      <trkpt lat="45.49873" lon="6.70276">
        <ele>2221.3999023438</ele>
        <time>2012-07-28T06:21:23Z</time>
      </trkpt>
      <trkpt lat="45.49875" lon="6.70302">
        <ele>2224.3999023438</ele>
        <time>2012-07-28T06:21:38Z</time>
      </trkpt>
      <trkpt lat="45.4987" lon="6.70324">
        <ele>2227.8000488281</ele>
        <time>2012-07-28T06:21:53Z</time>
      </trkpt>
      <trkpt lat="45.49863" lon="6.70348">
        <ele>2231.6000976562</ele>
        <time>2012-07-28T06:22:10Z</time>
      </trkpt>
      <trkpt lat="45.49862" lon="6.70372">
        <ele>2234.3999023438</ele>
        <time>2012-07-28T06:22:23Z</time>
      </trkpt>
      <trkpt lat="45.49852" lon="6.70396">
        <ele>2235.8000488281</ele>
        <time>2012-07-28T06:22:32Z</time>
      </trkpt>
      <trkpt lat="45.49839" lon="6.70416">
        <ele>2237.3999023438</ele>
        <time>2012-07-28T06:22:41Z</time>
      </trkpt>
      <trkpt lat="45.49825" lon="6.70437">
        <ele>2239.3999023438</ele>
        <time>2012-07-28T06:22:51Z</time>
      </trkpt>
      <trkpt lat="45.49812" lon="6.70454">
        <ele>2241.1999511719</ele>
        <time>2012-07-28T06:23:00Z</time>
      </trkpt>
      <trkpt lat="45.49796" lon="6.70469">
        <ele>2243.6000976562</ele>
        <time>2012-07-28T06:23:10Z</time>
      </trkpt>
      <trkpt lat="45.49778" lon="6.70477">
        <ele>2245.6000976562</ele>
        <time>2012-07-28T06:23:19Z</time>
      </trkpt>
      <trkpt lat="45.4976" lon="6.70481">
        <ele>2247.1999511719</ele>
        <time>2012-07-28T06:23:27Z</time>
      </trkpt>
      <trkpt lat="45.49743" lon="6.7049">
        <ele>2248.6000976562</ele>
        <time>2012-07-28T06:23:35Z</time>
      </trkpt>
      <trkpt lat="45.49725" lon="6.70504">
        <ele>2250</ele>
        <time>2012-07-28T06:23:44Z</time>
      </trkpt>
      <trkpt lat="45.49709" lon="6.70518">
        <ele>2251.6000976562</ele>
        <time>2012-07-28T06:23:53Z</time>
      </trkpt>
      <trkpt lat="45.49693" lon="6.70535">
        <ele>2253.3999023438</ele>
        <time>2012-07-28T06:24:02Z</time>
      </trkpt>
      <trkpt lat="45.49674" lon="6.70546">
        <ele>2255.6000976562</ele>
        <time>2012-07-28T06:24:12Z</time>
      </trkpt>
      <trkpt lat="45.49657" lon="6.70555">
        <ele>2257.8000488281</ele>
        <time>2012-07-28T06:24:21Z</time>
      </trkpt>
      <trkpt lat="45.49639" lon="6.70561">
        <ele>2259.6000976562</ele>
        <time>2012-07-28T06:24:30Z</time>
      </trkpt>
      <trkpt lat="45.49622" lon="6.70564">
        <ele>2261.1999511719</ele>
        <time>2012-07-28T06:24:38Z</time>
      </trkpt>
      <trkpt lat="45.49603" lon="6.70566">
        <ele>2262.8000488281</ele>
        <time>2012-07-28T06:24:46Z</time>
      </trkpt>
      <trkpt lat="45.49583" lon="6.70567">
        <ele>2264.8000488281</ele>
        <time>2012-07-28T06:24:57Z</time>
      </trkpt>
      <trkpt lat="45.49569" lon="6.70587">
        <ele>2266</ele>
        <time>2012-07-28T06:25:06Z</time>
      </trkpt>
      <trkpt lat="45.49558" lon="6.70607">
        <ele>2266.8000488281</ele>
        <time>2012-07-28T06:25:14Z</time>
      </trkpt>
      <trkpt lat="45.49544" lon="6.70625">
        <ele>2267.3999023438</ele>
        <time>2012-07-28T06:25:22Z</time>
      </trkpt>
      <trkpt lat="45.49527" lon="6.70638">
        <ele>2268.6000976562</ele>
        <time>2012-07-28T06:25:31Z</time>
      </trkpt>
      <trkpt lat="45.49512" lon="6.7065">
        <ele>2270.1999511719</ele>
        <time>2012-07-28T06:25:44Z</time>
      </trkpt>
      <trkpt lat="45.49511" lon="6.70652">
        <ele>2270.3999023438</ele>
        <time>2012-07-28T06:25:46Z</time>
      </trkpt>
      <trkpt lat="45.49494" lon="6.70665">
        <ele>2272</ele>
        <time>2012-07-28T06:26:01Z</time>
      </trkpt>
      <trkpt lat="45.49479" lon="6.70679">
        <ele>2273.6000976562</ele>
        <time>2012-07-28T06:26:16Z</time>
      </trkpt>
      <trkpt lat="45.49463" lon="6.70694">
        <ele>2275.8000488281</ele>
        <time>2012-07-28T06:26:31Z</time>
      </trkpt>
      <trkpt lat="45.49447" lon="6.70707">
        <ele>2278</ele>
        <time>2012-07-28T06:26:47Z</time>
      </trkpt>
      <trkpt lat="45.49441" lon="6.70713">
        <ele>2279.1999511719</ele>
        <time>2012-07-28T06:26:55Z</time>
      </trkpt>
      <trkpt lat="45.49433" lon="6.70721">
        <ele>2280.1999511719</ele>
        <time>2012-07-28T06:27:04Z</time>
      </trkpt>
      <trkpt lat="45.49415" lon="6.70725">
        <ele>2281.6000976562</ele>
        <time>2012-07-28T06:27:19Z</time>
      </trkpt>
      <trkpt lat="45.49403" lon="6.70728">
        <ele>2283.6000976562</ele>
        <time>2012-07-28T06:27:32Z</time>
      </trkpt>
      <trkpt lat="45.49399" lon="6.70729">
        <ele>2284.1999511719</ele>
        <time>2012-07-28T06:27:36Z</time>
      </trkpt>
      <trkpt lat="45.49397" lon="6.70729">
        <ele>2284.3999023438</ele>
        <time>2012-07-28T06:27:38Z</time>
      </trkpt>
      <trkpt lat="45.49396" lon="6.70729">
        <ele>2284.6000976562</ele>
        <time>2012-07-28T06:27:39Z</time>
      </trkpt>
      <trkpt lat="45.49393" lon="6.70729">
        <ele>2284.8000488281</ele>
        <time>2012-07-28T06:27:41Z</time>
      </trkpt>
      <trkpt lat="45.49387" lon="6.70729">
        <ele>2285.6000976562</ele>
        <time>2012-07-28T06:27:48Z</time>
      </trkpt>
      <trkpt lat="45.49379" lon="6.70732">
        <ele>2287</ele>
        <time>2012-07-28T06:27:57Z</time>
      </trkpt>
      <trkpt lat="45.49372" lon="6.70731">
        <ele>2288.8000488281</ele>
        <time>2012-07-28T06:28:04Z</time>
      </trkpt>
      <trkpt lat="45.49362" lon="6.70729">
        <ele>2291.6000976562</ele>
        <time>2012-07-28T06:28:14Z</time>
      </trkpt>
      <trkpt lat="45.49361" lon="6.70729">
        <ele>2291.8000488281</ele>
        <time>2012-07-28T06:28:15Z</time>
      </trkpt>
      <trkpt lat="45.49355" lon="6.70732">
        <ele>2293.3999023438</ele>
        <time>2012-07-28T06:28:21Z</time>
      </trkpt>
      <trkpt lat="45.49343" lon="6.70737">
        <ele>2295.6000976562</ele>
        <time>2012-07-28T06:28:32Z</time>
      </trkpt>
      <trkpt lat="45.49325" lon="6.70739">
        <ele>2299.3999023438</ele>
        <time>2012-07-28T06:28:47Z</time>
      </trkpt>
      <trkpt lat="45.49313" lon="6.70743">
        <ele>2301.6000976562</ele>
        <time>2012-07-28T06:28:58Z</time>
      </trkpt>
      <trkpt lat="45.49307" lon="6.70743">
        <ele>2302.1999511719</ele>
        <time>2012-07-28T06:29:03Z</time>
      </trkpt>
      <trkpt lat="45.49289" lon="6.70745">
        <ele>2306.3999023438</ele>
        <time>2012-07-28T06:29:20Z</time>
      </trkpt>
      <trkpt lat="45.49271" lon="6.70747">
        <ele>2310.1999511719</ele>
        <time>2012-07-28T06:29:35Z</time>
      </trkpt>
      <trkpt lat="45.49255" lon="6.70759">
        <ele>2314.6000976562</ele>
        <time>2012-07-28T06:29:52Z</time>
      </trkpt>
      <trkpt lat="45.49241" lon="6.70778">
        <ele>2320.6000976562</ele>
        <time>2012-07-28T06:30:11Z</time>
      </trkpt>
      <trkpt lat="45.49227" lon="6.70795">
        <ele>2325.1999511719</ele>
        <time>2012-07-28T06:30:29Z</time>
      </trkpt>
      <trkpt lat="45.49221" lon="6.70819">
        <ele>2330.3999023438</ele>
        <time>2012-07-28T06:30:49Z</time>
      </trkpt>
      <trkpt lat="45.49221" lon="6.7082">
        <ele>2330.6000976562</ele>
        <time>2012-07-28T06:30:50Z</time>
      </trkpt>
      <trkpt lat="45.49224" lon="6.70845">
        <ele>2337.1999511719</ele>
        <time>2012-07-28T06:31:12Z</time>
      </trkpt>
      <trkpt lat="45.4923" lon="6.70869">
        <ele>2346.6000976562</ele>
        <time>2012-07-28T06:31:39Z</time>
      </trkpt>
      <trkpt lat="45.49238" lon="6.70892">
        <ele>2354.3999023438</ele>
        <time>2012-07-28T06:32:04Z</time>
      </trkpt>
      <trkpt lat="45.49239" lon="6.70895">
        <ele>2355.3999023438</ele>
        <time>2012-07-28T06:32:07Z</time>
      </trkpt>
      <trkpt lat="45.4924" lon="6.70899">
        <ele>2356.1999511719</ele>
        <time>2012-07-28T06:32:10Z</time>
      </trkpt>
      <trkpt lat="45.49241" lon="6.70912">
        <ele>2358.3999023438</ele>
        <time>2012-07-28T06:32:18Z</time>
      </trkpt>
      <trkpt lat="45.49239" lon="6.70918">
        <ele>2359.6000976562</ele>
        <time>2012-07-28T06:32:22Z</time>
      </trkpt>
      <trkpt lat="45.49236" lon="6.70924">
        <ele>2361</ele>
        <time>2012-07-28T06:32:27Z</time>
      </trkpt>
      <trkpt lat="45.49224" lon="6.70932">
        <ele>2363.3999023438</ele>
        <time>2012-07-28T06:32:37Z</time>
      </trkpt>
      <trkpt lat="45.49208" lon="6.7094">
        <ele>2365.6000976562</ele>
        <time>2012-07-28T06:32:46Z</time>
      </trkpt>
      <trkpt lat="45.49192" lon="6.70955">
        <ele>2368.1999511719</ele>
        <time>2012-07-28T06:32:55Z</time>
      </trkpt>
      <trkpt lat="45.49178" lon="6.70974">
        <ele>2370</ele>
        <time>2012-07-28T06:33:03Z</time>
      </trkpt>
      <trkpt lat="45.4916" lon="6.70983">
        <ele>2371.1999511719</ele>
        <time>2012-07-28T06:33:11Z</time>
      </trkpt>
      <trkpt lat="45.49141" lon="6.70992">
        <ele>2371.3999023438</ele>
        <time>2012-07-28T06:33:18Z</time>
      </trkpt>
      <trkpt lat="45.49121" lon="6.70998">
        <ele>2371.3999023438</ele>
        <time>2012-07-28T06:33:25Z</time>
      </trkpt>
      <trkpt lat="45.49106" lon="6.71017">
        <ele>2371.1999511719</ele>
        <time>2012-07-28T06:33:32Z</time>
      </trkpt>
      <trkpt lat="45.49099" lon="6.71042">
        <ele>2371</ele>
        <time>2012-07-28T06:33:41Z</time>
      </trkpt>
      <trkpt lat="45.49099" lon="6.71068">
        <ele>2371</ele>
        <time>2012-07-28T06:33:49Z</time>
      </trkpt>
      <trkpt lat="45.49096" lon="6.71095">
        <ele>2371.1999511719</ele>
        <time>2012-07-28T06:33:57Z</time>
      </trkpt>
      <trkpt lat="45.49088" lon="6.7112">
        <ele>2371.1999511719</ele>
        <time>2012-07-28T06:34:04Z</time>
      </trkpt>
      <trkpt lat="45.49086" lon="6.71146">
        <ele>2371.3999023438</ele>
        <time>2012-07-28T06:34:11Z</time>
      </trkpt>
      <trkpt lat="45.49084" lon="6.71174">
        <ele>2371.3999023438</ele>
        <time>2012-07-28T06:34:18Z</time>
      </trkpt>
      <trkpt lat="45.49081" lon="6.71199">
        <ele>2371.6000976562</ele>
        <time>2012-07-28T06:34:25Z</time>
      </trkpt>
      <trkpt lat="45.49084" lon="6.71227">
        <ele>2371.8000488281</ele>
        <time>2012-07-28T06:34:33Z</time>
      </trkpt>
      <trkpt lat="45.49087" lon="6.71252">
        <ele>2372.3999023438</ele>
        <time>2012-07-28T06:34:41Z</time>
      </trkpt>
      <trkpt lat="45.49093" lon="6.71277">
        <ele>2373</ele>
        <time>2012-07-28T06:34:51Z</time>
      </trkpt>
      <trkpt lat="45.49093" lon="6.71304">
        <ele>2373.8000488281</ele>
        <time>2012-07-28T06:35:06Z</time>
      </trkpt>
      <trkpt lat="45.49094" lon="6.7133">
        <ele>2375.8000488281</ele>
        <time>2012-07-28T06:35:24Z</time>
      </trkpt>
      <trkpt lat="45.49093" lon="6.71331">
        <ele>2375.8000488281</ele>
        <time>2012-07-28T06:35:25Z</time>
      </trkpt>
      <trkpt lat="45.49093" lon="6.71336">
        <ele>2376.3999023438</ele>
        <time>2012-07-28T06:35:28Z</time>
      </trkpt>
      <trkpt lat="45.49092" lon="6.71341">
        <ele>2377</ele>
        <time>2012-07-28T06:35:32Z</time>
      </trkpt>
      <trkpt lat="45.49089" lon="6.71355">
        <ele>2378.6000976562</ele>
        <time>2012-07-28T06:35:42Z</time>
      </trkpt>
      <trkpt lat="45.49088" lon="6.71381">
        <ele>2381.8000488281</ele>
        <time>2012-07-28T06:35:58Z</time>
      </trkpt>
      <trkpt lat="45.49088" lon="6.71406">
        <ele>2385.8000488281</ele>
        <time>2012-07-28T06:36:14Z</time>
      </trkpt>
      <trkpt lat="45.49087" lon="6.71433">
        <ele>2390</ele>
        <time>2012-07-28T06:36:30Z</time>
      </trkpt>
      <trkpt lat="45.49089" lon="6.71458">
        <ele>2393.6000976562</ele>
        <time>2012-07-28T06:36:45Z</time>
      </trkpt>
      <trkpt lat="45.49098" lon="6.71482">
        <ele>2397.6000976562</ele>
        <time>2012-07-28T06:37:00Z</time>
      </trkpt>
      <trkpt lat="45.49099" lon="6.71484">
        <ele>2398.1999511719</ele>
        <time>2012-07-28T06:37:02Z</time>
      </trkpt>
      <trkpt lat="45.491" lon="6.71488">
        <ele>2399.1999511719</ele>
        <time>2012-07-28T06:37:06Z</time>
      </trkpt>
      <trkpt lat="45.49109" lon="6.71502">
        <ele>2401.6000976562</ele>
        <time>2012-07-28T06:37:17Z</time>
      </trkpt>
      <trkpt lat="45.4912" lon="6.71522">
        <ele>2405.6000976562</ele>
        <time>2012-07-28T06:37:34Z</time>
      </trkpt>
      <trkpt lat="45.49127" lon="6.71533">
        <ele>2407.8000488281</ele>
        <time>2012-07-28T06:37:43Z</time>
      </trkpt>
      <trkpt lat="45.49121" lon="6.71531">
        <ele>2409.8000488281</ele>
        <time>2012-07-28T06:37:51Z</time>
      </trkpt>
      <trkpt lat="45.49119" lon="6.71529">
        <ele>2410.1999511719</ele>
        <time>2012-07-28T06:37:53Z</time>
      </trkpt>
      <trkpt lat="45.49104" lon="6.71521">
        <ele>2414.3999023438</ele>
        <time>2012-07-28T06:38:09Z</time>
      </trkpt>
      <trkpt lat="45.49102" lon="6.7152">
        <ele>2414.8000488281</ele>
        <time>2012-07-28T06:38:11Z</time>
      </trkpt>
      <trkpt lat="45.49095" lon="6.71518">
        <ele>2416.3999023438</ele>
        <time>2012-07-28T06:38:18Z</time>
      </trkpt>
      <trkpt lat="45.49086" lon="6.71515">
        <ele>2419.3999023438</ele>
        <time>2012-07-28T06:38:29Z</time>
      </trkpt>
      <trkpt lat="45.49083" lon="6.71515">
        <ele>2420.3999023438</ele>
        <time>2012-07-28T06:38:33Z</time>
      </trkpt>
      <trkpt lat="45.49091" lon="6.71531">
        <ele>2422.8000488281</ele>
        <time>2012-07-28T06:38:42Z</time>
      </trkpt>
      <trkpt lat="45.49106" lon="6.71549">
        <ele>2424.3999023438</ele>
        <time>2012-07-28T06:38:50Z</time>
      </trkpt>
      <trkpt lat="45.49121" lon="6.71567">
        <ele>2427</ele>
        <time>2012-07-28T06:39:00Z</time>
      </trkpt>
      <trkpt lat="45.49134" lon="6.71585">
        <ele>2429</ele>
        <time>2012-07-28T06:39:08Z</time>
      </trkpt>
      <trkpt lat="45.49142" lon="6.71611">
        <ele>2431.1999511719</ele>
        <time>2012-07-28T06:39:17Z</time>
      </trkpt>
      <trkpt lat="45.49152" lon="6.71635">
        <ele>2433</ele>
        <time>2012-07-28T06:39:26Z</time>
      </trkpt>
      <trkpt lat="45.49164" lon="6.71655">
        <ele>2434.6000976562</ele>
        <time>2012-07-28T06:39:34Z</time>
      </trkpt>
      <trkpt lat="45.49176" lon="6.71675">
        <ele>2436</ele>
        <time>2012-07-28T06:39:42Z</time>
      </trkpt>
      <trkpt lat="45.49182" lon="6.71699">
        <ele>2436.6000976562</ele>
        <time>2012-07-28T06:39:50Z</time>
      </trkpt>
      <trkpt lat="45.49184" lon="6.71726">
        <ele>2436.8000488281</ele>
        <time>2012-07-28T06:39:58Z</time>
      </trkpt>
      <trkpt lat="45.49185" lon="6.71735">
        <ele>2436.8000488281</ele>
        <time>2012-07-28T06:40:01Z</time>
      </trkpt>
      <trkpt lat="45.49186" lon="6.71752">
        <ele>2437.1999511719</ele>
        <time>2012-07-28T06:40:06Z</time>
      </trkpt>
      <trkpt lat="45.49184" lon="6.71781">
        <ele>2437.8000488281</ele>
        <time>2012-07-28T06:40:15Z</time>
      </trkpt>
      <trkpt lat="45.49187" lon="6.71805">
        <ele>2438</ele>
        <time>2012-07-28T06:40:23Z</time>
      </trkpt>
      <trkpt lat="45.49199" lon="6.71823">
        <ele>2438.1999511719</ele>
        <time>2012-07-28T06:40:30Z</time>
      </trkpt>
      <trkpt lat="45.492" lon="6.71827">
        <ele>2438.1999511719</ele>
        <time>2012-07-28T06:40:31Z</time>
      </trkpt>
      <trkpt lat="45.49197" lon="6.71835">
        <ele>2438.1999511719</ele>
        <time>2012-07-28T06:40:34Z</time>
      </trkpt>
      <trkpt lat="45.49192" lon="6.71849">
        <ele>2438.6000976562</ele>
        <time>2012-07-28T06:40:39Z</time>
      </trkpt>
      <trkpt lat="45.49189" lon="6.71876">
        <ele>2440.1999511719</ele>
        <time>2012-07-28T06:40:49Z</time>
      </trkpt>
      <trkpt lat="45.49193" lon="6.71901">
        <ele>2442.6000976562</ele>
        <time>2012-07-28T06:41:03Z</time>
      </trkpt>
      <trkpt lat="45.49202" lon="6.71923">
        <ele>2444.3999023438</ele>
        <time>2012-07-28T06:41:17Z</time>
      </trkpt>
      <trkpt lat="45.49204" lon="6.71926">
        <ele>2444.8000488281</ele>
        <time>2012-07-28T06:41:19Z</time>
      </trkpt>
      <trkpt lat="45.49214" lon="6.71941">
        <ele>2446</ele>
        <time>2012-07-28T06:41:26Z</time>
      </trkpt>
      <trkpt lat="45.49224" lon="6.71964">
        <ele>2447.8000488281</ele>
        <time>2012-07-28T06:41:35Z</time>
      </trkpt>
      <trkpt lat="45.49234" lon="6.71986">
        <ele>2449.8000488281</ele>
        <time>2012-07-28T06:41:44Z</time>
      </trkpt>
      <trkpt lat="45.49244" lon="6.72009">
        <ele>2451.6000976562</ele>
        <time>2012-07-28T06:41:53Z</time>
      </trkpt>
      <trkpt lat="45.4925" lon="6.72023">
        <ele>2453</ele>
        <time>2012-07-28T06:41:59Z</time>
      </trkpt>
      <trkpt lat="45.4925" lon="6.72035">
        <ele>2454.1999511719</ele>
        <time>2012-07-28T06:42:03Z</time>
      </trkpt>
      <trkpt lat="45.49251" lon="6.7204">
        <ele>2454.3999023438</ele>
        <time>2012-07-28T06:42:05Z</time>
      </trkpt>
      <trkpt lat="45.49247" lon="6.72062">
        <ele>2456.6000976562</ele>
        <time>2012-07-28T06:42:15Z</time>
      </trkpt>
      <trkpt lat="45.49244" lon="6.7209">
        <ele>2458.8000488281</ele>
        <time>2012-07-28T06:42:24Z</time>
      </trkpt>
      <trkpt lat="45.49237" lon="6.72115">
        <ele>2462.1999511719</ele>
        <time>2012-07-28T06:42:38Z</time>
      </trkpt>
      <trkpt lat="45.49232" lon="6.72142">
        <ele>2464.3999023438</ele>
        <time>2012-07-28T06:42:53Z</time>
      </trkpt>
      <trkpt lat="45.49228" lon="6.72167">
        <ele>2466.3999023438</ele>
        <time>2012-07-28T06:43:08Z</time>
      </trkpt>
      <trkpt lat="45.49223" lon="6.72191">
        <ele>2467.8000488281</ele>
        <time>2012-07-28T06:43:21Z</time>
      </trkpt>
      <trkpt lat="45.4922" lon="6.72218">
        <ele>2470.1999511719</ele>
        <time>2012-07-28T06:43:36Z</time>
      </trkpt>
      <trkpt lat="45.49215" lon="6.72244">
        <ele>2474.6000976562</ele>
        <time>2012-07-28T06:43:51Z</time>
      </trkpt>
      <trkpt lat="45.4921" lon="6.72269">
        <ele>2479</ele>
        <time>2012-07-28T06:44:05Z</time>
      </trkpt>
      <trkpt lat="45.49206" lon="6.72293">
        <ele>2482.8000488281</ele>
        <time>2012-07-28T06:44:18Z</time>
      </trkpt>
      <trkpt lat="45.49203" lon="6.72298">
        <ele>2483.6000976562</ele>
        <time>2012-07-28T06:44:21Z</time>
      </trkpt>
      <trkpt lat="45.49192" lon="6.72309">
        <ele>2485</ele>
        <time>2012-07-28T06:44:28Z</time>
      </trkpt>
      <trkpt lat="45.49178" lon="6.72325">
        <ele>2486.3999023438</ele>
        <time>2012-07-28T06:44:36Z</time>
      </trkpt>
      <trkpt lat="45.49174" lon="6.72353">
        <ele>2487.8000488281</ele>
        <time>2012-07-28T06:44:45Z</time>
      </trkpt>
      <trkpt lat="45.49174" lon="6.72356">
        <ele>2488</ele>
        <time>2012-07-28T06:44:46Z</time>
      </trkpt>
      <trkpt lat="45.49179" lon="6.7238">
        <ele>2489.3999023438</ele>
        <time>2012-07-28T06:44:54Z</time>
      </trkpt>
      <trkpt lat="45.4918" lon="6.72383">
        <ele>2489.6000976562</ele>
        <time>2012-07-28T06:44:55Z</time>
      </trkpt>
      <trkpt lat="45.4918" lon="6.72407">
        <ele>2491.3999023438</ele>
        <time>2012-07-28T06:45:03Z</time>
      </trkpt>
      <trkpt lat="45.49173" lon="6.72431">
        <ele>2493</ele>
        <time>2012-07-28T06:45:11Z</time>
      </trkpt>
      <trkpt lat="45.49163" lon="6.72452">
        <ele>2494.6000976562</ele>
        <time>2012-07-28T06:45:19Z</time>
      </trkpt>
      <trkpt lat="45.4915" lon="6.72471">
        <ele>2496</ele>
        <time>2012-07-28T06:45:28Z</time>
      </trkpt>
      <trkpt lat="45.49138" lon="6.72493">
        <ele>2497.1999511719</ele>
        <time>2012-07-28T06:45:37Z</time>
      </trkpt>
      <trkpt lat="45.49131" lon="6.72516">
        <ele>2498.3999023438</ele>
        <time>2012-07-28T06:45:45Z</time>
      </trkpt>
      <trkpt lat="45.49128" lon="6.72544">
        <ele>2500</ele>
        <time>2012-07-28T06:45:54Z</time>
      </trkpt>
      <trkpt lat="45.49127" lon="6.72552">
        <ele>2500.3999023438</ele>
        <time>2012-07-28T06:45:57Z</time>
      </trkpt>
      <trkpt lat="45.49128" lon="6.72564">
        <ele>2501.1999511719</ele>
        <time>2012-07-28T06:46:01Z</time>
      </trkpt>
      <trkpt lat="45.49128" lon="6.72569">
        <ele>2501.6000976562</ele>
        <time>2012-07-28T06:46:03Z</time>
      </trkpt>
      <trkpt lat="45.49136" lon="6.72595">
        <ele>2504.1999511719</ele>
        <time>2012-07-28T06:46:17Z</time>
      </trkpt>
      <trkpt lat="45.49139" lon="6.72606">
        <ele>2505.3999023438</ele>
        <time>2012-07-28T06:46:24Z</time>
      </trkpt>
      <trkpt lat="45.49144" lon="6.72616">
        <ele>2507</ele>
        <time>2012-07-28T06:46:31Z</time>
      </trkpt>
      <trkpt lat="45.49156" lon="6.72637">
        <ele>2510.1999511719</ele>
        <time>2012-07-28T06:46:46Z</time>
      </trkpt>
      <trkpt lat="45.4916" lon="6.72653">
        <ele>2512.6000976562</ele>
        <time>2012-07-28T06:46:56Z</time>
      </trkpt>
      <trkpt lat="45.49163" lon="6.72662">
        <ele>2514</ele>
        <time>2012-07-28T06:47:02Z</time>
      </trkpt>
      <trkpt lat="45.49165" lon="6.72688">
        <ele>2517.8000488281</ele>
        <time>2012-07-28T06:47:19Z</time>
      </trkpt>
      <trkpt lat="45.49163" lon="6.72706">
        <ele>2521.1999511719</ele>
        <time>2012-07-28T06:47:32Z</time>
      </trkpt>
      <trkpt lat="45.49162" lon="6.72713">
        <ele>2522.3999023438</ele>
        <time>2012-07-28T06:47:37Z</time>
      </trkpt>
      <trkpt lat="45.49166" lon="6.72729">
        <ele>2526</ele>
        <time>2012-07-28T06:47:53Z</time>
      </trkpt>
      <trkpt lat="45.49168" lon="6.72735">
        <ele>2527.1999511719</ele>
        <time>2012-07-28T06:47:58Z</time>
      </trkpt>
      <trkpt lat="45.49168" lon="6.72738">
        <ele>2527.6000976562</ele>
        <time>2012-07-28T06:48:00Z</time>
      </trkpt>
      <trkpt lat="45.49172" lon="6.72761">
        <ele>2531.8000488281</ele>
        <time>2012-07-28T06:48:16Z</time>
      </trkpt>
      <trkpt lat="45.49174" lon="6.72786">
        <ele>2535.8000488281</ele>
        <time>2012-07-28T06:48:30Z</time>
      </trkpt>
      <trkpt lat="45.49171" lon="6.72812">
        <ele>2539.1999511719</ele>
        <time>2012-07-28T06:48:48Z</time>
      </trkpt>
      <trkpt lat="45.49172" lon="6.72815">
        <ele>2539.6000976562</ele>
        <time>2012-07-28T06:48:50Z</time>
      </trkpt>
      <trkpt lat="45.49172" lon="6.72838">
        <ele>2543.8000488281</ele>
        <time>2012-07-28T06:49:07Z</time>
      </trkpt>
      <trkpt lat="45.49168" lon="6.72856">
        <ele>2547.1999511719</ele>
        <time>2012-07-28T06:49:20Z</time>
      </trkpt>
      <trkpt lat="45.49165" lon="6.72862">
        <ele>2548.1999511719</ele>
        <time>2012-07-28T06:49:25Z</time>
      </trkpt>
      <trkpt lat="45.49163" lon="6.72866">
        <ele>2548.8000488281</ele>
        <time>2012-07-28T06:49:28Z</time>
      </trkpt>
      <trkpt lat="45.49151" lon="6.7288">
        <ele>2551.1999511719</ele>
        <time>2012-07-28T06:49:40Z</time>
      </trkpt>
      <trkpt lat="45.49139" lon="6.72898">
        <ele>2553.6000976562</ele>
        <time>2012-07-28T06:49:52Z</time>
      </trkpt>
      <trkpt lat="45.49135" lon="6.72925">
        <ele>2556.1999511719</ele>
        <time>2012-07-28T06:50:02Z</time>
      </trkpt>
      <trkpt lat="45.49133" lon="6.72945">
        <ele>2559.3999023438</ele>
        <time>2012-07-28T06:50:10Z</time>
      </trkpt>
      <trkpt lat="45.49133" lon="6.7295">
        <ele>2560.1999511719</ele>
        <time>2012-07-28T06:50:12Z</time>
      </trkpt>
      <trkpt lat="45.49129" lon="6.72976">
        <ele>2564.3999023438</ele>
        <time>2012-07-28T06:50:22Z</time>
      </trkpt>
      <trkpt lat="45.49134" lon="6.73002">
        <ele>2568</ele>
        <time>2012-07-28T06:50:36Z</time>
      </trkpt>
      <trkpt lat="45.49145" lon="6.73022">
        <ele>2569.3999023438</ele>
        <time>2012-07-28T06:50:50Z</time>
      </trkpt>
      <trkpt lat="45.49155" lon="6.73045">
        <ele>2570.3999023438</ele>
        <time>2012-07-28T06:51:03Z</time>
      </trkpt>
      <trkpt lat="45.49155" lon="6.73071">
        <ele>2571.6000976562</ele>
        <time>2012-07-28T06:51:15Z</time>
      </trkpt>
      <trkpt lat="45.49154" lon="6.73076">
        <ele>2571.8000488281</ele>
        <time>2012-07-28T06:51:17Z</time>
      </trkpt>
      <trkpt lat="45.49153" lon="6.73083">
        <ele>2572.1999511719</ele>
        <time>2012-07-28T06:51:21Z</time>
      </trkpt>
      <trkpt lat="45.49154" lon="6.73098">
        <ele>2573.1999511719</ele>
        <time>2012-07-28T06:51:29Z</time>
      </trkpt>
      <trkpt lat="45.49166" lon="6.73118">
        <ele>2575.1999511719</ele>
        <time>2012-07-28T06:51:43Z</time>
      </trkpt>
      <trkpt lat="45.49182" lon="6.73131">
        <ele>2577</ele>
        <time>2012-07-28T06:51:57Z</time>
      </trkpt>
      <trkpt lat="45.492" lon="6.73142">
        <ele>2579</ele>
        <time>2012-07-28T06:52:10Z</time>
      </trkpt>
      <trkpt lat="45.49217" lon="6.73152">
        <ele>2580.8000488281</ele>
        <time>2012-07-28T06:52:19Z</time>
      </trkpt>
      <trkpt lat="45.49226" lon="6.73154">
        <ele>2581.8000488281</ele>
        <time>2012-07-28T06:52:23Z</time>
      </trkpt>
      <trkpt lat="45.49236" lon="6.73151">
        <ele>2583.3999023438</ele>
        <time>2012-07-28T06:52:28Z</time>
      </trkpt>
      <trkpt lat="45.49238" lon="6.7315">
        <ele>2583.6000976562</ele>
        <time>2012-07-28T06:52:29Z</time>
      </trkpt>
      <trkpt lat="45.49253" lon="6.73151">
        <ele>2585.8000488281</ele>
        <time>2012-07-28T06:52:37Z</time>
      </trkpt>
      <trkpt lat="45.49273" lon="6.73155">
        <ele>2588</ele>
        <time>2012-07-28T06:52:47Z</time>
      </trkpt>
      <trkpt lat="45.49292" lon="6.73154">
        <ele>2590</ele>
        <time>2012-07-28T06:52:56Z</time>
      </trkpt>
      <trkpt lat="45.49311" lon="6.73153">
        <ele>2591.6000976562</ele>
        <time>2012-07-28T06:53:05Z</time>
      </trkpt>
      <trkpt lat="45.4933" lon="6.73148">
        <ele>2593.8000488281</ele>
        <time>2012-07-28T06:53:17Z</time>
      </trkpt>
      <trkpt lat="45.49349" lon="6.7315">
        <ele>2595.8000488281</ele>
        <time>2012-07-28T06:53:30Z</time>
      </trkpt>
      <trkpt lat="45.49368" lon="6.73151">
        <ele>2598.1999511719</ele>
        <time>2012-07-28T06:53:45Z</time>
      </trkpt>
      <trkpt lat="45.49373" lon="6.73152">
        <ele>2598.8000488281</ele>
        <time>2012-07-28T06:53:49Z</time>
      </trkpt>
      <trkpt lat="45.49379" lon="6.73151">
        <ele>2599.3999023438</ele>
        <time>2012-07-28T06:53:53Z</time>
      </trkpt>
      <trkpt lat="45.49386" lon="6.73151">
        <ele>2600.1999511719</ele>
        <time>2012-07-28T06:53:58Z</time>
      </trkpt>
      <trkpt lat="45.49404" lon="6.73152">
        <ele>2602</ele>
        <time>2012-07-28T06:54:11Z</time>
      </trkpt>
      <trkpt lat="45.49422" lon="6.73162">
        <ele>2604</ele>
        <time>2012-07-28T06:54:24Z</time>
      </trkpt>
      <trkpt lat="45.49438" lon="6.73176">
        <ele>2606</ele>
        <time>2012-07-28T06:54:37Z</time>
      </trkpt>
      <trkpt lat="45.49451" lon="6.73186">
        <ele>2605.8000488281</ele>
        <time>2012-07-28T06:54:49Z</time>
      </trkpt>
      <trkpt lat="45.49465" lon="6.73193">
        <ele>2606.6000976562</ele>
        <time>2012-07-28T06:54:58Z</time>
      </trkpt>
      <trkpt lat="45.49468" lon="6.73195">
        <ele>2607</ele>
        <time>2012-07-28T06:55:00Z</time>
      </trkpt>
      <trkpt lat="45.49486" lon="6.73196">
        <ele>2609.1999511719</ele>
        <time>2012-07-28T06:55:12Z</time>
      </trkpt>
      <trkpt lat="45.49504" lon="6.73198">
        <ele>2611.6000976562</ele>
        <time>2012-07-28T06:55:21Z</time>
      </trkpt>
      <trkpt lat="45.49517" lon="6.73198">
        <ele>2613.6000976562</ele>
        <time>2012-07-28T06:55:31Z</time>
      </trkpt>
      <trkpt lat="45.49521" lon="6.732">
        <ele>2614</ele>
        <time>2012-07-28T06:55:33Z</time>
      </trkpt>
      <trkpt lat="45.49539" lon="6.73207">
        <ele>2616.1999511719</ele>
        <time>2012-07-28T06:55:46Z</time>
      </trkpt>
      <trkpt lat="45.49558" lon="6.73213">
        <ele>2618</ele>
        <time>2012-07-28T06:55:59Z</time>
      </trkpt>
      <trkpt lat="45.49575" lon="6.73219">
        <ele>2619.8000488281</ele>
        <time>2012-07-28T06:56:08Z</time>
      </trkpt>
      <trkpt lat="45.49592" lon="6.73228">
        <ele>2622.1999511719</ele>
        <time>2012-07-28T06:56:17Z</time>
      </trkpt>
      <trkpt lat="45.49607" lon="6.73237">
        <ele>2623.6000976562</ele>
        <time>2012-07-28T06:56:28Z</time>
      </trkpt>
      <trkpt lat="45.49617" lon="6.73247">
        <ele>2625.3999023438</ele>
        <time>2012-07-28T06:56:37Z</time>
      </trkpt>
      <trkpt lat="45.49622" lon="6.73249">
        <ele>2626.1999511719</ele>
        <time>2012-07-28T06:56:41Z</time>
      </trkpt>
      <trkpt lat="45.49623" lon="6.7325">
        <ele>2626.3999023438</ele>
        <time>2012-07-28T06:56:42Z</time>
      </trkpt>
      <trkpt lat="45.49628" lon="6.73259">
        <ele>2627.8000488281</ele>
        <time>2012-07-28T06:56:47Z</time>
      </trkpt>
      <trkpt lat="45.49622" lon="6.73271">
        <ele>2630.6000976562</ele>
        <time>2012-07-28T06:56:56Z</time>
      </trkpt>
      <trkpt lat="45.49603" lon="6.73271">
        <ele>2635.1999511719</ele>
        <time>2012-07-28T06:57:10Z</time>
      </trkpt>
      <trkpt lat="45.49585" lon="6.73272">
        <ele>2638.8000488281</ele>
        <time>2012-07-28T06:57:22Z</time>
      </trkpt>
      <trkpt lat="45.49566" lon="6.73269">
        <ele>2643.3999023438</ele>
        <time>2012-07-28T06:57:35Z</time>
      </trkpt>
      <trkpt lat="45.49548" lon="6.73269">
        <ele>2646.8000488281</ele>
        <time>2012-07-28T06:57:49Z</time>
      </trkpt>
      <trkpt lat="45.49529" lon="6.73275">
        <ele>2649.1999511719</ele>
        <time>2012-07-28T06:57:59Z</time>
      </trkpt>
      <trkpt lat="45.4951" lon="6.73278">
        <ele>2651.8000488281</ele>
        <time>2012-07-28T06:58:09Z</time>
      </trkpt>
      <trkpt lat="45.49492" lon="6.73285">
        <ele>2655</ele>
        <time>2012-07-28T06:58:20Z</time>
      </trkpt>
      <trkpt lat="45.49474" lon="6.73291">
        <ele>2657.8000488281</ele>
        <time>2012-07-28T06:58:33Z</time>
      </trkpt>
      <trkpt lat="45.49463" lon="6.73294">
        <ele>2659.6000976562</ele>
        <time>2012-07-28T06:58:41Z</time>
      </trkpt>
      <trkpt lat="45.49456" lon="6.733">
        <ele>2661</ele>
        <time>2012-07-28T06:58:47Z</time>
      </trkpt>
      <trkpt lat="45.49438" lon="6.73308">
        <ele>2663.6000976562</ele>
        <time>2012-07-28T06:59:00Z</time>
      </trkpt>
      <trkpt lat="45.4942" lon="6.73312">
        <ele>2665.3999023438</ele>
        <time>2012-07-28T06:59:12Z</time>
      </trkpt>
      <trkpt lat="45.49401" lon="6.73318">
        <ele>2667.6000976562</ele>
        <time>2012-07-28T06:59:25Z</time>
      </trkpt>
      <trkpt lat="45.49384" lon="6.73321">
        <ele>2670</ele>
        <time>2012-07-28T06:59:37Z</time>
      </trkpt>
      <trkpt lat="45.49366" lon="6.73327">
        <ele>2672.8000488281</ele>
        <time>2012-07-28T06:59:50Z</time>
      </trkpt>
      <trkpt lat="45.49348" lon="6.73334">
        <ele>2675.3999023438</ele>
        <time>2012-07-28T07:00:03Z</time>
      </trkpt>
      <trkpt lat="45.49347" lon="6.73335">
        <ele>2675.8000488281</ele>
        <time>2012-07-28T07:00:04Z</time>
      </trkpt>
      <trkpt lat="45.49339" lon="6.7334">
        <ele>2676.8000488281</ele>
        <time>2012-07-28T07:00:09Z</time>
      </trkpt>
      <trkpt lat="45.49331" lon="6.73345">
        <ele>2677.3999023438</ele>
        <time>2012-07-28T07:00:14Z</time>
      </trkpt>
      <trkpt lat="45.49313" lon="6.73355">
        <ele>2679.8000488281</ele>
        <time>2012-07-28T07:00:25Z</time>
      </trkpt>
      <trkpt lat="45.49295" lon="6.73363">
        <ele>2682.1999511719</ele>
        <time>2012-07-28T07:00:37Z</time>
      </trkpt>
      <trkpt lat="45.49278" lon="6.73372">
        <ele>2685.3999023438</ele>
        <time>2012-07-28T07:00:51Z</time>
      </trkpt>
      <trkpt lat="45.49261" lon="6.73382">
        <ele>2688.6000976562</ele>
        <time>2012-07-28T07:01:05Z</time>
      </trkpt>
      <trkpt lat="45.49245" lon="6.73395">
        <ele>2692</ele>
        <time>2012-07-28T07:01:20Z</time>
      </trkpt>
      <trkpt lat="45.49241" lon="6.734">
        <ele>2693</ele>
        <time>2012-07-28T07:01:25Z</time>
      </trkpt>
      <trkpt lat="45.49231" lon="6.73413">
        <ele>2694.3999023438</ele>
        <time>2012-07-28T07:01:32Z</time>
      </trkpt>
      <trkpt lat="45.49231" lon="6.73439">
        <ele>2696.3999023438</ele>
        <time>2012-07-28T07:01:42Z</time>
      </trkpt>
      <trkpt lat="45.49232" lon="6.73443">
        <ele>2697</ele>
        <time>2012-07-28T07:01:44Z</time>
      </trkpt>
      <trkpt lat="45.49234" lon="6.73448">
        <ele>2697.8000488281</ele>
        <time>2012-07-28T07:01:48Z</time>
      </trkpt>
      <trkpt lat="45.49237" lon="6.73454">
        <ele>2699.1999511719</ele>
        <time>2012-07-28T07:01:55Z</time>
      </trkpt>
      <trkpt lat="45.49241" lon="6.73462">
        <ele>2700.1999511719</ele>
        <time>2012-07-28T07:02:01Z</time>
      </trkpt>
      <trkpt lat="45.49242" lon="6.73464">
        <ele>2700.3999023438</ele>
        <time>2012-07-28T07:02:02Z</time>
      </trkpt>
      <trkpt lat="45.49254" lon="6.73483">
        <ele>2702</ele>
        <time>2012-07-28T07:02:10Z</time>
      </trkpt>
      <trkpt lat="45.49263" lon="6.73508">
        <ele>2702.6000976562</ele>
        <time>2012-07-28T07:02:18Z</time>
      </trkpt>
      <trkpt lat="45.49258" lon="6.73523">
        <ele>2702.3999023438</ele>
        <time>2012-07-28T07:02:22Z</time>
      </trkpt>
      <trkpt lat="45.49252" lon="6.73522">
        <ele>2702.3999023438</ele>
        <time>2012-07-28T07:02:24Z</time>
      </trkpt>
      <trkpt lat="45.4924" lon="6.73503">
        <ele>2702.1999511719</ele>
        <time>2012-07-28T07:02:30Z</time>
      </trkpt>
      <trkpt lat="45.49229" lon="6.73481">
        <ele>2702.1999511719</ele>
        <time>2012-07-28T07:02:36Z</time>
      </trkpt>
      <trkpt lat="45.49217" lon="6.7346">
        <ele>2702</ele>
        <time>2012-07-28T07:02:42Z</time>
      </trkpt>
      <trkpt lat="45.49207" lon="6.73439">
        <ele>2702</ele>
        <time>2012-07-28T07:02:48Z</time>
      </trkpt>
      <trkpt lat="45.49195" lon="6.73419">
        <ele>2701.8000488281</ele>
        <time>2012-07-28T07:02:54Z</time>
      </trkpt>
      <trkpt lat="45.49182" lon="6.73401">
        <ele>2701.3999023438</ele>
        <time>2012-07-28T07:03:00Z</time>
      </trkpt>
      <trkpt lat="45.49165" lon="6.73384">
        <ele>2700.8000488281</ele>
        <time>2012-07-28T07:03:07Z</time>
      </trkpt>
      <trkpt lat="45.49149" lon="6.73371">
        <ele>2700.1999511719</ele>
        <time>2012-07-28T07:03:13Z</time>
      </trkpt>
      <trkpt lat="45.49133" lon="6.73358">
        <ele>2699.3999023438</ele>
        <time>2012-07-28T07:03:19Z</time>
      </trkpt>
      <trkpt lat="45.49116" lon="6.73348">
        <ele>2698.3999023438</ele>
        <time>2012-07-28T07:03:25Z</time>
      </trkpt>
      <trkpt lat="45.49098" lon="6.73338">
        <ele>2697.3999023438</ele>
        <time>2012-07-28T07:03:31Z</time>
      </trkpt>
      <trkpt lat="45.49081" lon="6.73325">
        <ele>2696.3999023438</ele>
        <time>2012-07-28T07:03:37Z</time>
      </trkpt>
      <trkpt lat="45.49066" lon="6.73311">
        <ele>2695.1999511719</ele>
        <time>2012-07-28T07:03:43Z</time>
      </trkpt>
      <trkpt lat="45.4905" lon="6.73298">
        <ele>2694.1999511719</ele>
        <time>2012-07-28T07:03:49Z</time>
      </trkpt>
      <trkpt lat="45.49034" lon="6.73287">
        <ele>2693</ele>
        <time>2012-07-28T07:03:55Z</time>
      </trkpt>
      <trkpt lat="45.49015" lon="6.73275">
        <ele>2691.6000976562</ele>
        <time>2012-07-28T07:04:02Z</time>
      </trkpt>
      <trkpt lat="45.48998" lon="6.73269">
        <ele>2690.1999511719</ele>
        <time>2012-07-28T07:04:08Z</time>
      </trkpt>
      <trkpt lat="45.48978" lon="6.7326">
        <ele>2688.6000976562</ele>
        <time>2012-07-28T07:04:15Z</time>
      </trkpt>
      <trkpt lat="45.48967" lon="6.73258">
        <ele>2687.6000976562</ele>
        <time>2012-07-28T07:04:19Z</time>
      </trkpt>
      <trkpt lat="45.48965" lon="6.73267">
        <ele>2686.8000488281</ele>
        <time>2012-07-28T07:04:22Z</time>
      </trkpt>
      <trkpt lat="45.4898" lon="6.73277">
        <ele>2685.3999023438</ele>
        <time>2012-07-28T07:04:27Z</time>
      </trkpt>
      <trkpt lat="45.48983" lon="6.73279">
        <ele>2685.1999511719</ele>
        <time>2012-07-28T07:04:28Z</time>
      </trkpt>
      <trkpt lat="45.49" lon="6.73292">
        <ele>2683.6000976562</ele>
        <time>2012-07-28T07:04:34Z</time>
      </trkpt>
      <trkpt lat="45.49015" lon="6.73304">
        <ele>2682</ele>
        <time>2012-07-28T07:04:40Z</time>
      </trkpt>
      <trkpt lat="45.49022" lon="6.73311">
        <ele>2681.1999511719</ele>
        <time>2012-07-28T07:04:43Z</time>
      </trkpt>
      <trkpt lat="45.49023" lon="6.73317">
        <ele>2680.8000488281</ele>
        <time>2012-07-28T07:04:45Z</time>
      </trkpt>
      <trkpt lat="45.49017" lon="6.73322">
        <ele>2679.8000488281</ele>
        <time>2012-07-28T07:04:48Z</time>
      </trkpt>
      <trkpt lat="45.49002" lon="6.73318">
        <ele>2678.1999511719</ele>
        <time>2012-07-28T07:04:53Z</time>
      </trkpt>
      <trkpt lat="45.48999" lon="6.73317">
        <ele>2678</ele>
        <time>2012-07-28T07:04:54Z</time>
      </trkpt>
      <trkpt lat="45.48979" lon="6.7331">
        <ele>2675.6000976562</ele>
        <time>2012-07-28T07:05:01Z</time>
      </trkpt>
      <trkpt lat="45.48976" lon="6.73311">
        <ele>2675.3999023438</ele>
        <time>2012-07-28T07:05:02Z</time>
      </trkpt>
      <trkpt lat="45.48977" lon="6.73331">
        <ele>2673.3999023438</ele>
        <time>2012-07-28T07:05:08Z</time>
      </trkpt>
      <trkpt lat="45.48984" lon="6.73336">
        <ele>2672.3999023438</ele>
        <time>2012-07-28T07:05:11Z</time>
      </trkpt>
      <trkpt lat="45.48993" lon="6.73342">
        <ele>2671</ele>
        <time>2012-07-28T07:05:15Z</time>
      </trkpt>
      <trkpt lat="45.49007" lon="6.73358">
        <ele>2668.8000488281</ele>
        <time>2012-07-28T07:05:21Z</time>
      </trkpt>
      <trkpt lat="45.49025" lon="6.73372">
        <ele>2666.1999511719</ele>
        <time>2012-07-28T07:05:28Z</time>
      </trkpt>
      <trkpt lat="45.49041" lon="6.73391">
        <ele>2663.6000976562</ele>
        <time>2012-07-28T07:05:35Z</time>
      </trkpt>
      <trkpt lat="45.49059" lon="6.73399">
        <ele>2661.3999023438</ele>
        <time>2012-07-28T07:05:41Z</time>
      </trkpt>
      <trkpt lat="45.49076" lon="6.73415">
        <ele>2659</ele>
        <time>2012-07-28T07:05:47Z</time>
      </trkpt>
      <trkpt lat="45.49092" lon="6.7343">
        <ele>2656.6000976562</ele>
        <time>2012-07-28T07:05:53Z</time>
      </trkpt>
      <trkpt lat="45.49106" lon="6.7345">
        <ele>2654</ele>
        <time>2012-07-28T07:06:00Z</time>
      </trkpt>
      <trkpt lat="45.49118" lon="6.73474">
        <ele>2651.6000976562</ele>
        <time>2012-07-28T07:06:07Z</time>
      </trkpt>
      <trkpt lat="45.49126" lon="6.73498">
        <ele>2649.8000488281</ele>
        <time>2012-07-28T07:06:13Z</time>
      </trkpt>
      <trkpt lat="45.49132" lon="6.73524">
        <ele>2648.1999511719</ele>
        <time>2012-07-28T07:06:19Z</time>
      </trkpt>
      <trkpt lat="45.49136" lon="6.73552">
        <ele>2646.3999023438</ele>
        <time>2012-07-28T07:06:26Z</time>
      </trkpt>
      <trkpt lat="45.49139" lon="6.7358">
        <ele>2644.6000976562</ele>
        <time>2012-07-28T07:06:33Z</time>
      </trkpt>
      <trkpt lat="45.4914" lon="6.7361">
        <ele>2642.8000488281</ele>
        <time>2012-07-28T07:06:40Z</time>
      </trkpt>
      <trkpt lat="45.49137" lon="6.7364">
        <ele>2641</ele>
        <time>2012-07-28T07:06:47Z</time>
      </trkpt>
      <trkpt lat="45.4913" lon="6.73668">
        <ele>2639.1999511719</ele>
        <time>2012-07-28T07:06:54Z</time>
      </trkpt>
      <trkpt lat="45.49125" lon="6.73693">
        <ele>2637.6000976562</ele>
        <time>2012-07-28T07:07:00Z</time>
      </trkpt>
      <trkpt lat="45.49114" lon="6.73717">
        <ele>2636.1999511719</ele>
        <time>2012-07-28T07:07:06Z</time>
      </trkpt>
      <trkpt lat="45.49099" lon="6.73737">
        <ele>2634.3999023438</ele>
        <time>2012-07-28T07:07:12Z</time>
      </trkpt>
      <trkpt lat="45.49083" lon="6.73751">
        <ele>2632.8000488281</ele>
        <time>2012-07-28T07:07:18Z</time>
      </trkpt>
      <trkpt lat="45.49068" lon="6.73768">
        <ele>2631.1999511719</ele>
        <time>2012-07-28T07:07:24Z</time>
      </trkpt>
      <trkpt lat="45.49054" lon="6.73784">
        <ele>2629.3999023438</ele>
        <time>2012-07-28T07:07:30Z</time>
      </trkpt>
      <trkpt lat="45.49036" lon="6.73795">
        <ele>2627.8000488281</ele>
        <time>2012-07-28T07:07:36Z</time>
      </trkpt>
      <trkpt lat="45.49019" lon="6.73806">
        <ele>2626.3999023438</ele>
        <time>2012-07-28T07:07:42Z</time>
      </trkpt>
      <trkpt lat="45.49002" lon="6.73818">
        <ele>2625.1999511719</ele>
        <time>2012-07-28T07:07:48Z</time>
      </trkpt>
      <trkpt lat="45.48984" lon="6.73824">
        <ele>2623.8000488281</ele>
        <time>2012-07-28T07:07:54Z</time>
      </trkpt>
      <trkpt lat="45.48965" lon="6.73818">
        <ele>2622.3999023438</ele>
        <time>2012-07-28T07:08:00Z</time>
      </trkpt>
      <trkpt lat="45.48947" lon="6.7381">
        <ele>2620.8000488281</ele>
        <time>2012-07-28T07:08:06Z</time>
      </trkpt>
      <trkpt lat="45.48929" lon="6.73823">
        <ele>2619</ele>
        <time>2012-07-28T07:08:13Z</time>
      </trkpt>
      <trkpt lat="45.48917" lon="6.73843">
        <ele>2617.3999023438</ele>
        <time>2012-07-28T07:08:19Z</time>
      </trkpt>
      <trkpt lat="45.48915" lon="6.73868">
        <ele>2615.8000488281</ele>
        <time>2012-07-28T07:08:25Z</time>
      </trkpt>
      <trkpt lat="45.48915" lon="6.73893">
        <ele>2614</ele>
        <time>2012-07-28T07:08:31Z</time>
      </trkpt>
      <trkpt lat="45.48911" lon="6.73918">
        <ele>2612.1999511719</ele>
        <time>2012-07-28T07:08:37Z</time>
      </trkpt>
      <trkpt lat="45.48907" lon="6.73945">
        <ele>2610.1999511719</ele>
        <time>2012-07-28T07:08:43Z</time>
      </trkpt>
      <trkpt lat="45.48901" lon="6.73972">
        <ele>2608.1999511719</ele>
        <time>2012-07-28T07:08:49Z</time>
      </trkpt>
      <trkpt lat="45.48896" lon="6.73995">
        <ele>2606.3999023438</ele>
        <time>2012-07-28T07:08:54Z</time>
      </trkpt>
      <trkpt lat="45.48893" lon="6.74025">
        <ele>2604</ele>
        <time>2012-07-28T07:09:01Z</time>
      </trkpt>
      <trkpt lat="45.48885" lon="6.74048">
        <ele>2601.8000488281</ele>
        <time>2012-07-28T07:09:07Z</time>
      </trkpt>
      <trkpt lat="45.48872" lon="6.7407">
        <ele>2599.1999511719</ele>
        <time>2012-07-28T07:09:14Z</time>
      </trkpt>
      <trkpt lat="45.48855" lon="6.74087">
        <ele>2596.6000976562</ele>
        <time>2012-07-28T07:09:20Z</time>
      </trkpt>
      <trkpt lat="45.48837" lon="6.74101">
        <ele>2594.1999511719</ele>
        <time>2012-07-28T07:09:26Z</time>
      </trkpt>
      <trkpt lat="45.4882" lon="6.74108">
        <ele>2592.1999511719</ele>
        <time>2012-07-28T07:09:31Z</time>
      </trkpt>
      <trkpt lat="45.488" lon="6.74116">
        <ele>2589.6000976562</ele>
        <time>2012-07-28T07:09:37Z</time>
      </trkpt>
      <trkpt lat="45.48782" lon="6.74131">
        <ele>2587</ele>
        <time>2012-07-28T07:09:44Z</time>
      </trkpt>
      <trkpt lat="45.48768" lon="6.74148">
        <ele>2584.8000488281</ele>
        <time>2012-07-28T07:09:50Z</time>
      </trkpt>
      <trkpt lat="45.48751" lon="6.74162">
        <ele>2582.6000976562</ele>
        <time>2012-07-28T07:09:56Z</time>
      </trkpt>
      <trkpt lat="45.48732" lon="6.74172">
        <ele>2580.3999023438</ele>
        <time>2012-07-28T07:10:02Z</time>
      </trkpt>
      <trkpt lat="45.48716" lon="6.74186">
        <ele>2578.1999511719</ele>
        <time>2012-07-28T07:10:08Z</time>
      </trkpt>
      <trkpt lat="45.48699" lon="6.742">
        <ele>2576</ele>
        <time>2012-07-28T07:10:14Z</time>
      </trkpt>
      <trkpt lat="45.48681" lon="6.74208">
        <ele>2574</ele>
        <time>2012-07-28T07:10:20Z</time>
      </trkpt>
      <trkpt lat="45.48666" lon="6.74223">
        <ele>2572.1999511719</ele>
        <time>2012-07-28T07:10:26Z</time>
      </trkpt>
      <trkpt lat="45.4865" lon="6.74241">
        <ele>2570.1999511719</ele>
        <time>2012-07-28T07:10:32Z</time>
      </trkpt>
      <trkpt lat="45.4863" lon="6.74253">
        <ele>2568</ele>
        <time>2012-07-28T07:10:39Z</time>
      </trkpt>
      <trkpt lat="45.48611" lon="6.74259">
        <ele>2566</ele>
        <time>2012-07-28T07:10:45Z</time>
      </trkpt>
      <trkpt lat="45.48593" lon="6.74265">
        <ele>2564</ele>
        <time>2012-07-28T07:10:51Z</time>
      </trkpt>
      <trkpt lat="45.48584" lon="6.74288">
        <ele>2562</ele>
        <time>2012-07-28T07:10:57Z</time>
      </trkpt>
      <trkpt lat="45.48588" lon="6.74304">
        <ele>2560.8000488281</ele>
        <time>2012-07-28T07:11:01Z</time>
      </trkpt>
      <trkpt lat="45.48596" lon="6.7431">
        <ele>2559.8000488281</ele>
        <time>2012-07-28T07:11:04Z</time>
      </trkpt>
      <trkpt lat="45.48616" lon="6.74312">
        <ele>2557.8000488281</ele>
        <time>2012-07-28T07:11:10Z</time>
      </trkpt>
      <trkpt lat="45.48637" lon="6.74317">
        <ele>2555.3999023438</ele>
        <time>2012-07-28T07:11:17Z</time>
      </trkpt>
      <trkpt lat="45.48656" lon="6.7432">
        <ele>2553.3999023438</ele>
        <time>2012-07-28T07:11:23Z</time>
      </trkpt>
      <trkpt lat="45.48676" lon="6.74321">
        <ele>2551.3999023438</ele>
        <time>2012-07-28T07:11:29Z</time>
      </trkpt>
      <trkpt lat="45.48695" lon="6.7432">
        <ele>2549.3999023438</ele>
        <time>2012-07-28T07:11:35Z</time>
      </trkpt>
      <trkpt lat="45.48715" lon="6.74314">
        <ele>2547.6000976562</ele>
        <time>2012-07-28T07:11:41Z</time>
      </trkpt>
      <trkpt lat="45.48732" lon="6.74305">
        <ele>2545.8000488281</ele>
        <time>2012-07-28T07:11:47Z</time>
      </trkpt>
      <trkpt lat="45.48751" lon="6.743">
        <ele>2544.1999511719</ele>
        <time>2012-07-28T07:11:53Z</time>
      </trkpt>
      <trkpt lat="45.4877" lon="6.74296">
        <ele>2542.3999023438</ele>
        <time>2012-07-28T07:11:59Z</time>
      </trkpt>
      <trkpt lat="45.48788" lon="6.74284">
        <ele>2540.6000976562</ele>
        <time>2012-07-28T07:12:06Z</time>
      </trkpt>
      <trkpt lat="45.48806" lon="6.74275">
        <ele>2539.1999511719</ele>
        <time>2012-07-28T07:12:12Z</time>
      </trkpt>
      <trkpt lat="45.48824" lon="6.74264">
        <ele>2537.6000976562</ele>
        <time>2012-07-28T07:12:19Z</time>
      </trkpt>
      <trkpt lat="45.48841" lon="6.74259">
        <ele>2536.1999511719</ele>
        <time>2012-07-28T07:12:25Z</time>
      </trkpt>
      <trkpt lat="45.48859" lon="6.74264">
        <ele>2535</ele>
        <time>2012-07-28T07:12:31Z</time>
      </trkpt>
      <trkpt lat="45.4888" lon="6.74267">
        <ele>2533.6000976562</ele>
        <time>2012-07-28T07:12:38Z</time>
      </trkpt>
      <trkpt lat="45.48885" lon="6.74272">
        <ele>2533.1999511719</ele>
        <time>2012-07-28T07:12:40Z</time>
      </trkpt>
      <trkpt lat="45.48887" lon="6.74289">
        <ele>2532.3999023438</ele>
        <time>2012-07-28T07:12:44Z</time>
      </trkpt>
      <trkpt lat="45.48883" lon="6.74313">
        <ele>2531.3999023438</ele>
        <time>2012-07-28T07:12:50Z</time>
      </trkpt>
      <trkpt lat="45.48894" lon="6.74334">
        <ele>2530.1999511719</ele>
        <time>2012-07-28T07:12:57Z</time>
      </trkpt>
      <trkpt lat="45.48899" lon="6.74336">
        <ele>2529.8000488281</ele>
        <time>2012-07-28T07:12:59Z</time>
      </trkpt>
      <trkpt lat="45.48913" lon="6.74342">
        <ele>2529.1999511719</ele>
        <time>2012-07-28T07:13:04Z</time>
      </trkpt>
      <trkpt lat="45.48933" lon="6.74347">
        <ele>2528.1999511719</ele>
        <time>2012-07-28T07:13:11Z</time>
      </trkpt>
      <trkpt lat="45.48951" lon="6.74348">
        <ele>2527.6000976562</ele>
        <time>2012-07-28T07:13:17Z</time>
      </trkpt>
      <trkpt lat="45.48956" lon="6.74357">
        <ele>2527.1999511719</ele>
        <time>2012-07-28T07:13:20Z</time>
      </trkpt>
      <trkpt lat="45.48959" lon="6.74372">
        <ele>2526.8000488281</ele>
        <time>2012-07-28T07:13:24Z</time>
      </trkpt>
      <trkpt lat="45.48969" lon="6.74397">
        <ele>2526.1999511719</ele>
        <time>2012-07-28T07:13:31Z</time>
      </trkpt>
      <trkpt lat="45.48984" lon="6.74417">
        <ele>2525.6000976562</ele>
        <time>2012-07-28T07:13:38Z</time>
      </trkpt>
      <trkpt lat="45.49002" lon="6.74429">
        <ele>2525</ele>
        <time>2012-07-28T07:13:45Z</time>
      </trkpt>
      <trkpt lat="45.49022" lon="6.7444">
        <ele>2524.3999023438</ele>
        <time>2012-07-28T07:13:52Z</time>
      </trkpt>
      <trkpt lat="45.49038" lon="6.7446">
        <ele>2523.8000488281</ele>
        <time>2012-07-28T07:13:59Z</time>
      </trkpt>
      <trkpt lat="45.49052" lon="6.74479">
        <ele>2523.1999511719</ele>
        <time>2012-07-28T07:14:06Z</time>
      </trkpt>
      <trkpt lat="45.49068" lon="6.74493">
        <ele>2522.6000976562</ele>
        <time>2012-07-28T07:14:12Z</time>
      </trkpt>
      <trkpt lat="45.49084" lon="6.74506">
        <ele>2522</ele>
        <time>2012-07-28T07:14:19Z</time>
      </trkpt>
      <trkpt lat="45.49095" lon="6.74529">
        <ele>2521.3999023438</ele>
        <time>2012-07-28T07:14:26Z</time>
      </trkpt>
      <trkpt lat="45.49105" lon="6.74555">
        <ele>2520.8000488281</ele>
        <time>2012-07-28T07:14:33Z</time>
      </trkpt>
      <trkpt lat="45.49113" lon="6.74582">
        <ele>2520.1999511719</ele>
        <time>2012-07-28T07:14:40Z</time>
      </trkpt>
      <trkpt lat="45.49124" lon="6.74606">
        <ele>2519.6000976562</ele>
        <time>2012-07-28T07:14:47Z</time>
      </trkpt>
      <trkpt lat="45.49136" lon="6.74629">
        <ele>2519</ele>
        <time>2012-07-28T07:14:54Z</time>
      </trkpt>
      <trkpt lat="45.49149" lon="6.7465">
        <ele>2518.1999511719</ele>
        <time>2012-07-28T07:15:01Z</time>
      </trkpt>
      <trkpt lat="45.49152" lon="6.74654">
        <ele>2517.8000488281</ele>
        <time>2012-07-28T07:15:04Z</time>
      </trkpt>
      <trkpt lat="45.49152" lon="6.74653">
        <ele>2505.8000488281</ele>
        <time>2012-07-28T07:18:04Z</time>
      </trkpt>
      <trkpt lat="45.49168" lon="6.74642">
        <ele>2505</ele>
        <time>2012-07-28T07:18:18Z</time>
      </trkpt>
      <trkpt lat="45.49182" lon="6.74625">
        <ele>2504.3999023438</ele>
        <time>2012-07-28T07:18:29Z</time>
      </trkpt>
      <trkpt lat="45.49192" lon="6.74603">
        <ele>2503.1999511719</ele>
        <time>2012-07-28T07:18:38Z</time>
      </trkpt>
      <trkpt lat="45.49203" lon="6.74582">
        <ele>2502.1999511719</ele>
        <time>2012-07-28T07:18:45Z</time>
      </trkpt>
      <trkpt lat="45.49216" lon="6.7456">
        <ele>2501</ele>
        <time>2012-07-28T07:18:52Z</time>
      </trkpt>
      <trkpt lat="45.49224" lon="6.74537">
        <ele>2499.8000488281</ele>
        <time>2012-07-28T07:18:58Z</time>
      </trkpt>
      <trkpt lat="45.49239" lon="6.74519">
        <ele>2498.1999511719</ele>
        <time>2012-07-28T07:19:05Z</time>
      </trkpt>
      <trkpt lat="45.49253" lon="6.74502">
        <ele>2496.3999023438</ele>
        <time>2012-07-28T07:19:12Z</time>
      </trkpt>
      <trkpt lat="45.49269" lon="6.74485">
        <ele>2494.3999023438</ele>
        <time>2012-07-28T07:19:19Z</time>
      </trkpt>
      <trkpt lat="45.49285" lon="6.74469">
        <ele>2492.6000976562</ele>
        <time>2012-07-28T07:19:25Z</time>
      </trkpt>
      <trkpt lat="45.493" lon="6.74454">
        <ele>2490.6000976562</ele>
        <time>2012-07-28T07:19:31Z</time>
      </trkpt>
      <trkpt lat="45.49314" lon="6.74438">
        <ele>2488.8000488281</ele>
        <time>2012-07-28T07:19:37Z</time>
      </trkpt>
      <trkpt lat="45.49318" lon="6.74426">
        <ele>2487.8000488281</ele>
        <time>2012-07-28T07:19:40Z</time>
      </trkpt>
      <trkpt lat="45.49324" lon="6.74417">
        <ele>2486.8000488281</ele>
        <time>2012-07-28T07:19:43Z</time>
      </trkpt>
      <trkpt lat="45.49341" lon="6.74399">
        <ele>2484.3999023438</ele>
        <time>2012-07-28T07:19:50Z</time>
      </trkpt>
      <trkpt lat="45.49357" lon="6.74389">
        <ele>2482.3999023438</ele>
        <time>2012-07-28T07:19:56Z</time>
      </trkpt>
      <trkpt lat="45.49373" lon="6.74375">
        <ele>2480.1999511719</ele>
        <time>2012-07-28T07:20:02Z</time>
      </trkpt>
      <trkpt lat="45.4939" lon="6.74359">
        <ele>2477.8000488281</ele>
        <time>2012-07-28T07:20:09Z</time>
      </trkpt>
      <trkpt lat="45.49407" lon="6.74345">
        <ele>2475.3999023438</ele>
        <time>2012-07-28T07:20:16Z</time>
      </trkpt>
      <trkpt lat="45.49423" lon="6.74329">
        <ele>2470.1999511719</ele>
        <time>2012-07-28T07:20:31Z</time>
      </trkpt>
      <trkpt lat="45.4944" lon="6.74317">
        <ele>2467.1999511719</ele>
        <time>2012-07-28T07:20:39Z</time>
      </trkpt>
      <trkpt lat="45.49456" lon="6.74306">
        <ele>2464.6000976562</ele>
        <time>2012-07-28T07:20:46Z</time>
      </trkpt>
      <trkpt lat="45.49473" lon="6.74294">
        <ele>2462</ele>
        <time>2012-07-28T07:20:53Z</time>
      </trkpt>
      <trkpt lat="45.49492" lon="6.74286">
        <ele>2459.1999511719</ele>
        <time>2012-07-28T07:21:00Z</time>
      </trkpt>
      <trkpt lat="45.49498" lon="6.7428">
        <ele>2458.1999511719</ele>
        <time>2012-07-28T07:21:03Z</time>
      </trkpt>
      <trkpt lat="45.49498" lon="6.74271">
        <ele>2456.3999023438</ele>
        <time>2012-07-28T07:21:07Z</time>
      </trkpt>
      <trkpt lat="45.49499" lon="6.74271">
        <ele>2456.1999511719</ele>
        <time>2012-07-28T07:21:08Z</time>
      </trkpt>
      <trkpt lat="45.49504" lon="6.74268">
        <ele>2454.6000976562</ele>
        <time>2012-07-28T07:21:12Z</time>
      </trkpt>
      <trkpt lat="45.49511" lon="6.74264">
        <ele>2453</ele>
        <time>2012-07-28T07:21:16Z</time>
      </trkpt>
      <trkpt lat="45.4952" lon="6.74258">
        <ele>2450.3999023438</ele>
        <time>2012-07-28T07:21:22Z</time>
      </trkpt>
      <trkpt lat="45.49519" lon="6.74236">
        <ele>2446.1999511719</ele>
        <time>2012-07-28T07:21:31Z</time>
      </trkpt>
      <trkpt lat="45.4952" lon="6.74234">
        <ele>2445.8000488281</ele>
        <time>2012-07-28T07:21:32Z</time>
      </trkpt>
      <trkpt lat="45.49524" lon="6.74232">
        <ele>2444.3999023438</ele>
        <time>2012-07-28T07:21:35Z</time>
      </trkpt>
      <trkpt lat="45.49526" lon="6.74216">
        <ele>2440.8000488281</ele>
        <time>2012-07-28T07:21:43Z</time>
      </trkpt>
      <trkpt lat="45.49528" lon="6.7421">
        <ele>2439.1999511719</ele>
        <time>2012-07-28T07:21:46Z</time>
      </trkpt>
      <trkpt lat="45.49529" lon="6.74208">
        <ele>2438.8000488281</ele>
        <time>2012-07-28T07:21:47Z</time>
      </trkpt>
      <trkpt lat="45.49529" lon="6.74201">
        <ele>2436.8000488281</ele>
        <time>2012-07-28T07:21:51Z</time>
      </trkpt>
      <trkpt lat="45.49529" lon="6.74197">
        <ele>2435.8000488281</ele>
        <time>2012-07-28T07:21:53Z</time>
      </trkpt>
      <trkpt lat="45.49532" lon="6.74194">
        <ele>2434.8000488281</ele>
        <time>2012-07-28T07:21:55Z</time>
      </trkpt>
      <trkpt lat="45.49545" lon="6.74176">
        <ele>2429.1999511719</ele>
        <time>2012-07-28T07:22:06Z</time>
      </trkpt>
      <trkpt lat="45.49551" lon="6.74175">
        <ele>2427.6000976562</ele>
        <time>2012-07-28T07:22:09Z</time>
      </trkpt>
      <trkpt lat="45.49565" lon="6.74175">
        <ele>2424.3999023438</ele>
        <time>2012-07-28T07:22:15Z</time>
      </trkpt>
      <trkpt lat="45.49585" lon="6.74168">
        <ele>2420.1999511719</ele>
        <time>2012-07-28T07:22:23Z</time>
      </trkpt>
      <trkpt lat="45.49606" lon="6.74166">
        <ele>2416.3999023438</ele>
        <time>2012-07-28T07:22:30Z</time>
      </trkpt>
      <trkpt lat="45.49625" lon="6.74162">
        <ele>2412.6000976562</ele>
        <time>2012-07-28T07:22:37Z</time>
      </trkpt>
      <trkpt lat="45.49646" lon="6.74159">
        <ele>2408.8000488281</ele>
        <time>2012-07-28T07:22:44Z</time>
      </trkpt>
      <trkpt lat="45.49665" lon="6.74156">
        <ele>2405</ele>
        <time>2012-07-28T07:22:51Z</time>
      </trkpt>
      <trkpt lat="45.49684" lon="6.74151">
        <ele>2401.3999023438</ele>
        <time>2012-07-28T07:22:58Z</time>
      </trkpt>
      <trkpt lat="45.49703" lon="6.74148">
        <ele>2397.8000488281</ele>
        <time>2012-07-28T07:23:05Z</time>
      </trkpt>
      <trkpt lat="45.49723" lon="6.7415">
        <ele>2394.3999023438</ele>
        <time>2012-07-28T07:23:12Z</time>
      </trkpt>
      <trkpt lat="45.49742" lon="6.74159">
        <ele>2390.3999023438</ele>
        <time>2012-07-28T07:23:20Z</time>
      </trkpt>
      <trkpt lat="45.49759" lon="6.74166">
        <ele>2387</ele>
        <time>2012-07-28T07:23:27Z</time>
      </trkpt>
      <trkpt lat="45.49775" lon="6.7418">
        <ele>2383.1999511719</ele>
        <time>2012-07-28T07:23:35Z</time>
      </trkpt>
      <trkpt lat="45.49788" lon="6.74202">
        <ele>2379.1999511719</ele>
        <time>2012-07-28T07:23:43Z</time>
      </trkpt>
      <trkpt lat="45.498" lon="6.74221">
        <ele>2375.6000976562</ele>
        <time>2012-07-28T07:23:50Z</time>
      </trkpt>
      <trkpt lat="45.49814" lon="6.74237">
        <ele>2372.6000976562</ele>
        <time>2012-07-28T07:23:56Z</time>
      </trkpt>
      <trkpt lat="45.49831" lon="6.74252">
        <ele>2368.8000488281</ele>
        <time>2012-07-28T07:24:03Z</time>
      </trkpt>
      <trkpt lat="45.49849" lon="6.74265">
        <ele>2365.1999511719</ele>
        <time>2012-07-28T07:24:10Z</time>
      </trkpt>
      <trkpt lat="45.4986" lon="6.74286">
        <ele>2362</ele>
        <time>2012-07-28T07:24:16Z</time>
      </trkpt>
      <trkpt lat="45.49858" lon="6.74311">
        <ele>2359</ele>
        <time>2012-07-28T07:24:22Z</time>
      </trkpt>
      <trkpt lat="45.4986" lon="6.74316">
        <ele>2358</ele>
        <time>2012-07-28T07:24:24Z</time>
      </trkpt>
      <trkpt lat="45.49873" lon="6.74316">
        <ele>2355.8000488281</ele>
        <time>2012-07-28T07:24:28Z</time>
      </trkpt>
      <trkpt lat="45.49875" lon="6.74313">
        <ele>2355.1999511719</ele>
        <time>2012-07-28T07:24:29Z</time>
      </trkpt>
      <trkpt lat="45.49889" lon="6.743">
        <ele>2352.6000976562</ele>
        <time>2012-07-28T07:24:34Z</time>
      </trkpt>
      <trkpt lat="45.49905" lon="6.74284">
        <ele>2349.3999023438</ele>
        <time>2012-07-28T07:24:40Z</time>
      </trkpt>
      <trkpt lat="45.49924" lon="6.74274">
        <ele>2346.1999511719</ele>
        <time>2012-07-28T07:24:46Z</time>
      </trkpt>
      <trkpt lat="45.49941" lon="6.74261">
        <ele>2343.1999511719</ele>
        <time>2012-07-28T07:24:52Z</time>
      </trkpt>
      <trkpt lat="45.49957" lon="6.74246">
        <ele>2340</ele>
        <time>2012-07-28T07:24:58Z</time>
      </trkpt>
      <trkpt lat="45.49975" lon="6.74233">
        <ele>2337.1999511719</ele>
        <time>2012-07-28T07:25:04Z</time>
      </trkpt>
      <trkpt lat="45.49992" lon="6.74223">
        <ele>2334.1999511719</ele>
        <time>2012-07-28T07:25:10Z</time>
      </trkpt>
      <trkpt lat="45.50006" lon="6.74205">
        <ele>2330.8000488281</ele>
        <time>2012-07-28T07:25:17Z</time>
      </trkpt>
      <trkpt lat="45.50019" lon="6.74186">
        <ele>2328</ele>
        <time>2012-07-28T07:25:23Z</time>
      </trkpt>
      <trkpt lat="45.50035" lon="6.74173">
        <ele>2325</ele>
        <time>2012-07-28T07:25:29Z</time>
      </trkpt>
      <trkpt lat="45.50055" lon="6.7416">
        <ele>2322.1999511719</ele>
        <time>2012-07-28T07:25:35Z</time>
      </trkpt>
      <trkpt lat="45.50073" lon="6.74146">
        <ele>2319</ele>
        <time>2012-07-28T07:25:42Z</time>
      </trkpt>
      <trkpt lat="45.50088" lon="6.74127">
        <ele>2315.8000488281</ele>
        <time>2012-07-28T07:25:49Z</time>
      </trkpt>
      <trkpt lat="45.50104" lon="6.74111">
        <ele>2312.6000976562</ele>
        <time>2012-07-28T07:25:56Z</time>
      </trkpt>
      <trkpt lat="45.50113" lon="6.74085">
        <ele>2309.3999023438</ele>
        <time>2012-07-28T07:26:03Z</time>
      </trkpt>
      <trkpt lat="45.5012" lon="6.74058">
        <ele>2305.8000488281</ele>
        <time>2012-07-28T07:26:11Z</time>
      </trkpt>
      <trkpt lat="45.50117" lon="6.74035">
        <ele>2301.1999511719</ele>
        <time>2012-07-28T07:26:21Z</time>
      </trkpt>
      <trkpt lat="45.50116" lon="6.74033">
        <ele>2300.8000488281</ele>
        <time>2012-07-28T07:26:22Z</time>
      </trkpt>
      <trkpt lat="45.50113" lon="6.74027">
        <ele>2299.3999023438</ele>
        <time>2012-07-28T07:26:25Z</time>
      </trkpt>
      <trkpt lat="45.5012" lon="6.74013">
        <ele>2297</ele>
        <time>2012-07-28T07:26:30Z</time>
      </trkpt>
      <trkpt lat="45.50133" lon="6.73995">
        <ele>2293.8000488281</ele>
        <time>2012-07-28T07:26:37Z</time>
      </trkpt>
      <trkpt lat="45.50146" lon="6.73976">
        <ele>2290</ele>
        <time>2012-07-28T07:26:45Z</time>
      </trkpt>
      <trkpt lat="45.5015" lon="6.73973">
        <ele>2289</ele>
        <time>2012-07-28T07:26:47Z</time>
      </trkpt>
      <trkpt lat="45.50164" lon="6.73965">
        <ele>2286</ele>
        <time>2012-07-28T07:26:53Z</time>
      </trkpt>
      <trkpt lat="45.50184" lon="6.73958">
        <ele>2282.3999023438</ele>
        <time>2012-07-28T07:27:00Z</time>
      </trkpt>
      <trkpt lat="45.50204" lon="6.73959">
        <ele>2278.6000976562</ele>
        <time>2012-07-28T07:27:08Z</time>
      </trkpt>
      <trkpt lat="45.50218" lon="6.73967">
        <ele>2274.8000488281</ele>
        <time>2012-07-28T07:27:16Z</time>
      </trkpt>
      <trkpt lat="45.50222" lon="6.73967">
        <ele>2273.1999511719</ele>
        <time>2012-07-28T07:27:19Z</time>
      </trkpt>
      <trkpt lat="45.5024" lon="6.73968">
        <ele>2268</ele>
        <time>2012-07-28T07:27:29Z</time>
      </trkpt>
      <trkpt lat="45.50259" lon="6.73972">
        <ele>2264</ele>
        <time>2012-07-28T07:27:37Z</time>
      </trkpt>
      <trkpt lat="45.50278" lon="6.73968">
        <ele>2258.1999511719</ele>
        <time>2012-07-28T07:27:48Z</time>
      </trkpt>
      <trkpt lat="45.50293" lon="6.73954">
        <ele>2252.8000488281</ele>
        <time>2012-07-28T07:27:58Z</time>
      </trkpt>
      <trkpt lat="45.50309" lon="6.7394">
        <ele>2247.1999511719</ele>
        <time>2012-07-28T07:28:09Z</time>
      </trkpt>
      <trkpt lat="45.50324" lon="6.73928">
        <ele>2242.1999511719</ele>
        <time>2012-07-28T07:28:19Z</time>
      </trkpt>
      <trkpt lat="45.50334" lon="6.73906">
        <ele>2237</ele>
        <time>2012-07-28T07:28:29Z</time>
      </trkpt>
      <trkpt lat="45.5034" lon="6.73882">
        <ele>2232.3999023438</ele>
        <time>2012-07-28T07:28:38Z</time>
      </trkpt>
      <trkpt lat="45.50347" lon="6.73867">
        <ele>2229.8000488281</ele>
        <time>2012-07-28T07:28:43Z</time>
      </trkpt>
      <trkpt lat="45.50354" lon="6.73865">
        <ele>2227.6000976562</ele>
        <time>2012-07-28T07:28:47Z</time>
      </trkpt>
      <trkpt lat="45.50373" lon="6.73867">
        <ele>2222.8000488281</ele>
        <time>2012-07-28T07:28:56Z</time>
      </trkpt>
      <trkpt lat="45.5039" lon="6.73868">
        <ele>2219.1999511719</ele>
        <time>2012-07-28T07:29:03Z</time>
      </trkpt>
      <trkpt lat="45.50411" lon="6.73865">
        <ele>2215</ele>
        <time>2012-07-28T07:29:11Z</time>
      </trkpt>
      <trkpt lat="45.50429" lon="6.73854">
        <ele>2209.3999023438</ele>
        <time>2012-07-28T07:29:22Z</time>
      </trkpt>
      <trkpt lat="45.50433" lon="6.73846">
        <ele>2207</ele>
        <time>2012-07-28T07:29:27Z</time>
      </trkpt>
      <trkpt lat="45.50441" lon="6.73839">
        <ele>2204</ele>
        <time>2012-07-28T07:29:33Z</time>
      </trkpt>
      <trkpt lat="45.50442" lon="6.73838">
        <ele>2203.3999023438</ele>
        <time>2012-07-28T07:29:34Z</time>
      </trkpt>
      <trkpt lat="45.5046" lon="6.73833">
        <ele>2198.3999023438</ele>
        <time>2012-07-28T07:29:44Z</time>
      </trkpt>
      <trkpt lat="45.50463" lon="6.73832">
        <ele>2197.3999023438</ele>
        <time>2012-07-28T07:29:46Z</time>
      </trkpt>
      <trkpt lat="45.50474" lon="6.73821">
        <ele>2192.6000976562</ele>
        <time>2012-07-28T07:29:56Z</time>
      </trkpt>
      <trkpt lat="45.50484" lon="6.73814">
        <ele>2188.1999511719</ele>
        <time>2012-07-28T07:30:05Z</time>
      </trkpt>
      <trkpt lat="45.50489" lon="6.73812">
        <ele>2185.8000488281</ele>
        <time>2012-07-28T07:30:10Z</time>
      </trkpt>
      <trkpt lat="45.50491" lon="6.73809">
        <ele>2184.8000488281</ele>
        <time>2012-07-28T07:30:12Z</time>
      </trkpt>
      <trkpt lat="45.50494" lon="6.73807">
        <ele>2182.8000488281</ele>
        <time>2012-07-28T07:30:16Z</time>
      </trkpt>
      <trkpt lat="45.50503" lon="6.73806">
        <ele>2179</ele>
        <time>2012-07-28T07:30:24Z</time>
      </trkpt>
      <trkpt lat="45.50507" lon="6.73805">
        <ele>2178</ele>
        <time>2012-07-28T07:30:26Z</time>
      </trkpt>
      <trkpt lat="45.50512" lon="6.73804">
        <ele>2176.3999023438</ele>
        <time>2012-07-28T07:30:29Z</time>
      </trkpt>
      <trkpt lat="45.50515" lon="6.73806">
        <ele>2175</ele>
        <time>2012-07-28T07:30:32Z</time>
      </trkpt>
      <trkpt lat="45.50523" lon="6.73814">
        <ele>2172.6000976562</ele>
        <time>2012-07-28T07:30:37Z</time>
      </trkpt>
      <trkpt lat="45.50537" lon="6.73829">
        <ele>2167.1999511719</ele>
        <time>2012-07-28T07:30:48Z</time>
      </trkpt>
      <trkpt lat="45.50538" lon="6.73829">
        <ele>2166.8000488281</ele>
        <time>2012-07-28T07:30:49Z</time>
      </trkpt>
      <trkpt lat="45.50551" lon="6.73825">
        <ele>2162.8000488281</ele>
        <time>2012-07-28T07:30:57Z</time>
      </trkpt>
      <trkpt lat="45.50554" lon="6.73821">
        <ele>2161.8000488281</ele>
        <time>2012-07-28T07:30:59Z</time>
      </trkpt>
      <trkpt lat="45.50557" lon="6.73818">
        <ele>2160.1999511719</ele>
        <time>2012-07-28T07:31:02Z</time>
      </trkpt>
      <trkpt lat="45.50564" lon="6.73828">
        <ele>2158.1999511719</ele>
        <time>2012-07-28T07:31:06Z</time>
      </trkpt>
      <trkpt lat="45.50566" lon="6.7383">
        <ele>2157.6000976562</ele>
        <time>2012-07-28T07:31:07Z</time>
      </trkpt>
      <trkpt lat="45.50572" lon="6.73837">
        <ele>2155</ele>
        <time>2012-07-28T07:31:12Z</time>
      </trkpt>
      <trkpt lat="45.50579" lon="6.73847">
        <ele>2152</ele>
        <time>2012-07-28T07:31:18Z</time>
      </trkpt>
      <trkpt lat="45.5058" lon="6.73851">
        <ele>2151</ele>
        <time>2012-07-28T07:31:20Z</time>
      </trkpt>
      <trkpt lat="45.5059" lon="6.73842">
        <ele>2146.1999511719</ele>
        <time>2012-07-28T07:31:29Z</time>
      </trkpt>
      <trkpt lat="45.50591" lon="6.73832">
        <ele>2144.6000976562</ele>
        <time>2012-07-28T07:31:32Z</time>
      </trkpt>
      <trkpt lat="45.50594" lon="6.73819">
        <ele>2141.8000488281</ele>
        <time>2012-07-28T07:31:37Z</time>
      </trkpt>
      <trkpt lat="45.50595" lon="6.73819">
        <ele>2141.3999023438</ele>
        <time>2012-07-28T07:31:38Z</time>
      </trkpt>
      <trkpt lat="45.50607" lon="6.73839">
        <ele>2136.1999511719</ele>
        <time>2012-07-28T07:31:48Z</time>
      </trkpt>
      <trkpt lat="45.50608" lon="6.7384">
        <ele>2135.6000976562</ele>
        <time>2012-07-28T07:31:49Z</time>
      </trkpt>
      <trkpt lat="45.50619" lon="6.73825">
        <ele>2129.6000976562</ele>
        <time>2012-07-28T07:32:01Z</time>
      </trkpt>
      <trkpt lat="45.5062" lon="6.7382">
        <ele>2128</ele>
        <time>2012-07-28T07:32:04Z</time>
      </trkpt>
      <trkpt lat="45.50622" lon="6.73809">
        <ele>2126</ele>
        <time>2012-07-28T07:32:08Z</time>
      </trkpt>
      <trkpt lat="45.50627" lon="6.73813">
        <ele>2124.3999023438</ele>
        <time>2012-07-28T07:32:11Z</time>
      </trkpt>
      <trkpt lat="45.50632" lon="6.73819">
        <ele>2123</ele>
        <time>2012-07-28T07:32:14Z</time>
      </trkpt>
      <trkpt lat="45.50634" lon="6.73825">
        <ele>2122</ele>
        <time>2012-07-28T07:32:16Z</time>
      </trkpt>
      <trkpt lat="45.50638" lon="6.73832">
        <ele>2120.6000976562</ele>
        <time>2012-07-28T07:32:19Z</time>
      </trkpt>
      <trkpt lat="45.50645" lon="6.73829">
        <ele>2118.6000976562</ele>
        <time>2012-07-28T07:32:23Z</time>
      </trkpt>
      <trkpt lat="45.50647" lon="6.73821">
        <ele>2117</ele>
        <time>2012-07-28T07:32:26Z</time>
      </trkpt>
      <trkpt lat="45.50645" lon="6.73814">
        <ele>2116</ele>
        <time>2012-07-28T07:32:28Z</time>
      </trkpt>
      <trkpt lat="45.50644" lon="6.73787">
        <ele>2112.3999023438</ele>
        <time>2012-07-28T07:32:35Z</time>
      </trkpt>
      <trkpt lat="45.50641" lon="6.73763">
        <ele>2108.1999511719</ele>
        <time>2012-07-28T07:32:43Z</time>
      </trkpt>
      <trkpt lat="45.50628" lon="6.73745">
        <ele>2105.1999511719</ele>
        <time>2012-07-28T07:32:49Z</time>
      </trkpt>
      <trkpt lat="45.5062" lon="6.7373">
        <ele>2101.1999511719</ele>
        <time>2012-07-28T07:32:57Z</time>
      </trkpt>
      <trkpt lat="45.5062" lon="6.73729">
        <ele>2100.8000488281</ele>
        <time>2012-07-28T07:32:58Z</time>
      </trkpt>
      <trkpt lat="45.50615" lon="6.73725">
        <ele>2098.6000976562</ele>
        <time>2012-07-28T07:33:02Z</time>
      </trkpt>
      <trkpt lat="45.50609" lon="6.73714">
        <ele>2095.1999511719</ele>
        <time>2012-07-28T07:33:09Z</time>
      </trkpt>
      <trkpt lat="45.50615" lon="6.73709">
        <ele>2093.1999511719</ele>
        <time>2012-07-28T07:33:13Z</time>
      </trkpt>
      <trkpt lat="45.50618" lon="6.73695">
        <ele>2089.8000488281</ele>
        <time>2012-07-28T07:33:21Z</time>
      </trkpt>
      <trkpt lat="45.50616" lon="6.73688">
        <ele>2087.8000488281</ele>
        <time>2012-07-28T07:33:25Z</time>
      </trkpt>
      <trkpt lat="45.5062" lon="6.73664">
        <ele>2084.6000976562</ele>
        <time>2012-07-28T07:33:32Z</time>
      </trkpt>
      <trkpt lat="45.50626" lon="6.7364">
        <ele>2081.1999511719</ele>
        <time>2012-07-28T07:33:39Z</time>
      </trkpt>
      <trkpt lat="45.50637" lon="6.73619">
        <ele>2077.8000488281</ele>
        <time>2012-07-28T07:33:46Z</time>
      </trkpt>
      <trkpt lat="45.50637" lon="6.73617">
        <ele>2077.3999023438</ele>
        <time>2012-07-28T07:33:47Z</time>
      </trkpt>
      <trkpt lat="45.50639" lon="6.73594">
        <ele>2074.6000976562</ele>
        <time>2012-07-28T07:33:53Z</time>
      </trkpt>
      <trkpt lat="45.5064" lon="6.7359">
        <ele>2074</ele>
        <time>2012-07-28T07:33:54Z</time>
      </trkpt>
      <trkpt lat="45.50642" lon="6.73565">
        <ele>2071.1999511719</ele>
        <time>2012-07-28T07:34:00Z</time>
      </trkpt>
      <trkpt lat="45.50652" lon="6.73542">
        <ele>2068.1999511719</ele>
        <time>2012-07-28T07:34:07Z</time>
      </trkpt>
      <trkpt lat="45.50661" lon="6.7352">
        <ele>2066</ele>
        <time>2012-07-28T07:34:13Z</time>
      </trkpt>
      <trkpt lat="45.50671" lon="6.73498">
        <ele>2063.8000488281</ele>
        <time>2012-07-28T07:34:19Z</time>
      </trkpt>
      <trkpt lat="45.50679" lon="6.73485">
        <ele>2062.6000976562</ele>
        <time>2012-07-28T07:34:23Z</time>
      </trkpt>
      <trkpt lat="45.50685" lon="6.7348">
        <ele>2062</ele>
        <time>2012-07-28T07:34:25Z</time>
      </trkpt>
      <trkpt lat="45.50695" lon="6.73459">
        <ele>2060</ele>
        <time>2012-07-28T07:34:31Z</time>
      </trkpt>
      <trkpt lat="45.50698" lon="6.73447">
        <ele>2058.8000488281</ele>
        <time>2012-07-28T07:34:35Z</time>
      </trkpt>
      <trkpt lat="45.50703" lon="6.73441">
        <ele>2058</ele>
        <time>2012-07-28T07:34:38Z</time>
      </trkpt>
      <trkpt lat="45.50706" lon="6.73441">
        <ele>2057.6000976562</ele>
        <time>2012-07-28T07:34:39Z</time>
      </trkpt>
      <trkpt lat="45.50723" lon="6.73432">
        <ele>2055.3999023438</ele>
        <time>2012-07-28T07:34:47Z</time>
      </trkpt>
      <trkpt lat="45.50728" lon="6.73428">
        <ele>2054.8000488281</ele>
        <time>2012-07-28T07:34:49Z</time>
      </trkpt>
      <trkpt lat="45.50738" lon="6.73418">
        <ele>2053.8000488281</ele>
        <time>2012-07-28T07:34:53Z</time>
      </trkpt>
      <trkpt lat="45.50751" lon="6.73399">
        <ele>2052</ele>
        <time>2012-07-28T07:35:00Z</time>
      </trkpt>
      <trkpt lat="45.50766" lon="6.73379">
        <ele>2050.1999511719</ele>
        <time>2012-07-28T07:35:08Z</time>
      </trkpt>
      <trkpt lat="45.50779" lon="6.73359">
        <ele>2048.3999023438</ele>
        <time>2012-07-28T07:35:16Z</time>
      </trkpt>
      <trkpt lat="45.5079" lon="6.73337">
        <ele>2046.4000244141</ele>
        <time>2012-07-28T07:35:26Z</time>
      </trkpt>
      <trkpt lat="45.50798" lon="6.73331">
        <ele>2045.1999511719</ele>
        <time>2012-07-28T07:35:33Z</time>
      </trkpt>
      <trkpt lat="45.50804" lon="6.73322">
        <ele>2044.1999511719</ele>
        <time>2012-07-28T07:35:39Z</time>
      </trkpt>
      <trkpt lat="45.5081" lon="6.73314">
        <ele>2043.8000488281</ele>
        <time>2012-07-28T07:35:43Z</time>
      </trkpt>
      <trkpt lat="45.50817" lon="6.73303">
        <ele>2043.1999511719</ele>
        <time>2012-07-28T07:35:48Z</time>
      </trkpt>
      <trkpt lat="45.50827" lon="6.7328">
        <ele>2042.1999511719</ele>
        <time>2012-07-28T07:35:57Z</time>
      </trkpt>
      <trkpt lat="45.5083" lon="6.73268">
        <ele>2042</ele>
        <time>2012-07-28T07:36:01Z</time>
      </trkpt>
      <trkpt lat="45.50837" lon="6.73261">
        <ele>2041.5999755859</ele>
        <time>2012-07-28T07:36:04Z</time>
      </trkpt>
      <trkpt lat="45.50854" lon="6.73244">
        <ele>2040.5999755859</ele>
        <time>2012-07-28T07:36:15Z</time>
      </trkpt>
      <trkpt lat="45.50872" lon="6.73234">
        <ele>2039.8000488281</ele>
        <time>2012-07-28T07:36:28Z</time>
      </trkpt>
      <trkpt lat="45.5089" lon="6.73226">
        <ele>2039.1999511719</ele>
        <time>2012-07-28T07:36:40Z</time>
      </trkpt>
      <trkpt lat="45.50906" lon="6.73217">
        <ele>2039.8000488281</ele>
        <time>2012-07-28T07:36:49Z</time>
      </trkpt>
      <trkpt lat="45.50923" lon="6.73204">
        <ele>2040.5999755859</ele>
        <time>2012-07-28T07:36:57Z</time>
      </trkpt>
      <trkpt lat="45.50942" lon="6.73195">
        <ele>2040.5999755859</ele>
        <time>2012-07-28T07:37:04Z</time>
      </trkpt>
      <trkpt lat="45.50952" lon="6.7319">
        <ele>2040.8000488281</ele>
        <time>2012-07-28T07:37:08Z</time>
      </trkpt>
      <trkpt lat="45.5096" lon="6.73188">
        <ele>2040.8000488281</ele>
        <time>2012-07-28T07:37:11Z</time>
      </trkpt>
      <trkpt lat="45.50979" lon="6.73184">
        <ele>2040.8000488281</ele>
        <time>2012-07-28T07:37:18Z</time>
      </trkpt>
      <trkpt lat="45.50998" lon="6.73177">
        <ele>2041</ele>
        <time>2012-07-28T07:37:25Z</time>
      </trkpt>
      <trkpt lat="45.51011" lon="6.7317">
        <ele>2041.1999511719</ele>
        <time>2012-07-28T07:37:31Z</time>
      </trkpt>
      <trkpt lat="45.51017" lon="6.73169">
        <ele>2041</ele>
        <time>2012-07-28T07:37:37Z</time>
      </trkpt>
      <trkpt lat="45.5103" lon="6.73161">
        <ele>2040.4000244141</ele>
        <time>2012-07-28T07:37:46Z</time>
      </trkpt>
      <trkpt lat="45.51032" lon="6.73162">
        <ele>2040.4000244141</ele>
        <time>2012-07-28T07:37:47Z</time>
      </trkpt>
      <trkpt lat="45.51049" lon="6.73167">
        <ele>2039.8000488281</ele>
        <time>2012-07-28T07:37:55Z</time>
      </trkpt>
      <trkpt lat="45.51065" lon="6.73167">
        <ele>2039.1999511719</ele>
        <time>2012-07-28T07:38:07Z</time>
      </trkpt>
      <trkpt lat="45.51069" lon="6.73168">
        <ele>2039.1999511719</ele>
        <time>2012-07-28T07:38:09Z</time>
      </trkpt>
      <trkpt lat="45.51071" lon="6.73168">
        <ele>2039.1999511719</ele>
        <time>2012-07-28T07:38:10Z</time>
      </trkpt>
      <trkpt lat="45.51083" lon="6.73171">
        <ele>2039.1999511719</ele>
        <time>2012-07-28T07:38:15Z</time>
      </trkpt>
      <trkpt lat="45.51086" lon="6.73171">
        <ele>2039.1999511719</ele>
        <time>2012-07-28T07:38:18Z</time>
      </trkpt>
      <trkpt lat="45.51095" lon="6.73169">
        <ele>2039.4000244141</ele>
        <time>2012-07-28T07:38:24Z</time>
      </trkpt>
      <trkpt lat="45.51102" lon="6.73165">
        <ele>2039.4000244141</ele>
        <time>2012-07-28T07:38:28Z</time>
      </trkpt>
      <trkpt lat="45.51118" lon="6.73153">
        <ele>2039.5999755859</ele>
        <time>2012-07-28T07:38:41Z</time>
      </trkpt>
      <trkpt lat="45.51134" lon="6.73144">
        <ele>2040</ele>
        <time>2012-07-28T07:38:48Z</time>
      </trkpt>
      <trkpt lat="45.51153" lon="6.73137">
        <ele>2040.4000244141</ele>
        <time>2012-07-28T07:38:55Z</time>
      </trkpt>
      <trkpt lat="45.51168" lon="6.73129">
        <ele>2041</ele>
        <time>2012-07-28T07:39:04Z</time>
      </trkpt>
      <trkpt lat="45.51171" lon="6.73129">
        <ele>2041.1999511719</ele>
        <time>2012-07-28T07:39:06Z</time>
      </trkpt>
      <trkpt lat="45.51181" lon="6.7313">
        <ele>2041.4000244141</ele>
        <time>2012-07-28T07:39:11Z</time>
      </trkpt>
      <trkpt lat="45.51189" lon="6.7313">
        <ele>2041.5999755859</ele>
        <time>2012-07-28T07:39:14Z</time>
      </trkpt>
      <trkpt lat="45.51207" lon="6.73122">
        <ele>2041.4000244141</ele>
        <time>2012-07-28T07:39:22Z</time>
      </trkpt>
      <trkpt lat="45.51215" lon="6.73113">
        <ele>2041.1999511719</ele>
        <time>2012-07-28T07:39:26Z</time>
      </trkpt>
      <trkpt lat="45.51224" lon="6.7311">
        <ele>2041.1999511719</ele>
        <time>2012-07-28T07:39:30Z</time>
      </trkpt>
      <trkpt lat="45.51241" lon="6.73105">
        <ele>2041</ele>
        <time>2012-07-28T07:39:37Z</time>
      </trkpt>
      <trkpt lat="45.51257" lon="6.73104">
        <ele>2040.8000488281</ele>
        <time>2012-07-28T07:39:43Z</time>
      </trkpt>
      <trkpt lat="45.51259" lon="6.73104">
        <ele>2040.8000488281</ele>
        <time>2012-07-28T07:39:44Z</time>
      </trkpt>
      <trkpt lat="45.51271" lon="6.73097">
        <ele>2040.5999755859</ele>
        <time>2012-07-28T07:39:49Z</time>
      </trkpt>
      <trkpt lat="45.51276" lon="6.73094">
        <ele>2040.4000244141</ele>
        <time>2012-07-28T07:39:51Z</time>
      </trkpt>
      <trkpt lat="45.51292" lon="6.73079">
        <ele>2040.1999511719</ele>
        <time>2012-07-28T07:39:58Z</time>
      </trkpt>
      <trkpt lat="45.51299" lon="6.73078">
        <ele>2040</ele>
        <time>2012-07-28T07:40:01Z</time>
      </trkpt>
      <trkpt lat="45.51307" lon="6.73077">
        <ele>2040</ele>
        <time>2012-07-28T07:40:05Z</time>
      </trkpt>
      <trkpt lat="45.51311" lon="6.73079">
        <ele>2040</ele>
        <time>2012-07-28T07:40:08Z</time>
      </trkpt>
      <trkpt lat="45.51324" lon="6.73076">
        <ele>2039.8000488281</ele>
        <time>2012-07-28T07:40:16Z</time>
      </trkpt>
      <trkpt lat="45.51329" lon="6.73074">
        <ele>2039.8000488281</ele>
        <time>2012-07-28T07:40:18Z</time>
      </trkpt>
      <trkpt lat="45.51334" lon="6.73069">
        <ele>2039.5999755859</ele>
        <time>2012-07-28T07:40:23Z</time>
      </trkpt>
      <trkpt lat="45.5134" lon="6.7307">
        <ele>2039.4000244141</ele>
        <time>2012-07-28T07:40:29Z</time>
      </trkpt>
      <trkpt lat="45.51341" lon="6.73074">
        <ele>2039.1999511719</ele>
        <time>2012-07-28T07:40:31Z</time>
      </trkpt>
      <trkpt lat="45.51349" lon="6.73075">
        <ele>2039.5999755859</ele>
        <time>2012-07-28T07:40:38Z</time>
      </trkpt>
      <trkpt lat="45.51355" lon="6.73076">
        <ele>2040.1999511719</ele>
        <time>2012-07-28T07:40:43Z</time>
      </trkpt>
      <trkpt lat="45.51358" lon="6.73079">
        <ele>2040.5999755859</ele>
        <time>2012-07-28T07:40:45Z</time>
      </trkpt>
      <trkpt lat="45.51359" lon="6.7308">
        <ele>2040.5999755859</ele>
        <time>2012-07-28T07:40:46Z</time>
      </trkpt>
      <trkpt lat="45.51373" lon="6.73091">
        <ele>2042.4000244141</ele>
        <time>2012-07-28T07:40:58Z</time>
      </trkpt>
      <trkpt lat="45.5138" lon="6.73094">
        <ele>2043.1999511719</ele>
        <time>2012-07-28T07:41:04Z</time>
      </trkpt>
      <trkpt lat="45.51383" lon="6.73101">
        <ele>2043.1999511719</ele>
        <time>2012-07-28T07:41:10Z</time>
      </trkpt>
      <trkpt lat="45.51386" lon="6.73103">
        <ele>2043.1999511719</ele>
        <time>2012-07-28T07:41:14Z</time>
      </trkpt>
      <trkpt lat="45.51387" lon="6.73104">
        <ele>2043.4000244141</ele>
        <time>2012-07-28T07:41:15Z</time>
      </trkpt>
      <trkpt lat="45.51387" lon="6.73106">
        <ele>2043.1999511719</ele>
        <time>2012-07-28T07:41:17Z</time>
      </trkpt>
      <trkpt lat="45.51391" lon="6.73109">
        <ele>2043.1999511719</ele>
        <time>2012-07-28T07:41:24Z</time>
      </trkpt>
      <trkpt lat="45.51394" lon="6.7311">
        <ele>2043</ele>
        <time>2012-07-28T07:41:28Z</time>
      </trkpt>
      <trkpt lat="45.51399" lon="6.73103">
        <ele>2044.5999755859</ele>
        <time>2012-07-28T07:41:42Z</time>
      </trkpt>
      <trkpt lat="45.51411" lon="6.73091">
        <ele>2049.1999511719</ele>
        <time>2012-07-28T07:42:05Z</time>
      </trkpt>
      <trkpt lat="45.51429" lon="6.73088">
        <ele>2054</ele>
        <time>2012-07-28T07:42:27Z</time>
      </trkpt>
      <trkpt lat="45.51431" lon="6.73088">
        <ele>2054.1999511719</ele>
        <time>2012-07-28T07:42:28Z</time>
      </trkpt>
      <trkpt lat="45.51433" lon="6.73089">
        <ele>2055</ele>
        <time>2012-07-28T07:42:31Z</time>
      </trkpt>
      <trkpt lat="45.51437" lon="6.73087">
        <ele>2056</ele>
        <time>2012-07-28T07:42:35Z</time>
      </trkpt>
      <trkpt lat="45.51442" lon="6.73086">
        <ele>2057.6000976562</ele>
        <time>2012-07-28T07:42:41Z</time>
      </trkpt>
      <trkpt lat="45.51444" lon="6.73087">
        <ele>2058.6000976562</ele>
        <time>2012-07-28T07:42:44Z</time>
      </trkpt>
      <trkpt lat="45.51448" lon="6.73087">
        <ele>2060</ele>
        <time>2012-07-28T07:42:49Z</time>
      </trkpt>
      <trkpt lat="45.51456" lon="6.7309">
        <ele>2062.1999511719</ele>
        <time>2012-07-28T07:42:57Z</time>
      </trkpt>
      <trkpt lat="45.51464" lon="6.73094">
        <ele>2064.6000976562</ele>
        <time>2012-07-28T07:43:05Z</time>
      </trkpt>
      <trkpt lat="45.51467" lon="6.73095">
        <ele>2064.8000488281</ele>
        <time>2012-07-28T07:43:06Z</time>
      </trkpt>
      <trkpt lat="45.51481" lon="6.73097">
        <ele>2066.6000976562</ele>
        <time>2012-07-28T07:43:12Z</time>
      </trkpt>
      <trkpt lat="45.515" lon="6.73103">
        <ele>2068.1999511719</ele>
        <time>2012-07-28T07:43:20Z</time>
      </trkpt>
      <trkpt lat="45.51518" lon="6.73114">
        <ele>2069.6000976562</ele>
        <time>2012-07-28T07:43:27Z</time>
      </trkpt>
      <trkpt lat="45.51537" lon="6.73115">
        <ele>2071.6000976562</ele>
        <time>2012-07-28T07:43:36Z</time>
      </trkpt>
      <trkpt lat="45.51553" lon="6.7311">
        <ele>2072.3999023438</ele>
        <time>2012-07-28T07:43:44Z</time>
      </trkpt>
      <trkpt lat="45.51555" lon="6.7311">
        <ele>2072.3999023438</ele>
        <time>2012-07-28T07:43:45Z</time>
      </trkpt>
      <trkpt lat="45.51572" lon="6.73111">
        <ele>2072.3999023438</ele>
        <time>2012-07-28T07:43:53Z</time>
      </trkpt>
      <trkpt lat="45.51574" lon="6.73112">
        <ele>2072.3999023438</ele>
        <time>2012-07-28T07:43:54Z</time>
      </trkpt>
      <trkpt lat="45.51581" lon="6.73115">
        <ele>2072.6000976562</ele>
        <time>2012-07-28T07:43:58Z</time>
      </trkpt>
      <trkpt lat="45.5159" lon="6.73124">
        <ele>2072.8000488281</ele>
        <time>2012-07-28T07:44:03Z</time>
      </trkpt>
      <trkpt lat="45.51608" lon="6.73135">
        <ele>2072.8000488281</ele>
        <time>2012-07-28T07:44:10Z</time>
      </trkpt>
      <trkpt lat="45.51626" lon="6.73141">
        <ele>2072.6000976562</ele>
        <time>2012-07-28T07:44:18Z</time>
      </trkpt>
      <trkpt lat="45.51643" lon="6.7315">
        <ele>2072.1999511719</ele>
        <time>2012-07-28T07:44:25Z</time>
      </trkpt>
      <trkpt lat="45.51661" lon="6.73169">
        <ele>2071.6000976562</ele>
        <time>2012-07-28T07:44:33Z</time>
      </trkpt>
      <trkpt lat="45.51673" lon="6.73178">
        <ele>2071.1999511719</ele>
        <time>2012-07-28T07:44:39Z</time>
      </trkpt>
      <trkpt lat="45.51679" lon="6.73183">
        <ele>2070.8000488281</ele>
        <time>2012-07-28T07:44:43Z</time>
      </trkpt>
      <trkpt lat="45.51696" lon="6.73183">
        <ele>2070</ele>
        <time>2012-07-28T07:44:51Z</time>
      </trkpt>
      <trkpt lat="45.51715" lon="6.73172">
        <ele>2069.1999511719</ele>
        <time>2012-07-28T07:44:58Z</time>
      </trkpt>
      <trkpt lat="45.5173" lon="6.73161">
        <ele>2067.8000488281</ele>
        <time>2012-07-28T07:45:07Z</time>
      </trkpt>
      <trkpt lat="45.51752" lon="6.73155">
        <ele>2066.6000976562</ele>
        <time>2012-07-28T07:45:16Z</time>
      </trkpt>
      <trkpt lat="45.5177" lon="6.73153">
        <ele>2065.6000976562</ele>
        <time>2012-07-28T07:45:25Z</time>
      </trkpt>
      <trkpt lat="45.51789" lon="6.73153">
        <ele>2064.8000488281</ele>
        <time>2012-07-28T07:45:34Z</time>
      </trkpt>
      <trkpt lat="45.51791" lon="6.73154">
        <ele>2064.6000976562</ele>
        <time>2012-07-28T07:45:35Z</time>
      </trkpt>
      <trkpt lat="45.51798" lon="6.73155">
        <ele>2064.1999511719</ele>
        <time>2012-07-28T07:45:39Z</time>
      </trkpt>
      <trkpt lat="45.518" lon="6.73153">
        <ele>2064.1999511719</ele>
        <time>2012-07-28T07:45:40Z</time>
      </trkpt>
      <trkpt lat="45.51809" lon="6.7315">
        <ele>2063.8000488281</ele>
        <time>2012-07-28T07:45:44Z</time>
      </trkpt>
      <trkpt lat="45.51825" lon="6.73141">
        <ele>2063</ele>
        <time>2012-07-28T07:45:51Z</time>
      </trkpt>
      <trkpt lat="45.51844" lon="6.73145">
        <ele>2062.3999023438</ele>
        <time>2012-07-28T07:45:59Z</time>
      </trkpt>
      <trkpt lat="45.51863" lon="6.73145">
        <ele>2062</ele>
        <time>2012-07-28T07:46:06Z</time>
      </trkpt>
      <trkpt lat="45.51883" lon="6.73145">
        <ele>2061.3999023438</ele>
        <time>2012-07-28T07:46:14Z</time>
      </trkpt>
      <trkpt lat="45.51886" lon="6.73143">
        <ele>2061.3999023438</ele>
        <time>2012-07-28T07:46:16Z</time>
      </trkpt>
      <trkpt lat="45.51892" lon="6.73138">
        <ele>2061</ele>
        <time>2012-07-28T07:46:22Z</time>
      </trkpt>
      <trkpt lat="45.519" lon="6.73138">
        <ele>2060.8000488281</ele>
        <time>2012-07-28T07:46:28Z</time>
      </trkpt>
      <trkpt lat="45.51904" lon="6.73138">
        <ele>2060.8000488281</ele>
        <time>2012-07-28T07:46:32Z</time>
      </trkpt>
      <trkpt lat="45.51909" lon="6.7314">
        <ele>2060.6000976562</ele>
        <time>2012-07-28T07:46:35Z</time>
      </trkpt>
      <trkpt lat="45.51915" lon="6.73134">
        <ele>2060.6000976562</ele>
        <time>2012-07-28T07:46:40Z</time>
      </trkpt>
      <trkpt lat="45.51917" lon="6.73134">
        <ele>2060.3999023438</ele>
        <time>2012-07-28T07:46:42Z</time>
      </trkpt>
      <trkpt lat="45.51927" lon="6.73128">
        <ele>2060</ele>
        <time>2012-07-28T07:46:48Z</time>
      </trkpt>
      <trkpt lat="45.51934" lon="6.73123">
        <ele>2059.8000488281</ele>
        <time>2012-07-28T07:46:50Z</time>
      </trkpt>
      <trkpt lat="45.51937" lon="6.73124">
        <ele>2059.8000488281</ele>
        <time>2012-07-28T07:46:51Z</time>
      </trkpt>
      <trkpt lat="45.51951" lon="6.73123">
        <ele>2059.6000976562</ele>
        <time>2012-07-28T07:46:57Z</time>
      </trkpt>
      <trkpt lat="45.51972" lon="6.73122">
        <ele>2059.3999023438</ele>
        <time>2012-07-28T07:47:04Z</time>
      </trkpt>
      <trkpt lat="45.51987" lon="6.73118">
        <ele>2059.1999511719</ele>
        <time>2012-07-28T07:47:11Z</time>
      </trkpt>
      <trkpt lat="45.5199" lon="6.73117">
        <ele>2059.1999511719</ele>
        <time>2012-07-28T07:47:13Z</time>
      </trkpt>
      <trkpt lat="45.51994" lon="6.73114">
        <ele>2059</ele>
        <time>2012-07-28T07:47:16Z</time>
      </trkpt>
      <trkpt lat="45.51999" lon="6.73112">
        <ele>2059</ele>
        <time>2012-07-28T07:47:17Z</time>
      </trkpt>
      <trkpt lat="45.52007" lon="6.73108">
        <ele>2058.8000488281</ele>
        <time>2012-07-28T07:47:20Z</time>
      </trkpt>
      <trkpt lat="45.52015" lon="6.73109">
        <ele>2058.6000976562</ele>
        <time>2012-07-28T07:47:23Z</time>
      </trkpt>
      <trkpt lat="45.52023" lon="6.73112">
        <ele>2058.3999023438</ele>
        <time>2012-07-28T07:47:26Z</time>
      </trkpt>
      <trkpt lat="45.52023" lon="6.73112">
        <ele>2058.3999023438</ele>
        <time>2012-07-28T07:47:27Z</time>
      </trkpt>
      <trkpt lat="45.52044" lon="6.73111">
        <ele>2058</ele>
        <time>2012-07-28T07:47:36Z</time>
      </trkpt>
      <trkpt lat="45.52045" lon="6.73104">
        <ele>2057.3999023438</ele>
        <time>2012-07-28T07:47:44Z</time>
      </trkpt>
      <trkpt lat="45.52045" lon="6.73086">
        <ele>2057.1999511719</ele>
        <time>2012-07-28T07:47:52Z</time>
      </trkpt>
      <trkpt lat="45.52047" lon="6.73073">
        <ele>2057.3999023438</ele>
        <time>2012-07-28T07:49:40Z</time>
      </trkpt>
      <trkpt lat="45.52047" lon="6.73067">
        <ele>2057.3999023438</ele>
        <time>2012-07-28T07:49:42Z</time>
      </trkpt>
      <trkpt lat="45.52055" lon="6.73052">
        <ele>2057.3999023438</ele>
        <time>2012-07-28T07:49:50Z</time>
      </trkpt>
      <trkpt lat="45.52056" lon="6.73045">
        <ele>2057.3999023438</ele>
        <time>2012-07-28T07:49:54Z</time>
      </trkpt>
      <trkpt lat="45.52057" lon="6.73034">
        <ele>2058</ele>
        <time>2012-07-28T07:50:03Z</time>
      </trkpt>
      <trkpt lat="45.52057" lon="6.73033">
        <ele>2058.1999511719</ele>
        <time>2012-07-28T07:50:04Z</time>
      </trkpt>
      <trkpt lat="45.52062" lon="6.73028">
        <ele>2059.1999511719</ele>
        <time>2012-07-28T07:50:11Z</time>
      </trkpt>
      <trkpt lat="45.52065" lon="6.73025">
        <ele>2060</ele>
        <time>2012-07-28T07:50:16Z</time>
      </trkpt>
      <trkpt lat="45.52074" lon="6.73014">
        <ele>2063.1999511719</ele>
        <time>2012-07-28T07:50:31Z</time>
      </trkpt>
      <trkpt lat="45.52075" lon="6.73006">
        <ele>2065</ele>
        <time>2012-07-28T07:50:38Z</time>
      </trkpt>
      <trkpt lat="45.52079" lon="6.72987">
        <ele>2070.1999511719</ele>
        <time>2012-07-28T07:50:58Z</time>
      </trkpt>
      <trkpt lat="45.52081" lon="6.72985">
        <ele>2070.3999023438</ele>
        <time>2012-07-28T07:50:59Z</time>
      </trkpt>
      <trkpt lat="45.52084" lon="6.72979">
        <ele>2071.6000976562</ele>
        <time>2012-07-28T07:51:04Z</time>
      </trkpt>
      <trkpt lat="45.52092" lon="6.72965">
        <ele>2074.8000488281</ele>
        <time>2012-07-28T07:51:18Z</time>
      </trkpt>
      <trkpt lat="45.52094" lon="6.72964">
        <ele>2075.1999511719</ele>
        <time>2012-07-28T07:51:20Z</time>
      </trkpt>
      <trkpt lat="45.52098" lon="6.72957">
        <ele>2076.3999023438</ele>
        <time>2012-07-28T07:51:25Z</time>
      </trkpt>
      <trkpt lat="45.52106" lon="6.72946">
        <ele>2077.8000488281</ele>
        <time>2012-07-28T07:51:34Z</time>
      </trkpt>
      <trkpt lat="45.52121" lon="6.72943">
        <ele>2081</ele>
        <time>2012-07-28T07:51:48Z</time>
      </trkpt>
      <trkpt lat="45.52123" lon="6.72943">
        <ele>2081.1999511719</ele>
        <time>2012-07-28T07:51:49Z</time>
      </trkpt>
      <trkpt lat="45.52126" lon="6.72942">
        <ele>2081.8000488281</ele>
        <time>2012-07-28T07:51:51Z</time>
      </trkpt>
      <trkpt lat="45.52132" lon="6.72937">
        <ele>2083.3999023438</ele>
        <time>2012-07-28T07:52:00Z</time>
      </trkpt>
      <trkpt lat="45.52137" lon="6.72933">
        <ele>2084.1999511719</ele>
        <time>2012-07-28T07:52:04Z</time>
      </trkpt>
      <trkpt lat="45.52139" lon="6.7293">
        <ele>2084.8000488281</ele>
        <time>2012-07-28T07:52:07Z</time>
      </trkpt>
      <trkpt lat="45.5214" lon="6.72925">
        <ele>2085.3999023438</ele>
        <time>2012-07-28T07:52:10Z</time>
      </trkpt>
      <trkpt lat="45.52146" lon="6.72905">
        <ele>2086.8000488281</ele>
        <time>2012-07-28T07:52:22Z</time>
      </trkpt>
      <trkpt lat="45.52153" lon="6.72897">
        <ele>2087.6000976562</ele>
        <time>2012-07-28T07:52:28Z</time>
      </trkpt>
      <trkpt lat="45.52164" lon="6.72893">
        <ele>2088.6000976562</ele>
        <time>2012-07-28T07:52:34Z</time>
      </trkpt>
      <trkpt lat="45.52173" lon="6.72878">
        <ele>2090.1999511719</ele>
        <time>2012-07-28T07:52:43Z</time>
      </trkpt>
      <trkpt lat="45.52174" lon="6.72873">
        <ele>2091</ele>
        <time>2012-07-28T07:52:49Z</time>
      </trkpt>
      <trkpt lat="45.52174" lon="6.72872">
        <ele>2091.1999511719</ele>
        <time>2012-07-28T07:52:50Z</time>
      </trkpt>
      <trkpt lat="45.52182" lon="6.72868">
        <ele>2093.8000488281</ele>
        <time>2012-07-28T07:53:01Z</time>
      </trkpt>
      <trkpt lat="45.52183" lon="6.72867">
        <ele>2094.1999511719</ele>
        <time>2012-07-28T07:53:03Z</time>
      </trkpt>
      <trkpt lat="45.52183" lon="6.72864">
        <ele>2094.8000488281</ele>
        <time>2012-07-28T07:53:06Z</time>
      </trkpt>
      <trkpt lat="45.5218" lon="6.72858">
        <ele>2096</ele>
        <time>2012-07-28T07:53:11Z</time>
      </trkpt>
      <trkpt lat="45.5218" lon="6.72854">
        <ele>2096.8000488281</ele>
        <time>2012-07-28T07:53:15Z</time>
      </trkpt>
      <trkpt lat="45.52179" lon="6.72848">
        <ele>2098</ele>
        <time>2012-07-28T07:53:20Z</time>
      </trkpt>
      <trkpt lat="45.52174" lon="6.72834">
        <ele>2100.1999511719</ele>
        <time>2012-07-28T07:53:30Z</time>
      </trkpt>
      <trkpt lat="45.52174" lon="6.7283">
        <ele>2100.8000488281</ele>
        <time>2012-07-28T07:53:33Z</time>
      </trkpt>
      <trkpt lat="45.5218" lon="6.72811">
        <ele>2104</ele>
        <time>2012-07-28T07:53:48Z</time>
      </trkpt>
      <trkpt lat="45.52181" lon="6.7281">
        <ele>2104.1999511719</ele>
        <time>2012-07-28T07:53:49Z</time>
      </trkpt>
      <trkpt lat="45.52194" lon="6.72794">
        <ele>2105.8000488281</ele>
        <time>2012-07-28T07:54:02Z</time>
      </trkpt>
      <trkpt lat="45.52208" lon="6.72782">
        <ele>2106.6000976562</ele>
        <time>2012-07-28T07:54:10Z</time>
      </trkpt>
      <trkpt lat="45.52209" lon="6.72779">
        <ele>2106.8000488281</ele>
        <time>2012-07-28T07:54:12Z</time>
      </trkpt>
      <trkpt lat="45.52227" lon="6.7277">
        <ele>2109.1999511719</ele>
        <time>2012-07-28T07:54:28Z</time>
      </trkpt>
      <trkpt lat="45.5224" lon="6.72763">
        <ele>2111.6000976562</ele>
        <time>2012-07-28T07:54:40Z</time>
      </trkpt>
      <trkpt lat="45.52243" lon="6.72759">
        <ele>2112.1999511719</ele>
        <time>2012-07-28T07:54:43Z</time>
      </trkpt>
      <trkpt lat="45.52246" lon="6.72747">
        <ele>2114</ele>
        <time>2012-07-28T07:54:49Z</time>
      </trkpt>
      <trkpt lat="45.52248" lon="6.72745">
        <ele>2114</ele>
        <time>2012-07-28T07:54:50Z</time>
      </trkpt>
      <trkpt lat="45.52254" lon="6.72741">
        <ele>2115.3999023438</ele>
        <time>2012-07-28T07:54:56Z</time>
      </trkpt>
      <trkpt lat="45.52258" lon="6.72738">
        <ele>2116</ele>
        <time>2012-07-28T07:54:59Z</time>
      </trkpt>
      <trkpt lat="45.52273" lon="6.72734">
        <ele>2118.8000488281</ele>
        <time>2012-07-28T07:55:10Z</time>
      </trkpt>
      <trkpt lat="45.52291" lon="6.72726">
        <ele>2122.3999023438</ele>
        <time>2012-07-28T07:55:24Z</time>
      </trkpt>
      <trkpt lat="45.52308" lon="6.72716">
        <ele>2125.3999023438</ele>
        <time>2012-07-28T07:55:37Z</time>
      </trkpt>
      <trkpt lat="45.52312" lon="6.72712">
        <ele>2126.3999023438</ele>
        <time>2012-07-28T07:55:42Z</time>
      </trkpt>
      <trkpt lat="45.52325" lon="6.72706">
        <ele>2129.3999023438</ele>
        <time>2012-07-28T07:55:56Z</time>
      </trkpt>
      <trkpt lat="45.52325" lon="6.72705">
        <ele>2129.6000976562</ele>
        <time>2012-07-28T07:55:57Z</time>
      </trkpt>
      <trkpt lat="45.5233" lon="6.72703">
        <ele>2131</ele>
        <time>2012-07-28T07:56:02Z</time>
      </trkpt>
      <trkpt lat="45.52341" lon="6.72695">
        <ele>2133.6000976562</ele>
        <time>2012-07-28T07:56:12Z</time>
      </trkpt>
      <trkpt lat="45.52357" lon="6.72683">
        <ele>2137.8000488281</ele>
        <time>2012-07-28T07:56:30Z</time>
      </trkpt>
      <trkpt lat="45.52373" lon="6.72669">
        <ele>2142.1999511719</ele>
        <time>2012-07-28T07:56:49Z</time>
      </trkpt>
      <trkpt lat="45.52374" lon="6.72665">
        <ele>2142.6000976562</ele>
        <time>2012-07-28T07:56:51Z</time>
      </trkpt>
      <trkpt lat="45.52377" lon="6.72645">
        <ele>2145.3999023438</ele>
        <time>2012-07-28T07:57:05Z</time>
      </trkpt>
      <trkpt lat="45.52377" lon="6.72644">
        <ele>2145.6000976562</ele>
        <time>2012-07-28T07:57:06Z</time>
      </trkpt>
      <trkpt lat="45.52378" lon="6.72639">
        <ele>2146.1999511719</ele>
        <time>2012-07-28T07:57:09Z</time>
      </trkpt>
      <trkpt lat="45.52378" lon="6.72629">
        <ele>2147.6000976562</ele>
        <time>2012-07-28T07:57:16Z</time>
      </trkpt>
      <trkpt lat="45.5238" lon="6.72624">
        <ele>2148.3999023438</ele>
        <time>2012-07-28T07:57:20Z</time>
      </trkpt>
      <trkpt lat="45.52381" lon="6.72619">
        <ele>2149</ele>
        <time>2012-07-28T07:57:23Z</time>
      </trkpt>
      <trkpt lat="45.52381" lon="6.72618">
        <ele>2149</ele>
        <time>2012-07-28T07:57:24Z</time>
      </trkpt>
      <trkpt lat="45.52383" lon="6.72592">
        <ele>2152.1999511719</ele>
        <time>2012-07-28T07:57:41Z</time>
      </trkpt>
      <trkpt lat="45.52381" lon="6.72565">
        <ele>2155.8000488281</ele>
        <time>2012-07-28T07:57:59Z</time>
      </trkpt>
      <trkpt lat="45.52377" lon="6.7254">
        <ele>2160</ele>
        <time>2012-07-28T07:58:15Z</time>
      </trkpt>
      <trkpt lat="45.52376" lon="6.72514">
        <ele>2164.6000976562</ele>
        <time>2012-07-28T07:58:34Z</time>
      </trkpt>
      <trkpt lat="45.52374" lon="6.72488">
        <ele>2168.6000976562</ele>
        <time>2012-07-28T07:58:51Z</time>
      </trkpt>
      <trkpt lat="45.52375" lon="6.72461">
        <ele>2171.6000976562</ele>
        <time>2012-07-28T07:59:05Z</time>
      </trkpt>
      <trkpt lat="45.52387" lon="6.72443">
        <ele>2174</ele>
        <time>2012-07-28T07:59:19Z</time>
      </trkpt>
      <trkpt lat="45.52391" lon="6.7244">
        <ele>2174.8000488281</ele>
        <time>2012-07-28T07:59:23Z</time>
      </trkpt>
      <trkpt lat="45.52396" lon="6.72433">
        <ele>2175.8000488281</ele>
        <time>2012-07-28T07:59:29Z</time>
      </trkpt>
      <trkpt lat="45.52403" lon="6.72428">
        <ele>2176.6000976562</ele>
        <time>2012-07-28T07:59:34Z</time>
      </trkpt>
      <trkpt lat="45.52418" lon="6.72412">
        <ele>2178.8000488281</ele>
        <time>2012-07-28T07:59:49Z</time>
      </trkpt>
      <trkpt lat="45.52433" lon="6.72397">
        <ele>2181.6000976562</ele>
        <time>2012-07-28T08:00:05Z</time>
      </trkpt>
      <trkpt lat="45.52442" lon="6.72386">
        <ele>2184</ele>
        <time>2012-07-28T08:00:17Z</time>
      </trkpt>
      <trkpt lat="45.52447" lon="6.72381">
        <ele>2185.6000976562</ele>
        <time>2012-07-28T08:00:24Z</time>
      </trkpt>
      <trkpt lat="45.52452" lon="6.72375">
        <ele>2187.1999511719</ele>
        <time>2012-07-28T08:00:30Z</time>
      </trkpt>
      <trkpt lat="45.52457" lon="6.72369">
        <ele>2188.3999023438</ele>
        <time>2012-07-28T08:00:36Z</time>
      </trkpt>
      <trkpt lat="45.52462" lon="6.72364">
        <ele>2189.1999511719</ele>
        <time>2012-07-28T08:00:41Z</time>
      </trkpt>
      <trkpt lat="45.52476" lon="6.72348">
        <ele>2192</ele>
        <time>2012-07-28T08:00:57Z</time>
      </trkpt>
      <trkpt lat="45.52492" lon="6.72337">
        <ele>2195</ele>
        <time>2012-07-28T08:01:12Z</time>
      </trkpt>
      <trkpt lat="45.5251" lon="6.7233">
        <ele>2199</ele>
        <time>2012-07-28T08:01:29Z</time>
      </trkpt>
      <trkpt lat="45.52528" lon="6.72328">
        <ele>2203.3999023438</ele>
        <time>2012-07-28T08:01:48Z</time>
      </trkpt>
      <trkpt lat="45.52536" lon="6.72326">
        <ele>2205.6000976562</ele>
        <time>2012-07-28T08:01:56Z</time>
      </trkpt>
      <trkpt lat="45.52546" lon="6.72319">
        <ele>2210</ele>
        <time>2012-07-28T08:02:11Z</time>
      </trkpt>
      <trkpt lat="45.52552" lon="6.72314">
        <ele>2212.6000976562</ele>
        <time>2012-07-28T08:02:20Z</time>
      </trkpt>
      <trkpt lat="45.52556" lon="6.72309">
        <ele>2214.1999511719</ele>
        <time>2012-07-28T08:02:27Z</time>
      </trkpt>
      <trkpt lat="45.52558" lon="6.72307">
        <ele>2214.8000488281</ele>
        <time>2012-07-28T08:02:30Z</time>
      </trkpt>
      <trkpt lat="45.5256" lon="6.72304">
        <ele>2215.8000488281</ele>
        <time>2012-07-28T08:02:34Z</time>
      </trkpt>
      <trkpt lat="45.52568" lon="6.72283">
        <ele>2226.1999511719</ele>
        <time>2012-07-28T08:03:09Z</time>
      </trkpt>
      <trkpt lat="45.52559" lon="6.7226">
        <ele>2232.8000488281</ele>
        <time>2012-07-28T08:03:31Z</time>
      </trkpt>
      <trkpt lat="45.52557" lon="6.72255">
        <ele>2234</ele>
        <time>2012-07-28T08:03:35Z</time>
      </trkpt>
      <trkpt lat="45.52551" lon="6.72236">
        <ele>2238</ele>
        <time>2012-07-28T08:03:50Z</time>
      </trkpt>
      <trkpt lat="45.52551" lon="6.72235">
        <ele>2238.3999023438</ele>
        <time>2012-07-28T08:03:51Z</time>
      </trkpt>
      <trkpt lat="45.52546" lon="6.72212">
        <ele>2244</ele>
        <time>2012-07-28T08:04:11Z</time>
      </trkpt>
      <trkpt lat="45.52546" lon="6.72211">
        <ele>2244.3999023438</ele>
        <time>2012-07-28T08:04:12Z</time>
      </trkpt>
      <trkpt lat="45.52543" lon="6.72194">
        <ele>2247</ele>
        <time>2012-07-28T08:04:25Z</time>
      </trkpt>
      <trkpt lat="45.52541" lon="6.72185">
        <ele>2248.3999023438</ele>
        <time>2012-07-28T08:04:32Z</time>
      </trkpt>
      <trkpt lat="45.52533" lon="6.72161">
        <ele>2252.6000976562</ele>
        <time>2012-07-28T08:04:51Z</time>
      </trkpt>
      <trkpt lat="45.52519" lon="6.72143">
        <ele>2256.1999511719</ele>
        <time>2012-07-28T08:05:07Z</time>
      </trkpt>
      <trkpt lat="45.5251" lon="6.72131">
        <ele>2258.3999023438</ele>
        <time>2012-07-28T08:05:16Z</time>
      </trkpt>
      <trkpt lat="45.52508" lon="6.72125">
        <ele>2259.3999023438</ele>
        <time>2012-07-28T08:05:20Z</time>
      </trkpt>
      <trkpt lat="45.52506" lon="6.72123">
        <ele>2259.8000488281</ele>
        <time>2012-07-28T08:05:21Z</time>
      </trkpt>
      <trkpt lat="45.52491" lon="6.72109">
        <ele>2261.8000488281</ele>
        <time>2012-07-28T08:05:29Z</time>
      </trkpt>
      <trkpt lat="45.52488" lon="6.72102">
        <ele>2262.6000976562</ele>
        <time>2012-07-28T08:05:33Z</time>
      </trkpt>
      <trkpt lat="45.52485" lon="6.72094">
        <ele>2263.8000488281</ele>
        <time>2012-07-28T08:05:39Z</time>
      </trkpt>
      <trkpt lat="45.52481" lon="6.72086">
        <ele>2264.8000488281</ele>
        <time>2012-07-28T08:05:45Z</time>
      </trkpt>
      <trkpt lat="45.52478" lon="6.72079">
        <ele>2265.3999023438</ele>
        <time>2012-07-28T08:05:50Z</time>
      </trkpt>
      <trkpt lat="45.5247" lon="6.7207">
        <ele>2266</ele>
        <time>2012-07-28T08:05:59Z</time>
      </trkpt>
      <trkpt lat="45.52468" lon="6.72068">
        <ele>2266.1999511719</ele>
        <time>2012-07-28T08:06:00Z</time>
      </trkpt>
      <trkpt lat="45.52453" lon="6.72051">
        <ele>2267.1999511719</ele>
        <time>2012-07-28T08:06:10Z</time>
      </trkpt>
      <trkpt lat="45.52449" lon="6.72046">
        <ele>2268.1999511719</ele>
        <time>2012-07-28T08:06:17Z</time>
      </trkpt>
      <trkpt lat="45.52448" lon="6.72044">
        <ele>2268.6000976562</ele>
        <time>2012-07-28T08:06:20Z</time>
      </trkpt>
      <trkpt lat="45.52439" lon="6.72035">
        <ele>2270.8000488281</ele>
        <time>2012-07-28T08:06:32Z</time>
      </trkpt>
      <trkpt lat="45.52433" lon="6.72024">
        <ele>2272.3999023438</ele>
        <time>2012-07-28T08:06:43Z</time>
      </trkpt>
      <trkpt lat="45.52425" lon="6.7202">
        <ele>2273.8000488281</ele>
        <time>2012-07-28T08:06:51Z</time>
      </trkpt>
      <trkpt lat="45.52425" lon="6.72013">
        <ele>2274.6000976562</ele>
        <time>2012-07-28T08:06:55Z</time>
      </trkpt>
      <trkpt lat="45.52425" lon="6.7201">
        <ele>2275</ele>
        <time>2012-07-28T08:06:57Z</time>
      </trkpt>
      <trkpt lat="45.52421" lon="6.71998">
        <ele>2277</ele>
        <time>2012-07-28T08:07:07Z</time>
      </trkpt>
      <trkpt lat="45.52421" lon="6.71995">
        <ele>2277.6000976562</ele>
        <time>2012-07-28T08:07:09Z</time>
      </trkpt>
      <trkpt lat="45.52419" lon="6.71991">
        <ele>2278.1999511719</ele>
        <time>2012-07-28T08:07:13Z</time>
      </trkpt>
      <trkpt lat="45.52411" lon="6.71974">
        <ele>2281.8000488281</ele>
        <time>2012-07-28T08:07:29Z</time>
      </trkpt>
      <trkpt lat="45.5241" lon="6.71974">
        <ele>2282</ele>
        <time>2012-07-28T08:07:30Z</time>
      </trkpt>
      <trkpt lat="45.52405" lon="6.71962">
        <ele>2284.6000976562</ele>
        <time>2012-07-28T08:07:41Z</time>
      </trkpt>
      <trkpt lat="45.52398" lon="6.71954">
        <ele>2286.8000488281</ele>
        <time>2012-07-28T08:07:49Z</time>
      </trkpt>
      <trkpt lat="45.52382" lon="6.71937">
        <ele>2289.3999023438</ele>
        <time>2012-07-28T08:07:59Z</time>
      </trkpt>
      <trkpt lat="45.52379" lon="6.71932">
        <ele>2290.1999511719</ele>
        <time>2012-07-28T08:08:02Z</time>
      </trkpt>
      <trkpt lat="45.52377" lon="6.71929">
        <ele>2290.3999023438</ele>
        <time>2012-07-28T08:08:04Z</time>
      </trkpt>
      <trkpt lat="45.52376" lon="6.71922">
        <ele>2291.6000976562</ele>
        <time>2012-07-28T08:08:08Z</time>
      </trkpt>
      <trkpt lat="45.52376" lon="6.71919">
        <ele>2292.3999023438</ele>
        <time>2012-07-28T08:08:11Z</time>
      </trkpt>
      <trkpt lat="45.52374" lon="6.71915">
        <ele>2293.1999511719</ele>
        <time>2012-07-28T08:08:15Z</time>
      </trkpt>
      <trkpt lat="45.52374" lon="6.71914">
        <ele>2293.6000976562</ele>
        <time>2012-07-28T08:08:16Z</time>
      </trkpt>
      <trkpt lat="45.52372" lon="6.71909">
        <ele>2295</ele>
        <time>2012-07-28T08:08:21Z</time>
      </trkpt>
      <trkpt lat="45.52372" lon="6.719">
        <ele>2299.1999511719</ele>
        <time>2012-07-28T08:08:35Z</time>
      </trkpt>
      <trkpt lat="45.52375" lon="6.71889">
        <ele>2303.1999511719</ele>
        <time>2012-07-28T08:08:50Z</time>
      </trkpt>
      <trkpt lat="45.52377" lon="6.71877">
        <ele>2306</ele>
        <time>2012-07-28T08:09:00Z</time>
      </trkpt>
      <trkpt lat="45.52376" lon="6.71875">
        <ele>2306.3999023438</ele>
        <time>2012-07-28T08:09:02Z</time>
      </trkpt>
      <trkpt lat="45.52376" lon="6.71863">
        <ele>2308</ele>
        <time>2012-07-28T08:09:10Z</time>
      </trkpt>
      <trkpt lat="45.52376" lon="6.71861">
        <ele>2308.1999511719</ele>
        <time>2012-07-28T08:09:11Z</time>
      </trkpt>
      <trkpt lat="45.52372" lon="6.71836">
        <ele>2311.1999511719</ele>
        <time>2012-07-28T08:09:28Z</time>
      </trkpt>
      <trkpt lat="45.52367" lon="6.71811">
        <ele>2313.8000488281</ele>
        <time>2012-07-28T08:09:43Z</time>
      </trkpt>
      <trkpt lat="45.52368" lon="6.71806">
        <ele>2314.3999023438</ele>
        <time>2012-07-28T08:09:46Z</time>
      </trkpt>
      <trkpt lat="45.52368" lon="6.71802">
        <ele>2314.8000488281</ele>
        <time>2012-07-28T08:09:48Z</time>
      </trkpt>
      <trkpt lat="45.52368" lon="6.7179">
        <ele>2317</ele>
        <time>2012-07-28T08:09:57Z</time>
      </trkpt>
      <trkpt lat="45.52367" lon="6.71785">
        <ele>2318.1999511719</ele>
        <time>2012-07-28T08:10:01Z</time>
      </trkpt>
      <trkpt lat="45.52361" lon="6.71778">
        <ele>2320</ele>
        <time>2012-07-28T08:10:08Z</time>
      </trkpt>
      <trkpt lat="45.52357" lon="6.71764">
        <ele>2323.6000976562</ele>
        <time>2012-07-28T08:10:19Z</time>
      </trkpt>
      <trkpt lat="45.52356" lon="6.71761">
        <ele>2324.1999511719</ele>
        <time>2012-07-28T08:10:21Z</time>
      </trkpt>
      <trkpt lat="45.52352" lon="6.71747">
        <ele>2328.1999511719</ele>
        <time>2012-07-28T08:10:33Z</time>
      </trkpt>
      <trkpt lat="45.52351" lon="6.71746">
        <ele>2328.3999023438</ele>
        <time>2012-07-28T08:10:34Z</time>
      </trkpt>
      <trkpt lat="45.52348" lon="6.71741">
        <ele>2329.6000976562</ele>
        <time>2012-07-28T08:10:38Z</time>
      </trkpt>
      <trkpt lat="45.52347" lon="6.71739">
        <ele>2329.8000488281</ele>
        <time>2012-07-28T08:10:39Z</time>
      </trkpt>
      <trkpt lat="45.52343" lon="6.71735">
        <ele>2331</ele>
        <time>2012-07-28T08:10:43Z</time>
      </trkpt>
      <trkpt lat="45.52342" lon="6.71733">
        <ele>2331.8000488281</ele>
        <time>2012-07-28T08:10:46Z</time>
      </trkpt>
      <trkpt lat="45.52341" lon="6.7173">
        <ele>2332.8000488281</ele>
        <time>2012-07-28T08:10:49Z</time>
      </trkpt>
      <trkpt lat="45.52337" lon="6.71725">
        <ele>2334</ele>
        <time>2012-07-28T08:10:54Z</time>
      </trkpt>
      <trkpt lat="45.52335" lon="6.71723">
        <ele>2334.6000976562</ele>
        <time>2012-07-28T08:10:56Z</time>
      </trkpt>
      <trkpt lat="45.52323" lon="6.71717">
        <ele>2335.8000488281</ele>
        <time>2012-07-28T08:11:02Z</time>
      </trkpt>
      <trkpt lat="45.5232" lon="6.71714">
        <ele>2336.3999023438</ele>
        <time>2012-07-28T08:11:05Z</time>
      </trkpt>
      <trkpt lat="45.52319" lon="6.71712">
        <ele>2337</ele>
        <time>2012-07-28T08:11:07Z</time>
      </trkpt>
      <trkpt lat="45.52305" lon="6.71696">
        <ele>2342.1999511719</ele>
        <time>2012-07-28T08:11:29Z</time>
      </trkpt>
      <trkpt lat="45.52288" lon="6.71686">
        <ele>2346.3999023438</ele>
        <time>2012-07-28T08:11:48Z</time>
      </trkpt>
      <trkpt lat="45.52284" lon="6.71685">
        <ele>2347</ele>
        <time>2012-07-28T08:11:52Z</time>
      </trkpt>
      <trkpt lat="45.52273" lon="6.71684">
        <ele>2348.6000976562</ele>
        <time>2012-07-28T08:12:01Z</time>
      </trkpt>
      <trkpt lat="45.5227" lon="6.71684">
        <ele>2348.8000488281</ele>
        <time>2012-07-28T08:12:03Z</time>
      </trkpt>
      <trkpt lat="45.52262" lon="6.71687">
        <ele>2349.3999023438</ele>
        <time>2012-07-28T08:12:07Z</time>
      </trkpt>
      <trkpt lat="45.52252" lon="6.71691">
        <ele>2350.1999511719</ele>
        <time>2012-07-28T08:12:13Z</time>
      </trkpt>
      <trkpt lat="45.52247" lon="6.71691">
        <ele>2350.3999023438</ele>
        <time>2012-07-28T08:12:16Z</time>
      </trkpt>
      <trkpt lat="45.52236" lon="6.71681">
        <ele>2350.8000488281</ele>
        <time>2012-07-28T08:12:21Z</time>
      </trkpt>
      <trkpt lat="45.52222" lon="6.71664">
        <ele>2351.1999511719</ele>
        <time>2012-07-28T08:12:28Z</time>
      </trkpt>
      <trkpt lat="45.52204" lon="6.7165">
        <ele>2351.1999511719</ele>
        <time>2012-07-28T08:12:35Z</time>
      </trkpt>
      <trkpt lat="45.52187" lon="6.71636">
        <ele>2351</ele>
        <time>2012-07-28T08:12:42Z</time>
      </trkpt>
      <trkpt lat="45.52171" lon="6.71621">
        <ele>2350.8000488281</ele>
        <time>2012-07-28T08:12:50Z</time>
      </trkpt>
      <trkpt lat="45.52153" lon="6.71606">
        <ele>2349.8000488281</ele>
        <time>2012-07-28T08:12:59Z</time>
      </trkpt>
      <trkpt lat="45.52139" lon="6.71586">
        <ele>2348.8000488281</ele>
        <time>2012-07-28T08:13:07Z</time>
      </trkpt>
      <trkpt lat="45.52121" lon="6.7157">
        <ele>2347.8000488281</ele>
        <time>2012-07-28T08:13:13Z</time>
      </trkpt>
      <trkpt lat="45.52105" lon="6.71557">
        <ele>2346.8000488281</ele>
        <time>2012-07-28T08:13:19Z</time>
      </trkpt>
      <trkpt lat="45.52089" lon="6.71537">
        <ele>2345.8000488281</ele>
        <time>2012-07-28T08:13:26Z</time>
      </trkpt>
      <trkpt lat="45.52073" lon="6.71521">
        <ele>2344.8000488281</ele>
        <time>2012-07-28T08:13:32Z</time>
      </trkpt>
      <trkpt lat="45.52064" lon="6.71513">
        <ele>2344</ele>
        <time>2012-07-28T08:13:36Z</time>
      </trkpt>
      <trkpt lat="45.52056" lon="6.71509">
        <ele>2343.6000976562</ele>
        <time>2012-07-28T08:13:39Z</time>
      </trkpt>
      <trkpt lat="45.52042" lon="6.71491">
        <ele>2342</ele>
        <time>2012-07-28T08:13:47Z</time>
      </trkpt>
      <trkpt lat="45.52025" lon="6.71476">
        <ele>2340.1999511719</ele>
        <time>2012-07-28T08:13:55Z</time>
      </trkpt>
      <trkpt lat="45.52011" lon="6.7146">
        <ele>2338.6000976562</ele>
        <time>2012-07-28T08:14:02Z</time>
      </trkpt>
      <trkpt lat="45.51995" lon="6.71445">
        <ele>2337</ele>
        <time>2012-07-28T08:14:08Z</time>
      </trkpt>
      <trkpt lat="45.51981" lon="6.71428">
        <ele>2335.3999023438</ele>
        <time>2012-07-28T08:14:14Z</time>
      </trkpt>
      <trkpt lat="45.51968" lon="6.7141">
        <ele>2333.8000488281</ele>
        <time>2012-07-28T08:14:20Z</time>
      </trkpt>
      <trkpt lat="45.51954" lon="6.7139">
        <ele>2331.8000488281</ele>
        <time>2012-07-28T08:14:27Z</time>
      </trkpt>
      <trkpt lat="45.51941" lon="6.7137">
        <ele>2329.3999023438</ele>
        <time>2012-07-28T08:14:36Z</time>
      </trkpt>
      <trkpt lat="45.51929" lon="6.71349">
        <ele>2326.1999511719</ele>
        <time>2012-07-28T08:14:46Z</time>
      </trkpt>
      <trkpt lat="45.51913" lon="6.71334">
        <ele>2323.8000488281</ele>
        <time>2012-07-28T08:14:53Z</time>
      </trkpt>
      <trkpt lat="45.51898" lon="6.71331">
        <ele>2321.8000488281</ele>
        <time>2012-07-28T08:14:59Z</time>
      </trkpt>
      <trkpt lat="45.51896" lon="6.71328">
        <ele>2321.3999023438</ele>
        <time>2012-07-28T08:15:00Z</time>
      </trkpt>
      <trkpt lat="45.51878" lon="6.71315">
        <ele>2319</ele>
        <time>2012-07-28T08:15:08Z</time>
      </trkpt>
      <trkpt lat="45.5186" lon="6.71306">
        <ele>2316.1999511719</ele>
        <time>2012-07-28T08:15:16Z</time>
      </trkpt>
      <trkpt lat="45.51841" lon="6.71294">
        <ele>2313.1999511719</ele>
        <time>2012-07-28T08:15:25Z</time>
      </trkpt>
      <trkpt lat="45.51822" lon="6.71291">
        <ele>2311</ele>
        <time>2012-07-28T08:15:31Z</time>
      </trkpt>
      <trkpt lat="45.51804" lon="6.71287">
        <ele>2308.6000976562</ele>
        <time>2012-07-28T08:15:38Z</time>
      </trkpt>
      <trkpt lat="45.51786" lon="6.71279">
        <ele>2305.1999511719</ele>
        <time>2012-07-28T08:15:47Z</time>
      </trkpt>
      <trkpt lat="45.51767" lon="6.71272">
        <ele>2301.6000976562</ele>
        <time>2012-07-28T08:15:56Z</time>
      </trkpt>
      <trkpt lat="45.51747" lon="6.7127">
        <ele>2298.8000488281</ele>
        <time>2012-07-28T08:16:03Z</time>
      </trkpt>
      <trkpt lat="45.51731" lon="6.71254">
        <ele>2295.8000488281</ele>
        <time>2012-07-28T08:16:10Z</time>
      </trkpt>
      <trkpt lat="45.51719" lon="6.71231">
        <ele>2292.6000976562</ele>
        <time>2012-07-28T08:16:18Z</time>
      </trkpt>
      <trkpt lat="45.51705" lon="6.71212">
        <ele>2289.1999511719</ele>
        <time>2012-07-28T08:16:26Z</time>
      </trkpt>
      <trkpt lat="45.51696" lon="6.71188">
        <ele>2285.8000488281</ele>
        <time>2012-07-28T08:16:34Z</time>
      </trkpt>
      <trkpt lat="45.51682" lon="6.71166">
        <ele>2282.3999023438</ele>
        <time>2012-07-28T08:16:42Z</time>
      </trkpt>
      <trkpt lat="45.51669" lon="6.71144">
        <ele>2279.3999023438</ele>
        <time>2012-07-28T08:16:49Z</time>
      </trkpt>
      <trkpt lat="45.51656" lon="6.71122">
        <ele>2276.8000488281</ele>
        <time>2012-07-28T08:16:55Z</time>
      </trkpt>
      <trkpt lat="45.51644" lon="6.71102">
        <ele>2274.1999511719</ele>
        <time>2012-07-28T08:17:01Z</time>
      </trkpt>
      <trkpt lat="45.51637" lon="6.71076">
        <ele>2270.6000976562</ele>
        <time>2012-07-28T08:17:09Z</time>
      </trkpt>
      <trkpt lat="45.5163" lon="6.71048">
        <ele>2267.1999511719</ele>
        <time>2012-07-28T08:17:16Z</time>
      </trkpt>
      <trkpt lat="45.51618" lon="6.71029">
        <ele>2262.6000976562</ele>
        <time>2012-07-28T08:17:25Z</time>
      </trkpt>
      <trkpt lat="45.51601" lon="6.7102">
        <ele>2258.6000976562</ele>
        <time>2012-07-28T08:17:33Z</time>
      </trkpt>
      <trkpt lat="45.51584" lon="6.71008">
        <ele>2253.8000488281</ele>
        <time>2012-07-28T08:17:42Z</time>
      </trkpt>
      <trkpt lat="45.51565" lon="6.71006">
        <ele>2249</ele>
        <time>2012-07-28T08:17:51Z</time>
      </trkpt>
      <trkpt lat="45.51547" lon="6.71011">
        <ele>2244.8000488281</ele>
        <time>2012-07-28T08:17:59Z</time>
      </trkpt>
      <trkpt lat="45.51528" lon="6.71011">
        <ele>2241</ele>
        <time>2012-07-28T08:18:06Z</time>
      </trkpt>
      <trkpt lat="45.51511" lon="6.71002">
        <ele>2237.6000976562</ele>
        <time>2012-07-28T08:18:12Z</time>
      </trkpt>
      <trkpt lat="45.51491" lon="6.70991">
        <ele>2234</ele>
        <time>2012-07-28T08:18:19Z</time>
      </trkpt>
      <trkpt lat="45.51474" lon="6.70981">
        <ele>2230.8000488281</ele>
        <time>2012-07-28T08:18:25Z</time>
      </trkpt>
      <trkpt lat="45.51457" lon="6.70971">
        <ele>2227.3999023438</ele>
        <time>2012-07-28T08:18:32Z</time>
      </trkpt>
      <trkpt lat="45.51456" lon="6.70971">
        <ele>2226.8000488281</ele>
        <time>2012-07-28T08:18:33Z</time>
      </trkpt>
      <trkpt lat="45.51441" lon="6.7096">
        <ele>2220.6000976562</ele>
        <time>2012-07-28T08:18:46Z</time>
      </trkpt>
      <trkpt lat="45.51423" lon="6.70953">
        <ele>2217.3999023438</ele>
        <time>2012-07-28T08:18:53Z</time>
      </trkpt>
      <trkpt lat="45.5141" lon="6.70934">
        <ele>2214.1999511719</ele>
        <time>2012-07-28T08:19:00Z</time>
      </trkpt>
      <trkpt lat="45.51394" lon="6.70921">
        <ele>2211.6000976562</ele>
        <time>2012-07-28T08:19:06Z</time>
      </trkpt>
      <trkpt lat="45.51376" lon="6.70926">
        <ele>2209</ele>
        <time>2012-07-28T08:19:12Z</time>
      </trkpt>
      <trkpt lat="45.51357" lon="6.70923">
        <ele>2206.1999511719</ele>
        <time>2012-07-28T08:19:19Z</time>
      </trkpt>
      <trkpt lat="45.51347" lon="6.709">
        <ele>2203.3999023438</ele>
        <time>2012-07-28T08:19:26Z</time>
      </trkpt>
      <trkpt lat="45.51339" lon="6.70874">
        <ele>2200.3999023438</ele>
        <time>2012-07-28T08:19:33Z</time>
      </trkpt>
      <trkpt lat="45.51331" lon="6.70851">
        <ele>2198.1999511719</ele>
        <time>2012-07-28T08:19:39Z</time>
      </trkpt>
      <trkpt lat="45.51322" lon="6.70831">
        <ele>2195.8000488281</ele>
        <time>2012-07-28T08:19:45Z</time>
      </trkpt>
      <trkpt lat="45.5132" lon="6.70831">
        <ele>2195.1999511719</ele>
        <time>2012-07-28T08:19:47Z</time>
      </trkpt>
      <trkpt lat="45.51318" lon="6.70831">
        <ele>2194</ele>
        <time>2012-07-28T08:19:50Z</time>
      </trkpt>
      <trkpt lat="45.51323" lon="6.70823">
        <ele>2180.3999023438</ele>
        <time>2012-07-28T08:20:34Z</time>
      </trkpt>
      <trkpt lat="45.51321" lon="6.70811">
        <ele>2179.6000976562</ele>
        <time>2012-07-28T08:20:37Z</time>
      </trkpt>
      <trkpt lat="45.51321" lon="6.70808">
        <ele>2179.3999023438</ele>
        <time>2012-07-28T08:20:38Z</time>
      </trkpt>
      <trkpt lat="45.51308" lon="6.70793">
        <ele>2177.8000488281</ele>
        <time>2012-07-28T08:20:44Z</time>
      </trkpt>
      <trkpt lat="45.51288" lon="6.70788">
        <ele>2176</ele>
        <time>2012-07-28T08:20:51Z</time>
      </trkpt>
      <trkpt lat="45.5127" lon="6.70787">
        <ele>2174.3999023438</ele>
        <time>2012-07-28T08:20:57Z</time>
      </trkpt>
      <trkpt lat="45.5125" lon="6.70785">
        <ele>2172.6000976562</ele>
        <time>2012-07-28T08:21:03Z</time>
      </trkpt>
      <trkpt lat="45.51231" lon="6.70786">
        <ele>2171</ele>
        <time>2012-07-28T08:21:09Z</time>
      </trkpt>
      <trkpt lat="45.51211" lon="6.70785">
        <ele>2169.3999023438</ele>
        <time>2012-07-28T08:21:15Z</time>
      </trkpt>
      <trkpt lat="45.51192" lon="6.70783">
        <ele>2167.8000488281</ele>
        <time>2012-07-28T08:21:21Z</time>
      </trkpt>
      <trkpt lat="45.51173" lon="6.70777">
        <ele>2166.1999511719</ele>
        <time>2012-07-28T08:21:27Z</time>
      </trkpt>
      <trkpt lat="45.51154" lon="6.70776">
        <ele>2164.6000976562</ele>
        <time>2012-07-28T08:21:33Z</time>
      </trkpt>
      <trkpt lat="45.51134" lon="6.70776">
        <ele>2163</ele>
        <time>2012-07-28T08:21:40Z</time>
      </trkpt>
      <trkpt lat="45.51114" lon="6.70779">
        <ele>2160.8000488281</ele>
        <time>2012-07-28T08:21:48Z</time>
      </trkpt>
      <trkpt lat="45.51094" lon="6.70784">
        <ele>2158.8000488281</ele>
        <time>2012-07-28T08:21:56Z</time>
      </trkpt>
      <trkpt lat="45.51078" lon="6.70798">
        <ele>2157</ele>
        <time>2012-07-28T08:22:03Z</time>
      </trkpt>
      <trkpt lat="45.51065" lon="6.70821">
        <ele>2155</ele>
        <time>2012-07-28T08:22:10Z</time>
      </trkpt>
      <trkpt lat="45.5106" lon="6.70825">
        <ele>2154.6000976562</ele>
        <time>2012-07-28T08:22:12Z</time>
      </trkpt>
      <trkpt lat="45.51046" lon="6.70827">
        <ele>2153.3999023438</ele>
        <time>2012-07-28T08:22:17Z</time>
      </trkpt>
      <trkpt lat="45.51025" lon="6.70825">
        <ele>2151.6000976562</ele>
        <time>2012-07-28T08:22:24Z</time>
      </trkpt>
      <trkpt lat="45.51007" lon="6.70821">
        <ele>2149.8000488281</ele>
        <time>2012-07-28T08:22:31Z</time>
      </trkpt>
      <trkpt lat="45.50987" lon="6.70815">
        <ele>2147.8000488281</ele>
        <time>2012-07-28T08:22:38Z</time>
      </trkpt>
      <trkpt lat="45.50969" lon="6.70814">
        <ele>2146.1999511719</ele>
        <time>2012-07-28T08:22:44Z</time>
      </trkpt>
      <trkpt lat="45.50948" lon="6.70814">
        <ele>2144.3999023438</ele>
        <time>2012-07-28T08:22:51Z</time>
      </trkpt>
      <trkpt lat="45.5093" lon="6.70814">
        <ele>2142.6000976562</ele>
        <time>2012-07-28T08:22:58Z</time>
      </trkpt>
      <trkpt lat="45.50911" lon="6.70823">
        <ele>2141.1999511719</ele>
        <time>2012-07-28T08:23:05Z</time>
      </trkpt>
      <trkpt lat="45.50895" lon="6.70835">
        <ele>2140.1999511719</ele>
        <time>2012-07-28T08:23:11Z</time>
      </trkpt>
      <trkpt lat="45.50877" lon="6.70842">
        <ele>2139</ele>
        <time>2012-07-28T08:23:17Z</time>
      </trkpt>
      <trkpt lat="45.50859" lon="6.70853">
        <ele>2137.6000976562</ele>
        <time>2012-07-28T08:23:24Z</time>
      </trkpt>
      <trkpt lat="45.50841" lon="6.70864">
        <ele>2136.3999023438</ele>
        <time>2012-07-28T08:23:31Z</time>
      </trkpt>
      <trkpt lat="45.50822" lon="6.70868">
        <ele>2135.6000976562</ele>
        <time>2012-07-28T08:23:37Z</time>
      </trkpt>
      <trkpt lat="45.50802" lon="6.70868">
        <ele>2134.6000976562</ele>
        <time>2012-07-28T08:23:43Z</time>
      </trkpt>
      <trkpt lat="45.50784" lon="6.70861">
        <ele>2133.6000976562</ele>
        <time>2012-07-28T08:23:49Z</time>
      </trkpt>
      <trkpt lat="45.50766" lon="6.70854">
        <ele>2132.1999511719</ele>
        <time>2012-07-28T08:23:56Z</time>
      </trkpt>
      <trkpt lat="45.50747" lon="6.70854">
        <ele>2130.6000976562</ele>
        <time>2012-07-28T08:24:03Z</time>
      </trkpt>
      <trkpt lat="45.50727" lon="6.70856">
        <ele>2129</ele>
        <time>2012-07-28T08:24:09Z</time>
      </trkpt>
      <trkpt lat="45.5071" lon="6.70867">
        <ele>2127.3999023438</ele>
        <time>2012-07-28T08:24:15Z</time>
      </trkpt>
      <trkpt lat="45.50695" lon="6.70882">
        <ele>2125.8000488281</ele>
        <time>2012-07-28T08:24:21Z</time>
      </trkpt>
      <trkpt lat="45.50687" lon="6.70878">
        <ele>2124.6000976562</ele>
        <time>2012-07-28T08:24:25Z</time>
      </trkpt>
      <trkpt lat="45.50684" lon="6.70869">
        <ele>2123.8000488281</ele>
        <time>2012-07-28T08:24:28Z</time>
      </trkpt>
      <trkpt lat="45.50683" lon="6.70866">
        <ele>2123.3999023438</ele>
        <time>2012-07-28T08:24:29Z</time>
      </trkpt>
      <trkpt lat="45.50682" lon="6.70859">
        <ele>2122.8000488281</ele>
        <time>2012-07-28T08:24:31Z</time>
      </trkpt>
      <trkpt lat="45.50683" lon="6.70847">
        <ele>2121.1999511719</ele>
        <time>2012-07-28T08:24:36Z</time>
      </trkpt>
      <trkpt lat="45.50683" lon="6.70838">
        <ele>2120.1999511719</ele>
        <time>2012-07-28T08:24:39Z</time>
      </trkpt>
      <trkpt lat="45.50681" lon="6.7083">
        <ele>2119.1999511719</ele>
        <time>2012-07-28T08:24:42Z</time>
      </trkpt>
      <trkpt lat="45.50687" lon="6.70822">
        <ele>2111.8000488281</ele>
        <time>2012-07-28T08:25:05Z</time>
      </trkpt>
      <trkpt lat="45.50688" lon="6.70821">
        <ele>2081.3999023438</ele>
        <time>2012-07-28T08:29:30Z</time>
      </trkpt>
      <trkpt lat="45.50678" lon="6.70823">
        <ele>2081</ele>
        <time>2012-07-28T08:29:52Z</time>
      </trkpt>
      <trkpt lat="45.50681" lon="6.70818">
        <ele>2080.8000488281</ele>
        <time>2012-07-28T08:30:03Z</time>
      </trkpt>
      <trkpt lat="45.50673" lon="6.70797">
        <ele>2080.3999023438</ele>
        <time>2012-07-28T08:30:10Z</time>
      </trkpt>
      <trkpt lat="45.50667" lon="6.70771">
        <ele>2080.1999511719</ele>
        <time>2012-07-28T08:30:17Z</time>
      </trkpt>
      <trkpt lat="45.5066" lon="6.70744">
        <ele>2079.8000488281</ele>
        <time>2012-07-28T08:30:24Z</time>
      </trkpt>
      <trkpt lat="45.50653" lon="6.7072">
        <ele>2079.1999511719</ele>
        <time>2012-07-28T08:30:31Z</time>
      </trkpt>
      <trkpt lat="45.50652" lon="6.70693">
        <ele>2078.3999023438</ele>
        <time>2012-07-28T08:30:38Z</time>
      </trkpt>
      <trkpt lat="45.50658" lon="6.70665">
        <ele>2077.6000976562</ele>
        <time>2012-07-28T08:30:45Z</time>
      </trkpt>
      <trkpt lat="45.50661" lon="6.70636">
        <ele>2076.8000488281</ele>
        <time>2012-07-28T08:30:52Z</time>
      </trkpt>
      <trkpt lat="45.50668" lon="6.70608">
        <ele>2075.6000976562</ele>
        <time>2012-07-28T08:30:59Z</time>
      </trkpt>
      <trkpt lat="45.50682" lon="6.70589">
        <ele>2074.6000976562</ele>
        <time>2012-07-28T08:31:06Z</time>
      </trkpt>
      <trkpt lat="45.50698" lon="6.7057">
        <ele>2073.1999511719</ele>
        <time>2012-07-28T08:31:13Z</time>
      </trkpt>
      <trkpt lat="45.50709" lon="6.70547">
        <ele>2071.8000488281</ele>
        <time>2012-07-28T08:31:20Z</time>
      </trkpt>
      <trkpt lat="45.50716" lon="6.70521">
        <ele>2070.1999511719</ele>
        <time>2012-07-28T08:31:27Z</time>
      </trkpt>
      <trkpt lat="45.50719" lon="6.70515">
        <ele>2069.6000976562</ele>
        <time>2012-07-28T08:31:29Z</time>
      </trkpt>
      <trkpt lat="45.50733" lon="6.70512">
        <ele>2068.6000976562</ele>
        <time>2012-07-28T08:31:34Z</time>
      </trkpt>
      <trkpt lat="45.50753" lon="6.70512">
        <ele>2066.1999511719</ele>
        <time>2012-07-28T08:31:43Z</time>
      </trkpt>
      <trkpt lat="45.50771" lon="6.70508">
        <ele>2064</ele>
        <time>2012-07-28T08:31:51Z</time>
      </trkpt>
      <trkpt lat="45.50788" lon="6.70499">
        <ele>2062</ele>
        <time>2012-07-28T08:31:58Z</time>
      </trkpt>
      <trkpt lat="45.50804" lon="6.70486">
        <ele>2060</ele>
        <time>2012-07-28T08:32:05Z</time>
      </trkpt>
      <trkpt lat="45.5082" lon="6.70472">
        <ele>2057.8000488281</ele>
        <time>2012-07-28T08:32:12Z</time>
      </trkpt>
      <trkpt lat="45.50836" lon="6.70455">
        <ele>2055.3999023438</ele>
        <time>2012-07-28T08:32:20Z</time>
      </trkpt>
      <trkpt lat="45.50853" lon="6.7044">
        <ele>2052.8000488281</ele>
        <time>2012-07-28T08:32:28Z</time>
      </trkpt>
      <trkpt lat="45.50866" lon="6.70422">
        <ele>2050</ele>
        <time>2012-07-28T08:32:36Z</time>
      </trkpt>
      <trkpt lat="45.50879" lon="6.70402">
        <ele>2046.8000488281</ele>
        <time>2012-07-28T08:32:44Z</time>
      </trkpt>
      <trkpt lat="45.5089" lon="6.70382">
        <ele>2044</ele>
        <time>2012-07-28T08:32:51Z</time>
      </trkpt>
      <trkpt lat="45.50904" lon="6.70364">
        <ele>2040.8000488281</ele>
        <time>2012-07-28T08:32:58Z</time>
      </trkpt>
      <trkpt lat="45.50916" lon="6.70344">
        <ele>2038.1999511719</ele>
        <time>2012-07-28T08:33:04Z</time>
      </trkpt>
      <trkpt lat="45.50927" lon="6.70324">
        <ele>2035.4000244141</ele>
        <time>2012-07-28T08:33:10Z</time>
      </trkpt>
      <trkpt lat="45.5094" lon="6.70305">
        <ele>2032.5999755859</ele>
        <time>2012-07-28T08:33:16Z</time>
      </trkpt>
      <trkpt lat="45.50953" lon="6.70287">
        <ele>2030</ele>
        <time>2012-07-28T08:33:22Z</time>
      </trkpt>
      <trkpt lat="45.50967" lon="6.70266">
        <ele>2027.4000244141</ele>
        <time>2012-07-28T08:33:28Z</time>
      </trkpt>
      <trkpt lat="45.5098" lon="6.70245">
        <ele>2024.8000488281</ele>
        <time>2012-07-28T08:33:34Z</time>
      </trkpt>
      <trkpt lat="45.50991" lon="6.70224">
        <ele>2022.1999511719</ele>
        <time>2012-07-28T08:33:40Z</time>
      </trkpt>
      <trkpt lat="45.51006" lon="6.70207">
        <ele>2019.8000488281</ele>
        <time>2012-07-28T08:33:46Z</time>
      </trkpt>
      <trkpt lat="45.5102" lon="6.7019">
        <ele>2017.4000244141</ele>
        <time>2012-07-28T08:33:52Z</time>
      </trkpt>
      <trkpt lat="45.51031" lon="6.70166">
        <ele>2015</ele>
        <time>2012-07-28T08:33:58Z</time>
      </trkpt>
      <trkpt lat="45.51046" lon="6.70146">
        <ele>2012.5999755859</ele>
        <time>2012-07-28T08:34:04Z</time>
      </trkpt>
      <trkpt lat="45.5106" lon="6.70127">
        <ele>2010.4000244141</ele>
        <time>2012-07-28T08:34:10Z</time>
      </trkpt>
      <trkpt lat="45.51074" lon="6.70108">
        <ele>2008</ele>
        <time>2012-07-28T08:34:16Z</time>
      </trkpt>
      <trkpt lat="45.51087" lon="6.70087">
        <ele>2005.8000488281</ele>
        <time>2012-07-28T08:34:22Z</time>
      </trkpt>
      <trkpt lat="45.51097" lon="6.70062">
        <ele>2003.4000244141</ele>
        <time>2012-07-28T08:34:28Z</time>
      </trkpt>
      <trkpt lat="45.51107" lon="6.70038">
        <ele>2001.1999511719</ele>
        <time>2012-07-28T08:34:34Z</time>
      </trkpt>
      <trkpt lat="45.51115" lon="6.70014">
        <ele>1999</ele>
        <time>2012-07-28T08:34:40Z</time>
      </trkpt>
      <trkpt lat="45.51129" lon="6.69995">
        <ele>1996.8000488281</ele>
        <time>2012-07-28T08:34:46Z</time>
      </trkpt>
      <trkpt lat="45.51142" lon="6.69978">
        <ele>1994.5999755859</ele>
        <time>2012-07-28T08:34:52Z</time>
      </trkpt>
      <trkpt lat="45.51153" lon="6.69957">
        <ele>1992.4000244141</ele>
        <time>2012-07-28T08:34:58Z</time>
      </trkpt>
      <trkpt lat="45.51163" lon="6.69935">
        <ele>1990.1999511719</ele>
        <time>2012-07-28T08:35:04Z</time>
      </trkpt>
      <trkpt lat="45.51177" lon="6.69912">
        <ele>1987.8000488281</ele>
        <time>2012-07-28T08:35:10Z</time>
      </trkpt>
      <trkpt lat="45.51186" lon="6.69889">
        <ele>1985.5999755859</ele>
        <time>2012-07-28T08:35:16Z</time>
      </trkpt>
      <trkpt lat="45.5119" lon="6.69862">
        <ele>1983.4000244141</ele>
        <time>2012-07-28T08:35:22Z</time>
      </trkpt>
      <trkpt lat="45.51196" lon="6.69837">
        <ele>1981</ele>
        <time>2012-07-28T08:35:28Z</time>
      </trkpt>
      <trkpt lat="45.5121" lon="6.69818">
        <ele>1978.4000244141</ele>
        <time>2012-07-28T08:35:35Z</time>
      </trkpt>
      <trkpt lat="45.51227" lon="6.69803">
        <ele>1975.8000488281</ele>
        <time>2012-07-28T08:35:42Z</time>
      </trkpt>
      <trkpt lat="45.51247" lon="6.69799">
        <ele>1973.4000244141</ele>
        <time>2012-07-28T08:35:48Z</time>
      </trkpt>
      <trkpt lat="45.51263" lon="6.69799">
        <ele>1970.5999755859</ele>
        <time>2012-07-28T08:35:55Z</time>
      </trkpt>
      <trkpt lat="45.51266" lon="6.69799">
        <ele>1969</ele>
        <time>2012-07-28T08:35:59Z</time>
      </trkpt>
      <trkpt lat="45.51271" lon="6.698">
        <ele>1967.4000244141</ele>
        <time>2012-07-28T08:36:03Z</time>
      </trkpt>
      <trkpt lat="45.51272" lon="6.69805">
        <ele>1965.4000244141</ele>
        <time>2012-07-28T08:36:08Z</time>
      </trkpt>
      <trkpt lat="45.51274" lon="6.69804">
        <ele>1964.1999511719</ele>
        <time>2012-07-28T08:36:11Z</time>
      </trkpt>
      <trkpt lat="45.51279" lon="6.69802">
        <ele>1963</ele>
        <time>2012-07-28T08:36:15Z</time>
      </trkpt>
      <trkpt lat="45.51281" lon="6.69803">
        <ele>1962.5999755859</ele>
        <time>2012-07-28T08:36:16Z</time>
      </trkpt>
      <trkpt lat="45.51281" lon="6.698">
        <ele>1961.4000244141</ele>
        <time>2012-07-28T08:36:19Z</time>
      </trkpt>
      <trkpt lat="45.51276" lon="6.69799">
        <ele>1952</ele>
        <time>2012-07-28T08:36:56Z</time>
      </trkpt>
      <trkpt lat="45.51281" lon="6.69795">
        <ele>1948.5999755859</ele>
        <time>2012-07-28T08:37:15Z</time>
      </trkpt>
      <trkpt lat="45.51283" lon="6.69794">
        <ele>1948.1999511719</ele>
        <time>2012-07-28T08:37:17Z</time>
      </trkpt>
      <trkpt lat="45.51293" lon="6.69784">
        <ele>1945.8000488281</ele>
        <time>2012-07-28T08:37:33Z</time>
      </trkpt>
      <trkpt lat="45.51297" lon="6.69783">
        <ele>1945.1999511719</ele>
        <time>2012-07-28T08:37:37Z</time>
      </trkpt>
      <trkpt lat="45.51299" lon="6.69782">
        <ele>1945</ele>
        <time>2012-07-28T08:37:39Z</time>
      </trkpt>
      <trkpt lat="45.51301" lon="6.6978">
        <ele>1944.5999755859</ele>
        <time>2012-07-28T08:37:41Z</time>
      </trkpt>
      <trkpt lat="45.5131" lon="6.69766">
        <ele>1943.4000244141</ele>
        <time>2012-07-28T08:37:50Z</time>
      </trkpt>
      <trkpt lat="45.51313" lon="6.69762">
        <ele>1943.1999511719</ele>
        <time>2012-07-28T08:37:53Z</time>
      </trkpt>
      <trkpt lat="45.51325" lon="6.69763">
        <ele>1942</ele>
        <time>2012-07-28T08:38:08Z</time>
      </trkpt>
      <trkpt lat="45.51341" lon="6.69778">
        <ele>1941.1999511719</ele>
        <time>2012-07-28T08:38:20Z</time>
      </trkpt>
      <trkpt lat="45.51358" lon="6.69789">
        <ele>1940.4000244141</ele>
        <time>2012-07-28T08:38:33Z</time>
      </trkpt>
      <trkpt lat="45.51371" lon="6.69789">
        <ele>1940</ele>
        <time>2012-07-28T08:38:42Z</time>
      </trkpt>
      <trkpt lat="45.51377" lon="6.69789">
        <ele>1939.8000488281</ele>
        <time>2012-07-28T08:38:46Z</time>
      </trkpt>
      <trkpt lat="45.51395" lon="6.69784">
        <ele>1939.5999755859</ele>
        <time>2012-07-28T08:38:54Z</time>
      </trkpt>
      <trkpt lat="45.51406" lon="6.69761">
        <ele>1939.8000488281</ele>
        <time>2012-07-28T08:39:03Z</time>
      </trkpt>
      <trkpt lat="45.51425" lon="6.6975">
        <ele>1939.8000488281</ele>
        <time>2012-07-28T08:39:11Z</time>
      </trkpt>
      <trkpt lat="45.51443" lon="6.69752">
        <ele>1940</ele>
        <time>2012-07-28T08:39:18Z</time>
      </trkpt>
      <trkpt lat="45.51463" lon="6.69763">
        <ele>1939.5999755859</ele>
        <time>2012-07-28T08:39:25Z</time>
      </trkpt>
      <trkpt lat="45.5148" lon="6.6977">
        <ele>1939</ele>
        <time>2012-07-28T08:39:31Z</time>
      </trkpt>
      <trkpt lat="45.51499" lon="6.69765">
        <ele>1938.1999511719</ele>
        <time>2012-07-28T08:39:38Z</time>
      </trkpt>
      <trkpt lat="45.51516" lon="6.69748">
        <ele>1937.4000244141</ele>
        <time>2012-07-28T08:39:45Z</time>
      </trkpt>
      <trkpt lat="45.51529" lon="6.69726">
        <ele>1936.4000244141</ele>
        <time>2012-07-28T08:39:52Z</time>
      </trkpt>
      <trkpt lat="45.51538" lon="6.69699">
        <ele>1935.4000244141</ele>
        <time>2012-07-28T08:39:59Z</time>
      </trkpt>
      <trkpt lat="45.51542" lon="6.69673">
        <ele>1934.8000488281</ele>
        <time>2012-07-28T08:40:05Z</time>
      </trkpt>
      <trkpt lat="45.51547" lon="6.69648">
        <ele>1934</ele>
        <time>2012-07-28T08:40:11Z</time>
      </trkpt>
      <trkpt lat="45.51553" lon="6.69622">
        <ele>1932.8000488281</ele>
        <time>2012-07-28T08:40:18Z</time>
      </trkpt>
      <trkpt lat="45.51557" lon="6.69597">
        <ele>1931.8000488281</ele>
        <time>2012-07-28T08:40:24Z</time>
      </trkpt>
      <trkpt lat="45.51563" lon="6.69571">
        <ele>1930.8000488281</ele>
        <time>2012-07-28T08:40:30Z</time>
      </trkpt>
      <trkpt lat="45.51569" lon="6.69547">
        <ele>1929.8000488281</ele>
        <time>2012-07-28T08:40:36Z</time>
      </trkpt>
      <trkpt lat="45.51573" lon="6.69522">
        <ele>1928.8000488281</ele>
        <time>2012-07-28T08:40:42Z</time>
      </trkpt>
      <trkpt lat="45.51574" lon="6.69495">
        <ele>1927.5999755859</ele>
        <time>2012-07-28T08:40:48Z</time>
      </trkpt>
      <trkpt lat="45.51569" lon="6.69469">
        <ele>1926.5999755859</ele>
        <time>2012-07-28T08:40:55Z</time>
      </trkpt>
      <trkpt lat="45.51556" lon="6.6945">
        <ele>1925.4000244141</ele>
        <time>2012-07-28T08:41:02Z</time>
      </trkpt>
      <trkpt lat="45.51536" lon="6.69446">
        <ele>1924.4000244141</ele>
        <time>2012-07-28T08:41:09Z</time>
      </trkpt>
      <trkpt lat="45.51516" lon="6.69452">
        <ele>1923.5999755859</ele>
        <time>2012-07-28T08:41:16Z</time>
      </trkpt>
      <trkpt lat="45.51503" lon="6.69462">
        <ele>1923.1999511719</ele>
        <time>2012-07-28T08:41:21Z</time>
      </trkpt>
      <trkpt lat="45.51499" lon="6.69456">
        <ele>1922.8000488281</ele>
        <time>2012-07-28T08:41:23Z</time>
      </trkpt>
      <trkpt lat="45.51502" lon="6.69442">
        <ele>1922.1999511719</ele>
        <time>2012-07-28T08:41:26Z</time>
      </trkpt>
      <trkpt lat="45.51506" lon="6.6943">
        <ele>1921.5999755859</ele>
        <time>2012-07-28T08:41:29Z</time>
      </trkpt>
      <trkpt lat="45.51523" lon="6.69413">
        <ele>1920</ele>
        <time>2012-07-28T08:41:36Z</time>
      </trkpt>
      <trkpt lat="45.51541" lon="6.69408">
        <ele>1918.4000244141</ele>
        <time>2012-07-28T08:41:42Z</time>
      </trkpt>
      <trkpt lat="45.51559" lon="6.69402">
        <ele>1916.8000488281</ele>
        <time>2012-07-28T08:41:48Z</time>
      </trkpt>
      <trkpt lat="45.51576" lon="6.69392">
        <ele>1915</ele>
        <time>2012-07-28T08:41:54Z</time>
      </trkpt>
      <trkpt lat="45.51595" lon="6.69381">
        <ele>1913</ele>
        <time>2012-07-28T08:42:01Z</time>
      </trkpt>
      <trkpt lat="45.51612" lon="6.69373">
        <ele>1911</ele>
        <time>2012-07-28T08:42:07Z</time>
      </trkpt>
      <trkpt lat="45.51628" lon="6.69359">
        <ele>1909.1999511719</ele>
        <time>2012-07-28T08:42:13Z</time>
      </trkpt>
      <trkpt lat="45.51648" lon="6.6935">
        <ele>1907.4000244141</ele>
        <time>2012-07-28T08:42:19Z</time>
      </trkpt>
      <trkpt lat="45.51665" lon="6.69341">
        <ele>1906.1999511719</ele>
        <time>2012-07-28T08:42:24Z</time>
      </trkpt>
      <trkpt lat="45.51667" lon="6.69339">
        <ele>1906</ele>
        <time>2012-07-28T08:42:25Z</time>
      </trkpt>
      <trkpt lat="45.51688" lon="6.69331">
        <ele>1904</ele>
        <time>2012-07-28T08:42:32Z</time>
      </trkpt>
      <trkpt lat="45.51706" lon="6.69325">
        <ele>1902.8000488281</ele>
        <time>2012-07-28T08:42:37Z</time>
      </trkpt>
      <trkpt lat="45.51723" lon="6.69314">
        <ele>1901.4000244141</ele>
        <time>2012-07-28T08:42:43Z</time>
      </trkpt>
      <trkpt lat="45.51741" lon="6.69305">
        <ele>1900</ele>
        <time>2012-07-28T08:42:49Z</time>
      </trkpt>
      <trkpt lat="45.51759" lon="6.69297">
        <ele>1898.4000244141</ele>
        <time>2012-07-28T08:42:55Z</time>
      </trkpt>
      <trkpt lat="45.51776" lon="6.69279">
        <ele>1897.1999511719</ele>
        <time>2012-07-28T08:43:01Z</time>
      </trkpt>
      <trkpt lat="45.51795" lon="6.69271">
        <ele>1895.1999511719</ele>
        <time>2012-07-28T08:43:08Z</time>
      </trkpt>
      <trkpt lat="45.51813" lon="6.69263">
        <ele>1893.1999511719</ele>
        <time>2012-07-28T08:43:14Z</time>
      </trkpt>
      <trkpt lat="45.5183" lon="6.6925">
        <ele>1891.4000244141</ele>
        <time>2012-07-28T08:43:20Z</time>
      </trkpt>
      <trkpt lat="45.51846" lon="6.69233">
        <ele>1889.4000244141</ele>
        <time>2012-07-28T08:43:27Z</time>
      </trkpt>
      <trkpt lat="45.51859" lon="6.69214">
        <ele>1887.5999755859</ele>
        <time>2012-07-28T08:43:34Z</time>
      </trkpt>
      <trkpt lat="45.51876" lon="6.69199">
        <ele>1885.5999755859</ele>
        <time>2012-07-28T08:43:42Z</time>
      </trkpt>
      <trkpt lat="45.51894" lon="6.69191">
        <ele>1883.4000244141</ele>
        <time>2012-07-28T08:43:54Z</time>
      </trkpt>
      <trkpt lat="45.51904" lon="6.69186">
        <ele>1882.1999511719</ele>
        <time>2012-07-28T08:44:01Z</time>
      </trkpt>
      <trkpt lat="45.51912" lon="6.69184">
        <ele>1881.4000244141</ele>
        <time>2012-07-28T08:44:06Z</time>
      </trkpt>
      <trkpt lat="45.51919" lon="6.69183">
        <ele>1880.8000488281</ele>
        <time>2012-07-28T08:44:10Z</time>
      </trkpt>
      <trkpt lat="45.51931" lon="6.69176">
        <ele>1879.4000244141</ele>
        <time>2012-07-28T08:44:19Z</time>
      </trkpt>
      <trkpt lat="45.51944" lon="6.69159">
        <ele>1877.8000488281</ele>
        <time>2012-07-28T08:44:32Z</time>
      </trkpt>
      <trkpt lat="45.51959" lon="6.69147">
        <ele>1877.1999511719</ele>
        <time>2012-07-28T08:44:47Z</time>
      </trkpt>
      <trkpt lat="45.51962" lon="6.69146">
        <ele>1877.1999511719</ele>
        <time>2012-07-28T08:44:49Z</time>
      </trkpt>
      <trkpt lat="45.51977" lon="6.69132">
        <ele>1877</ele>
        <time>2012-07-28T08:45:01Z</time>
      </trkpt>
      <trkpt lat="45.51988" lon="6.69109">
        <ele>1876.8000488281</ele>
        <time>2012-07-28T08:45:15Z</time>
      </trkpt>
      <trkpt lat="45.52005" lon="6.69094">
        <ele>1876.5999755859</ele>
        <time>2012-07-28T08:45:23Z</time>
      </trkpt>
      <trkpt lat="45.52017" lon="6.69073">
        <ele>1877.1999511719</ele>
        <time>2012-07-28T08:45:30Z</time>
      </trkpt>
      <trkpt lat="45.52028" lon="6.69053">
        <ele>1877.8000488281</ele>
        <time>2012-07-28T08:45:36Z</time>
      </trkpt>
      <trkpt lat="45.52038" lon="6.69028">
        <ele>1878.5999755859</ele>
        <time>2012-07-28T08:45:43Z</time>
      </trkpt>
      <trkpt lat="45.52053" lon="6.6901">
        <ele>1879.4000244141</ele>
        <time>2012-07-28T08:45:50Z</time>
      </trkpt>
      <trkpt lat="45.5207" lon="6.69">
        <ele>1880</ele>
        <time>2012-07-28T08:45:57Z</time>
      </trkpt>
      <trkpt lat="45.52088" lon="6.68992">
        <ele>1881.1999511719</ele>
        <time>2012-07-28T08:46:04Z</time>
      </trkpt>
      <trkpt lat="45.52103" lon="6.68978">
        <ele>1881.8000488281</ele>
        <time>2012-07-28T08:46:13Z</time>
      </trkpt>
      <trkpt lat="45.52105" lon="6.68974">
        <ele>1881.8000488281</ele>
        <time>2012-07-28T08:46:15Z</time>
      </trkpt>
      <trkpt lat="45.52111" lon="6.68954">
        <ele>1881.8000488281</ele>
        <time>2012-07-28T08:46:23Z</time>
      </trkpt>
      <trkpt lat="45.52125" lon="6.68933">
        <ele>1881.8000488281</ele>
        <time>2012-07-28T08:46:32Z</time>
      </trkpt>
      <trkpt lat="45.5214" lon="6.68915">
        <ele>1882</ele>
        <time>2012-07-28T08:46:40Z</time>
      </trkpt>
      <trkpt lat="45.52148" lon="6.6889">
        <ele>1884</ele>
        <time>2012-07-28T08:46:48Z</time>
      </trkpt>
      <trkpt lat="45.52155" lon="6.68865">
        <ele>1886.4000244141</ele>
        <time>2012-07-28T08:46:56Z</time>
      </trkpt>
      <trkpt lat="45.52165" lon="6.68842">
        <ele>1889.5999755859</ele>
        <time>2012-07-28T08:47:09Z</time>
      </trkpt>
      <trkpt lat="45.52182" lon="6.68834">
        <ele>1891.5999755859</ele>
        <time>2012-07-28T08:47:20Z</time>
      </trkpt>
      <trkpt lat="45.52201" lon="6.68836">
        <ele>1893.5999755859</ele>
        <time>2012-07-28T08:47:28Z</time>
      </trkpt>
      <trkpt lat="45.52219" lon="6.68825">
        <ele>1895.8000488281</ele>
        <time>2012-07-28T08:47:36Z</time>
      </trkpt>
      <trkpt lat="45.52236" lon="6.68815">
        <ele>1896.8000488281</ele>
        <time>2012-07-28T08:47:43Z</time>
      </trkpt>
      <trkpt lat="45.52255" lon="6.68807">
        <ele>1897.8000488281</ele>
        <time>2012-07-28T08:47:51Z</time>
      </trkpt>
      <trkpt lat="45.52272" lon="6.68791">
        <ele>1898</ele>
        <time>2012-07-28T08:47:59Z</time>
      </trkpt>
      <trkpt lat="45.52281" lon="6.68769">
        <ele>1898</ele>
        <time>2012-07-28T08:48:06Z</time>
      </trkpt>
      <trkpt lat="45.52291" lon="6.68744">
        <ele>1897.5999755859</ele>
        <time>2012-07-28T08:48:14Z</time>
      </trkpt>
      <trkpt lat="45.52307" lon="6.68728">
        <ele>1897.5999755859</ele>
        <time>2012-07-28T08:48:21Z</time>
      </trkpt>
      <trkpt lat="45.52321" lon="6.6871">
        <ele>1897.8000488281</ele>
        <time>2012-07-28T08:48:28Z</time>
      </trkpt>
      <trkpt lat="45.52325" lon="6.68683">
        <ele>1897.8000488281</ele>
        <time>2012-07-28T08:48:34Z</time>
      </trkpt>
      <trkpt lat="45.52332" lon="6.68657">
        <ele>1898.1999511719</ele>
        <time>2012-07-28T08:48:41Z</time>
      </trkpt>
      <trkpt lat="45.52345" lon="6.68638">
        <ele>1898.4000244141</ele>
        <time>2012-07-28T08:48:48Z</time>
      </trkpt>
      <trkpt lat="45.52362" lon="6.68623">
        <ele>1898.5999755859</ele>
        <time>2012-07-28T08:48:55Z</time>
      </trkpt>
      <trkpt lat="45.52375" lon="6.68605">
        <ele>1899</ele>
        <time>2012-07-28T08:49:01Z</time>
      </trkpt>
      <trkpt lat="45.52393" lon="6.68591">
        <ele>1899</ele>
        <time>2012-07-28T08:49:08Z</time>
      </trkpt>
      <trkpt lat="45.52394" lon="6.68589">
        <ele>1899.1999511719</ele>
        <time>2012-07-28T08:49:09Z</time>
      </trkpt>
      <trkpt lat="45.52401" lon="6.68575">
        <ele>1899.1999511719</ele>
        <time>2012-07-28T08:49:13Z</time>
      </trkpt>
      <trkpt lat="45.52402" lon="6.68571">
        <ele>1899.1999511719</ele>
        <time>2012-07-28T08:49:14Z</time>
      </trkpt>
      <trkpt lat="45.52417" lon="6.68555">
        <ele>1899</ele>
        <time>2012-07-28T08:49:20Z</time>
      </trkpt>
      <trkpt lat="45.52433" lon="6.6854">
        <ele>1899</ele>
        <time>2012-07-28T08:49:27Z</time>
      </trkpt>
      <trkpt lat="45.52451" lon="6.68528">
        <ele>1898.8000488281</ele>
        <time>2012-07-28T08:49:34Z</time>
      </trkpt>
      <trkpt lat="45.52465" lon="6.6851">
        <ele>1899.1999511719</ele>
        <time>2012-07-28T08:49:41Z</time>
      </trkpt>
      <trkpt lat="45.5248" lon="6.68491">
        <ele>1899.4000244141</ele>
        <time>2012-07-28T08:49:48Z</time>
      </trkpt>
      <trkpt lat="45.52497" lon="6.68477">
        <ele>1899.5999755859</ele>
        <time>2012-07-28T08:49:55Z</time>
      </trkpt>
      <trkpt lat="45.52517" lon="6.68475">
        <ele>1900.5999755859</ele>
        <time>2012-07-28T08:50:03Z</time>
      </trkpt>
      <trkpt lat="45.52535" lon="6.6847">
        <ele>1901.5999755859</ele>
        <time>2012-07-28T08:50:09Z</time>
      </trkpt>
      <trkpt lat="45.52552" lon="6.6846">
        <ele>1901.8000488281</ele>
        <time>2012-07-28T08:50:16Z</time>
      </trkpt>
      <trkpt lat="45.52565" lon="6.68442">
        <ele>1901.5999755859</ele>
        <time>2012-07-28T08:50:23Z</time>
      </trkpt>
      <trkpt lat="45.52578" lon="6.68424">
        <ele>1901.5999755859</ele>
        <time>2012-07-28T08:50:30Z</time>
      </trkpt>
      <trkpt lat="45.52597" lon="6.68416">
        <ele>1901.4000244141</ele>
        <time>2012-07-28T08:50:37Z</time>
      </trkpt>
      <trkpt lat="45.52617" lon="6.68415">
        <ele>1901</ele>
        <time>2012-07-28T08:50:44Z</time>
      </trkpt>
      <trkpt lat="45.52635" lon="6.68427">
        <ele>1900.4000244141</ele>
        <time>2012-07-28T08:50:50Z</time>
      </trkpt>
      <trkpt lat="45.5264" lon="6.68432">
        <ele>1900</ele>
        <time>2012-07-28T08:50:52Z</time>
      </trkpt>
      <trkpt lat="45.52652" lon="6.68443">
        <ele>1899.5999755859</ele>
        <time>2012-07-28T08:50:56Z</time>
      </trkpt>
      <trkpt lat="45.52654" lon="6.68445">
        <ele>1899.4000244141</ele>
        <time>2012-07-28T08:50:57Z</time>
      </trkpt>
      <trkpt lat="45.52667" lon="6.68458">
        <ele>1898.5999755859</ele>
        <time>2012-07-28T08:51:02Z</time>
      </trkpt>
      <trkpt lat="45.52678" lon="6.68469">
        <ele>1898</ele>
        <time>2012-07-28T08:51:06Z</time>
      </trkpt>
      <trkpt lat="45.52683" lon="6.68476">
        <ele>1897.8000488281</ele>
        <time>2012-07-28T08:51:08Z</time>
      </trkpt>
      <trkpt lat="45.52689" lon="6.68501">
        <ele>1896.8000488281</ele>
        <time>2012-07-28T08:51:14Z</time>
      </trkpt>
      <trkpt lat="45.52685" lon="6.68528">
        <ele>1895.8000488281</ele>
        <time>2012-07-28T08:51:20Z</time>
      </trkpt>
      <trkpt lat="45.52683" lon="6.68556">
        <ele>1894.8000488281</ele>
        <time>2012-07-28T08:51:26Z</time>
      </trkpt>
      <trkpt lat="45.52692" lon="6.68579">
        <ele>1893.5999755859</ele>
        <time>2012-07-28T08:51:32Z</time>
      </trkpt>
      <trkpt lat="45.527" lon="6.68601">
        <ele>1892.5999755859</ele>
        <time>2012-07-28T08:51:38Z</time>
      </trkpt>
      <trkpt lat="45.52702" lon="6.6863">
        <ele>1891.4000244141</ele>
        <time>2012-07-28T08:51:45Z</time>
      </trkpt>
      <trkpt lat="45.52712" lon="6.68651">
        <ele>1890.1999511719</ele>
        <time>2012-07-28T08:51:51Z</time>
      </trkpt>
      <trkpt lat="45.52728" lon="6.68669">
        <ele>1889.1999511719</ele>
        <time>2012-07-28T08:51:58Z</time>
      </trkpt>
      <trkpt lat="45.52743" lon="6.68684">
        <ele>1888.4000244141</ele>
        <time>2012-07-28T08:52:04Z</time>
      </trkpt>
      <trkpt lat="45.52757" lon="6.68701">
        <ele>1887.1999511719</ele>
        <time>2012-07-28T08:52:11Z</time>
      </trkpt>
      <trkpt lat="45.52773" lon="6.68715">
        <ele>1886.5999755859</ele>
        <time>2012-07-28T08:52:17Z</time>
      </trkpt>
      <trkpt lat="45.52789" lon="6.68731">
        <ele>1886</ele>
        <time>2012-07-28T08:52:23Z</time>
      </trkpt>
      <trkpt lat="45.52802" lon="6.68753">
        <ele>1885.4000244141</ele>
        <time>2012-07-28T08:52:29Z</time>
      </trkpt>
      <trkpt lat="45.52805" lon="6.68779">
        <ele>1884.5999755859</ele>
        <time>2012-07-28T08:52:35Z</time>
      </trkpt>
      <trkpt lat="45.52805" lon="6.68805">
        <ele>1883.4000244141</ele>
        <time>2012-07-28T08:52:41Z</time>
      </trkpt>
      <trkpt lat="45.52805" lon="6.68832">
        <ele>1882.1999511719</ele>
        <time>2012-07-28T08:52:47Z</time>
      </trkpt>
      <trkpt lat="45.52798" lon="6.6886">
        <ele>1880.8000488281</ele>
        <time>2012-07-28T08:52:54Z</time>
      </trkpt>
      <trkpt lat="45.52794" lon="6.68886">
        <ele>1879.8000488281</ele>
        <time>2012-07-28T08:53:00Z</time>
      </trkpt>
      <trkpt lat="45.52794" lon="6.68913">
        <ele>1878.5999755859</ele>
        <time>2012-07-28T08:53:06Z</time>
      </trkpt>
      <trkpt lat="45.52796" lon="6.68939">
        <ele>1877.5999755859</ele>
        <time>2012-07-28T08:53:12Z</time>
      </trkpt>
      <trkpt lat="45.52797" lon="6.68967">
        <ele>1876.4000244141</ele>
        <time>2012-07-28T08:53:19Z</time>
      </trkpt>
      <trkpt lat="45.52794" lon="6.68995">
        <ele>1875.4000244141</ele>
        <time>2012-07-28T08:53:26Z</time>
      </trkpt>
      <trkpt lat="45.52788" lon="6.69022">
        <ele>1874.4000244141</ele>
        <time>2012-07-28T08:53:34Z</time>
      </trkpt>
      <trkpt lat="45.52785" lon="6.69035">
        <ele>1874</ele>
        <time>2012-07-28T08:53:39Z</time>
      </trkpt>
      <trkpt lat="45.52783" lon="6.69049">
        <ele>1873</ele>
        <time>2012-07-28T08:53:47Z</time>
      </trkpt>
      <trkpt lat="45.5278" lon="6.69075">
        <ele>1871.5999755859</ele>
        <time>2012-07-28T08:54:00Z</time>
      </trkpt>
      <trkpt lat="45.52791" lon="6.69097">
        <ele>1870.8000488281</ele>
        <time>2012-07-28T08:54:13Z</time>
      </trkpt>
      <trkpt lat="45.52796" lon="6.6911">
        <ele>1870.4000244141</ele>
        <time>2012-07-28T08:54:20Z</time>
      </trkpt>
      <trkpt lat="45.52801" lon="6.6912">
        <ele>1870.1999511719</ele>
        <time>2012-07-28T08:54:26Z</time>
      </trkpt>
      <trkpt lat="45.52808" lon="6.69133">
        <ele>1870</ele>
        <time>2012-07-28T08:54:34Z</time>
      </trkpt>
      <trkpt lat="45.52812" lon="6.6914">
        <ele>1870</ele>
        <time>2012-07-28T08:54:38Z</time>
      </trkpt>
      <trkpt lat="45.52822" lon="6.69156">
        <ele>1870.1999511719</ele>
        <time>2012-07-28T08:54:44Z</time>
      </trkpt>
      <trkpt lat="45.52825" lon="6.69162">
        <ele>1870.1999511719</ele>
        <time>2012-07-28T08:54:46Z</time>
      </trkpt>
      <trkpt lat="45.5284" lon="6.69182">
        <ele>1870.1999511719</ele>
        <time>2012-07-28T08:54:53Z</time>
      </trkpt>
      <trkpt lat="45.52856" lon="6.69197">
        <ele>1870.1999511719</ele>
        <time>2012-07-28T08:54:59Z</time>
      </trkpt>
      <trkpt lat="45.52872" lon="6.69211">
        <ele>1870.4000244141</ele>
        <time>2012-07-28T08:55:05Z</time>
      </trkpt>
      <trkpt lat="45.52887" lon="6.69226">
        <ele>1870.1999511719</ele>
        <time>2012-07-28T08:55:11Z</time>
      </trkpt>
      <trkpt lat="45.52904" lon="6.6924">
        <ele>1869.8000488281</ele>
        <time>2012-07-28T08:55:17Z</time>
      </trkpt>
      <trkpt lat="45.52921" lon="6.69251">
        <ele>1869.5999755859</ele>
        <time>2012-07-28T08:55:22Z</time>
      </trkpt>
      <trkpt lat="45.52938" lon="6.69266">
        <ele>1869.1999511719</ele>
        <time>2012-07-28T08:55:28Z</time>
      </trkpt>
      <trkpt lat="45.52954" lon="6.69278">
        <ele>1868.4000244141</ele>
        <time>2012-07-28T08:55:34Z</time>
      </trkpt>
      <trkpt lat="45.52972" lon="6.69293">
        <ele>1867.4000244141</ele>
        <time>2012-07-28T08:55:40Z</time>
      </trkpt>
      <trkpt lat="45.52989" lon="6.69305">
        <ele>1866.8000488281</ele>
        <time>2012-07-28T08:55:45Z</time>
      </trkpt>
      <trkpt lat="45.53007" lon="6.69318">
        <ele>1866</ele>
        <time>2012-07-28T08:55:51Z</time>
      </trkpt>
      <trkpt lat="45.53022" lon="6.69332">
        <ele>1865</ele>
        <time>2012-07-28T08:55:57Z</time>
      </trkpt>
      <trkpt lat="45.53042" lon="6.69337">
        <ele>1863.8000488281</ele>
        <time>2012-07-28T08:56:04Z</time>
      </trkpt>
      <trkpt lat="45.53058" lon="6.69348">
        <ele>1862.5999755859</ele>
        <time>2012-07-28T08:56:10Z</time>
      </trkpt>
      <trkpt lat="45.53064" lon="6.69375">
        <ele>1861</ele>
        <time>2012-07-28T08:56:17Z</time>
      </trkpt>
      <trkpt lat="45.53072" lon="6.694">
        <ele>1860</ele>
        <time>2012-07-28T08:56:23Z</time>
      </trkpt>
      <trkpt lat="45.53074" lon="6.69426">
        <ele>1858.8000488281</ele>
        <time>2012-07-28T08:56:30Z</time>
      </trkpt>
      <trkpt lat="45.53085" lon="6.69446">
        <ele>1857.5999755859</ele>
        <time>2012-07-28T08:56:37Z</time>
      </trkpt>
      <trkpt lat="45.53104" lon="6.69458">
        <ele>1856.8000488281</ele>
        <time>2012-07-28T08:56:44Z</time>
      </trkpt>
      <trkpt lat="45.53119" lon="6.69473">
        <ele>1856.1999511719</ele>
        <time>2012-07-28T08:56:51Z</time>
      </trkpt>
      <trkpt lat="45.53137" lon="6.69485">
        <ele>1855.5999755859</ele>
        <time>2012-07-28T08:56:58Z</time>
      </trkpt>
      <trkpt lat="45.53155" lon="6.69501">
        <ele>1855</ele>
        <time>2012-07-28T08:57:06Z</time>
      </trkpt>
      <trkpt lat="45.53157" lon="6.69503">
        <ele>1854.8000488281</ele>
        <time>2012-07-28T08:57:07Z</time>
      </trkpt>
      <trkpt lat="45.53172" lon="6.69514">
        <ele>1854.5999755859</ele>
        <time>2012-07-28T08:57:12Z</time>
      </trkpt>
      <trkpt lat="45.53189" lon="6.69528">
        <ele>1854</ele>
        <time>2012-07-28T08:57:18Z</time>
      </trkpt>
      <trkpt lat="45.53203" lon="6.69546">
        <ele>1853.5999755859</ele>
        <time>2012-07-28T08:57:24Z</time>
      </trkpt>
      <trkpt lat="45.53219" lon="6.6956">
        <ele>1852.8000488281</ele>
        <time>2012-07-28T08:57:30Z</time>
      </trkpt>
      <trkpt lat="45.53238" lon="6.69575">
        <ele>1852</ele>
        <time>2012-07-28T08:57:36Z</time>
      </trkpt>
      <trkpt lat="45.53255" lon="6.6959">
        <ele>1851.1999511719</ele>
        <time>2012-07-28T08:57:42Z</time>
      </trkpt>
      <trkpt lat="45.53271" lon="6.69602">
        <ele>1850.1999511719</ele>
        <time>2012-07-28T08:57:48Z</time>
      </trkpt>
      <trkpt lat="45.5329" lon="6.69604">
        <ele>1849.1999511719</ele>
        <time>2012-07-28T08:57:55Z</time>
      </trkpt>
      <trkpt lat="45.53308" lon="6.69611">
        <ele>1848.1999511719</ele>
        <time>2012-07-28T08:58:01Z</time>
      </trkpt>
      <trkpt lat="45.53318" lon="6.69622">
        <ele>1847.1999511719</ele>
        <time>2012-07-28T08:58:06Z</time>
      </trkpt>
      <trkpt lat="45.53322" lon="6.69628">
        <ele>1846.8000488281</ele>
        <time>2012-07-28T08:58:08Z</time>
      </trkpt>
      <trkpt lat="45.53336" lon="6.6965">
        <ele>1845.1999511719</ele>
        <time>2012-07-28T08:58:15Z</time>
      </trkpt>
      <trkpt lat="45.53346" lon="6.69671">
        <ele>1843.5999755859</ele>
        <time>2012-07-28T08:58:21Z</time>
      </trkpt>
      <trkpt lat="45.53364" lon="6.6968">
        <ele>1841.5999755859</ele>
        <time>2012-07-28T08:58:28Z</time>
      </trkpt>
      <trkpt lat="45.53369" lon="6.69683">
        <ele>1841</ele>
        <time>2012-07-28T08:58:30Z</time>
      </trkpt>
      <trkpt lat="45.53382" lon="6.69688">
        <ele>1839.5999755859</ele>
        <time>2012-07-28T08:58:35Z</time>
      </trkpt>
      <trkpt lat="45.53402" lon="6.69698">
        <ele>1837.5999755859</ele>
        <time>2012-07-28T08:58:42Z</time>
      </trkpt>
      <trkpt lat="45.53406" lon="6.69704">
        <ele>1837.1999511719</ele>
        <time>2012-07-28T08:58:44Z</time>
      </trkpt>
      <trkpt lat="45.53416" lon="6.69715">
        <ele>1835.5999755859</ele>
        <time>2012-07-28T08:58:49Z</time>
      </trkpt>
      <trkpt lat="45.53433" lon="6.6973">
        <ele>1833.1999511719</ele>
        <time>2012-07-28T08:58:56Z</time>
      </trkpt>
      <trkpt lat="45.53439" lon="6.69735">
        <ele>1832</ele>
        <time>2012-07-28T08:58:59Z</time>
      </trkpt>
      <trkpt lat="45.5345" lon="6.69745">
        <ele>1829.8000488281</ele>
        <time>2012-07-28T08:59:05Z</time>
      </trkpt>
      <trkpt lat="45.53457" lon="6.69751">
        <ele>1828.5999755859</ele>
        <time>2012-07-28T08:59:08Z</time>
      </trkpt>
      <trkpt lat="45.53469" lon="6.69757">
        <ele>1827</ele>
        <time>2012-07-28T08:59:12Z</time>
      </trkpt>
      <trkpt lat="45.53489" lon="6.69759">
        <ele>1825.4000244141</ele>
        <time>2012-07-28T08:59:17Z</time>
      </trkpt>
      <trkpt lat="45.53507" lon="6.69772">
        <ele>1823</ele>
        <time>2012-07-28T08:59:24Z</time>
      </trkpt>
      <trkpt lat="45.53518" lon="6.69789">
        <ele>1821.1999511719</ele>
        <time>2012-07-28T08:59:29Z</time>
      </trkpt>
      <trkpt lat="45.53518" lon="6.69793">
        <ele>1820.8000488281</ele>
        <time>2012-07-28T08:59:30Z</time>
      </trkpt>
      <trkpt lat="45.53529" lon="6.69803">
        <ele>1818.5999755859</ele>
        <time>2012-07-28T08:59:36Z</time>
      </trkpt>
      <trkpt lat="45.53534" lon="6.69806">
        <ele>1817.8000488281</ele>
        <time>2012-07-28T08:59:38Z</time>
      </trkpt>
      <trkpt lat="45.53551" lon="6.69822">
        <ele>1815.4000244141</ele>
        <time>2012-07-28T08:59:44Z</time>
      </trkpt>
      <trkpt lat="45.53564" lon="6.69832">
        <ele>1812.4000244141</ele>
        <time>2012-07-28T08:59:51Z</time>
      </trkpt>
      <trkpt lat="45.53569" lon="6.69837">
        <ele>1811.5999755859</ele>
        <time>2012-07-28T08:59:53Z</time>
      </trkpt>
      <trkpt lat="45.53577" lon="6.69843">
        <ele>1810.4000244141</ele>
        <time>2012-07-28T08:59:56Z</time>
      </trkpt>
      <trkpt lat="45.5358" lon="6.69846">
        <ele>1809.4000244141</ele>
        <time>2012-07-28T08:59:58Z</time>
      </trkpt>
      <trkpt lat="45.53586" lon="6.69852">
        <ele>1808</ele>
        <time>2012-07-28T09:00:01Z</time>
      </trkpt>
      <trkpt lat="45.53602" lon="6.69866">
        <ele>1804.8000488281</ele>
        <time>2012-07-28T09:00:08Z</time>
      </trkpt>
      <trkpt lat="45.53616" lon="6.69879">
        <ele>1801.4000244141</ele>
        <time>2012-07-28T09:00:15Z</time>
      </trkpt>
      <trkpt lat="45.53618" lon="6.69879">
        <ele>1801</ele>
        <time>2012-07-28T09:00:16Z</time>
      </trkpt>
      <trkpt lat="45.53625" lon="6.69882">
        <ele>1799.4000244141</ele>
        <time>2012-07-28T09:00:19Z</time>
      </trkpt>
      <trkpt lat="45.53632" lon="6.69894">
        <ele>1797.4000244141</ele>
        <time>2012-07-28T09:00:23Z</time>
      </trkpt>
      <trkpt lat="45.5364" lon="6.69919">
        <ele>1793.8000488281</ele>
        <time>2012-07-28T09:00:30Z</time>
      </trkpt>
      <trkpt lat="45.53645" lon="6.69945">
        <ele>1790.8000488281</ele>
        <time>2012-07-28T09:00:36Z</time>
      </trkpt>
      <trkpt lat="45.53656" lon="6.69968">
        <ele>1788</ele>
        <time>2012-07-28T09:00:42Z</time>
      </trkpt>
      <trkpt lat="45.53667" lon="6.6998">
        <ele>1785.5999755859</ele>
        <time>2012-07-28T09:00:47Z</time>
      </trkpt>
      <trkpt lat="45.53669" lon="6.69984">
        <ele>1785.1999511719</ele>
        <time>2012-07-28T09:00:48Z</time>
      </trkpt>
      <trkpt lat="45.53674" lon="6.7001">
        <ele>1782.4000244141</ele>
        <time>2012-07-28T09:00:54Z</time>
      </trkpt>
      <trkpt lat="45.53673" lon="6.70037">
        <ele>1779.4000244141</ele>
        <time>2012-07-28T09:01:01Z</time>
      </trkpt>
      <trkpt lat="45.53677" lon="6.70066">
        <ele>1776.4000244141</ele>
        <time>2012-07-28T09:01:08Z</time>
      </trkpt>
      <trkpt lat="45.53686" lon="6.7009">
        <ele>1773.1999511719</ele>
        <time>2012-07-28T09:01:16Z</time>
      </trkpt>
      <trkpt lat="45.53687" lon="6.70091">
        <ele>1772.8000488281</ele>
        <time>2012-07-28T09:01:17Z</time>
      </trkpt>
      <trkpt lat="45.53698" lon="6.701">
        <ele>1771.1999511719</ele>
        <time>2012-07-28T09:01:22Z</time>
      </trkpt>
      <trkpt lat="45.537" lon="6.70102">
        <ele>1770.8000488281</ele>
        <time>2012-07-28T09:01:23Z</time>
      </trkpt>
      <trkpt lat="45.53703" lon="6.70104">
        <ele>1770.5999755859</ele>
        <time>2012-07-28T09:01:24Z</time>
      </trkpt>
      <trkpt lat="45.53722" lon="6.70109">
        <ele>1768.5999755859</ele>
        <time>2012-07-28T09:01:31Z</time>
      </trkpt>
      <trkpt lat="45.53742" lon="6.70109">
        <ele>1766.5999755859</ele>
        <time>2012-07-28T09:01:38Z</time>
      </trkpt>
      <trkpt lat="45.53761" lon="6.70105">
        <ele>1765</ele>
        <time>2012-07-28T09:01:43Z</time>
      </trkpt>
      <trkpt lat="45.53778" lon="6.70111">
        <ele>1763</ele>
        <time>2012-07-28T09:01:49Z</time>
      </trkpt>
      <trkpt lat="45.53794" lon="6.70123">
        <ele>1761</ele>
        <time>2012-07-28T09:01:55Z</time>
      </trkpt>
      <trkpt lat="45.53811" lon="6.70135">
        <ele>1759</ele>
        <time>2012-07-28T09:02:01Z</time>
      </trkpt>
      <trkpt lat="45.53828" lon="6.70143">
        <ele>1755.8000488281</ele>
        <time>2012-07-28T09:02:09Z</time>
      </trkpt>
      <trkpt lat="45.53842" lon="6.70127">
        <ele>1752</ele>
        <time>2012-07-28T09:02:18Z</time>
      </trkpt>
      <trkpt lat="45.53843" lon="6.70127">
        <ele>1751.5999755859</ele>
        <time>2012-07-28T09:02:19Z</time>
      </trkpt>
      <trkpt lat="45.53858" lon="6.70144">
        <ele>1748.4000244141</ele>
        <time>2012-07-28T09:02:26Z</time>
      </trkpt>
      <trkpt lat="45.53872" lon="6.70161">
        <ele>1745.1999511719</ele>
        <time>2012-07-28T09:02:33Z</time>
      </trkpt>
      <trkpt lat="45.53879" lon="6.70186">
        <ele>1741.8000488281</ele>
        <time>2012-07-28T09:02:40Z</time>
      </trkpt>
      <trkpt lat="45.53879" lon="6.70215">
        <ele>1738</ele>
        <time>2012-07-28T09:02:48Z</time>
      </trkpt>
      <trkpt lat="45.53875" lon="6.70243">
        <ele>1733.8000488281</ele>
        <time>2012-07-28T09:02:56Z</time>
      </trkpt>
      <trkpt lat="45.5387" lon="6.70269">
        <ele>1730.5999755859</ele>
        <time>2012-07-28T09:03:02Z</time>
      </trkpt>
      <trkpt lat="45.53862" lon="6.70296">
        <ele>1726.8000488281</ele>
        <time>2012-07-28T09:03:09Z</time>
      </trkpt>
      <trkpt lat="45.53852" lon="6.70322">
        <ele>1723.8000488281</ele>
        <time>2012-07-28T09:03:15Z</time>
      </trkpt>
      <trkpt lat="45.53842" lon="6.70346">
        <ele>1720.5999755859</ele>
        <time>2012-07-28T09:03:21Z</time>
      </trkpt>
      <trkpt lat="45.5383" lon="6.70367">
        <ele>1717.4000244141</ele>
        <time>2012-07-28T09:03:27Z</time>
      </trkpt>
      <trkpt lat="45.53822" lon="6.70394">
        <ele>1714.5999755859</ele>
        <time>2012-07-28T09:03:33Z</time>
      </trkpt>
      <trkpt lat="45.53814" lon="6.70422">
        <ele>1711.8000488281</ele>
        <time>2012-07-28T09:03:39Z</time>
      </trkpt>
      <trkpt lat="45.53812" lon="6.70449">
        <ele>1709.1999511719</ele>
        <time>2012-07-28T09:03:45Z</time>
      </trkpt>
      <trkpt lat="45.53804" lon="6.70475">
        <ele>1706.5999755859</ele>
        <time>2012-07-28T09:03:51Z</time>
      </trkpt>
      <trkpt lat="45.53796" lon="6.70502">
        <ele>1703.4000244141</ele>
        <time>2012-07-28T09:03:58Z</time>
      </trkpt>
      <trkpt lat="45.53793" lon="6.7052">
        <ele>1701.4000244141</ele>
        <time>2012-07-28T09:04:04Z</time>
      </trkpt>
      <trkpt lat="45.53796" lon="6.70518">
        <ele>1698.8000488281</ele>
        <time>2012-07-28T09:04:10Z</time>
      </trkpt>
      <trkpt lat="45.53799" lon="6.70516">
        <ele>1698</ele>
        <time>2012-07-28T09:04:12Z</time>
      </trkpt>
      <trkpt lat="45.53817" lon="6.70515">
        <ele>1696</ele>
        <time>2012-07-28T09:04:17Z</time>
      </trkpt>
      <trkpt lat="45.53835" lon="6.70521">
        <ele>1694.5999755859</ele>
        <time>2012-07-28T09:04:21Z</time>
      </trkpt>
      <trkpt lat="45.53848" lon="6.7052">
        <ele>1693.5999755859</ele>
        <time>2012-07-28T09:04:24Z</time>
      </trkpt>
      <trkpt lat="45.53855" lon="6.7052">
        <ele>1693</ele>
        <time>2012-07-28T09:04:26Z</time>
      </trkpt>
      <trkpt lat="45.53867" lon="6.70522">
        <ele>1692</ele>
        <time>2012-07-28T09:04:29Z</time>
      </trkpt>
      <trkpt lat="45.53875" lon="6.70523">
        <ele>1691.4000244141</ele>
        <time>2012-07-28T09:04:31Z</time>
      </trkpt>
      <trkpt lat="45.53894" lon="6.70526">
        <ele>1689.1999511719</ele>
        <time>2012-07-28T09:04:37Z</time>
      </trkpt>
      <trkpt lat="45.53912" lon="6.70534">
        <ele>1687</ele>
        <time>2012-07-28T09:04:43Z</time>
      </trkpt>
      <trkpt lat="45.5393" lon="6.70539">
        <ele>1684.5999755859</ele>
        <time>2012-07-28T09:04:49Z</time>
      </trkpt>
      <trkpt lat="45.53951" lon="6.70545">
        <ele>1682</ele>
        <time>2012-07-28T09:04:55Z</time>
      </trkpt>
      <trkpt lat="45.53971" lon="6.7055">
        <ele>1679.4000244141</ele>
        <time>2012-07-28T09:05:01Z</time>
      </trkpt>
      <trkpt lat="45.5399" lon="6.70564">
        <ele>1676.8000488281</ele>
        <time>2012-07-28T09:05:07Z</time>
      </trkpt>
      <trkpt lat="45.54008" lon="6.70573">
        <ele>1674.1999511719</ele>
        <time>2012-07-28T09:05:13Z</time>
      </trkpt>
      <trkpt lat="45.54013" lon="6.70579">
        <ele>1673.1999511719</ele>
        <time>2012-07-28T09:05:15Z</time>
      </trkpt>
      <trkpt lat="45.54015" lon="6.70586">
        <ele>1672.1999511719</ele>
        <time>2012-07-28T09:05:17Z</time>
      </trkpt>
      <trkpt lat="45.54018" lon="6.70594">
        <ele>1671.1999511719</ele>
        <time>2012-07-28T09:05:19Z</time>
      </trkpt>
      <trkpt lat="45.54027" lon="6.70616">
        <ele>1668.1999511719</ele>
        <time>2012-07-28T09:05:25Z</time>
      </trkpt>
      <trkpt lat="45.54044" lon="6.70619">
        <ele>1665.8000488281</ele>
        <time>2012-07-28T09:05:30Z</time>
      </trkpt>
      <trkpt lat="45.54064" lon="6.70617">
        <ele>1662.8000488281</ele>
        <time>2012-07-28T09:05:36Z</time>
      </trkpt>
      <trkpt lat="45.54083" lon="6.70615">
        <ele>1659.8000488281</ele>
        <time>2012-07-28T09:05:42Z</time>
      </trkpt>
      <trkpt lat="45.54086" lon="6.70617">
        <ele>1659.1999511719</ele>
        <time>2012-07-28T09:05:43Z</time>
      </trkpt>
      <trkpt lat="45.54098" lon="6.70635">
        <ele>1656.1999511719</ele>
        <time>2012-07-28T09:05:49Z</time>
      </trkpt>
      <trkpt lat="45.54111" lon="6.70653">
        <ele>1652.8000488281</ele>
        <time>2012-07-28T09:05:56Z</time>
      </trkpt>
      <trkpt lat="45.54127" lon="6.70666">
        <ele>1649.8000488281</ele>
        <time>2012-07-28T09:06:02Z</time>
      </trkpt>
      <trkpt lat="45.54143" lon="6.70685">
        <ele>1646.5999755859</ele>
        <time>2012-07-28T09:06:08Z</time>
      </trkpt>
      <trkpt lat="45.54159" lon="6.70703">
        <ele>1643.5999755859</ele>
        <time>2012-07-28T09:06:14Z</time>
      </trkpt>
      <trkpt lat="45.54161" lon="6.70704">
        <ele>1643</ele>
        <time>2012-07-28T09:06:15Z</time>
      </trkpt>
      <trkpt lat="45.54165" lon="6.70686">
        <ele>1639.8000488281</ele>
        <time>2012-07-28T09:06:21Z</time>
      </trkpt>
      <trkpt lat="45.5416" lon="6.70679">
        <ele>1638.8000488281</ele>
        <time>2012-07-28T09:06:23Z</time>
      </trkpt>
      <trkpt lat="45.54153" lon="6.70664">
        <ele>1636.5999755859</ele>
        <time>2012-07-28T09:06:27Z</time>
      </trkpt>
      <trkpt lat="45.54148" lon="6.70645">
        <ele>1633.5999755859</ele>
        <time>2012-07-28T09:06:33Z</time>
      </trkpt>
      <trkpt lat="45.54152" lon="6.70643">
        <ele>1632.5999755859</ele>
        <time>2012-07-28T09:06:35Z</time>
      </trkpt>
      <trkpt lat="45.5417" lon="6.70648">
        <ele>1629.8000488281</ele>
        <time>2012-07-28T09:06:41Z</time>
      </trkpt>
      <trkpt lat="45.5419" lon="6.70649">
        <ele>1626.1999511719</ele>
        <time>2012-07-28T09:06:48Z</time>
      </trkpt>
      <trkpt lat="45.54209" lon="6.70653">
        <ele>1623.4000244141</ele>
        <time>2012-07-28T09:06:54Z</time>
      </trkpt>
      <trkpt lat="45.54214" lon="6.70678">
        <ele>1620.4000244141</ele>
        <time>2012-07-28T09:07:00Z</time>
      </trkpt>
      <trkpt lat="45.54212" lon="6.70708">
        <ele>1617.5999755859</ele>
        <time>2012-07-28T09:07:06Z</time>
      </trkpt>
      <trkpt lat="45.54213" lon="6.70726">
        <ele>1615.5999755859</ele>
        <time>2012-07-28T09:07:10Z</time>
      </trkpt>
      <trkpt lat="45.54213" lon="6.70735">
        <ele>1614.5999755859</ele>
        <time>2012-07-28T09:07:12Z</time>
      </trkpt>
      <trkpt lat="45.54214" lon="6.70747">
        <ele>1613.1999511719</ele>
        <time>2012-07-28T09:07:15Z</time>
      </trkpt>
      <trkpt lat="45.54211" lon="6.70761">
        <ele>1611.5999755859</ele>
        <time>2012-07-28T09:07:18Z</time>
      </trkpt>
      <trkpt lat="45.54211" lon="6.70772">
        <ele>1610</ele>
        <time>2012-07-28T09:07:21Z</time>
      </trkpt>
      <trkpt lat="45.54217" lon="6.70785">
        <ele>1607.8000488281</ele>
        <time>2012-07-28T09:07:25Z</time>
      </trkpt>
      <trkpt lat="45.54219" lon="6.70813">
        <ele>1604.8000488281</ele>
        <time>2012-07-28T09:07:31Z</time>
      </trkpt>
      <trkpt lat="45.54225" lon="6.7084">
        <ele>1601.1999511719</ele>
        <time>2012-07-28T09:07:38Z</time>
      </trkpt>
      <trkpt lat="45.54227" lon="6.70858">
        <ele>1598.5999755859</ele>
        <time>2012-07-28T09:07:43Z</time>
      </trkpt>
      <trkpt lat="45.54225" lon="6.70864">
        <ele>1597.4000244141</ele>
        <time>2012-07-28T09:07:45Z</time>
      </trkpt>
      <trkpt lat="45.54211" lon="6.70886">
        <ele>1593.8000488281</ele>
        <time>2012-07-28T09:07:52Z</time>
      </trkpt>
      <trkpt lat="45.54203" lon="6.7091">
        <ele>1590.4000244141</ele>
        <time>2012-07-28T09:07:59Z</time>
      </trkpt>
      <trkpt lat="45.54204" lon="6.70912">
        <ele>1589.4000244141</ele>
        <time>2012-07-28T09:08:01Z</time>
      </trkpt>
      <trkpt lat="45.54207" lon="6.7091">
        <ele>1587.1999511719</ele>
        <time>2012-07-28T09:08:05Z</time>
      </trkpt>
      <trkpt lat="45.5421" lon="6.70908">
        <ele>1585.5999755859</ele>
        <time>2012-07-28T09:08:08Z</time>
      </trkpt>
      <trkpt lat="45.54221" lon="6.70906">
        <ele>1583.4000244141</ele>
        <time>2012-07-28T09:08:13Z</time>
      </trkpt>
      <trkpt lat="45.54222" lon="6.70906">
        <ele>1583</ele>
        <time>2012-07-28T09:08:14Z</time>
      </trkpt>
      <trkpt lat="45.54241" lon="6.70901">
        <ele>1579.5999755859</ele>
        <time>2012-07-28T09:08:22Z</time>
      </trkpt>
      <trkpt lat="45.54254" lon="6.70897">
        <ele>1577.1999511719</ele>
        <time>2012-07-28T09:08:28Z</time>
      </trkpt>
      <trkpt lat="45.5426" lon="6.70898">
        <ele>1576.5999755859</ele>
        <time>2012-07-28T09:08:30Z</time>
      </trkpt>
      <trkpt lat="45.54279" lon="6.70901">
        <ele>1574.5999755859</ele>
        <time>2012-07-28T09:08:36Z</time>
      </trkpt>
      <trkpt lat="45.54297" lon="6.70901">
        <ele>1571.5999755859</ele>
        <time>2012-07-28T09:08:44Z</time>
      </trkpt>
      <trkpt lat="45.54314" lon="6.70904">
        <ele>1569.1999511719</ele>
        <time>2012-07-28T09:08:51Z</time>
      </trkpt>
      <trkpt lat="45.54333" lon="6.7091">
        <ele>1566.5999755859</ele>
        <time>2012-07-28T09:08:58Z</time>
      </trkpt>
      <trkpt lat="45.54346" lon="6.70917">
        <ele>1564.8000488281</ele>
        <time>2012-07-28T09:09:04Z</time>
      </trkpt>
      <trkpt lat="45.5435" lon="6.70919">
        <ele>1564.1999511719</ele>
        <time>2012-07-28T09:09:06Z</time>
      </trkpt>
      <trkpt lat="45.54355" lon="6.70926">
        <ele>1562.4000244141</ele>
        <time>2012-07-28T09:09:12Z</time>
      </trkpt>
      <trkpt lat="45.54362" lon="6.70942">
        <ele>1559.8000488281</ele>
        <time>2012-07-28T09:09:20Z</time>
      </trkpt>
      <trkpt lat="45.54364" lon="6.70945">
        <ele>1559</ele>
        <time>2012-07-28T09:09:22Z</time>
      </trkpt>
      <trkpt lat="45.54366" lon="6.70952">
        <ele>1558.1999511719</ele>
        <time>2012-07-28T09:09:25Z</time>
      </trkpt>
      <trkpt lat="45.54373" lon="6.70966">
        <ele>1556.5999755859</ele>
        <time>2012-07-28T09:09:33Z</time>
      </trkpt>
      <trkpt lat="45.5438" lon="6.7097">
        <ele>1556</ele>
        <time>2012-07-28T09:09:37Z</time>
      </trkpt>
      <trkpt lat="45.5439" lon="6.7097">
        <ele>1555.4000244141</ele>
        <time>2012-07-28T09:09:41Z</time>
      </trkpt>
      <trkpt lat="45.54407" lon="6.70961">
        <ele>1554.1999511719</ele>
        <time>2012-07-28T09:09:49Z</time>
      </trkpt>
      <trkpt lat="45.54413" lon="6.7096">
        <ele>1553.8000488281</ele>
        <time>2012-07-28T09:09:52Z</time>
      </trkpt>
      <trkpt lat="45.54419" lon="6.70955">
        <ele>1553.4000244141</ele>
        <time>2012-07-28T09:09:56Z</time>
      </trkpt>
      <trkpt lat="45.54425" lon="6.70953">
        <ele>1552.5999755859</ele>
        <time>2012-07-28T09:10:01Z</time>
      </trkpt>
      <trkpt lat="45.54445" lon="6.70951">
        <ele>1551.4000244141</ele>
        <time>2012-07-28T09:10:09Z</time>
      </trkpt>
      <trkpt lat="45.54464" lon="6.70956">
        <ele>1550.4000244141</ele>
        <time>2012-07-28T09:10:16Z</time>
      </trkpt>
      <trkpt lat="45.54482" lon="6.70961">
        <ele>1549.4000244141</ele>
        <time>2012-07-28T09:10:24Z</time>
      </trkpt>
      <trkpt lat="45.54501" lon="6.70972">
        <ele>1548.5999755859</ele>
        <time>2012-07-28T09:10:31Z</time>
      </trkpt>
      <trkpt lat="45.54514" lon="6.7099">
        <ele>1547.5999755859</ele>
        <time>2012-07-28T09:10:37Z</time>
      </trkpt>
      <trkpt lat="45.54531" lon="6.71001">
        <ele>1546.5999755859</ele>
        <time>2012-07-28T09:10:43Z</time>
      </trkpt>
      <trkpt lat="45.5454" lon="6.71001">
        <ele>1546</ele>
        <time>2012-07-28T09:10:46Z</time>
      </trkpt>
      <trkpt lat="45.54547" lon="6.70994">
        <ele>1545.1999511719</ele>
        <time>2012-07-28T09:10:50Z</time>
      </trkpt>
      <trkpt lat="45.54548" lon="6.70992">
        <ele>1545</ele>
        <time>2012-07-28T09:10:51Z</time>
      </trkpt>
      <trkpt lat="45.54552" lon="6.70967">
        <ele>1542</ele>
        <time>2012-07-28T09:11:08Z</time>
      </trkpt>
      <trkpt lat="45.54562" lon="6.70945">
        <ele>1540.8000488281</ele>
        <time>2012-07-28T09:11:15Z</time>
      </trkpt>
      <trkpt lat="45.5458" lon="6.70944">
        <ele>1539.5999755859</ele>
        <time>2012-07-28T09:11:21Z</time>
      </trkpt>
      <trkpt lat="45.54598" lon="6.7095">
        <ele>1538.1999511719</ele>
        <time>2012-07-28T09:11:27Z</time>
      </trkpt>
      <trkpt lat="45.54617" lon="6.70955">
        <ele>1537</ele>
        <time>2012-07-28T09:11:33Z</time>
      </trkpt>
      <trkpt lat="45.54634" lon="6.70967">
        <ele>1535.5999755859</ele>
        <time>2012-07-28T09:11:39Z</time>
      </trkpt>
      <trkpt lat="45.54648" lon="6.70987">
        <ele>1534</ele>
        <time>2012-07-28T09:11:45Z</time>
      </trkpt>
      <trkpt lat="45.54651" lon="6.71014">
        <ele>1532.4000244141</ele>
        <time>2012-07-28T09:11:51Z</time>
      </trkpt>
      <trkpt lat="45.54639" lon="6.71038">
        <ele>1530.5999755859</ele>
        <time>2012-07-28T09:11:58Z</time>
      </trkpt>
      <trkpt lat="45.5463" lon="6.71061">
        <ele>1529</ele>
        <time>2012-07-28T09:12:07Z</time>
      </trkpt>
      <trkpt lat="45.54648" lon="6.71065">
        <ele>1528</ele>
        <time>2012-07-28T09:12:13Z</time>
      </trkpt>
      <trkpt lat="45.54665" lon="6.71065">
        <ele>1527.1999511719</ele>
        <time>2012-07-28T09:12:18Z</time>
      </trkpt>
      <trkpt lat="45.54669" lon="6.71064">
        <ele>1527</ele>
        <time>2012-07-28T09:12:19Z</time>
      </trkpt>
      <trkpt lat="45.54689" lon="6.71067">
        <ele>1525.5999755859</ele>
        <time>2012-07-28T09:12:25Z</time>
      </trkpt>
      <trkpt lat="45.54703" lon="6.71088">
        <ele>1524</ele>
        <time>2012-07-28T09:12:31Z</time>
      </trkpt>
      <trkpt lat="45.54705" lon="6.71115">
        <ele>1522.4000244141</ele>
        <time>2012-07-28T09:12:37Z</time>
      </trkpt>
      <trkpt lat="45.54703" lon="6.7114">
        <ele>1520.8000488281</ele>
        <time>2012-07-28T09:12:43Z</time>
      </trkpt>
      <trkpt lat="45.54704" lon="6.71167">
        <ele>1519.1999511719</ele>
        <time>2012-07-28T09:12:49Z</time>
      </trkpt>
      <trkpt lat="45.54711" lon="6.71195">
        <ele>1517.4000244141</ele>
        <time>2012-07-28T09:12:56Z</time>
      </trkpt>
      <trkpt lat="45.54715" lon="6.71213">
        <ele>1516.4000244141</ele>
        <time>2012-07-28T09:13:00Z</time>
      </trkpt>
      <trkpt lat="45.54713" lon="6.71222">
        <ele>1515.8000488281</ele>
        <time>2012-07-28T09:13:02Z</time>
      </trkpt>
      <trkpt lat="45.54709" lon="6.71228">
        <ele>1515.1999511719</ele>
        <time>2012-07-28T09:13:04Z</time>
      </trkpt>
      <trkpt lat="45.54699" lon="6.71242">
        <ele>1514</ele>
        <time>2012-07-28T09:13:08Z</time>
      </trkpt>
      <trkpt lat="45.54687" lon="6.71265">
        <ele>1512.1999511719</ele>
        <time>2012-07-28T09:13:14Z</time>
      </trkpt>
      <trkpt lat="45.54686" lon="6.71279">
        <ele>1511</ele>
        <time>2012-07-28T09:13:18Z</time>
      </trkpt>
      <trkpt lat="45.54693" lon="6.71288">
        <ele>1509.8000488281</ele>
        <time>2012-07-28T09:13:22Z</time>
      </trkpt>
      <trkpt lat="45.54708" lon="6.71302">
        <ele>1508.5999755859</ele>
        <time>2012-07-28T09:13:28Z</time>
      </trkpt>
      <trkpt lat="45.54727" lon="6.71308">
        <ele>1507.5999755859</ele>
        <time>2012-07-28T09:13:34Z</time>
      </trkpt>
      <trkpt lat="45.54746" lon="6.71318">
        <ele>1506.8000488281</ele>
        <time>2012-07-28T09:13:41Z</time>
      </trkpt>
      <trkpt lat="45.54764" lon="6.71332">
        <ele>1506.4000244141</ele>
        <time>2012-07-28T09:13:48Z</time>
      </trkpt>
      <trkpt lat="45.5478" lon="6.71345">
        <ele>1506.1999511719</ele>
        <time>2012-07-28T09:13:54Z</time>
      </trkpt>
      <trkpt lat="45.54789" lon="6.71356">
        <ele>1505.8000488281</ele>
        <time>2012-07-28T09:14:01Z</time>
      </trkpt>
      <trkpt lat="45.54792" lon="6.71368">
        <ele>1505.5999755859</ele>
        <time>2012-07-28T09:14:08Z</time>
      </trkpt>
      <trkpt lat="45.54803" lon="6.7139">
        <ele>1504.8000488281</ele>
        <time>2012-07-28T09:14:14Z</time>
      </trkpt>
      <trkpt lat="45.54817" lon="6.71407">
        <ele>1503.8000488281</ele>
        <time>2012-07-28T09:14:21Z</time>
      </trkpt>
      <trkpt lat="45.54819" lon="6.71414">
        <ele>1503.4000244141</ele>
        <time>2012-07-28T09:14:23Z</time>
      </trkpt>
      <trkpt lat="45.54821" lon="6.71435">
        <ele>1502.8000488281</ele>
        <time>2012-07-28T09:14:28Z</time>
      </trkpt>
      <trkpt lat="45.5482" lon="6.71443">
        <ele>1502.5999755859</ele>
        <time>2012-07-28T09:14:30Z</time>
      </trkpt>
      <trkpt lat="45.54815" lon="6.71459">
        <ele>1502.1999511719</ele>
        <time>2012-07-28T09:14:34Z</time>
      </trkpt>
      <trkpt lat="45.54812" lon="6.71475">
        <ele>1501.8000488281</ele>
        <time>2012-07-28T09:14:39Z</time>
      </trkpt>
      <trkpt lat="45.54817" lon="6.71483">
        <ele>1501.8000488281</ele>
        <time>2012-07-28T09:14:43Z</time>
      </trkpt>
      <trkpt lat="45.5483" lon="6.71491">
        <ele>1501.5999755859</ele>
        <time>2012-07-28T09:14:48Z</time>
      </trkpt>
      <trkpt lat="45.54834" lon="6.71496">
        <ele>1501.5999755859</ele>
        <time>2012-07-28T09:14:50Z</time>
      </trkpt>
      <trkpt lat="45.54838" lon="6.715">
        <ele>1501.5999755859</ele>
        <time>2012-07-28T09:14:52Z</time>
      </trkpt>
      <trkpt lat="45.54842" lon="6.71512">
        <ele>1501.5999755859</ele>
        <time>2012-07-28T09:14:55Z</time>
      </trkpt>
      <trkpt lat="45.54846" lon="6.7152">
        <ele>1501.5999755859</ele>
        <time>2012-07-28T09:14:57Z</time>
      </trkpt>
      <trkpt lat="45.54863" lon="6.71533">
        <ele>1501.5999755859</ele>
        <time>2012-07-28T09:15:02Z</time>
      </trkpt>
      <trkpt lat="45.54872" lon="6.71555">
        <ele>1501.1999511719</ele>
        <time>2012-07-28T09:15:07Z</time>
      </trkpt>
      <trkpt lat="45.54889" lon="6.7156">
        <ele>1500.8000488281</ele>
        <time>2012-07-28T09:15:13Z</time>
      </trkpt>
      <trkpt lat="45.54892" lon="6.71561">
        <ele>1500.8000488281</ele>
        <time>2012-07-28T09:15:14Z</time>
      </trkpt>
      <trkpt lat="45.5491" lon="6.71569">
        <ele>1500.5999755859</ele>
        <time>2012-07-28T09:15:21Z</time>
      </trkpt>
      <trkpt lat="45.54928" lon="6.71579">
        <ele>1499.8000488281</ele>
        <time>2012-07-28T09:15:29Z</time>
      </trkpt>
      <trkpt lat="45.54945" lon="6.7159">
        <ele>1499.1999511719</ele>
        <time>2012-07-28T09:15:37Z</time>
      </trkpt>
      <trkpt lat="45.54948" lon="6.71595">
        <ele>1498.8000488281</ele>
        <time>2012-07-28T09:15:41Z</time>
      </trkpt>
      <trkpt lat="45.54949" lon="6.71609">
        <ele>1498.1999511719</ele>
        <time>2012-07-28T09:15:48Z</time>
      </trkpt>
      <trkpt lat="45.54949" lon="6.71613">
        <ele>1498</ele>
        <time>2012-07-28T09:15:50Z</time>
      </trkpt>
      <trkpt lat="45.54949" lon="6.71617">
        <ele>1497.8000488281</ele>
        <time>2012-07-28T09:15:52Z</time>
      </trkpt>
      <trkpt lat="45.54947" lon="6.71639">
        <ele>1496.8000488281</ele>
        <time>2012-07-28T09:16:02Z</time>
      </trkpt>
      <trkpt lat="45.5495" lon="6.71665">
        <ele>1496</ele>
        <time>2012-07-28T09:16:13Z</time>
      </trkpt>
      <trkpt lat="45.54959" lon="6.71689">
        <ele>1495.5999755859</ele>
        <time>2012-07-28T09:16:20Z</time>
      </trkpt>
      <trkpt lat="45.54972" lon="6.71711">
        <ele>1495.1999511719</ele>
        <time>2012-07-28T09:16:27Z</time>
      </trkpt>
      <trkpt lat="45.54985" lon="6.71732">
        <ele>1494.8000488281</ele>
        <time>2012-07-28T09:16:35Z</time>
      </trkpt>
      <trkpt lat="45.54993" lon="6.71757">
        <ele>1495.5999755859</ele>
        <time>2012-07-28T09:16:50Z</time>
      </trkpt>
      <trkpt lat="45.54993" lon="6.71763">
        <ele>1496.1999511719</ele>
        <time>2012-07-28T09:16:53Z</time>
      </trkpt>
      <trkpt lat="45.54992" lon="6.7177">
        <ele>1496.5999755859</ele>
        <time>2012-07-28T09:16:57Z</time>
      </trkpt>
      <trkpt lat="45.54995" lon="6.71785">
        <ele>1497.1999511719</ele>
        <time>2012-07-28T09:17:03Z</time>
      </trkpt>
      <trkpt lat="45.55001" lon="6.71811">
        <ele>1497.8000488281</ele>
        <time>2012-07-28T09:17:10Z</time>
      </trkpt>
      <trkpt lat="45.55013" lon="6.71833">
        <ele>1498.4000244141</ele>
        <time>2012-07-28T09:17:17Z</time>
      </trkpt>
      <trkpt lat="45.55021" lon="6.71856">
        <ele>1498.4000244141</ele>
        <time>2012-07-28T09:17:23Z</time>
      </trkpt>
      <trkpt lat="45.55021" lon="6.71883">
        <ele>1498.1999511719</ele>
        <time>2012-07-28T09:17:29Z</time>
      </trkpt>
      <trkpt lat="45.55013" lon="6.71909">
        <ele>1498</ele>
        <time>2012-07-28T09:17:36Z</time>
      </trkpt>
      <trkpt lat="45.55014" lon="6.71936">
        <ele>1497.8000488281</ele>
        <time>2012-07-28T09:17:42Z</time>
      </trkpt>
      <trkpt lat="45.55015" lon="6.71962">
        <ele>1497.5999755859</ele>
        <time>2012-07-28T09:17:48Z</time>
      </trkpt>
      <trkpt lat="45.55005" lon="6.71984">
        <ele>1497</ele>
        <time>2012-07-28T09:17:54Z</time>
      </trkpt>
      <trkpt lat="45.55005" lon="6.72002">
        <ele>1496.5999755859</ele>
        <time>2012-07-28T09:17:59Z</time>
      </trkpt>
      <trkpt lat="45.55011" lon="6.72007">
        <ele>1496.4000244141</ele>
        <time>2012-07-28T09:18:02Z</time>
      </trkpt>
      <trkpt lat="45.55029" lon="6.72019">
        <ele>1496.4000244141</ele>
        <time>2012-07-28T09:18:07Z</time>
      </trkpt>
      <trkpt lat="45.5504" lon="6.72043">
        <ele>1496</ele>
        <time>2012-07-28T09:18:13Z</time>
      </trkpt>
      <trkpt lat="45.55048" lon="6.72066">
        <ele>1495.5999755859</ele>
        <time>2012-07-28T09:18:19Z</time>
      </trkpt>
      <trkpt lat="45.55059" lon="6.72088">
        <ele>1495.1999511719</ele>
        <time>2012-07-28T09:18:25Z</time>
      </trkpt>
      <trkpt lat="45.55062" lon="6.7209">
        <ele>1495</ele>
        <time>2012-07-28T09:18:26Z</time>
      </trkpt>
      <trkpt lat="45.55064" lon="6.72069">
        <ele>1494.1999511719</ele>
        <time>2012-07-28T09:18:33Z</time>
      </trkpt>
      <trkpt lat="45.55063" lon="6.72063">
        <ele>1494</ele>
        <time>2012-07-28T09:18:34Z</time>
      </trkpt>
      <trkpt lat="45.55063" lon="6.72044">
        <ele>1493.5999755859</ele>
        <time>2012-07-28T09:18:38Z</time>
      </trkpt>
      <trkpt lat="45.55075" lon="6.72054">
        <ele>1492.8000488281</ele>
        <time>2012-07-28T09:18:44Z</time>
      </trkpt>
      <trkpt lat="45.55077" lon="6.72057">
        <ele>1492.5999755859</ele>
        <time>2012-07-28T09:18:45Z</time>
      </trkpt>
      <trkpt lat="45.55093" lon="6.72075">
        <ele>1491.5999755859</ele>
        <time>2012-07-28T09:18:51Z</time>
      </trkpt>
      <trkpt lat="45.55103" lon="6.721">
        <ele>1490.5999755859</ele>
        <time>2012-07-28T09:18:57Z</time>
      </trkpt>
      <trkpt lat="45.55108" lon="6.72126">
        <ele>1489.1999511719</ele>
        <time>2012-07-28T09:19:03Z</time>
      </trkpt>
      <trkpt lat="45.55111" lon="6.72154">
        <ele>1487.8000488281</ele>
        <time>2012-07-28T09:19:09Z</time>
      </trkpt>
      <trkpt lat="45.55115" lon="6.72181">
        <ele>1486.5999755859</ele>
        <time>2012-07-28T09:19:15Z</time>
      </trkpt>
      <trkpt lat="45.55127" lon="6.722">
        <ele>1485.4000244141</ele>
        <time>2012-07-28T09:19:21Z</time>
      </trkpt>
      <trkpt lat="45.55138" lon="6.72221">
        <ele>1484.4000244141</ele>
        <time>2012-07-28T09:19:27Z</time>
      </trkpt>
      <trkpt lat="45.5515" lon="6.72246">
        <ele>1483.4000244141</ele>
        <time>2012-07-28T09:19:34Z</time>
      </trkpt>
      <trkpt lat="45.55161" lon="6.72269">
        <ele>1482.4000244141</ele>
        <time>2012-07-28T09:19:40Z</time>
      </trkpt>
      <trkpt lat="45.55169" lon="6.72294">
        <ele>1481.5999755859</ele>
        <time>2012-07-28T09:19:46Z</time>
      </trkpt>
      <trkpt lat="45.55174" lon="6.72323">
        <ele>1480.5999755859</ele>
        <time>2012-07-28T09:19:53Z</time>
      </trkpt>
      <trkpt lat="45.5518" lon="6.72349">
        <ele>1479.5999755859</ele>
        <time>2012-07-28T09:19:59Z</time>
      </trkpt>
      <trkpt lat="45.55187" lon="6.72375">
        <ele>1478.8000488281</ele>
        <time>2012-07-28T09:20:05Z</time>
      </trkpt>
      <trkpt lat="45.55193" lon="6.72401">
        <ele>1478</ele>
        <time>2012-07-28T09:20:11Z</time>
      </trkpt>
      <trkpt lat="45.552" lon="6.72427">
        <ele>1477</ele>
        <time>2012-07-28T09:20:17Z</time>
      </trkpt>
      <trkpt lat="45.55205" lon="6.72453">
        <ele>1476</ele>
        <time>2012-07-28T09:20:23Z</time>
      </trkpt>
      <trkpt lat="45.55204" lon="6.7248">
        <ele>1475</ele>
        <time>2012-07-28T09:20:29Z</time>
      </trkpt>
      <trkpt lat="45.55207" lon="6.72505">
        <ele>1474</ele>
        <time>2012-07-28T09:20:35Z</time>
      </trkpt>
      <trkpt lat="45.55217" lon="6.72529">
        <ele>1473</ele>
        <time>2012-07-28T09:20:41Z</time>
      </trkpt>
      <trkpt lat="45.55225" lon="6.72554">
        <ele>1472</ele>
        <time>2012-07-28T09:20:47Z</time>
      </trkpt>
      <trkpt lat="45.55235" lon="6.7258">
        <ele>1470.8000488281</ele>
        <time>2012-07-28T09:20:54Z</time>
      </trkpt>
      <trkpt lat="45.55239" lon="6.72606">
        <ele>1469.4000244141</ele>
        <time>2012-07-28T09:21:02Z</time>
      </trkpt>
      <trkpt lat="45.5524" lon="6.72611">
        <ele>1469</ele>
        <time>2012-07-28T09:21:04Z</time>
      </trkpt>
      <trkpt lat="45.55251" lon="6.72598">
        <ele>1467.5999755859</ele>
        <time>2012-07-28T09:21:10Z</time>
      </trkpt>
      <trkpt lat="45.55267" lon="6.72585">
        <ele>1465.8000488281</ele>
        <time>2012-07-28T09:21:17Z</time>
      </trkpt>
      <trkpt lat="45.55285" lon="6.72596">
        <ele>1463.5999755859</ele>
        <time>2012-07-28T09:21:25Z</time>
      </trkpt>
      <trkpt lat="45.55304" lon="6.72607">
        <ele>1461</ele>
        <time>2012-07-28T09:21:33Z</time>
      </trkpt>
      <trkpt lat="45.55323" lon="6.72615">
        <ele>1458.5999755859</ele>
        <time>2012-07-28T09:21:40Z</time>
      </trkpt>
      <trkpt lat="45.55341" lon="6.7262">
        <ele>1455.8000488281</ele>
        <time>2012-07-28T09:21:48Z</time>
      </trkpt>
      <trkpt lat="45.55342" lon="6.72621">
        <ele>1455</ele>
        <time>2012-07-28T09:21:50Z</time>
      </trkpt>
      <trkpt lat="45.55346" lon="6.72632">
        <ele>1452.5999755859</ele>
        <time>2012-07-28T09:21:56Z</time>
      </trkpt>
      <trkpt lat="45.55346" lon="6.72644">
        <ele>1451.5999755859</ele>
        <time>2012-07-28T09:21:59Z</time>
      </trkpt>
      <trkpt lat="45.55347" lon="6.72671">
        <ele>1448.8000488281</ele>
        <time>2012-07-28T09:22:06Z</time>
      </trkpt>
      <trkpt lat="45.55352" lon="6.72681">
        <ele>1447.5999755859</ele>
        <time>2012-07-28T09:22:09Z</time>
      </trkpt>
      <trkpt lat="45.55362" lon="6.72685">
        <ele>1446.1999511719</ele>
        <time>2012-07-28T09:22:13Z</time>
      </trkpt>
      <trkpt lat="45.55367" lon="6.72691">
        <ele>1445</ele>
        <time>2012-07-28T09:22:16Z</time>
      </trkpt>
      <trkpt lat="45.55373" lon="6.72706">
        <ele>1442.8000488281</ele>
        <time>2012-07-28T09:22:22Z</time>
      </trkpt>
      <trkpt lat="45.55383" lon="6.72728">
        <ele>1439.4000244141</ele>
        <time>2012-07-28T09:22:31Z</time>
      </trkpt>
      <trkpt lat="45.55391" lon="6.72734">
        <ele>1437.5999755859</ele>
        <time>2012-07-28T09:22:35Z</time>
      </trkpt>
      <trkpt lat="45.55395" lon="6.72749">
        <ele>1435.4000244141</ele>
        <time>2012-07-28T09:22:40Z</time>
      </trkpt>
      <trkpt lat="45.55399" lon="6.72775">
        <ele>1432.5999755859</ele>
        <time>2012-07-28T09:22:46Z</time>
      </trkpt>
      <trkpt lat="45.55397" lon="6.72802">
        <ele>1430.1999511719</ele>
        <time>2012-07-28T09:22:52Z</time>
      </trkpt>
      <trkpt lat="45.55398" lon="6.72829">
        <ele>1427.5999755859</ele>
        <time>2012-07-28T09:22:58Z</time>
      </trkpt>
      <trkpt lat="45.55402" lon="6.72856">
        <ele>1425.1999511719</ele>
        <time>2012-07-28T09:23:04Z</time>
      </trkpt>
      <trkpt lat="45.55404" lon="6.72883">
        <ele>1422.8000488281</ele>
        <time>2012-07-28T09:23:10Z</time>
      </trkpt>
      <trkpt lat="45.55413" lon="6.72906">
        <ele>1420.4000244141</ele>
        <time>2012-07-28T09:23:16Z</time>
      </trkpt>
      <trkpt lat="45.55428" lon="6.7292">
        <ele>1418</ele>
        <time>2012-07-28T09:23:22Z</time>
      </trkpt>
      <trkpt lat="45.55443" lon="6.72939">
        <ele>1415.5999755859</ele>
        <time>2012-07-28T09:23:28Z</time>
      </trkpt>
      <trkpt lat="45.55457" lon="6.72959">
        <ele>1413.1999511719</ele>
        <time>2012-07-28T09:23:34Z</time>
      </trkpt>
      <trkpt lat="45.55473" lon="6.72973">
        <ele>1410.8000488281</ele>
        <time>2012-07-28T09:23:40Z</time>
      </trkpt>
      <trkpt lat="45.55494" lon="6.72975">
        <ele>1408.1999511719</ele>
        <time>2012-07-28T09:23:47Z</time>
      </trkpt>
      <trkpt lat="45.55511" lon="6.72979">
        <ele>1405.8000488281</ele>
        <time>2012-07-28T09:23:53Z</time>
      </trkpt>
      <trkpt lat="45.55529" lon="6.72984">
        <ele>1403.4000244141</ele>
        <time>2012-07-28T09:23:59Z</time>
      </trkpt>
      <trkpt lat="45.5555" lon="6.7299">
        <ele>1401</ele>
        <time>2012-07-28T09:24:05Z</time>
      </trkpt>
      <trkpt lat="45.55571" lon="6.72993">
        <ele>1398.8000488281</ele>
        <time>2012-07-28T09:24:11Z</time>
      </trkpt>
      <trkpt lat="45.55585" lon="6.72992">
        <ele>1397.4000244141</ele>
        <time>2012-07-28T09:24:15Z</time>
      </trkpt>
      <trkpt lat="45.5559" lon="6.72995">
        <ele>1396.8000488281</ele>
        <time>2012-07-28T09:24:17Z</time>
      </trkpt>
      <trkpt lat="45.55603" lon="6.73018">
        <ele>1394.8000488281</ele>
        <time>2012-07-28T09:24:23Z</time>
      </trkpt>
      <trkpt lat="45.55608" lon="6.73045">
        <ele>1393</ele>
        <time>2012-07-28T09:24:29Z</time>
      </trkpt>
      <trkpt lat="45.5561" lon="6.73072">
        <ele>1391</ele>
        <time>2012-07-28T09:24:35Z</time>
      </trkpt>
      <trkpt lat="45.55606" lon="6.731">
        <ele>1389.1999511719</ele>
        <time>2012-07-28T09:24:41Z</time>
      </trkpt>
      <trkpt lat="45.55601" lon="6.73128">
        <ele>1387.1999511719</ele>
        <time>2012-07-28T09:24:47Z</time>
      </trkpt>
      <trkpt lat="45.55599" lon="6.73155">
        <ele>1385.4000244141</ele>
        <time>2012-07-28T09:24:53Z</time>
      </trkpt>
      <trkpt lat="45.55599" lon="6.73183">
        <ele>1383.5999755859</ele>
        <time>2012-07-28T09:24:59Z</time>
      </trkpt>
      <trkpt lat="45.55603" lon="6.73209">
        <ele>1381.8000488281</ele>
        <time>2012-07-28T09:25:05Z</time>
      </trkpt>
      <trkpt lat="45.55605" lon="6.73237">
        <ele>1380</ele>
        <time>2012-07-28T09:25:11Z</time>
      </trkpt>
      <trkpt lat="45.55611" lon="6.73264">
        <ele>1378</ele>
        <time>2012-07-28T09:25:17Z</time>
      </trkpt>
      <trkpt lat="45.55617" lon="6.73291">
        <ele>1376</ele>
        <time>2012-07-28T09:25:23Z</time>
      </trkpt>
      <trkpt lat="45.55621" lon="6.73319">
        <ele>1374.1999511719</ele>
        <time>2012-07-28T09:25:29Z</time>
      </trkpt>
      <trkpt lat="45.55624" lon="6.73346">
        <ele>1372.1999511719</ele>
        <time>2012-07-28T09:25:35Z</time>
      </trkpt>
      <trkpt lat="45.55629" lon="6.73373">
        <ele>1370.1999511719</ele>
        <time>2012-07-28T09:25:41Z</time>
      </trkpt>
      <trkpt lat="45.55628" lon="6.734">
        <ele>1368.1999511719</ele>
        <time>2012-07-28T09:25:47Z</time>
      </trkpt>
      <trkpt lat="45.55627" lon="6.73427">
        <ele>1366.1999511719</ele>
        <time>2012-07-28T09:25:53Z</time>
      </trkpt>
      <trkpt lat="45.55625" lon="6.73455">
        <ele>1364.1999511719</ele>
        <time>2012-07-28T09:25:59Z</time>
      </trkpt>
      <trkpt lat="45.55626" lon="6.73482">
        <ele>1362.1999511719</ele>
        <time>2012-07-28T09:26:05Z</time>
      </trkpt>
      <trkpt lat="45.55626" lon="6.7351">
        <ele>1360.4000244141</ele>
        <time>2012-07-28T09:26:11Z</time>
      </trkpt>
      <trkpt lat="45.55629" lon="6.73538">
        <ele>1358.8000488281</ele>
        <time>2012-07-28T09:26:17Z</time>
      </trkpt>
      <trkpt lat="45.55627" lon="6.73566">
        <ele>1357.1999511719</ele>
        <time>2012-07-28T09:26:23Z</time>
      </trkpt>
      <trkpt lat="45.55624" lon="6.73594">
        <ele>1355.8000488281</ele>
        <time>2012-07-28T09:26:29Z</time>
      </trkpt>
      <trkpt lat="45.55618" lon="6.73619">
        <ele>1354.1999511719</ele>
        <time>2012-07-28T09:26:35Z</time>
      </trkpt>
      <trkpt lat="45.55608" lon="6.73646">
        <ele>1352.1999511719</ele>
        <time>2012-07-28T09:26:42Z</time>
      </trkpt>
      <trkpt lat="45.55608" lon="6.73651">
        <ele>1351.4000244141</ele>
        <time>2012-07-28T09:26:45Z</time>
      </trkpt>
      <trkpt lat="45.55622" lon="6.73644">
        <ele>1349.4000244141</ele>
        <time>2012-07-28T09:26:51Z</time>
      </trkpt>
      <trkpt lat="45.5564" lon="6.73632">
        <ele>1346.4000244141</ele>
        <time>2012-07-28T09:26:59Z</time>
      </trkpt>
      <trkpt lat="45.55656" lon="6.73615">
        <ele>1343.8000488281</ele>
        <time>2012-07-28T09:27:06Z</time>
      </trkpt>
      <trkpt lat="45.55674" lon="6.73603">
        <ele>1341.4000244141</ele>
        <time>2012-07-28T09:27:13Z</time>
      </trkpt>
      <trkpt lat="45.55692" lon="6.73593">
        <ele>1338.4000244141</ele>
        <time>2012-07-28T09:27:22Z</time>
      </trkpt>
      <trkpt lat="45.55708" lon="6.73577">
        <ele>1335.1999511719</ele>
        <time>2012-07-28T09:27:29Z</time>
      </trkpt>
      <trkpt lat="45.55717" lon="6.73564">
        <ele>1332.5999755859</ele>
        <time>2012-07-28T09:27:35Z</time>
      </trkpt>
      <trkpt lat="45.55723" lon="6.73561">
        <ele>1331.4000244141</ele>
        <time>2012-07-28T09:27:38Z</time>
      </trkpt>
      <trkpt lat="45.55738" lon="6.73544">
        <ele>1328.1999511719</ele>
        <time>2012-07-28T09:27:46Z</time>
      </trkpt>
      <trkpt lat="45.55742" lon="6.7354">
        <ele>1327.4000244141</ele>
        <time>2012-07-28T09:27:48Z</time>
      </trkpt>
      <trkpt lat="45.55752" lon="6.73523">
        <ele>1324.4000244141</ele>
        <time>2012-07-28T09:27:54Z</time>
      </trkpt>
      <trkpt lat="45.55761" lon="6.73514">
        <ele>1322.1999511719</ele>
        <time>2012-07-28T09:27:59Z</time>
      </trkpt>
      <trkpt lat="45.55767" lon="6.73509">
        <ele>1321.1999511719</ele>
        <time>2012-07-28T09:28:01Z</time>
      </trkpt>
      <trkpt lat="45.55786" lon="6.73498">
        <ele>1317.5999755859</ele>
        <time>2012-07-28T09:28:07Z</time>
      </trkpt>
      <trkpt lat="45.55803" lon="6.73487">
        <ele>1314.4000244141</ele>
        <time>2012-07-28T09:28:14Z</time>
      </trkpt>
      <trkpt lat="45.55809" lon="6.73487">
        <ele>1313.1999511719</ele>
        <time>2012-07-28T09:28:16Z</time>
      </trkpt>
      <trkpt lat="45.55822" lon="6.73486">
        <ele>1310.4000244141</ele>
        <time>2012-07-28T09:28:20Z</time>
      </trkpt>
      <trkpt lat="45.55836" lon="6.7348">
        <ele>1307.1999511719</ele>
        <time>2012-07-28T09:28:26Z</time>
      </trkpt>
      <trkpt lat="45.55841" lon="6.73481">
        <ele>1306</ele>
        <time>2012-07-28T09:28:29Z</time>
      </trkpt>
      <trkpt lat="45.55852" lon="6.73484">
        <ele>1303.1999511719</ele>
        <time>2012-07-28T09:28:34Z</time>
      </trkpt>
      <trkpt lat="45.55854" lon="6.73473">
        <ele>1301</ele>
        <time>2012-07-28T09:28:38Z</time>
      </trkpt>
      <trkpt lat="45.55854" lon="6.73468">
        <ele>1299.8000488281</ele>
        <time>2012-07-28T09:28:39Z</time>
      </trkpt>
      <trkpt lat="45.55855" lon="6.73466">
        <ele>1299.4000244141</ele>
        <time>2012-07-28T09:28:41Z</time>
      </trkpt>
      <trkpt lat="45.55866" lon="6.73472">
        <ele>1295.4000244141</ele>
        <time>2012-07-28T09:28:48Z</time>
      </trkpt>
      <trkpt lat="45.55869" lon="6.73476">
        <ele>1294.1999511719</ele>
        <time>2012-07-28T09:28:50Z</time>
      </trkpt>
      <trkpt lat="45.55878" lon="6.73495">
        <ele>1290.4000244141</ele>
        <time>2012-07-28T09:28:56Z</time>
      </trkpt>
      <trkpt lat="45.55892" lon="6.73516">
        <ele>1285.8000488281</ele>
        <time>2012-07-28T09:29:05Z</time>
      </trkpt>
      <trkpt lat="45.5591" lon="6.73529">
        <ele>1282</ele>
        <time>2012-07-28T09:29:12Z</time>
      </trkpt>
      <trkpt lat="45.55926" lon="6.73544">
        <ele>1278.1999511719</ele>
        <time>2012-07-28T09:29:19Z</time>
      </trkpt>
      <trkpt lat="45.5593" lon="6.73548">
        <ele>1277</ele>
        <time>2012-07-28T09:29:20Z</time>
      </trkpt>
      <trkpt lat="45.55943" lon="6.73557">
        <ele>1273.8000488281</ele>
        <time>2012-07-28T09:29:26Z</time>
      </trkpt>
      <trkpt lat="45.55961" lon="6.73568">
        <ele>1269.1999511719</ele>
        <time>2012-07-28T09:29:36Z</time>
      </trkpt>
      <trkpt lat="45.55968" lon="6.73576">
        <ele>1267.1999511719</ele>
        <time>2012-07-28T09:29:40Z</time>
      </trkpt>
      <trkpt lat="45.55974" lon="6.73588">
        <ele>1264.8000488281</ele>
        <time>2012-07-28T09:29:45Z</time>
      </trkpt>
      <trkpt lat="45.55977" lon="6.73599">
        <ele>1263.4000244141</ele>
        <time>2012-07-28T09:29:48Z</time>
      </trkpt>
      <trkpt lat="45.55981" lon="6.73613">
        <ele>1261.4000244141</ele>
        <time>2012-07-28T09:29:52Z</time>
      </trkpt>
      <trkpt lat="45.55987" lon="6.73625">
        <ele>1258.8000488281</ele>
        <time>2012-07-28T09:29:56Z</time>
      </trkpt>
      <trkpt lat="45.55995" lon="6.73623">
        <ele>1257.8000488281</ele>
        <time>2012-07-28T09:29:59Z</time>
      </trkpt>
      <trkpt lat="45.56012" lon="6.73616">
        <ele>1255.4000244141</ele>
        <time>2012-07-28T09:30:04Z</time>
      </trkpt>
      <trkpt lat="45.56031" lon="6.7361">
        <ele>1252.1999511719</ele>
        <time>2012-07-28T09:30:11Z</time>
      </trkpt>
      <trkpt lat="45.56031" lon="6.73603">
        <ele>1250.5999755859</ele>
        <time>2012-07-28T09:30:15Z</time>
      </trkpt>
      <trkpt lat="45.56033" lon="6.73602">
        <ele>1250</ele>
        <time>2012-07-28T09:30:16Z</time>
      </trkpt>
      <trkpt lat="45.56027" lon="6.73595">
        <ele>1248.4000244141</ele>
        <time>2012-07-28T09:30:20Z</time>
      </trkpt>
      <trkpt lat="45.56023" lon="6.73592">
        <ele>1247.5999755859</ele>
        <time>2012-07-28T09:30:22Z</time>
      </trkpt>
      <trkpt lat="45.56018" lon="6.73585">
        <ele>1246.1999511719</ele>
        <time>2012-07-28T09:30:25Z</time>
      </trkpt>
      <trkpt lat="45.56013" lon="6.73582">
        <ele>1233</ele>
        <time>2012-07-28T09:31:14Z</time>
      </trkpt>
      <trkpt lat="45.56011" lon="6.73557">
        <ele>1229</ele>
        <time>2012-07-28T09:31:32Z</time>
      </trkpt>
      <trkpt lat="45.56008" lon="6.73531">
        <ele>1225.5999755859</ele>
        <time>2012-07-28T09:31:47Z</time>
      </trkpt>
      <trkpt lat="45.56011" lon="6.73506">
        <ele>1223.4000244141</ele>
        <time>2012-07-28T09:31:57Z</time>
      </trkpt>
      <trkpt lat="45.56014" lon="6.73484">
        <ele>1221.5999755859</ele>
        <time>2012-07-28T09:32:07Z</time>
      </trkpt>
      <trkpt lat="45.5601" lon="6.73484">
        <ele>1221.4000244141</ele>
        <time>2012-07-28T09:32:08Z</time>
      </trkpt>
      <trkpt lat="45.56005" lon="6.73469">
        <ele>1220.1999511719</ele>
        <time>2012-07-28T09:32:16Z</time>
      </trkpt>
      <trkpt lat="45.56014" lon="6.73442">
        <ele>1218.4000244141</ele>
        <time>2012-07-28T09:32:23Z</time>
      </trkpt>
      <trkpt lat="45.56015" lon="6.73437">
        <ele>1218.1999511719</ele>
        <time>2012-07-28T09:32:24Z</time>
      </trkpt>
      <trkpt lat="45.56016" lon="6.73415">
        <ele>1216.8000488281</ele>
        <time>2012-07-28T09:32:29Z</time>
      </trkpt>
      <trkpt lat="45.56015" lon="6.73389">
        <ele>1215.1999511719</ele>
        <time>2012-07-28T09:32:35Z</time>
      </trkpt>
      <trkpt lat="45.56012" lon="6.73364">
        <ele>1213.5999755859</ele>
        <time>2012-07-28T09:32:41Z</time>
      </trkpt>
      <trkpt lat="45.56011" lon="6.73337">
        <ele>1211.8000488281</ele>
        <time>2012-07-28T09:32:48Z</time>
      </trkpt>
      <trkpt lat="45.56005" lon="6.73308">
        <ele>1210.8000488281</ele>
        <time>2012-07-28T09:32:55Z</time>
      </trkpt>
      <trkpt lat="45.56002" lon="6.73283">
        <ele>1209.8000488281</ele>
        <time>2012-07-28T09:33:02Z</time>
      </trkpt>
      <trkpt lat="45.55998" lon="6.73255">
        <ele>1209</ele>
        <time>2012-07-28T09:33:09Z</time>
      </trkpt>
      <trkpt lat="45.55994" lon="6.73229">
        <ele>1207.8000488281</ele>
        <time>2012-07-28T09:33:16Z</time>
      </trkpt>
      <trkpt lat="45.55988" lon="6.73203">
        <ele>1206.5999755859</ele>
        <time>2012-07-28T09:33:23Z</time>
      </trkpt>
      <trkpt lat="45.5598" lon="6.73177">
        <ele>1205.4000244141</ele>
        <time>2012-07-28T09:33:30Z</time>
      </trkpt>
      <trkpt lat="45.55973" lon="6.73152">
        <ele>1204.1999511719</ele>
        <time>2012-07-28T09:33:36Z</time>
      </trkpt>
      <trkpt lat="45.55963" lon="6.73126">
        <ele>1203.5999755859</ele>
        <time>2012-07-28T09:33:42Z</time>
      </trkpt>
      <trkpt lat="45.55954" lon="6.731">
        <ele>1202.5999755859</ele>
        <time>2012-07-28T09:33:49Z</time>
      </trkpt>
      <trkpt lat="45.55951" lon="6.73074">
        <ele>1201.8000488281</ele>
        <time>2012-07-28T09:33:55Z</time>
      </trkpt>
      <trkpt lat="45.5595" lon="6.73048">
        <ele>1200.8000488281</ele>
        <time>2012-07-28T09:34:01Z</time>
      </trkpt>
      <trkpt lat="45.5595" lon="6.73022">
        <ele>1199.5999755859</ele>
        <time>2012-07-28T09:34:07Z</time>
      </trkpt>
      <trkpt lat="45.55952" lon="6.72996">
        <ele>1198.4000244141</ele>
        <time>2012-07-28T09:34:13Z</time>
      </trkpt>
      <trkpt lat="45.55956" lon="6.7297">
        <ele>1197</ele>
        <time>2012-07-28T09:34:19Z</time>
      </trkpt>
      <trkpt lat="45.55953" lon="6.72941">
        <ele>1195.8000488281</ele>
        <time>2012-07-28T09:34:25Z</time>
      </trkpt>
      <trkpt lat="45.55947" lon="6.72916">
        <ele>1194.5999755859</ele>
        <time>2012-07-28T09:34:31Z</time>
      </trkpt>
      <trkpt lat="45.55942" lon="6.72891">
        <ele>1193.5999755859</ele>
        <time>2012-07-28T09:34:37Z</time>
      </trkpt>
      <trkpt lat="45.55936" lon="6.72864">
        <ele>1192.8000488281</ele>
        <time>2012-07-28T09:34:44Z</time>
      </trkpt>
      <trkpt lat="45.55935" lon="6.72837">
        <ele>1192</ele>
        <time>2012-07-28T09:34:50Z</time>
      </trkpt>
      <trkpt lat="45.55933" lon="6.72809">
        <ele>1191</ele>
        <time>2012-07-28T09:34:56Z</time>
      </trkpt>
      <trkpt lat="45.55929" lon="6.72781">
        <ele>1190</ele>
        <time>2012-07-28T09:35:02Z</time>
      </trkpt>
      <trkpt lat="45.55924" lon="6.72755">
        <ele>1188.8000488281</ele>
        <time>2012-07-28T09:35:09Z</time>
      </trkpt>
      <trkpt lat="45.55918" lon="6.72729">
        <ele>1187.5999755859</ele>
        <time>2012-07-28T09:35:16Z</time>
      </trkpt>
      <trkpt lat="45.55908" lon="6.72707">
        <ele>1187</ele>
        <time>2012-07-28T09:35:22Z</time>
      </trkpt>
      <trkpt lat="45.55896" lon="6.72684">
        <ele>1186.1999511719</ele>
        <time>2012-07-28T09:35:28Z</time>
      </trkpt>
      <trkpt lat="45.55887" lon="6.72657">
        <ele>1185.4000244141</ele>
        <time>2012-07-28T09:35:35Z</time>
      </trkpt>
      <trkpt lat="45.55882" lon="6.72632">
        <ele>1184.8000488281</ele>
        <time>2012-07-28T09:35:41Z</time>
      </trkpt>
      <trkpt lat="45.55873" lon="6.72607">
        <ele>1184</ele>
        <time>2012-07-28T09:35:47Z</time>
      </trkpt>
      <trkpt lat="45.55867" lon="6.72581">
        <ele>1183.1999511719</ele>
        <time>2012-07-28T09:35:54Z</time>
      </trkpt>
      <trkpt lat="45.55861" lon="6.72554">
        <ele>1182.4000244141</ele>
        <time>2012-07-28T09:36:00Z</time>
      </trkpt>
      <trkpt lat="45.55856" lon="6.72528">
        <ele>1182</ele>
        <time>2012-07-28T09:36:05Z</time>
      </trkpt>
      <trkpt lat="45.5585" lon="6.72502">
        <ele>1181.4000244141</ele>
        <time>2012-07-28T09:36:12Z</time>
      </trkpt>
      <trkpt lat="45.55839" lon="6.72477">
        <ele>1180.8000488281</ele>
        <time>2012-07-28T09:36:19Z</time>
      </trkpt>
      <trkpt lat="45.55832" lon="6.72453">
        <ele>1180.4000244141</ele>
        <time>2012-07-28T09:36:25Z</time>
      </trkpt>
      <trkpt lat="45.55824" lon="6.72429">
        <ele>1179.8000488281</ele>
        <time>2012-07-28T09:36:31Z</time>
      </trkpt>
      <trkpt lat="45.55814" lon="6.72404">
        <ele>1179</ele>
        <time>2012-07-28T09:36:39Z</time>
      </trkpt>
      <trkpt lat="45.55806" lon="6.72376">
        <ele>1178.5999755859</ele>
        <time>2012-07-28T09:36:46Z</time>
      </trkpt>
      <trkpt lat="45.55796" lon="6.72353">
        <ele>1177.8000488281</ele>
        <time>2012-07-28T09:36:56Z</time>
      </trkpt>
      <trkpt lat="45.55788" lon="6.72343">
        <ele>1177.4000244141</ele>
        <time>2012-07-28T09:37:03Z</time>
      </trkpt>
      <trkpt lat="45.55782" lon="6.72341">
        <ele>1176.8000488281</ele>
        <time>2012-07-28T09:37:07Z</time>
      </trkpt>
      <trkpt lat="45.55769" lon="6.7232">
        <ele>1175.4000244141</ele>
        <time>2012-07-28T09:37:20Z</time>
      </trkpt>
      <trkpt lat="45.55767" lon="6.72312">
        <ele>1175</ele>
        <time>2012-07-28T09:37:25Z</time>
      </trkpt>
      <trkpt lat="45.55756" lon="6.72301">
        <ele>1174.5999755859</ele>
        <time>2012-07-28T09:37:34Z</time>
      </trkpt>
      <trkpt lat="45.55753" lon="6.723">
        <ele>1174.4000244141</ele>
        <time>2012-07-28T09:37:36Z</time>
      </trkpt>
      <trkpt lat="45.55747" lon="6.72297">
        <ele>1174.1999511719</ele>
        <time>2012-07-28T09:37:40Z</time>
      </trkpt>
      <trkpt lat="45.5574" lon="6.72292">
        <ele>1174.4000244141</ele>
        <time>2012-07-28T09:37:46Z</time>
      </trkpt>
      <trkpt lat="45.55731" lon="6.72286">
        <ele>1175.4000244141</ele>
        <time>2012-07-28T09:37:53Z</time>
      </trkpt>
      <trkpt lat="45.55726" lon="6.72278">
        <ele>1176</ele>
        <time>2012-07-28T09:37:58Z</time>
      </trkpt>
      <trkpt lat="45.55724" lon="6.7227">
        <ele>1177</ele>
        <time>2012-07-28T09:38:01Z</time>
      </trkpt>
      <trkpt lat="45.5572" lon="6.72259">
        <ele>1178</ele>
        <time>2012-07-28T09:38:06Z</time>
      </trkpt>
      <trkpt lat="45.55719" lon="6.72258">
        <ele>1177.8000488281</ele>
        <time>2012-07-28T09:38:07Z</time>
      </trkpt>
      <trkpt lat="45.55719" lon="6.72253">
        <ele>1178.1999511719</ele>
        <time>2012-07-28T09:38:10Z</time>
      </trkpt>
      <trkpt lat="45.55714" lon="6.72238">
        <ele>1178.1999511719</ele>
        <time>2012-07-28T09:38:21Z</time>
      </trkpt>
      <trkpt lat="45.55713" lon="6.72234">
        <ele>1178.4000244141</ele>
        <time>2012-07-28T09:38:22Z</time>
      </trkpt>
      <trkpt lat="45.55712" lon="6.72231">
        <ele>1178.5999755859</ele>
        <time>2012-07-28T09:38:23Z</time>
      </trkpt>
      <trkpt lat="45.557" lon="6.72211">
        <ele>1180.4000244141</ele>
        <time>2012-07-28T09:38:35Z</time>
      </trkpt>
      <trkpt lat="45.55699" lon="6.72211">
        <ele>1180.4000244141</ele>
        <time>2012-07-28T09:38:36Z</time>
      </trkpt>
      <trkpt lat="45.55685" lon="6.72195">
        <ele>1180.8000488281</ele>
        <time>2012-07-28T09:38:45Z</time>
      </trkpt>
      <trkpt lat="45.55678" lon="6.72169">
        <ele>1180.5999755859</ele>
        <time>2012-07-28T09:38:54Z</time>
      </trkpt>
      <trkpt lat="45.55671" lon="6.72143">
        <ele>1181.5999755859</ele>
        <time>2012-07-28T09:39:02Z</time>
      </trkpt>
      <trkpt lat="45.5567" lon="6.72141">
        <ele>1181.8000488281</ele>
        <time>2012-07-28T09:39:03Z</time>
      </trkpt>
      <trkpt lat="45.55661" lon="6.72135">
        <ele>1182.8000488281</ele>
        <time>2012-07-28T09:39:10Z</time>
      </trkpt>
      <trkpt lat="45.55654" lon="6.72134">
        <ele>1183.5999755859</ele>
        <time>2012-07-28T09:39:15Z</time>
      </trkpt>
      <trkpt lat="45.55651" lon="6.72134">
        <ele>1184</ele>
        <time>2012-07-28T09:39:17Z</time>
      </trkpt>
      <trkpt lat="45.5565" lon="6.72135">
        <ele>1184.4000244141</ele>
        <time>2012-07-28T09:39:20Z</time>
      </trkpt>
      <trkpt lat="45.55647" lon="6.72134">
        <ele>1185</ele>
        <time>2012-07-28T09:39:23Z</time>
      </trkpt>
      <trkpt lat="45.55635" lon="6.72139">
        <ele>1186.5999755859</ele>
        <time>2012-07-28T09:39:30Z</time>
      </trkpt>
      <trkpt lat="45.55633" lon="6.7214">
        <ele>1186.8000488281</ele>
        <time>2012-07-28T09:39:31Z</time>
      </trkpt>
      <trkpt lat="45.55617" lon="6.72146">
        <ele>1186.8000488281</ele>
        <time>2012-07-28T09:39:41Z</time>
      </trkpt>
      <trkpt lat="45.55607" lon="6.72143">
        <ele>1186.8000488281</ele>
        <time>2012-07-28T09:39:46Z</time>
      </trkpt>
      <trkpt lat="45.55605" lon="6.72141">
        <ele>1187</ele>
        <time>2012-07-28T09:39:47Z</time>
      </trkpt>
      <trkpt lat="45.55603" lon="6.72133">
        <ele>1187</ele>
        <time>2012-07-28T09:39:49Z</time>
      </trkpt>
      <trkpt lat="45.55602" lon="6.72124">
        <ele>1187.4000244141</ele>
        <time>2012-07-28T09:39:51Z</time>
      </trkpt>
      <trkpt lat="45.55604" lon="6.72108">
        <ele>1188</ele>
        <time>2012-07-28T09:39:55Z</time>
      </trkpt>
      <trkpt lat="45.55605" lon="6.72081">
        <ele>1189.1999511719</ele>
        <time>2012-07-28T09:40:01Z</time>
      </trkpt>
      <trkpt lat="45.55603" lon="6.72055">
        <ele>1190.8000488281</ele>
        <time>2012-07-28T09:40:08Z</time>
      </trkpt>
      <trkpt lat="45.55603" lon="6.72048">
        <ele>1191.4000244141</ele>
        <time>2012-07-28T09:40:10Z</time>
      </trkpt>
      <trkpt lat="45.556" lon="6.72032">
        <ele>1192.5999755859</ele>
        <time>2012-07-28T09:40:15Z</time>
      </trkpt>
      <trkpt lat="45.55599" lon="6.72027">
        <ele>1193</ele>
        <time>2012-07-28T09:40:16Z</time>
      </trkpt>
      <trkpt lat="45.55599" lon="6.72024">
        <ele>1193</ele>
        <time>2012-07-28T09:40:17Z</time>
      </trkpt>
      <trkpt lat="45.556" lon="6.72014">
        <ele>1193.8000488281</ele>
        <time>2012-07-28T09:40:20Z</time>
      </trkpt>
      <trkpt lat="45.55601" lon="6.72">
        <ele>1194.5999755859</ele>
        <time>2012-07-28T09:40:26Z</time>
      </trkpt>
      <trkpt lat="45.556" lon="6.71975">
        <ele>1196.5999755859</ele>
        <time>2012-07-28T09:40:36Z</time>
      </trkpt>
      <trkpt lat="45.556" lon="6.71974">
        <ele>1196.5999755859</ele>
        <time>2012-07-28T09:40:37Z</time>
      </trkpt>
      <trkpt lat="45.55599" lon="6.71969">
        <ele>1196.8000488281</ele>
        <time>2012-07-28T09:40:40Z</time>
      </trkpt>
      <trkpt lat="45.556" lon="6.71968">
        <ele>1196.8000488281</ele>
        <time>2012-07-28T09:40:42Z</time>
      </trkpt>
      <trkpt lat="45.55607" lon="6.71973">
        <ele>1196.5999755859</ele>
        <time>2012-07-28T09:40:49Z</time>
      </trkpt>
      <trkpt lat="45.55608" lon="6.71972">
        <ele>1196.5999755859</ele>
        <time>2012-07-28T09:40:50Z</time>
      </trkpt>
      <trkpt lat="45.55608" lon="6.71968">
        <ele>1196.5999755859</ele>
        <time>2012-07-28T09:40:51Z</time>
      </trkpt>
      <trkpt lat="45.55613" lon="6.71946">
        <ele>1195.4000244141</ele>
        <time>2012-07-28T09:40:59Z</time>
      </trkpt>
      <trkpt lat="45.5561" lon="6.71928">
        <ele>1195</ele>
        <time>2012-07-28T09:41:03Z</time>
      </trkpt>
      <trkpt lat="45.55608" lon="6.71919">
        <ele>1194.8000488281</ele>
        <time>2012-07-28T09:41:05Z</time>
      </trkpt>
      <trkpt lat="45.55607" lon="6.719">
        <ele>1194.4000244141</ele>
        <time>2012-07-28T09:41:10Z</time>
      </trkpt>
      <trkpt lat="45.55602" lon="6.71895">
        <ele>1194.4000244141</ele>
        <time>2012-07-28T09:41:12Z</time>
      </trkpt>
      <trkpt lat="45.55596" lon="6.7189">
        <ele>1194.1999511719</ele>
        <time>2012-07-28T09:41:15Z</time>
      </trkpt>
      <trkpt lat="45.55593" lon="6.71885">
        <ele>1194</ele>
        <time>2012-07-28T09:41:17Z</time>
      </trkpt>
      <trkpt lat="45.55596" lon="6.71876">
        <ele>1194</ele>
        <time>2012-07-28T09:41:20Z</time>
      </trkpt>
      <trkpt lat="45.55609" lon="6.71856">
        <ele>1193.5999755859</ele>
        <time>2012-07-28T09:41:26Z</time>
      </trkpt>
      <trkpt lat="45.55611" lon="6.71848">
        <ele>1193.5999755859</ele>
        <time>2012-07-28T09:41:28Z</time>
      </trkpt>
      <trkpt lat="45.55612" lon="6.7183">
        <ele>1193.1999511719</ele>
        <time>2012-07-28T09:41:32Z</time>
      </trkpt>
      <trkpt lat="45.55614" lon="6.71827">
        <ele>1193.1999511719</ele>
        <time>2012-07-28T09:41:33Z</time>
      </trkpt>
      <trkpt lat="45.55621" lon="6.71808">
        <ele>1192.5999755859</ele>
        <time>2012-07-28T09:41:39Z</time>
      </trkpt>
      <trkpt lat="45.55622" lon="6.71783">
        <ele>1192.1999511719</ele>
        <time>2012-07-28T09:41:44Z</time>
      </trkpt>
      <trkpt lat="45.55627" lon="6.7177">
        <ele>1191.8000488281</ele>
        <time>2012-07-28T09:41:48Z</time>
      </trkpt>
      <trkpt lat="45.5563" lon="6.71777">
        <ele>1191.4000244141</ele>
        <time>2012-07-28T09:41:50Z</time>
      </trkpt>
      <trkpt lat="45.55631" lon="6.71803">
        <ele>1189.8000488281</ele>
        <time>2012-07-28T09:41:58Z</time>
      </trkpt>
      <trkpt lat="45.55634" lon="6.71801">
        <ele>1189.5999755859</ele>
        <time>2012-07-28T09:41:59Z</time>
      </trkpt>
      <trkpt lat="45.55634" lon="6.71778">
        <ele>1188</ele>
        <time>2012-07-28T09:42:05Z</time>
      </trkpt>
      <trkpt lat="45.55635" lon="6.71773">
        <ele>1187.8000488281</ele>
        <time>2012-07-28T09:42:06Z</time>
      </trkpt>
      <trkpt lat="45.55635" lon="6.71748">
        <ele>1186.5999755859</ele>
        <time>2012-07-28T09:42:12Z</time>
      </trkpt>
      <trkpt lat="45.55635" lon="6.71742">
        <ele>1186</ele>
        <time>2012-07-28T09:42:14Z</time>
      </trkpt>
      <trkpt lat="45.55639" lon="6.71721">
        <ele>1184.8000488281</ele>
        <time>2012-07-28T09:42:20Z</time>
      </trkpt>
      <trkpt lat="45.55645" lon="6.71693">
        <ele>1183</ele>
        <time>2012-07-28T09:42:30Z</time>
      </trkpt>
      <trkpt lat="45.55647" lon="6.71683">
        <ele>1182.5999755859</ele>
        <time>2012-07-28T09:42:33Z</time>
      </trkpt>
      <trkpt lat="45.55655" lon="6.71669">
        <ele>1181.8000488281</ele>
        <time>2012-07-28T09:42:38Z</time>
      </trkpt>
      <trkpt lat="45.5566" lon="6.71668">
        <ele>1181.4000244141</ele>
        <time>2012-07-28T09:42:40Z</time>
      </trkpt>
      <trkpt lat="45.55665" lon="6.71668">
        <ele>1180.5999755859</ele>
        <time>2012-07-28T09:42:43Z</time>
      </trkpt>
      <trkpt lat="45.55674" lon="6.71667">
        <ele>1179.8000488281</ele>
        <time>2012-07-28T09:42:47Z</time>
      </trkpt>
      <trkpt lat="45.55692" lon="6.71655">
        <ele>1178.8000488281</ele>
        <time>2012-07-28T09:42:52Z</time>
      </trkpt>
      <trkpt lat="45.55694" lon="6.71652">
        <ele>1178.5999755859</ele>
        <time>2012-07-28T09:42:53Z</time>
      </trkpt>
      <trkpt lat="45.55699" lon="6.71638">
        <ele>1177.5999755859</ele>
        <time>2012-07-28T09:42:57Z</time>
      </trkpt>
      <trkpt lat="45.557" lon="6.71633">
        <ele>1177.1999511719</ele>
        <time>2012-07-28T09:42:58Z</time>
      </trkpt>
      <trkpt lat="45.55698" lon="6.71624">
        <ele>1176.8000488281</ele>
        <time>2012-07-28T09:43:00Z</time>
      </trkpt>
      <trkpt lat="45.5569" lon="6.7161">
        <ele>1175.5999755859</ele>
        <time>2012-07-28T09:43:05Z</time>
      </trkpt>
      <trkpt lat="45.5569" lon="6.71608">
        <ele>1175.4000244141</ele>
        <time>2012-07-28T09:43:06Z</time>
      </trkpt>
      <trkpt lat="45.55698" lon="6.71589">
        <ele>1173.8000488281</ele>
        <time>2012-07-28T09:43:14Z</time>
      </trkpt>
      <trkpt lat="45.55709" lon="6.71568">
        <ele>1172</ele>
        <time>2012-07-28T09:43:23Z</time>
      </trkpt>
      <trkpt lat="45.55716" lon="6.71552">
        <ele>1171.1999511719</ele>
        <time>2012-07-28T09:43:28Z</time>
      </trkpt>
      <trkpt lat="45.55721" lon="6.71544">
        <ele>1170.8000488281</ele>
        <time>2012-07-28T09:43:30Z</time>
      </trkpt>
      <trkpt lat="45.55731" lon="6.7152">
        <ele>1169.5999755859</ele>
        <time>2012-07-28T09:43:36Z</time>
      </trkpt>
      <trkpt lat="45.55739" lon="6.71497">
        <ele>1168.8000488281</ele>
        <time>2012-07-28T09:43:41Z</time>
      </trkpt>
      <trkpt lat="45.55736" lon="6.71481">
        <ele>1167.5999755859</ele>
        <time>2012-07-28T09:43:45Z</time>
      </trkpt>
      <trkpt lat="45.55737" lon="6.71469">
        <ele>1166.8000488281</ele>
        <time>2012-07-28T09:43:48Z</time>
      </trkpt>
      <trkpt lat="45.55734" lon="6.71462">
        <ele>1166.1999511719</ele>
        <time>2012-07-28T09:43:50Z</time>
      </trkpt>
      <trkpt lat="45.55731" lon="6.71447">
        <ele>1165.1999511719</ele>
        <time>2012-07-28T09:43:55Z</time>
      </trkpt>
      <trkpt lat="45.55733" lon="6.71448">
        <ele>1164.5999755859</ele>
        <time>2012-07-28T09:43:57Z</time>
      </trkpt>
      <trkpt lat="45.5574" lon="6.71467">
        <ele>1162.8000488281</ele>
        <time>2012-07-28T09:44:03Z</time>
      </trkpt>
      <trkpt lat="45.55741" lon="6.71471">
        <ele>1162.5999755859</ele>
        <time>2012-07-28T09:44:04Z</time>
      </trkpt>
      <trkpt lat="45.55753" lon="6.71492">
        <ele>1160.8000488281</ele>
        <time>2012-07-28T09:44:10Z</time>
      </trkpt>
      <trkpt lat="45.55755" lon="6.715">
        <ele>1160</ele>
        <time>2012-07-28T09:44:12Z</time>
      </trkpt>
      <trkpt lat="45.55759" lon="6.71519">
        <ele>1158.4000244141</ele>
        <time>2012-07-28T09:44:17Z</time>
      </trkpt>
      <trkpt lat="45.55759" lon="6.71548">
        <ele>1155.1999511719</ele>
        <time>2012-07-28T09:44:26Z</time>
      </trkpt>
      <trkpt lat="45.5576" lon="6.71551">
        <ele>1154.1999511719</ele>
        <time>2012-07-28T09:44:29Z</time>
      </trkpt>
      <trkpt lat="45.55764" lon="6.71531">
        <ele>1152.5999755859</ele>
        <time>2012-07-28T09:44:34Z</time>
      </trkpt>
      <trkpt lat="45.55773" lon="6.71508">
        <ele>1150.5999755859</ele>
        <time>2012-07-28T09:44:40Z</time>
      </trkpt>
      <trkpt lat="45.55777" lon="6.71491">
        <ele>1149.4000244141</ele>
        <time>2012-07-28T09:44:44Z</time>
      </trkpt>
      <trkpt lat="45.55775" lon="6.7148">
        <ele>1148.4000244141</ele>
        <time>2012-07-28T09:44:47Z</time>
      </trkpt>
      <trkpt lat="45.55773" lon="6.71472">
        <ele>1147.5999755859</ele>
        <time>2012-07-28T09:44:49Z</time>
      </trkpt>
      <trkpt lat="45.55774" lon="6.71451">
        <ele>1146</ele>
        <time>2012-07-28T09:44:54Z</time>
      </trkpt>
      <trkpt lat="45.5577" lon="6.71422">
        <ele>1143.5999755859</ele>
        <time>2012-07-28T09:45:01Z</time>
      </trkpt>
      <trkpt lat="45.5576" lon="6.71399">
        <ele>1141.5999755859</ele>
        <time>2012-07-28T09:45:07Z</time>
      </trkpt>
      <trkpt lat="45.5575" lon="6.71378">
        <ele>1139.5999755859</ele>
        <time>2012-07-28T09:45:13Z</time>
      </trkpt>
      <trkpt lat="45.55736" lon="6.71359">
        <ele>1138</ele>
        <time>2012-07-28T09:45:19Z</time>
      </trkpt>
      <trkpt lat="45.55725" lon="6.71338">
        <ele>1135.8000488281</ele>
        <time>2012-07-28T09:45:26Z</time>
      </trkpt>
      <trkpt lat="45.55717" lon="6.71325">
        <ele>1134.1999511719</ele>
        <time>2012-07-28T09:45:31Z</time>
      </trkpt>
      <trkpt lat="45.55724" lon="6.71327">
        <ele>1133</ele>
        <time>2012-07-28T09:45:35Z</time>
      </trkpt>
      <trkpt lat="45.55737" lon="6.71326">
        <ele>1131.8000488281</ele>
        <time>2012-07-28T09:45:39Z</time>
      </trkpt>
      <trkpt lat="45.55743" lon="6.71329">
        <ele>1131.1999511719</ele>
        <time>2012-07-28T09:45:41Z</time>
      </trkpt>
      <trkpt lat="45.55757" lon="6.71339">
        <ele>1129.5999755859</ele>
        <time>2012-07-28T09:45:47Z</time>
      </trkpt>
      <trkpt lat="45.55771" lon="6.71358">
        <ele>1127.8000488281</ele>
        <time>2012-07-28T09:45:53Z</time>
      </trkpt>
      <trkpt lat="45.55787" lon="6.71374">
        <ele>1125.5999755859</ele>
        <time>2012-07-28T09:46:00Z</time>
      </trkpt>
      <trkpt lat="45.55801" lon="6.71394">
        <ele>1123.1999511719</ele>
        <time>2012-07-28T09:46:08Z</time>
      </trkpt>
      <trkpt lat="45.55809" lon="6.7142">
        <ele>1121</ele>
        <time>2012-07-28T09:46:14Z</time>
      </trkpt>
      <trkpt lat="45.55823" lon="6.71439">
        <ele>1118.5999755859</ele>
        <time>2012-07-28T09:46:21Z</time>
      </trkpt>
      <trkpt lat="45.55837" lon="6.71457">
        <ele>1116.5999755859</ele>
        <time>2012-07-28T09:46:27Z</time>
      </trkpt>
      <trkpt lat="45.55843" lon="6.71483">
        <ele>1114.1999511719</ele>
        <time>2012-07-28T09:46:33Z</time>
      </trkpt>
      <trkpt lat="45.55844" lon="6.71511">
        <ele>1111.5999755859</ele>
        <time>2012-07-28T09:46:40Z</time>
      </trkpt>
      <trkpt lat="45.55851" lon="6.7154">
        <ele>1108.4000244141</ele>
        <time>2012-07-28T09:46:48Z</time>
      </trkpt>
      <trkpt lat="45.55853" lon="6.71569">
        <ele>1105.5999755859</ele>
        <time>2012-07-28T09:46:55Z</time>
      </trkpt>
      <trkpt lat="45.55856" lon="6.71594">
        <ele>1103</ele>
        <time>2012-07-28T09:47:01Z</time>
      </trkpt>
      <trkpt lat="45.55858" lon="6.71596">
        <ele>1101.4000244141</ele>
        <time>2012-07-28T09:47:05Z</time>
      </trkpt>
      <trkpt lat="45.55859" lon="6.71581">
        <ele>1100</ele>
        <time>2012-07-28T09:47:08Z</time>
      </trkpt>
      <trkpt lat="45.55861" lon="6.7156">
        <ele>1098.4000244141</ele>
        <time>2012-07-28T09:47:12Z</time>
      </trkpt>
      <trkpt lat="45.55863" lon="6.71552">
        <ele>1097.8000488281</ele>
        <time>2012-07-28T09:47:14Z</time>
      </trkpt>
      <trkpt lat="45.55869" lon="6.7153">
        <ele>1095</ele>
        <time>2012-07-28T09:47:21Z</time>
      </trkpt>
      <trkpt lat="45.55871" lon="6.71501">
        <ele>1093</ele>
        <time>2012-07-28T09:47:27Z</time>
      </trkpt>
      <trkpt lat="45.55872" lon="6.71498">
        <ele>1092.8000488281</ele>
        <time>2012-07-28T09:47:28Z</time>
      </trkpt>
      <trkpt lat="45.55873" lon="6.71472">
        <ele>1090.5999755859</ele>
        <time>2012-07-28T09:47:34Z</time>
      </trkpt>
      <trkpt lat="45.55872" lon="6.71445">
        <ele>1088.1999511719</ele>
        <time>2012-07-28T09:47:41Z</time>
      </trkpt>
      <trkpt lat="45.55871" lon="6.71418">
        <ele>1085.5999755859</ele>
        <time>2012-07-28T09:47:48Z</time>
      </trkpt>
      <trkpt lat="45.55863" lon="6.71395">
        <ele>1082.8000488281</ele>
        <time>2012-07-28T09:47:55Z</time>
      </trkpt>
      <trkpt lat="45.55856" lon="6.71366">
        <ele>1080.8000488281</ele>
        <time>2012-07-28T09:48:01Z</time>
      </trkpt>
      <trkpt lat="45.55849" lon="6.7134">
        <ele>1078.1999511719</ele>
        <time>2012-07-28T09:48:08Z</time>
      </trkpt>
      <trkpt lat="45.55843" lon="6.71312">
        <ele>1076</ele>
        <time>2012-07-28T09:48:15Z</time>
      </trkpt>
      <trkpt lat="45.5584" lon="6.71297">
        <ele>1074.8000488281</ele>
        <time>2012-07-28T09:48:19Z</time>
      </trkpt>
      <trkpt lat="45.55843" lon="6.71284">
        <ele>1074</ele>
        <time>2012-07-28T09:48:22Z</time>
      </trkpt>
      <trkpt lat="45.55843" lon="6.71279">
        <ele>1073.8000488281</ele>
        <time>2012-07-28T09:48:23Z</time>
      </trkpt>
      <trkpt lat="45.55845" lon="6.71255">
        <ele>1072.1999511719</ele>
        <time>2012-07-28T09:48:28Z</time>
      </trkpt>
      <trkpt lat="45.55843" lon="6.7123">
        <ele>1070</ele>
        <time>2012-07-28T09:48:35Z</time>
      </trkpt>
      <trkpt lat="45.55843" lon="6.71218">
        <ele>1069.1999511719</ele>
        <time>2012-07-28T09:48:38Z</time>
      </trkpt>
      <trkpt lat="45.55844" lon="6.71208">
        <ele>1067.4000244141</ele>
        <time>2012-07-28T09:48:43Z</time>
      </trkpt>
      <trkpt lat="45.55851" lon="6.71226">
        <ele>1065.4000244141</ele>
        <time>2012-07-28T09:48:48Z</time>
      </trkpt>
      <trkpt lat="45.55851" lon="6.71231">
        <ele>1064.8000488281</ele>
        <time>2012-07-28T09:48:49Z</time>
      </trkpt>
      <trkpt lat="45.55858" lon="6.71258">
        <ele>1061.1999511719</ele>
        <time>2012-07-28T09:48:57Z</time>
      </trkpt>
      <trkpt lat="45.55869" lon="6.7128">
        <ele>1058.1999511719</ele>
        <time>2012-07-28T09:49:03Z</time>
      </trkpt>
      <trkpt lat="45.55884" lon="6.71301">
        <ele>1055.1999511719</ele>
        <time>2012-07-28T09:49:09Z</time>
      </trkpt>
      <trkpt lat="45.55901" lon="6.71314">
        <ele>1052.8000488281</ele>
        <time>2012-07-28T09:49:14Z</time>
      </trkpt>
      <trkpt lat="45.55916" lon="6.7133">
        <ele>1049.8000488281</ele>
        <time>2012-07-28T09:49:20Z</time>
      </trkpt>
      <trkpt lat="45.55925" lon="6.71343">
        <ele>1047.8000488281</ele>
        <time>2012-07-28T09:49:24Z</time>
      </trkpt>
      <trkpt lat="45.5593" lon="6.7135">
        <ele>1047</ele>
        <time>2012-07-28T09:49:26Z</time>
      </trkpt>
      <trkpt lat="45.55935" lon="6.71357">
        <ele>1046.1999511719</ele>
        <time>2012-07-28T09:49:28Z</time>
      </trkpt>
      <trkpt lat="45.55939" lon="6.71373">
        <ele>1044.1999511719</ele>
        <time>2012-07-28T09:49:32Z</time>
      </trkpt>
      <trkpt lat="45.55944" lon="6.71402">
        <ele>1041.1999511719</ele>
        <time>2012-07-28T09:49:39Z</time>
      </trkpt>
      <trkpt lat="45.5595" lon="6.71427">
        <ele>1038.8000488281</ele>
        <time>2012-07-28T09:49:45Z</time>
      </trkpt>
      <trkpt lat="45.55945" lon="6.71454">
        <ele>1036.8000488281</ele>
        <time>2012-07-28T09:49:50Z</time>
      </trkpt>
      <trkpt lat="45.55944" lon="6.71484">
        <ele>1034.1999511719</ele>
        <time>2012-07-28T09:49:56Z</time>
      </trkpt>
      <trkpt lat="45.55953" lon="6.71507">
        <ele>1031.5999755859</ele>
        <time>2012-07-28T09:50:02Z</time>
      </trkpt>
      <trkpt lat="45.5597" lon="6.71522">
        <ele>1029</ele>
        <time>2012-07-28T09:50:08Z</time>
      </trkpt>
      <trkpt lat="45.55986" lon="6.71537">
        <ele>1026.4000244141</ele>
        <time>2012-07-28T09:50:14Z</time>
      </trkpt>
      <trkpt lat="45.56001" lon="6.71551">
        <ele>1023.200012207</ele>
        <time>2012-07-28T09:50:21Z</time>
      </trkpt>
      <trkpt lat="45.56014" lon="6.71564">
        <ele>1020.799987793</ele>
        <time>2012-07-28T09:50:26Z</time>
      </trkpt>
      <trkpt lat="45.56014" lon="6.71567">
        <ele>1020.4000244141</ele>
        <time>2012-07-28T09:50:27Z</time>
      </trkpt>
      <trkpt lat="45.56016" lon="6.7158">
        <ele>1018.4000244141</ele>
        <time>2012-07-28T09:50:31Z</time>
      </trkpt>
      <trkpt lat="45.56015" lon="6.71591">
        <ele>1017</ele>
        <time>2012-07-28T09:50:34Z</time>
      </trkpt>
      <trkpt lat="45.56005" lon="6.71615">
        <ele>1013.799987793</ele>
        <time>2012-07-28T09:50:40Z</time>
      </trkpt>
      <trkpt lat="45.55991" lon="6.71636">
        <ele>1011.799987793</ele>
        <time>2012-07-28T09:50:45Z</time>
      </trkpt>
      <trkpt lat="45.55989" lon="6.71639">
        <ele>1011.200012207</ele>
        <time>2012-07-28T09:50:46Z</time>
      </trkpt>
      <trkpt lat="45.55976" lon="6.71658">
        <ele>1009.200012207</ele>
        <time>2012-07-28T09:50:51Z</time>
      </trkpt>
      <trkpt lat="45.55959" lon="6.71675">
        <ele>1007.4000244141</ele>
        <time>2012-07-28T09:50:57Z</time>
      </trkpt>
      <trkpt lat="45.55946" lon="6.71697">
        <ele>1006</ele>
        <time>2012-07-28T09:51:03Z</time>
      </trkpt>
      <trkpt lat="45.55939" lon="6.71715">
        <ele>1005</ele>
        <time>2012-07-28T09:51:08Z</time>
      </trkpt>
      <trkpt lat="45.55942" lon="6.71718">
        <ele>1003.799987793</ele>
        <time>2012-07-28T09:51:14Z</time>
      </trkpt>
      <trkpt lat="45.55948" lon="6.7171">
        <ele>1002.200012207</ele>
        <time>2012-07-28T09:51:20Z</time>
      </trkpt>
      <trkpt lat="45.5596" lon="6.71707">
        <ele>1000.799987793</ele>
        <time>2012-07-28T09:51:24Z</time>
      </trkpt>
      <trkpt lat="45.55965" lon="6.71709">
        <ele>999.20001220703</ele>
        <time>2012-07-28T09:51:28Z</time>
      </trkpt>
      <trkpt lat="45.55964" lon="6.7171">
        <ele>998.79998779297</ele>
        <time>2012-07-28T09:51:29Z</time>
      </trkpt>
      <trkpt lat="45.55961" lon="6.71709">
        <ele>997.40002441406</ele>
        <time>2012-07-28T09:51:32Z</time>
      </trkpt>
      <trkpt lat="45.55958" lon="6.71709">
        <ele>996.79998779297</ele>
        <time>2012-07-28T09:51:33Z</time>
      </trkpt>
      <trkpt lat="45.55964" lon="6.71707">
        <ele>994.59997558594</ele>
        <time>2012-07-28T09:51:38Z</time>
      </trkpt>
      <trkpt lat="45.55975" lon="6.71705">
        <ele>993.20001220703</ele>
        <time>2012-07-28T09:51:41Z</time>
      </trkpt>
      <trkpt lat="45.55978" lon="6.71706">
        <ele>992.79998779297</ele>
        <time>2012-07-28T09:51:42Z</time>
      </trkpt>
      <trkpt lat="45.55986" lon="6.71725">
        <ele>989.40002441406</ele>
        <time>2012-07-28T09:51:50Z</time>
      </trkpt>
      <trkpt lat="45.55997" lon="6.71745">
        <ele>986.40002441406</ele>
        <time>2012-07-28T09:51:57Z</time>
      </trkpt>
      <trkpt lat="45.56009" lon="6.71766">
        <ele>983.59997558594</ele>
        <time>2012-07-28T09:52:04Z</time>
      </trkpt>
      <trkpt lat="45.56026" lon="6.71784">
        <ele>980.79998779297</ele>
        <time>2012-07-28T09:52:11Z</time>
      </trkpt>
      <trkpt lat="45.56041" lon="6.71804">
        <ele>978</ele>
        <time>2012-07-28T09:52:18Z</time>
      </trkpt>
      <trkpt lat="45.5606" lon="6.71803">
        <ele>975.20001220703</ele>
        <time>2012-07-28T09:52:26Z</time>
      </trkpt>
      <trkpt lat="45.56078" lon="6.71809">
        <ele>972.79998779297</ele>
        <time>2012-07-28T09:52:33Z</time>
      </trkpt>
      <trkpt lat="45.56093" lon="6.71823">
        <ele>970.59997558594</ele>
        <time>2012-07-28T09:52:39Z</time>
      </trkpt>
      <trkpt lat="45.56095" lon="6.71821">
        <ele>970.20001220703</ele>
        <time>2012-07-28T09:52:40Z</time>
      </trkpt>
      <trkpt lat="45.56087" lon="6.71804">
        <ele>968</ele>
        <time>2012-07-28T09:52:46Z</time>
      </trkpt>
      <trkpt lat="45.56077" lon="6.71798">
        <ele>966.40002441406</ele>
        <time>2012-07-28T09:52:50Z</time>
      </trkpt>
      <trkpt lat="45.56069" lon="6.71792">
        <ele>965.40002441406</ele>
        <time>2012-07-28T09:52:53Z</time>
      </trkpt>
      <trkpt lat="45.56053" lon="6.71777">
        <ele>963.20001220703</ele>
        <time>2012-07-28T09:52:59Z</time>
      </trkpt>
      <trkpt lat="45.56047" lon="6.71752">
        <ele>961</ele>
        <time>2012-07-28T09:53:05Z</time>
      </trkpt>
      <trkpt lat="45.56044" lon="6.71724">
        <ele>958.59997558594</ele>
        <time>2012-07-28T09:53:12Z</time>
      </trkpt>
      <trkpt lat="45.5604" lon="6.71699">
        <ele>957.20001220703</ele>
        <time>2012-07-28T09:53:17Z</time>
      </trkpt>
      <trkpt lat="45.56039" lon="6.7169">
        <ele>956.59997558594</ele>
        <time>2012-07-28T09:53:19Z</time>
      </trkpt>
      <trkpt lat="45.56046" lon="6.71683">
        <ele>955.59997558594</ele>
        <time>2012-07-28T09:53:23Z</time>
      </trkpt>
      <trkpt lat="45.56051" lon="6.71682">
        <ele>955</ele>
        <time>2012-07-28T09:53:25Z</time>
      </trkpt>
      <trkpt lat="45.56064" lon="6.71678">
        <ele>953.59997558594</ele>
        <time>2012-07-28T09:53:31Z</time>
      </trkpt>
      <trkpt lat="45.56077" lon="6.71658">
        <ele>952.20001220703</ele>
        <time>2012-07-28T09:53:37Z</time>
      </trkpt>
      <trkpt lat="45.56085" lon="6.71632">
        <ele>951.40002441406</ele>
        <time>2012-07-28T09:53:43Z</time>
      </trkpt>
      <trkpt lat="45.56088" lon="6.7163">
        <ele>951.20001220703</ele>
        <time>2012-07-28T09:53:44Z</time>
      </trkpt>
      <trkpt lat="45.56093" lon="6.71617">
        <ele>950.40002441406</ele>
        <time>2012-07-28T09:53:48Z</time>
      </trkpt>
      <trkpt lat="45.56098" lon="6.71611">
        <ele>950</ele>
        <time>2012-07-28T09:53:50Z</time>
      </trkpt>
      <trkpt lat="45.56112" lon="6.71587">
        <ele>949</ele>
        <time>2012-07-28T09:53:55Z</time>
      </trkpt>
      <trkpt lat="45.56121" lon="6.71564">
        <ele>947</ele>
        <time>2012-07-28T09:54:02Z</time>
      </trkpt>
      <trkpt lat="45.56128" lon="6.71551">
        <ele>945.59997558594</ele>
        <time>2012-07-28T09:54:06Z</time>
      </trkpt>
      <trkpt lat="45.56128" lon="6.71542">
        <ele>945</ele>
        <time>2012-07-28T09:54:08Z</time>
      </trkpt>
      <trkpt lat="45.56123" lon="6.71515">
        <ele>943.20001220703</ele>
        <time>2012-07-28T09:54:14Z</time>
      </trkpt>
      <trkpt lat="45.56116" lon="6.71489">
        <ele>940.40002441406</ele>
        <time>2012-07-28T09:54:23Z</time>
      </trkpt>
      <trkpt lat="45.5611" lon="6.71473">
        <ele>937.79998779297</ele>
        <time>2012-07-28T09:54:33Z</time>
      </trkpt>
      <trkpt lat="45.56113" lon="6.71466">
        <ele>937.40002441406</ele>
        <time>2012-07-28T09:54:35Z</time>
      </trkpt>
      <trkpt lat="45.56113" lon="6.71463">
        <ele>936.59997558594</ele>
        <time>2012-07-28T09:54:38Z</time>
      </trkpt>
      <trkpt lat="45.56112" lon="6.71437">
        <ele>932.79998779297</ele>
        <time>2012-07-28T09:54:53Z</time>
      </trkpt>
      <trkpt lat="45.56118" lon="6.71412">
        <ele>931</ele>
        <time>2012-07-28T09:55:05Z</time>
      </trkpt>
      <trkpt lat="45.56117" lon="6.71387">
        <ele>930.20001220703</ele>
        <time>2012-07-28T09:55:16Z</time>
      </trkpt>
      <trkpt lat="45.56112" lon="6.7136">
        <ele>930.40002441406</ele>
        <time>2012-07-28T09:55:27Z</time>
      </trkpt>
      <trkpt lat="45.56107" lon="6.71335">
        <ele>930.79998779297</ele>
        <time>2012-07-28T09:55:40Z</time>
      </trkpt>
      <trkpt lat="45.56102" lon="6.71311">
        <ele>929.79998779297</ele>
        <time>2012-07-28T09:55:55Z</time>
      </trkpt>
      <trkpt lat="45.56101" lon="6.71283">
        <ele>928.59997558594</ele>
        <time>2012-07-28T09:56:04Z</time>
      </trkpt>
      <trkpt lat="45.56094" lon="6.71258">
        <ele>927.79998779297</ele>
        <time>2012-07-28T09:56:11Z</time>
      </trkpt>
      <trkpt lat="45.56085" lon="6.71236">
        <ele>927</ele>
        <time>2012-07-28T09:56:18Z</time>
      </trkpt>
      <trkpt lat="45.56087" lon="6.71208">
        <ele>926.40002441406</ele>
        <time>2012-07-28T09:56:25Z</time>
      </trkpt>
      <trkpt lat="45.56084" lon="6.71179">
        <ele>925.79998779297</ele>
        <time>2012-07-28T09:56:32Z</time>
      </trkpt>
      <trkpt lat="45.56075" lon="6.71156">
        <ele>925</ele>
        <time>2012-07-28T09:56:39Z</time>
      </trkpt>
      <trkpt lat="45.56075" lon="6.71148">
        <ele>924.79998779297</ele>
        <time>2012-07-28T09:56:41Z</time>
      </trkpt>
      <trkpt lat="45.5608" lon="6.71132">
        <ele>924.59997558594</ele>
        <time>2012-07-28T09:56:45Z</time>
      </trkpt>
      <trkpt lat="45.56069" lon="6.71113">
        <ele>924</ele>
        <time>2012-07-28T09:56:51Z</time>
      </trkpt>
      <trkpt lat="45.56067" lon="6.71111">
        <ele>923.79998779297</ele>
        <time>2012-07-28T09:56:52Z</time>
      </trkpt>
      <trkpt lat="45.56053" lon="6.71093">
        <ele>923.20001220703</ele>
        <time>2012-07-28T09:56:58Z</time>
      </trkpt>
      <trkpt lat="45.56037" lon="6.71079">
        <ele>922.40002441406</ele>
        <time>2012-07-28T09:57:04Z</time>
      </trkpt>
      <trkpt lat="45.56023" lon="6.71062">
        <ele>921.40002441406</ele>
        <time>2012-07-28T09:57:11Z</time>
      </trkpt>
      <trkpt lat="45.56006" lon="6.71046">
        <ele>920.79998779297</ele>
        <time>2012-07-28T09:57:16Z</time>
      </trkpt>
      <trkpt lat="45.55996" lon="6.71023">
        <ele>920</ele>
        <time>2012-07-28T09:57:23Z</time>
      </trkpt>
      <trkpt lat="45.55986" lon="6.70998">
        <ele>920.20001220703</ele>
        <time>2012-07-28T09:57:29Z</time>
      </trkpt>
      <trkpt lat="45.55983" lon="6.70994">
        <ele>921.40002441406</ele>
        <time>2012-07-28T09:57:33Z</time>
      </trkpt>
      <trkpt lat="45.55993" lon="6.71001">
        <ele>921</ele>
        <time>2012-07-28T09:57:37Z</time>
      </trkpt>
      <trkpt lat="45.56009" lon="6.71003">
        <ele>920.79998779297</ele>
        <time>2012-07-28T09:57:44Z</time>
      </trkpt>
      <trkpt lat="45.56011" lon="6.71003">
        <ele>920.59997558594</ele>
        <time>2012-07-28T09:57:45Z</time>
      </trkpt>
      <trkpt lat="45.56031" lon="6.71">
        <ele>919.59997558594</ele>
        <time>2012-07-28T09:57:52Z</time>
      </trkpt>
      <trkpt lat="45.56048" lon="6.70988">
        <ele>918.40002441406</ele>
        <time>2012-07-28T09:58:00Z</time>
      </trkpt>
      <trkpt lat="45.56052" lon="6.70985">
        <ele>918.20001220703</ele>
        <time>2012-07-28T09:58:02Z</time>
      </trkpt>
      <trkpt lat="45.56066" lon="6.70981">
        <ele>917.40002441406</ele>
        <time>2012-07-28T09:58:06Z</time>
      </trkpt>
      <trkpt lat="45.56085" lon="6.70973">
        <ele>916.40002441406</ele>
        <time>2012-07-28T09:58:12Z</time>
      </trkpt>
      <trkpt lat="45.56093" lon="6.70963">
        <ele>916</ele>
        <time>2012-07-28T09:58:15Z</time>
      </trkpt>
      <trkpt lat="45.56091" lon="6.70951">
        <ele>915.59997558594</ele>
        <time>2012-07-28T09:58:18Z</time>
      </trkpt>
      <trkpt lat="45.5609" lon="6.70947">
        <ele>915.40002441406</ele>
        <time>2012-07-28T09:58:19Z</time>
      </trkpt>
      <trkpt lat="45.56082" lon="6.70927">
        <ele>914.20001220703</ele>
        <time>2012-07-28T09:58:25Z</time>
      </trkpt>
      <trkpt lat="45.56073" lon="6.70903">
        <ele>913.20001220703</ele>
        <time>2012-07-28T09:58:32Z</time>
      </trkpt>
      <trkpt lat="45.56063" lon="6.70878">
        <ele>912.20001220703</ele>
        <time>2012-07-28T09:58:39Z</time>
      </trkpt>
      <trkpt lat="45.5606" lon="6.70855">
        <ele>911.79998779297</ele>
        <time>2012-07-28T09:58:45Z</time>
      </trkpt>
      <trkpt lat="45.56062" lon="6.70854">
        <ele>911.79998779297</ele>
        <time>2012-07-28T09:58:46Z</time>
      </trkpt>
      <trkpt lat="45.56072" lon="6.70856">
        <ele>911</ele>
        <time>2012-07-28T09:58:50Z</time>
      </trkpt>
      <trkpt lat="45.56081" lon="6.70855">
        <ele>910.59997558594</ele>
        <time>2012-07-28T09:58:53Z</time>
      </trkpt>
      <trkpt lat="45.561" lon="6.70849">
        <ele>909.59997558594</ele>
        <time>2012-07-28T09:59:00Z</time>
      </trkpt>
      <trkpt lat="45.56111" lon="6.70828">
        <ele>909</ele>
        <time>2012-07-28T09:59:06Z</time>
      </trkpt>
      <trkpt lat="45.56116" lon="6.70801">
        <ele>908.40002441406</ele>
        <time>2012-07-28T09:59:12Z</time>
      </trkpt>
      <trkpt lat="45.56123" lon="6.70773">
        <ele>907.59997558594</ele>
        <time>2012-07-28T09:59:19Z</time>
      </trkpt>
      <trkpt lat="45.56128" lon="6.70746">
        <ele>907.20001220703</ele>
        <time>2012-07-28T09:59:26Z</time>
      </trkpt>
      <trkpt lat="45.56123" lon="6.70721">
        <ele>906</ele>
        <time>2012-07-28T09:59:40Z</time>
      </trkpt>
      <trkpt lat="45.56123" lon="6.70715">
        <ele>905.79998779297</ele>
        <time>2012-07-28T09:59:43Z</time>
      </trkpt>
      <trkpt lat="45.56128" lon="6.70694">
        <ele>905.40002441406</ele>
        <time>2012-07-28T09:59:50Z</time>
      </trkpt>
      <trkpt lat="45.56129" lon="6.70666">
        <ele>904.79998779297</ele>
        <time>2012-07-28T09:59:57Z</time>
      </trkpt>
      <trkpt lat="45.56131" lon="6.70637">
        <ele>904.40002441406</ele>
        <time>2012-07-28T10:00:04Z</time>
      </trkpt>
      <trkpt lat="45.56132" lon="6.7061">
        <ele>903.79998779297</ele>
        <time>2012-07-28T10:00:12Z</time>
      </trkpt>
      <trkpt lat="45.56128" lon="6.70584">
        <ele>902.59997558594</ele>
        <time>2012-07-28T10:00:28Z</time>
      </trkpt>
      <trkpt lat="45.56122" lon="6.70558">
        <ele>901.59997558594</ele>
        <time>2012-07-28T10:00:42Z</time>
      </trkpt>
      <trkpt lat="45.56115" lon="6.70534">
        <ele>900.40002441406</ele>
        <time>2012-07-28T10:00:56Z</time>
      </trkpt>
      <trkpt lat="45.561" lon="6.7052">
        <ele>899.20001220703</ele>
        <time>2012-07-28T10:01:11Z</time>
      </trkpt>
      <trkpt lat="45.56094" lon="6.70513">
        <ele>898.79998779297</ele>
        <time>2012-07-28T10:01:16Z</time>
      </trkpt>
      <trkpt lat="45.56093" lon="6.70498">
        <ele>898.40002441406</ele>
        <time>2012-07-28T10:01:23Z</time>
      </trkpt>
      <trkpt lat="45.56089" lon="6.70492">
        <ele>898.40002441406</ele>
        <time>2012-07-28T10:01:27Z</time>
      </trkpt>
      <trkpt lat="45.56087" lon="6.7049">
        <ele>898.40002441406</ele>
        <time>2012-07-28T10:01:29Z</time>
      </trkpt>
      <trkpt lat="45.56083" lon="6.70476">
        <ele>898.40002441406</ele>
        <time>2012-07-28T10:01:38Z</time>
      </trkpt>
      <trkpt lat="45.56076" lon="6.70467">
        <ele>899</ele>
        <time>2012-07-28T10:01:43Z</time>
      </trkpt>
      <trkpt lat="45.56073" lon="6.70462">
        <ele>899.59997558594</ele>
        <time>2012-07-28T10:01:46Z</time>
      </trkpt>
      <trkpt lat="45.56072" lon="6.70455">
        <ele>900.59997558594</ele>
        <time>2012-07-28T10:01:50Z</time>
      </trkpt>
      <trkpt lat="45.56072" lon="6.70445">
        <ele>902</ele>
        <time>2012-07-28T10:01:53Z</time>
      </trkpt>
      <trkpt lat="45.5607" lon="6.70428">
        <ele>905.20001220703</ele>
        <time>2012-07-28T10:01:59Z</time>
      </trkpt>
      <trkpt lat="45.56068" lon="6.70426">
        <ele>905.79998779297</ele>
        <time>2012-07-28T10:02:03Z</time>
      </trkpt>
      <trkpt lat="45.56064" lon="6.70422">
        <ele>905.79998779297</ele>
        <time>2012-07-28T10:02:09Z</time>
      </trkpt>
      <trkpt lat="45.56063" lon="6.70418">
        <ele>906.40002441406</ele>
        <time>2012-07-28T10:02:11Z</time>
      </trkpt>
      <trkpt lat="45.56059" lon="6.70417">
        <ele>906.20001220703</ele>
        <time>2012-07-28T10:02:17Z</time>
      </trkpt>
      <trkpt lat="45.5606" lon="6.70407">
        <ele>906.59997558594</ele>
        <time>2012-07-28T10:02:21Z</time>
      </trkpt>
      <trkpt lat="45.56055" lon="6.70382">
        <ele>907.40002441406</ele>
        <time>2012-07-28T10:02:28Z</time>
      </trkpt>
      <trkpt lat="45.56055" lon="6.70368">
        <ele>908</ele>
        <time>2012-07-28T10:02:32Z</time>
      </trkpt>
      <trkpt lat="45.56054" lon="6.70363">
        <ele>908</ele>
        <time>2012-07-28T10:02:34Z</time>
      </trkpt>
      <trkpt lat="45.56051" lon="6.70352">
        <ele>908</ele>
        <time>2012-07-28T10:02:38Z</time>
      </trkpt>
      <trkpt lat="45.5605" lon="6.70344">
        <ele>908.20001220703</ele>
        <time>2012-07-28T10:02:40Z</time>
      </trkpt>
      <trkpt lat="45.56052" lon="6.7034">
        <ele>908.20001220703</ele>
        <time>2012-07-28T10:02:41Z</time>
      </trkpt>
      <trkpt lat="45.56054" lon="6.70322">
        <ele>908.20001220703</ele>
        <time>2012-07-28T10:02:46Z</time>
      </trkpt>
      <trkpt lat="45.56051" lon="6.70302">
        <ele>907.79998779297</ele>
        <time>2012-07-28T10:02:52Z</time>
      </trkpt>
      <trkpt lat="45.56048" lon="6.70298">
        <ele>907.40002441406</ele>
        <time>2012-07-28T10:02:54Z</time>
      </trkpt>
      <trkpt lat="45.56036" lon="6.70277">
        <ele>905.59997558594</ele>
        <time>2012-07-28T10:03:03Z</time>
      </trkpt>
      <trkpt lat="45.5602" lon="6.70261">
        <ele>904.40002441406</ele>
        <time>2012-07-28T10:03:10Z</time>
      </trkpt>
      <trkpt lat="45.56018" lon="6.70258">
        <ele>904.20001220703</ele>
        <time>2012-07-28T10:03:11Z</time>
      </trkpt>
      <trkpt lat="45.56013" lon="6.70238">
        <ele>903.59997558594</ele>
        <time>2012-07-28T10:03:17Z</time>
      </trkpt>
      <trkpt lat="45.56019" lon="6.70228">
        <ele>903.20001220703</ele>
        <time>2012-07-28T10:03:22Z</time>
      </trkpt>
      <trkpt lat="45.56021" lon="6.70227">
        <ele>902.79998779297</ele>
        <time>2012-07-28T10:03:26Z</time>
      </trkpt>
      <trkpt lat="45.56017" lon="6.70227">
        <ele>901.79998779297</ele>
        <time>2012-07-28T10:03:30Z</time>
      </trkpt>
      <trkpt lat="45.56014" lon="6.70228">
        <ele>900.59997558594</ele>
        <time>2012-07-28T10:03:34Z</time>
      </trkpt>
      <trkpt lat="45.56013" lon="6.70228">
        <ele>900.40002441406</ele>
        <time>2012-07-28T10:03:35Z</time>
      </trkpt>
      <trkpt lat="45.56016" lon="6.70223">
        <ele>897.40002441406</ele>
        <time>2012-07-28T10:03:45Z</time>
      </trkpt>
      <trkpt lat="45.56018" lon="6.70217">
        <ele>897</ele>
        <time>2012-07-28T10:03:47Z</time>
      </trkpt>
      <trkpt lat="45.56014" lon="6.70203">
        <ele>896</ele>
        <time>2012-07-28T10:03:51Z</time>
      </trkpt>
      <trkpt lat="45.56013" lon="6.70177">
        <ele>895</ele>
        <time>2012-07-28T10:03:57Z</time>
      </trkpt>
      <trkpt lat="45.56016" lon="6.70149">
        <ele>893.79998779297</ele>
        <time>2012-07-28T10:04:04Z</time>
      </trkpt>
      <trkpt lat="45.56016" lon="6.70121">
        <ele>892.79998779297</ele>
        <time>2012-07-28T10:04:12Z</time>
      </trkpt>
      <trkpt lat="45.56013" lon="6.70112">
        <ele>892.59997558594</ele>
        <time>2012-07-28T10:04:15Z</time>
      </trkpt>
      <trkpt lat="45.56015" lon="6.70094">
        <ele>892.20001220703</ele>
        <time>2012-07-28T10:04:20Z</time>
      </trkpt>
      <trkpt lat="45.56019" lon="6.70071">
        <ele>892</ele>
        <time>2012-07-28T10:04:26Z</time>
      </trkpt>
      <trkpt lat="45.5602" lon="6.70067">
        <ele>892</ele>
        <time>2012-07-28T10:04:27Z</time>
      </trkpt>
      <trkpt lat="45.56023" lon="6.70041">
        <ele>891.59997558594</ele>
        <time>2012-07-28T10:04:35Z</time>
      </trkpt>
      <trkpt lat="45.5603" lon="6.70024">
        <ele>891.40002441406</ele>
        <time>2012-07-28T10:04:41Z</time>
      </trkpt>
      <trkpt lat="45.56032" lon="6.70017">
        <ele>891.40002441406</ele>
        <time>2012-07-28T10:04:43Z</time>
      </trkpt>
      <trkpt lat="45.56032" lon="6.70007">
        <ele>891.59997558594</ele>
        <time>2012-07-28T10:04:46Z</time>
      </trkpt>
      <trkpt lat="45.5603" lon="6.69997">
        <ele>891.79998779297</ele>
        <time>2012-07-28T10:04:50Z</time>
      </trkpt>
      <trkpt lat="45.5603" lon="6.69989">
        <ele>892.59997558594</ele>
        <time>2012-07-28T10:04:53Z</time>
      </trkpt>
      <trkpt lat="45.5603" lon="6.69985">
        <ele>893</ele>
        <time>2012-07-28T10:04:54Z</time>
      </trkpt>
      <trkpt lat="45.56027" lon="6.69961">
        <ele>894.59997558594</ele>
        <time>2012-07-28T10:05:01Z</time>
      </trkpt>
      <trkpt lat="45.56025" lon="6.69953">
        <ele>895.20001220703</ele>
        <time>2012-07-28T10:05:03Z</time>
      </trkpt>
      <trkpt lat="45.56024" lon="6.69934">
        <ele>895.40002441406</ele>
        <time>2012-07-28T10:05:11Z</time>
      </trkpt>
      <trkpt lat="45.56021" lon="6.69929">
        <ele>895.20001220703</ele>
        <time>2012-07-28T10:05:14Z</time>
      </trkpt>
      <trkpt lat="45.5602" lon="6.69914">
        <ele>894.79998779297</ele>
        <time>2012-07-28T10:05:21Z</time>
      </trkpt>
      <trkpt lat="45.5602" lon="6.69912">
        <ele>894.59997558594</ele>
        <time>2012-07-28T10:05:23Z</time>
      </trkpt>
      <trkpt lat="45.5602" lon="6.6991">
        <ele>894.59997558594</ele>
        <time>2012-07-28T10:05:24Z</time>
      </trkpt>
      <trkpt lat="45.56021" lon="6.69892">
        <ele>894.20001220703</ele>
        <time>2012-07-28T10:05:31Z</time>
      </trkpt>
      <trkpt lat="45.56023" lon="6.69884">
        <ele>894</ele>
        <time>2012-07-28T10:05:33Z</time>
      </trkpt>
      <trkpt lat="45.56023" lon="6.69875">
        <ele>893.79998779297</ele>
        <time>2012-07-28T10:05:36Z</time>
      </trkpt>
      <trkpt lat="45.56017" lon="6.69859">
        <ele>893.40002441406</ele>
        <time>2012-07-28T10:05:41Z</time>
      </trkpt>
      <trkpt lat="45.56018" lon="6.69831">
        <ele>893.59997558594</ele>
        <time>2012-07-28T10:05:46Z</time>
      </trkpt>
      <trkpt lat="45.56013" lon="6.69805">
        <ele>893.40002441406</ele>
        <time>2012-07-28T10:05:52Z</time>
      </trkpt>
      <trkpt lat="45.56002" lon="6.6978">
        <ele>893.40002441406</ele>
        <time>2012-07-28T10:05:59Z</time>
      </trkpt>
      <trkpt lat="45.56002" lon="6.6977">
        <ele>893.40002441406</ele>
        <time>2012-07-28T10:06:03Z</time>
      </trkpt>
      <trkpt lat="45.55999" lon="6.69761">
        <ele>893.20001220703</ele>
        <time>2012-07-28T10:06:06Z</time>
      </trkpt>
      <trkpt lat="45.55999" lon="6.69754">
        <ele>892.79998779297</ele>
        <time>2012-07-28T10:06:10Z</time>
      </trkpt>
      <trkpt lat="45.55996" lon="6.69747">
        <ele>892</ele>
        <time>2012-07-28T10:06:15Z</time>
      </trkpt>
      <trkpt lat="45.55991" lon="6.69734">
        <ele>891.20001220703</ele>
        <time>2012-07-28T10:06:21Z</time>
      </trkpt>
      <trkpt lat="45.55991" lon="6.6973">
        <ele>891</ele>
        <time>2012-07-28T10:06:22Z</time>
      </trkpt>
      <trkpt lat="45.55989" lon="6.69722">
        <ele>890.59997558594</ele>
        <time>2012-07-28T10:06:25Z</time>
      </trkpt>
      <trkpt lat="45.55983" lon="6.69708">
        <ele>890.20001220703</ele>
        <time>2012-07-28T10:06:29Z</time>
      </trkpt>
      <trkpt lat="45.55978" lon="6.697">
        <ele>889.79998779297</ele>
        <time>2012-07-28T10:06:32Z</time>
      </trkpt>
      <trkpt lat="45.55979" lon="6.69686">
        <ele>889.59997558594</ele>
        <time>2012-07-28T10:06:36Z</time>
      </trkpt>
      <trkpt lat="45.5598" lon="6.69684">
        <ele>889.40002441406</ele>
        <time>2012-07-28T10:06:38Z</time>
      </trkpt>
      <trkpt lat="45.55981" lon="6.69684">
        <ele>887.59997558594</ele>
        <time>2012-07-28T10:06:45Z</time>
      </trkpt>
      <trkpt lat="45.55984" lon="6.69681">
        <ele>886</ele>
        <time>2012-07-28T10:06:51Z</time>
      </trkpt>
      <trkpt lat="45.55982" lon="6.69676">
        <ele>885.40002441406</ele>
        <time>2012-07-28T10:06:53Z</time>
      </trkpt>
      <trkpt lat="45.55983" lon="6.69665">
        <ele>883.79998779297</ele>
        <time>2012-07-28T10:06:59Z</time>
      </trkpt>
      <trkpt lat="45.55985" lon="6.6965">
        <ele>882</ele>
        <time>2012-07-28T10:07:04Z</time>
      </trkpt>
      <trkpt lat="45.55988" lon="6.69638">
        <ele>881</ele>
        <time>2012-07-28T10:07:07Z</time>
      </trkpt>
      <trkpt lat="45.55993" lon="6.69614">
        <ele>878.40002441406</ele>
        <time>2012-07-28T10:07:14Z</time>
      </trkpt>
      <trkpt lat="45.55994" lon="6.69612">
        <ele>878.20001220703</ele>
        <time>2012-07-28T10:07:15Z</time>
      </trkpt>
      <trkpt lat="45.55996" lon="6.69588">
        <ele>875.79998779297</ele>
        <time>2012-07-28T10:07:22Z</time>
      </trkpt>
      <trkpt lat="45.55997" lon="6.69577">
        <ele>874.59997558594</ele>
        <time>2012-07-28T10:07:25Z</time>
      </trkpt>
      <trkpt lat="45.56" lon="6.69562">
        <ele>873.40002441406</ele>
        <time>2012-07-28T10:07:29Z</time>
      </trkpt>
      <trkpt lat="45.56012" lon="6.69536">
        <ele>871.59997558594</ele>
        <time>2012-07-28T10:07:36Z</time>
      </trkpt>
      <trkpt lat="45.56014" lon="6.69526">
        <ele>871.40002441406</ele>
        <time>2012-07-28T10:07:38Z</time>
      </trkpt>
      <trkpt lat="45.56013" lon="6.69511">
        <ele>870.59997558594</ele>
        <time>2012-07-28T10:07:42Z</time>
      </trkpt>
      <trkpt lat="45.56012" lon="6.69507">
        <ele>870.40002441406</ele>
        <time>2012-07-28T10:07:43Z</time>
      </trkpt>
      <trkpt lat="45.56011" lon="6.69501">
        <ele>870</ele>
        <time>2012-07-28T10:07:45Z</time>
      </trkpt>
      <trkpt lat="45.56004" lon="6.6949">
        <ele>869</ele>
        <time>2012-07-28T10:07:50Z</time>
      </trkpt>
      <trkpt lat="45.56001" lon="6.69465">
        <ele>867.59997558594</ele>
        <time>2012-07-28T10:07:57Z</time>
      </trkpt>
      <trkpt lat="45.56001" lon="6.69436">
        <ele>867</ele>
        <time>2012-07-28T10:08:03Z</time>
      </trkpt>
      <trkpt lat="45.56008" lon="6.6941">
        <ele>866.40002441406</ele>
        <time>2012-07-28T10:08:09Z</time>
      </trkpt>
      <trkpt lat="45.56015" lon="6.69385">
        <ele>865.40002441406</ele>
        <time>2012-07-28T10:08:17Z</time>
      </trkpt>
      <trkpt lat="45.56013" lon="6.69358">
        <ele>864.40002441406</ele>
        <time>2012-07-28T10:08:24Z</time>
      </trkpt>
      <trkpt lat="45.5601" lon="6.69328">
        <ele>863.20001220703</ele>
        <time>2012-07-28T10:08:33Z</time>
      </trkpt>
      <trkpt lat="45.56011" lon="6.69299">
        <ele>862.40002441406</ele>
        <time>2012-07-28T10:08:40Z</time>
      </trkpt>
      <trkpt lat="45.5601" lon="6.69289">
        <ele>862</ele>
        <time>2012-07-28T10:08:44Z</time>
      </trkpt>
      <trkpt lat="45.56007" lon="6.69282">
        <ele>861.40002441406</ele>
        <time>2012-07-28T10:08:48Z</time>
      </trkpt>
      <trkpt lat="45.56009" lon="6.69271">
        <ele>861</ele>
        <time>2012-07-28T10:08:52Z</time>
      </trkpt>
      <trkpt lat="45.56009" lon="6.69255">
        <ele>860.79998779297</ele>
        <time>2012-07-28T10:08:58Z</time>
      </trkpt>
      <trkpt lat="45.5601" lon="6.69242">
        <ele>860.59997558594</ele>
        <time>2012-07-28T10:09:03Z</time>
      </trkpt>
      <trkpt lat="45.56009" lon="6.69232">
        <ele>860.59997558594</ele>
        <time>2012-07-28T10:09:07Z</time>
      </trkpt>
      <trkpt lat="45.56005" lon="6.69217">
        <ele>860.20001220703</ele>
        <time>2012-07-28T10:09:14Z</time>
      </trkpt>
      <trkpt lat="45.55993" lon="6.69194">
        <ele>859.59997558594</ele>
        <time>2012-07-28T10:09:22Z</time>
      </trkpt>
      <trkpt lat="45.55983" lon="6.6917">
        <ele>858.79998779297</ele>
        <time>2012-07-28T10:09:30Z</time>
      </trkpt>
      <trkpt lat="45.55983" lon="6.69167">
        <ele>858.59997558594</ele>
        <time>2012-07-28T10:09:31Z</time>
      </trkpt>
      <trkpt lat="45.55983" lon="6.69161">
        <ele>858.40002441406</ele>
        <time>2012-07-28T10:09:33Z</time>
      </trkpt>
      <trkpt lat="45.55986" lon="6.69146">
        <ele>857.59997558594</ele>
        <time>2012-07-28T10:09:38Z</time>
      </trkpt>
      <trkpt lat="45.55985" lon="6.69137">
        <ele>857.40002441406</ele>
        <time>2012-07-28T10:09:40Z</time>
      </trkpt>
      <trkpt lat="45.55981" lon="6.69121">
        <ele>856.79998779297</ele>
        <time>2012-07-28T10:09:44Z</time>
      </trkpt>
      <trkpt lat="45.55977" lon="6.69114">
        <ele>856.40002441406</ele>
        <time>2012-07-28T10:09:46Z</time>
      </trkpt>
      <trkpt lat="45.55978" lon="6.69095">
        <ele>855.79998779297</ele>
        <time>2012-07-28T10:09:50Z</time>
      </trkpt>
      <trkpt lat="45.55976" lon="6.69069">
        <ele>855</ele>
        <time>2012-07-28T10:09:56Z</time>
      </trkpt>
      <trkpt lat="45.55977" lon="6.69066">
        <ele>855</ele>
        <time>2012-07-28T10:09:57Z</time>
      </trkpt>
      <trkpt lat="45.55982" lon="6.69044">
        <ele>854</ele>
        <time>2012-07-28T10:10:05Z</time>
      </trkpt>
      <trkpt lat="45.55979" lon="6.69027">
        <ele>853.79998779297</ele>
        <time>2012-07-28T10:10:09Z</time>
      </trkpt>
      <trkpt lat="45.55975" lon="6.69018">
        <ele>853.59997558594</ele>
        <time>2012-07-28T10:10:11Z</time>
      </trkpt>
      <trkpt lat="45.5597" lon="6.6899">
        <ele>852.79998779297</ele>
        <time>2012-07-28T10:10:18Z</time>
      </trkpt>
      <trkpt lat="45.55963" lon="6.68963">
        <ele>852.20001220703</ele>
        <time>2012-07-28T10:10:26Z</time>
      </trkpt>
      <trkpt lat="45.55952" lon="6.68939">
        <ele>851.59997558594</ele>
        <time>2012-07-28T10:10:33Z</time>
      </trkpt>
      <trkpt lat="45.55943" lon="6.68913">
        <ele>851</ele>
        <time>2012-07-28T10:10:40Z</time>
      </trkpt>
      <trkpt lat="45.55931" lon="6.68889">
        <ele>850.40002441406</ele>
        <time>2012-07-28T10:10:46Z</time>
      </trkpt>
      <trkpt lat="45.55921" lon="6.68866">
        <ele>850</ele>
        <time>2012-07-28T10:10:53Z</time>
      </trkpt>
      <trkpt lat="45.5592" lon="6.68861">
        <ele>850</ele>
        <time>2012-07-28T10:10:55Z</time>
      </trkpt>
      <trkpt lat="45.55909" lon="6.68844">
        <ele>849.59997558594</ele>
        <time>2012-07-28T10:11:02Z</time>
      </trkpt>
      <trkpt lat="45.55894" lon="6.68833">
        <ele>848.79998779297</ele>
        <time>2012-07-28T10:11:11Z</time>
      </trkpt>
      <trkpt lat="45.55893" lon="6.6883">
        <ele>848.79998779297</ele>
        <time>2012-07-28T10:11:12Z</time>
      </trkpt>
      <trkpt lat="45.55886" lon="6.68819">
        <ele>848.20001220703</ele>
        <time>2012-07-28T10:11:16Z</time>
      </trkpt>
      <trkpt lat="45.55882" lon="6.68807">
        <ele>847.79998779297</ele>
        <time>2012-07-28T10:11:19Z</time>
      </trkpt>
      <trkpt lat="45.55872" lon="6.68795">
        <ele>847</ele>
        <time>2012-07-28T10:11:25Z</time>
      </trkpt>
      <trkpt lat="45.55869" lon="6.68786">
        <ele>847</ele>
        <time>2012-07-28T10:11:27Z</time>
      </trkpt>
      <trkpt lat="45.55867" lon="6.68776">
        <ele>846.79998779297</ele>
        <time>2012-07-28T10:11:29Z</time>
      </trkpt>
      <trkpt lat="45.55861" lon="6.68758">
        <ele>846.59997558594</ele>
        <time>2012-07-28T10:11:33Z</time>
      </trkpt>
      <trkpt lat="45.55852" lon="6.68739">
        <ele>845.79998779297</ele>
        <time>2012-07-28T10:11:40Z</time>
      </trkpt>
      <trkpt lat="45.55849" lon="6.68736">
        <ele>845.59997558594</ele>
        <time>2012-07-28T10:11:42Z</time>
      </trkpt>
      <trkpt lat="45.55846" lon="6.68726">
        <ele>845.20001220703</ele>
        <time>2012-07-28T10:11:46Z</time>
      </trkpt>
      <trkpt lat="45.5584" lon="6.68712">
        <ele>844.79998779297</ele>
        <time>2012-07-28T10:11:50Z</time>
      </trkpt>
      <trkpt lat="45.55826" lon="6.68691">
        <ele>844.20001220703</ele>
        <time>2012-07-28T10:11:57Z</time>
      </trkpt>
      <trkpt lat="45.55814" lon="6.68669">
        <ele>843.79998779297</ele>
        <time>2012-07-28T10:12:04Z</time>
      </trkpt>
      <trkpt lat="45.55803" lon="6.68648">
        <ele>843.40002441406</ele>
        <time>2012-07-28T10:12:11Z</time>
      </trkpt>
      <trkpt lat="45.55791" lon="6.68625">
        <ele>842.79998779297</ele>
        <time>2012-07-28T10:12:18Z</time>
      </trkpt>
      <trkpt lat="45.5578" lon="6.68604">
        <ele>841.79998779297</ele>
        <time>2012-07-28T10:12:25Z</time>
      </trkpt>
      <trkpt lat="45.55766" lon="6.68583">
        <ele>840.59997558594</ele>
        <time>2012-07-28T10:12:33Z</time>
      </trkpt>
      <trkpt lat="45.55755" lon="6.68569">
        <ele>839.20001220703</ele>
        <time>2012-07-28T10:12:39Z</time>
      </trkpt>
      <trkpt lat="45.55754" lon="6.68564">
        <ele>838.79998779297</ele>
        <time>2012-07-28T10:12:41Z</time>
      </trkpt>
      <trkpt lat="45.55745" lon="6.6854">
        <ele>837</ele>
        <time>2012-07-28T10:12:49Z</time>
      </trkpt>
      <trkpt lat="45.55745" lon="6.68535">
        <ele>836.79998779297</ele>
        <time>2012-07-28T10:12:50Z</time>
      </trkpt>
      <trkpt lat="45.5574" lon="6.68513">
        <ele>835.79998779297</ele>
        <time>2012-07-28T10:12:56Z</time>
      </trkpt>
      <trkpt lat="45.55735" lon="6.68486">
        <ele>835</ele>
        <time>2012-07-28T10:13:02Z</time>
      </trkpt>
      <trkpt lat="45.55728" lon="6.6846">
        <ele>833.20001220703</ele>
        <time>2012-07-28T10:13:11Z</time>
      </trkpt>
      <trkpt lat="45.55722" lon="6.68435">
        <ele>831.59997558594</ele>
        <time>2012-07-28T10:13:19Z</time>
      </trkpt>
      <trkpt lat="45.55722" lon="6.68432">
        <ele>831.40002441406</ele>
        <time>2012-07-28T10:13:20Z</time>
      </trkpt>
      <trkpt lat="45.55737" lon="6.68427">
        <ele>830</ele>
        <time>2012-07-28T10:13:27Z</time>
      </trkpt>
      <trkpt lat="45.55755" lon="6.68428">
        <ele>828.59997558594</ele>
        <time>2012-07-28T10:13:33Z</time>
      </trkpt>
      <trkpt lat="45.55771" lon="6.68443">
        <ele>827</ele>
        <time>2012-07-28T10:13:40Z</time>
      </trkpt>
      <trkpt lat="45.55786" lon="6.6846">
        <ele>824.59997558594</ele>
        <time>2012-07-28T10:13:48Z</time>
      </trkpt>
      <trkpt lat="45.55802" lon="6.68476">
        <ele>821</ele>
        <time>2012-07-28T10:13:57Z</time>
      </trkpt>
      <trkpt lat="45.5582" lon="6.6847">
        <ele>819.59997558594</ele>
        <time>2012-07-28T10:14:02Z</time>
      </trkpt>
      <trkpt lat="45.55835" lon="6.68451">
        <ele>817.79998779297</ele>
        <time>2012-07-28T10:14:08Z</time>
      </trkpt>
      <trkpt lat="45.55849" lon="6.68432">
        <ele>816.20001220703</ele>
        <time>2012-07-28T10:14:15Z</time>
      </trkpt>
      <trkpt lat="45.55868" lon="6.6842">
        <ele>814.59997558594</ele>
        <time>2012-07-28T10:14:22Z</time>
      </trkpt>
      <trkpt lat="45.55887" lon="6.68414">
        <ele>812.79998779297</ele>
        <time>2012-07-28T10:14:29Z</time>
      </trkpt>
      <trkpt lat="45.55908" lon="6.68408">
        <ele>810.79998779297</ele>
        <time>2012-07-28T10:14:36Z</time>
      </trkpt>
      <trkpt lat="45.55928" lon="6.68409">
        <ele>808.59997558594</ele>
        <time>2012-07-28T10:14:43Z</time>
      </trkpt>
      <trkpt lat="45.55946" lon="6.68413">
        <ele>806.59997558594</ele>
        <time>2012-07-28T10:14:49Z</time>
      </trkpt>
      <trkpt lat="45.55962" lon="6.6842">
        <ele>804.59997558594</ele>
        <time>2012-07-28T10:14:55Z</time>
      </trkpt>
      <trkpt lat="45.55964" lon="6.6842">
        <ele>804.20001220703</ele>
        <time>2012-07-28T10:14:56Z</time>
      </trkpt>
      <trkpt lat="45.55981" lon="6.68422">
        <ele>802</ele>
        <time>2012-07-28T10:15:04Z</time>
      </trkpt>
      <trkpt lat="45.56" lon="6.68429">
        <ele>799</ele>
        <time>2012-07-28T10:15:13Z</time>
      </trkpt>
      <trkpt lat="45.56017" lon="6.68422">
        <ele>796.20001220703</ele>
        <time>2012-07-28T10:15:21Z</time>
      </trkpt>
      <trkpt lat="45.56028" lon="6.684">
        <ele>794.40002441406</ele>
        <time>2012-07-28T10:15:27Z</time>
      </trkpt>
      <trkpt lat="45.56028" lon="6.68377">
        <ele>793</ele>
        <time>2012-07-28T10:15:32Z</time>
      </trkpt>
      <trkpt lat="45.56028" lon="6.68373">
        <ele>792.79998779297</ele>
        <time>2012-07-28T10:15:33Z</time>
      </trkpt>
      <trkpt lat="45.56034" lon="6.68348">
        <ele>791.59997558594</ele>
        <time>2012-07-28T10:15:39Z</time>
      </trkpt>
      <trkpt lat="45.56046" lon="6.68325">
        <ele>790.40002441406</ele>
        <time>2012-07-28T10:15:46Z</time>
      </trkpt>
      <trkpt lat="45.56051" lon="6.68298">
        <ele>789</ele>
        <time>2012-07-28T10:15:53Z</time>
      </trkpt>
      <trkpt lat="45.56049" lon="6.68272">
        <ele>788</ele>
        <time>2012-07-28T10:15:59Z</time>
      </trkpt>
      <trkpt lat="45.56056" lon="6.68253">
        <ele>787</ele>
        <time>2012-07-28T10:16:05Z</time>
      </trkpt>
      <trkpt lat="45.56057" lon="6.68249">
        <ele>786.79998779297</ele>
        <time>2012-07-28T10:16:06Z</time>
      </trkpt>
      <trkpt lat="45.5607" lon="6.68227">
        <ele>785.59997558594</ele>
        <time>2012-07-28T10:16:13Z</time>
      </trkpt>
      <trkpt lat="45.56084" lon="6.68212">
        <ele>784.40002441406</ele>
        <time>2012-07-28T10:16:19Z</time>
      </trkpt>
      <trkpt lat="45.56099" lon="6.68196">
        <ele>782.79998779297</ele>
        <time>2012-07-28T10:16:26Z</time>
      </trkpt>
      <trkpt lat="45.56104" lon="6.68169">
        <ele>781.40002441406</ele>
        <time>2012-07-28T10:16:33Z</time>
      </trkpt>
      <trkpt lat="45.56115" lon="6.68151">
        <ele>780</ele>
        <time>2012-07-28T10:16:40Z</time>
      </trkpt>
      <trkpt lat="45.56129" lon="6.6813">
        <ele>778.40002441406</ele>
        <time>2012-07-28T10:16:48Z</time>
      </trkpt>
      <trkpt lat="45.56142" lon="6.68111">
        <ele>776.79998779297</ele>
        <time>2012-07-28T10:16:55Z</time>
      </trkpt>
      <trkpt lat="45.56157" lon="6.68093">
        <ele>775.20001220703</ele>
        <time>2012-07-28T10:17:02Z</time>
      </trkpt>
      <trkpt lat="45.56172" lon="6.68076">
        <ele>773.40002441406</ele>
        <time>2012-07-28T10:17:08Z</time>
      </trkpt>
      <trkpt lat="45.56176" lon="6.68069">
        <ele>772.79998779297</ele>
        <time>2012-07-28T10:17:10Z</time>
      </trkpt>
      <trkpt lat="45.56178" lon="6.68051">
        <ele>770.79998779297</ele>
        <time>2012-07-28T10:17:15Z</time>
      </trkpt>
      <trkpt lat="45.56181" lon="6.68025">
        <ele>768</ele>
        <time>2012-07-28T10:17:22Z</time>
      </trkpt>
      <trkpt lat="45.56188" lon="6.67997">
        <ele>764.40002441406</ele>
        <time>2012-07-28T10:17:30Z</time>
      </trkpt>
      <trkpt lat="45.56195" lon="6.6797">
        <ele>761.20001220703</ele>
        <time>2012-07-28T10:17:37Z</time>
      </trkpt>
      <trkpt lat="45.56207" lon="6.67952">
        <ele>758</ele>
        <time>2012-07-28T10:17:44Z</time>
      </trkpt>
      <trkpt lat="45.56208" lon="6.67949">
        <ele>757.59997558594</ele>
        <time>2012-07-28T10:17:45Z</time>
      </trkpt>
      <trkpt lat="45.56223" lon="6.67933">
        <ele>755.20001220703</ele>
        <time>2012-07-28T10:17:51Z</time>
      </trkpt>
      <trkpt lat="45.56238" lon="6.67916">
        <ele>751.79998779297</ele>
        <time>2012-07-28T10:17:59Z</time>
      </trkpt>
      <trkpt lat="45.56234" lon="6.67903">
        <ele>749.59997558594</ele>
        <time>2012-07-28T10:18:04Z</time>
      </trkpt>
      <trkpt lat="45.56232" lon="6.6789">
        <ele>748</ele>
        <time>2012-07-28T10:18:08Z</time>
      </trkpt>
      <trkpt lat="45.56243" lon="6.67866">
        <ele>745.20001220703</ele>
        <time>2012-07-28T10:18:15Z</time>
      </trkpt>
      <trkpt lat="45.56252" lon="6.67842">
        <ele>742.79998779297</ele>
        <time>2012-07-28T10:18:21Z</time>
      </trkpt>
      <trkpt lat="45.5626" lon="6.67821">
        <ele>740.40002441406</ele>
        <time>2012-07-28T10:18:27Z</time>
      </trkpt>
      <trkpt lat="45.5626" lon="6.67817">
        <ele>740</ele>
        <time>2012-07-28T10:18:28Z</time>
      </trkpt>
      <trkpt lat="45.56263" lon="6.67805">
        <ele>738.79998779297</ele>
        <time>2012-07-28T10:18:31Z</time>
      </trkpt>
      <trkpt lat="45.56269" lon="6.67791">
        <ele>737</ele>
        <time>2012-07-28T10:18:35Z</time>
      </trkpt>
      <trkpt lat="45.56268" lon="6.67775">
        <ele>735.20001220703</ele>
        <time>2012-07-28T10:18:39Z</time>
      </trkpt>
      <trkpt lat="45.56264" lon="6.67767">
        <ele>734.59997558594</ele>
        <time>2012-07-28T10:18:41Z</time>
      </trkpt>
      <trkpt lat="45.56254" lon="6.67741">
        <ele>731.79998779297</ele>
        <time>2012-07-28T10:18:48Z</time>
      </trkpt>
      <trkpt lat="45.56244" lon="6.67717">
        <ele>728.20001220703</ele>
        <time>2012-07-28T10:18:58Z</time>
      </trkpt>
      <trkpt lat="45.56239" lon="6.67704">
        <ele>726.40002441406</ele>
        <time>2012-07-28T10:19:04Z</time>
      </trkpt>
      <trkpt lat="45.56235" lon="6.67694">
        <ele>724.59997558594</ele>
        <time>2012-07-28T10:19:09Z</time>
      </trkpt>
      <trkpt lat="45.56233" lon="6.67691">
        <ele>724</ele>
        <time>2012-07-28T10:19:11Z</time>
      </trkpt>
      <trkpt lat="45.56227" lon="6.67682">
        <ele>721.59997558594</ele>
        <time>2012-07-28T10:19:18Z</time>
      </trkpt>
      <trkpt lat="45.56221" lon="6.67675">
        <ele>719.79998779297</ele>
        <time>2012-07-28T10:19:23Z</time>
      </trkpt>
      <trkpt lat="45.56205" lon="6.67659">
        <ele>717.40002441406</ele>
        <time>2012-07-28T10:19:31Z</time>
      </trkpt>
      <trkpt lat="45.5619" lon="6.67643">
        <ele>715.20001220703</ele>
        <time>2012-07-28T10:19:38Z</time>
      </trkpt>
      <trkpt lat="45.56189" lon="6.67641">
        <ele>715</ele>
        <time>2012-07-28T10:19:39Z</time>
      </trkpt>
      <trkpt lat="45.56186" lon="6.67635">
        <ele>714.40002441406</ele>
        <time>2012-07-28T10:19:41Z</time>
      </trkpt>
      <trkpt lat="45.56176" lon="6.67626">
        <ele>713.40002441406</ele>
        <time>2012-07-28T10:19:45Z</time>
      </trkpt>
      <trkpt lat="45.56162" lon="6.6761">
        <ele>711.40002441406</ele>
        <time>2012-07-28T10:19:52Z</time>
      </trkpt>
      <trkpt lat="45.56148" lon="6.67595">
        <ele>709.79998779297</ele>
        <time>2012-07-28T10:19:58Z</time>
      </trkpt>
      <trkpt lat="45.56135" lon="6.67573">
        <ele>708.20001220703</ele>
        <time>2012-07-28T10:20:05Z</time>
      </trkpt>
      <trkpt lat="45.56124" lon="6.67553">
        <ele>707</ele>
        <time>2012-07-28T10:20:11Z</time>
      </trkpt>
      <trkpt lat="45.56111" lon="6.67531">
        <ele>705.59997558594</ele>
        <time>2012-07-28T10:20:18Z</time>
      </trkpt>
      <trkpt lat="45.56099" lon="6.6751">
        <ele>704.59997558594</ele>
        <time>2012-07-28T10:20:24Z</time>
      </trkpt>
      <trkpt lat="45.56089" lon="6.67485">
        <ele>703.40002441406</ele>
        <time>2012-07-28T10:20:31Z</time>
      </trkpt>
      <trkpt lat="45.56086" lon="6.67468">
        <ele>702.79998779297</ele>
        <time>2012-07-28T10:20:35Z</time>
      </trkpt>
      <trkpt lat="45.56084" lon="6.67458">
        <ele>702.40002441406</ele>
        <time>2012-07-28T10:20:38Z</time>
      </trkpt>
      <trkpt lat="45.56081" lon="6.67448">
        <ele>701.59997558594</ele>
        <time>2012-07-28T10:20:43Z</time>
      </trkpt>
      <trkpt lat="45.56078" lon="6.67441">
        <ele>701</ele>
        <time>2012-07-28T10:20:47Z</time>
      </trkpt>
      <trkpt lat="45.56078" lon="6.67439">
        <ele>700.79998779297</ele>
        <time>2012-07-28T10:20:48Z</time>
      </trkpt>
      <trkpt lat="45.56075" lon="6.67434">
        <ele>700.40002441406</ele>
        <time>2012-07-28T10:20:51Z</time>
      </trkpt>
      <trkpt lat="45.56067" lon="6.6741">
        <ele>698.59997558594</ele>
        <time>2012-07-28T10:21:04Z</time>
      </trkpt>
      <trkpt lat="45.56066" lon="6.67405">
        <ele>698.40002441406</ele>
        <time>2012-07-28T10:21:06Z</time>
      </trkpt>
      <trkpt lat="45.56058" lon="6.67386">
        <ele>697.59997558594</ele>
        <time>2012-07-28T10:21:13Z</time>
      </trkpt>
      <trkpt lat="45.56051" lon="6.67359">
        <ele>696.79998779297</ele>
        <time>2012-07-28T10:21:20Z</time>
      </trkpt>
      <trkpt lat="45.56042" lon="6.67332">
        <ele>696</ele>
        <time>2012-07-28T10:21:27Z</time>
      </trkpt>
      <trkpt lat="45.56039" lon="6.67307">
        <ele>695.40002441406</ele>
        <time>2012-07-28T10:21:33Z</time>
      </trkpt>
      <trkpt lat="45.56034" lon="6.6728">
        <ele>694.40002441406</ele>
        <time>2012-07-28T10:21:40Z</time>
      </trkpt>
      <trkpt lat="45.56032" lon="6.67266">
        <ele>693.79998779297</ele>
        <time>2012-07-28T10:21:45Z</time>
      </trkpt>
      <trkpt lat="45.56031" lon="6.67254">
        <ele>693.20001220703</ele>
        <time>2012-07-28T10:21:51Z</time>
      </trkpt>
      <trkpt lat="45.56031" lon="6.67252">
        <ele>693.20001220703</ele>
        <time>2012-07-28T10:21:52Z</time>
      </trkpt>
      <trkpt lat="45.56028" lon="6.67227">
        <ele>691.79998779297</ele>
        <time>2012-07-28T10:22:03Z</time>
      </trkpt>
      <trkpt lat="45.56027" lon="6.67218">
        <ele>691.20001220703</ele>
        <time>2012-07-28T10:22:07Z</time>
      </trkpt>
      <trkpt lat="45.56031" lon="6.67202">
        <ele>690.40002441406</ele>
        <time>2012-07-28T10:22:13Z</time>
      </trkpt>
      <trkpt lat="45.56038" lon="6.67177">
        <ele>689.59997558594</ele>
        <time>2012-07-28T10:22:19Z</time>
      </trkpt>
      <trkpt lat="45.56044" lon="6.67152">
        <ele>689</ele>
        <time>2012-07-28T10:22:25Z</time>
      </trkpt>
      <trkpt lat="45.56042" lon="6.67126">
        <ele>688.40002441406</ele>
        <time>2012-07-28T10:22:31Z</time>
      </trkpt>
      <trkpt lat="45.56033" lon="6.67102">
        <ele>687.79998779297</ele>
        <time>2012-07-28T10:22:37Z</time>
      </trkpt>
      <trkpt lat="45.56023" lon="6.67076">
        <ele>687.40002441406</ele>
        <time>2012-07-28T10:22:44Z</time>
      </trkpt>
      <trkpt lat="45.56013" lon="6.67053">
        <ele>686.79998779297</ele>
        <time>2012-07-28T10:22:54Z</time>
      </trkpt>
      <trkpt lat="45.56009" lon="6.67041">
        <ele>686.40002441406</ele>
        <time>2012-07-28T10:23:00Z</time>
      </trkpt>
      <trkpt lat="45.56007" lon="6.67029">
        <ele>686</ele>
        <time>2012-07-28T10:23:06Z</time>
      </trkpt>
      <trkpt lat="45.56005" lon="6.6702">
        <ele>685.79998779297</ele>
        <time>2012-07-28T10:23:10Z</time>
      </trkpt>
      <trkpt lat="45.56002" lon="6.67014">
        <ele>685.40002441406</ele>
        <time>2012-07-28T10:23:14Z</time>
      </trkpt>
      <trkpt lat="45.55999" lon="6.67011">
        <ele>685.40002441406</ele>
        <time>2012-07-28T10:23:16Z</time>
      </trkpt>
      <trkpt lat="45.55997" lon="6.67008">
        <ele>685.20001220703</ele>
        <time>2012-07-28T10:23:18Z</time>
      </trkpt>
      <trkpt lat="45.55996" lon="6.67001">
        <ele>685</ele>
        <time>2012-07-28T10:23:22Z</time>
      </trkpt>
      <trkpt lat="45.55989" lon="6.66984">
        <ele>684.59997558594</ele>
        <time>2012-07-28T10:23:32Z</time>
      </trkpt>
      <trkpt lat="45.55981" lon="6.6696">
        <ele>684</ele>
        <time>2012-07-28T10:23:45Z</time>
      </trkpt>
      <trkpt lat="45.5597" lon="6.66938">
        <ele>683.40002441406</ele>
        <time>2012-07-28T10:23:56Z</time>
      </trkpt>
      <trkpt lat="45.55958" lon="6.66916">
        <ele>682.79998779297</ele>
        <time>2012-07-28T10:24:03Z</time>
      </trkpt>
      <trkpt lat="45.55946" lon="6.66892">
        <ele>682.40002441406</ele>
        <time>2012-07-28T10:24:10Z</time>
      </trkpt>
      <trkpt lat="45.55936" lon="6.6687">
        <ele>682</ele>
        <time>2012-07-28T10:24:16Z</time>
      </trkpt>
      <trkpt lat="45.55926" lon="6.66844">
        <ele>681.59997558594</ele>
        <time>2012-07-28T10:24:23Z</time>
      </trkpt>
      <trkpt lat="45.55919" lon="6.66817">
        <ele>681.40002441406</ele>
        <time>2012-07-28T10:24:30Z</time>
      </trkpt>
      <trkpt lat="45.55914" lon="6.66789">
        <ele>681</ele>
        <time>2012-07-28T10:24:37Z</time>
      </trkpt>
      <trkpt lat="45.55913" lon="6.66762">
        <ele>680.40002441406</ele>
        <time>2012-07-28T10:24:49Z</time>
      </trkpt>
      <trkpt lat="45.5591" lon="6.66734">
        <ele>679.40002441406</ele>
        <time>2012-07-28T10:25:02Z</time>
      </trkpt>
      <trkpt lat="45.55907" lon="6.66708">
        <ele>678.20001220703</ele>
        <time>2012-07-28T10:25:14Z</time>
      </trkpt>
      <trkpt lat="45.55901" lon="6.66682">
        <ele>677.20001220703</ele>
        <time>2012-07-28T10:25:25Z</time>
      </trkpt>
      <trkpt lat="45.55899" lon="6.66677">
        <ele>676.79998779297</ele>
        <time>2012-07-28T10:25:28Z</time>
      </trkpt>
      <trkpt lat="45.55889" lon="6.66662">
        <ele>676.59997558594</ele>
        <time>2012-07-28T10:25:36Z</time>
      </trkpt>
      <trkpt lat="45.55882" lon="6.66654">
        <ele>676.40002441406</ele>
        <time>2012-07-28T10:25:40Z</time>
      </trkpt>
      <trkpt lat="45.55875" lon="6.66646">
        <ele>676.40002441406</ele>
        <time>2012-07-28T10:25:43Z</time>
      </trkpt>
      <trkpt lat="45.55857" lon="6.66635">
        <ele>676.59997558594</ele>
        <time>2012-07-28T10:25:49Z</time>
      </trkpt>
      <trkpt lat="45.55842" lon="6.66616">
        <ele>676.40002441406</ele>
        <time>2012-07-28T10:25:56Z</time>
      </trkpt>
      <trkpt lat="45.55825" lon="6.666">
        <ele>676.40002441406</ele>
        <time>2012-07-28T10:26:03Z</time>
      </trkpt>
      <trkpt lat="45.5581" lon="6.66581">
        <ele>676.40002441406</ele>
        <time>2012-07-28T10:26:09Z</time>
      </trkpt>
      <trkpt lat="45.55798" lon="6.66559">
        <ele>676.20001220703</ele>
        <time>2012-07-28T10:26:16Z</time>
      </trkpt>
      <trkpt lat="45.55784" lon="6.66541">
        <ele>676</ele>
        <time>2012-07-28T10:26:22Z</time>
      </trkpt>
      <trkpt lat="45.55771" lon="6.66521">
        <ele>676</ele>
        <time>2012-07-28T10:26:28Z</time>
      </trkpt>
      <trkpt lat="45.55759" lon="6.66499">
        <ele>675.79998779297</ele>
        <time>2012-07-28T10:26:35Z</time>
      </trkpt>
      <trkpt lat="45.5575" lon="6.66484">
        <ele>675.20001220703</ele>
        <time>2012-07-28T10:26:44Z</time>
      </trkpt>
      <trkpt lat="45.55748" lon="6.66477">
        <ele>675</ele>
        <time>2012-07-28T10:26:48Z</time>
      </trkpt>
      <trkpt lat="45.55748" lon="6.66476">
        <ele>674.79998779297</ele>
        <time>2012-07-28T10:26:49Z</time>
      </trkpt>
      <trkpt lat="45.55736" lon="6.66456">
        <ele>673.79998779297</ele>
        <time>2012-07-28T10:27:02Z</time>
      </trkpt>
      <trkpt lat="45.55728" lon="6.66444">
        <ele>673.20001220703</ele>
        <time>2012-07-28T10:27:10Z</time>
      </trkpt>
      <trkpt lat="45.55725" lon="6.66436">
        <ele>673</ele>
        <time>2012-07-28T10:27:14Z</time>
      </trkpt>
      <trkpt lat="45.55722" lon="6.66431">
        <ele>672.79998779297</ele>
        <time>2012-07-28T10:27:17Z</time>
      </trkpt>
      <trkpt lat="45.55716" lon="6.66417">
        <ele>672.40002441406</ele>
        <time>2012-07-28T10:27:24Z</time>
      </trkpt>
      <trkpt lat="45.55715" lon="6.66415">
        <ele>672.40002441406</ele>
        <time>2012-07-28T10:27:25Z</time>
      </trkpt>
      <trkpt lat="45.55711" lon="6.664">
        <ele>672.20001220703</ele>
        <time>2012-07-28T10:27:32Z</time>
      </trkpt>
      <trkpt lat="45.55713" lon="6.66392">
        <ele>672</ele>
        <time>2012-07-28T10:27:37Z</time>
      </trkpt>
      <trkpt lat="45.55716" lon="6.6639">
        <ele>672</ele>
        <time>2012-07-28T10:27:39Z</time>
      </trkpt>
      <trkpt lat="45.55729" lon="6.6638">
        <ele>671.79998779297</ele>
        <time>2012-07-28T10:27:45Z</time>
      </trkpt>
      <trkpt lat="45.55736" lon="6.66367">
        <ele>671.79998779297</ele>
        <time>2012-07-28T10:27:50Z</time>
      </trkpt>
      <trkpt lat="45.55733" lon="6.6636">
        <ele>671.79998779297</ele>
        <time>2012-07-28T10:27:52Z</time>
      </trkpt>
      <trkpt lat="45.55724" lon="6.66334">
        <ele>671.59997558594</ele>
        <time>2012-07-28T10:27:59Z</time>
      </trkpt>
      <trkpt lat="45.55718" lon="6.66307">
        <ele>671.20001220703</ele>
        <time>2012-07-28T10:28:06Z</time>
      </trkpt>
      <trkpt lat="45.55711" lon="6.6628">
        <ele>670.59997558594</ele>
        <time>2012-07-28T10:28:13Z</time>
      </trkpt>
      <trkpt lat="45.55702" lon="6.66256">
        <ele>670.40002441406</ele>
        <time>2012-07-28T10:28:19Z</time>
      </trkpt>
      <trkpt lat="45.55695" lon="6.66232">
        <ele>670.20001220703</ele>
        <time>2012-07-28T10:28:25Z</time>
      </trkpt>
      <trkpt lat="45.55689" lon="6.66204">
        <ele>670</ele>
        <time>2012-07-28T10:28:32Z</time>
      </trkpt>
      <trkpt lat="45.55686" lon="6.66177">
        <ele>669.59997558594</ele>
        <time>2012-07-28T10:28:40Z</time>
      </trkpt>
      <trkpt lat="45.55684" lon="6.66171">
        <ele>669.59997558594</ele>
        <time>2012-07-28T10:28:43Z</time>
      </trkpt>
      <trkpt lat="45.55682" lon="6.66159">
        <ele>669.40002441406</ele>
        <time>2012-07-28T10:28:48Z</time>
      </trkpt>
      <trkpt lat="45.55679" lon="6.66151">
        <ele>669.20001220703</ele>
        <time>2012-07-28T10:28:52Z</time>
      </trkpt>
      <trkpt lat="45.55673" lon="6.66125">
        <ele>668.79998779297</ele>
        <time>2012-07-28T10:29:06Z</time>
      </trkpt>
      <trkpt lat="45.55667" lon="6.66101">
        <ele>668.79998779297</ele>
        <time>2012-07-28T10:29:18Z</time>
      </trkpt>
      <trkpt lat="45.55659" lon="6.66076">
        <ele>670.20001220703</ele>
        <time>2012-07-28T10:29:30Z</time>
      </trkpt>
      <trkpt lat="45.55657" lon="6.66063">
        <ele>671</ele>
        <time>2012-07-28T10:29:36Z</time>
      </trkpt>
      <trkpt lat="45.55655" lon="6.6605">
        <ele>672</ele>
        <time>2012-07-28T10:29:42Z</time>
      </trkpt>
      <trkpt lat="45.55651" lon="6.66024">
        <ele>673.40002441406</ele>
        <time>2012-07-28T10:29:54Z</time>
      </trkpt>
      <trkpt lat="45.5565" lon="6.65997">
        <ele>674.40002441406</ele>
        <time>2012-07-28T10:30:07Z</time>
      </trkpt>
      <trkpt lat="45.55653" lon="6.65969">
        <ele>675</ele>
        <time>2012-07-28T10:30:22Z</time>
      </trkpt>
      <trkpt lat="45.55656" lon="6.65943">
        <ele>675.59997558594</ele>
        <time>2012-07-28T10:30:29Z</time>
      </trkpt>
      <trkpt lat="45.55664" lon="6.65916">
        <ele>675.79998779297</ele>
        <time>2012-07-28T10:30:36Z</time>
      </trkpt>
      <trkpt lat="45.55664" lon="6.65906">
        <ele>676</ele>
        <time>2012-07-28T10:30:40Z</time>
      </trkpt>
      <trkpt lat="45.55657" lon="6.6589">
        <ele>676.79998779297</ele>
        <time>2012-07-28T10:30:47Z</time>
      </trkpt>
      <trkpt lat="45.55655" lon="6.65879">
        <ele>677.79998779297</ele>
        <time>2012-07-28T10:30:52Z</time>
      </trkpt>
      <trkpt lat="45.55654" lon="6.65871">
        <ele>678.59997558594</ele>
        <time>2012-07-28T10:30:56Z</time>
      </trkpt>
      <trkpt lat="45.55653" lon="6.65862">
        <ele>679.59997558594</ele>
        <time>2012-07-28T10:31:00Z</time>
      </trkpt>
      <trkpt lat="45.5565" lon="6.65835">
        <ele>683.40002441406</ele>
        <time>2012-07-28T10:31:12Z</time>
      </trkpt>
      <trkpt lat="45.5565" lon="6.65808">
        <ele>687.79998779297</ele>
        <time>2012-07-28T10:31:25Z</time>
      </trkpt>
      <trkpt lat="45.55653" lon="6.65783">
        <ele>689.79998779297</ele>
        <time>2012-07-28T10:31:38Z</time>
      </trkpt>
      <trkpt lat="45.55659" lon="6.65757">
        <ele>691.20001220703</ele>
        <time>2012-07-28T10:31:52Z</time>
      </trkpt>
      <trkpt lat="45.55663" lon="6.65731">
        <ele>692.40002441406</ele>
        <time>2012-07-28T10:32:04Z</time>
      </trkpt>
      <trkpt lat="45.55669" lon="6.65706">
        <ele>692.79998779297</ele>
        <time>2012-07-28T10:32:16Z</time>
      </trkpt>
      <trkpt lat="45.55672" lon="6.6568">
        <ele>692.59997558594</ele>
        <time>2012-07-28T10:32:29Z</time>
      </trkpt>
      <trkpt lat="45.55675" lon="6.65673">
        <ele>692.59997558594</ele>
        <time>2012-07-28T10:32:33Z</time>
      </trkpt>
      <trkpt lat="45.55685" lon="6.65664">
        <ele>692.59997558594</ele>
        <time>2012-07-28T10:32:41Z</time>
      </trkpt>
      <trkpt lat="45.55698" lon="6.65674">
        <ele>692.40002441406</ele>
        <time>2012-07-28T10:32:53Z</time>
      </trkpt>
      <trkpt lat="45.55699" lon="6.65672">
        <ele>692.40002441406</ele>
        <time>2012-07-28T10:32:54Z</time>
      </trkpt>
      <trkpt lat="45.557" lon="6.6567">
        <ele>692.40002441406</ele>
        <time>2012-07-28T10:32:56Z</time>
      </trkpt>
      <trkpt lat="45.55712" lon="6.65655">
        <ele>692.40002441406</ele>
        <time>2012-07-28T10:33:04Z</time>
      </trkpt>
      <trkpt lat="45.5572" lon="6.65631">
        <ele>692.20001220703</ele>
        <time>2012-07-28T10:33:12Z</time>
      </trkpt>
      <trkpt lat="45.55725" lon="6.65606">
        <ele>692.59997558594</ele>
        <time>2012-07-28T10:33:20Z</time>
      </trkpt>
      <trkpt lat="45.5573" lon="6.6558">
        <ele>693.20001220703</ele>
        <time>2012-07-28T10:33:28Z</time>
      </trkpt>
      <trkpt lat="45.55735" lon="6.65552">
        <ele>694.20001220703</ele>
        <time>2012-07-28T10:33:36Z</time>
      </trkpt>
      <trkpt lat="45.55738" lon="6.65524">
        <ele>695.20001220703</ele>
        <time>2012-07-28T10:33:44Z</time>
      </trkpt>
      <trkpt lat="45.5574" lon="6.65496">
        <ele>696</ele>
        <time>2012-07-28T10:33:52Z</time>
      </trkpt>
      <trkpt lat="45.55741" lon="6.65469">
        <ele>696.40002441406</ele>
        <time>2012-07-28T10:34:00Z</time>
      </trkpt>
      <trkpt lat="45.5574" lon="6.65452">
        <ele>696.79998779297</ele>
        <time>2012-07-28T10:34:08Z</time>
      </trkpt>
      <trkpt lat="45.55739" lon="6.65442">
        <ele>696.79998779297</ele>
        <time>2012-07-28T10:34:14Z</time>
      </trkpt>
      <trkpt lat="45.55739" lon="6.6544">
        <ele>696.79998779297</ele>
        <time>2012-07-28T10:34:15Z</time>
      </trkpt>
      <trkpt lat="45.55738" lon="6.65432">
        <ele>696.79998779297</ele>
        <time>2012-07-28T10:34:19Z</time>
      </trkpt>
      <trkpt lat="45.55736" lon="6.65415">
        <ele>696.20001220703</ele>
        <time>2012-07-28T10:34:28Z</time>
      </trkpt>
      <trkpt lat="45.55733" lon="6.65395">
        <ele>695.59997558594</ele>
        <time>2012-07-28T10:34:38Z</time>
      </trkpt>
      <trkpt lat="45.55731" lon="6.6539">
        <ele>695.40002441406</ele>
        <time>2012-07-28T10:34:41Z</time>
      </trkpt>
      <trkpt lat="45.55722" lon="6.65366">
        <ele>695</ele>
        <time>2012-07-28T10:34:53Z</time>
      </trkpt>
      <trkpt lat="45.55712" lon="6.65344">
        <ele>694.79998779297</ele>
        <time>2012-07-28T10:35:03Z</time>
      </trkpt>
      <trkpt lat="45.55705" lon="6.6532">
        <ele>694.40002441406</ele>
        <time>2012-07-28T10:35:11Z</time>
      </trkpt>
      <trkpt lat="45.55704" lon="6.65294">
        <ele>694.40002441406</ele>
        <time>2012-07-28T10:35:18Z</time>
      </trkpt>
      <trkpt lat="45.55701" lon="6.65269">
        <ele>695.40002441406</ele>
        <time>2012-07-28T10:35:25Z</time>
      </trkpt>
      <trkpt lat="45.55703" lon="6.65243">
        <ele>696.20001220703</ele>
        <time>2012-07-28T10:35:33Z</time>
      </trkpt>
      <trkpt lat="45.55706" lon="6.65217">
        <ele>696.79998779297</ele>
        <time>2012-07-28T10:35:40Z</time>
      </trkpt>
      <trkpt lat="45.55704" lon="6.65192">
        <ele>698</ele>
        <time>2012-07-28T10:35:48Z</time>
      </trkpt>
      <trkpt lat="45.557" lon="6.65166">
        <ele>698.59997558594</ele>
        <time>2012-07-28T10:35:56Z</time>
      </trkpt>
      <trkpt lat="45.55696" lon="6.6514">
        <ele>699.40002441406</ele>
        <time>2012-07-28T10:36:03Z</time>
      </trkpt>
      <trkpt lat="45.55694" lon="6.65113">
        <ele>701.20001220703</ele>
        <time>2012-07-28T10:36:09Z</time>
      </trkpt>
      <trkpt lat="45.5569" lon="6.65086">
        <ele>702.59997558594</ele>
        <time>2012-07-28T10:36:17Z</time>
      </trkpt>
      <trkpt lat="45.55688" lon="6.6506">
        <ele>703.20001220703</ele>
        <time>2012-07-28T10:36:25Z</time>
      </trkpt>
      <trkpt lat="45.55683" lon="6.65033">
        <ele>703.59997558594</ele>
        <time>2012-07-28T10:36:33Z</time>
      </trkpt>
      <trkpt lat="45.55677" lon="6.6502">
        <ele>703.40002441406</ele>
        <time>2012-07-28T10:36:38Z</time>
      </trkpt>
      <trkpt lat="45.55671" lon="6.65018">
        <ele>703.40002441406</ele>
        <time>2012-07-28T10:36:40Z</time>
      </trkpt>
      <trkpt lat="45.55651" lon="6.65022">
        <ele>703.40002441406</ele>
        <time>2012-07-28T10:36:46Z</time>
      </trkpt>
      <trkpt lat="45.55632" lon="6.65031">
        <ele>702.79998779297</ele>
        <time>2012-07-28T10:36:55Z</time>
      </trkpt>
      <trkpt lat="45.55627" lon="6.6503">
        <ele>702.59997558594</ele>
        <time>2012-07-28T10:36:57Z</time>
      </trkpt>
      <trkpt lat="45.5562" lon="6.65011">
        <ele>702</ele>
        <time>2012-07-28T10:37:02Z</time>
      </trkpt>
      <trkpt lat="45.55616" lon="6.64985">
        <ele>701.40002441406</ele>
        <time>2012-07-28T10:37:09Z</time>
      </trkpt>
      <trkpt lat="45.55608" lon="6.64961">
        <ele>700.59997558594</ele>
        <time>2012-07-28T10:37:16Z</time>
      </trkpt>
      <trkpt lat="45.55596" lon="6.64965">
        <ele>699.40002441406</ele>
        <time>2012-07-28T10:37:22Z</time>
      </trkpt>
      <trkpt lat="45.5559" lon="6.64969">
        <ele>698.79998779297</ele>
        <time>2012-07-28T10:37:25Z</time>
      </trkpt>
      <trkpt lat="45.55572" lon="6.64983">
        <ele>697</ele>
        <time>2012-07-28T10:37:33Z</time>
      </trkpt>
      <trkpt lat="45.5557" lon="6.65006">
        <ele>695.79998779297</ele>
        <time>2012-07-28T10:37:39Z</time>
      </trkpt>
      <trkpt lat="45.55571" lon="6.6501">
        <ele>695.59997558594</ele>
        <time>2012-07-28T10:37:40Z</time>
      </trkpt>
      <trkpt lat="45.55571" lon="6.65036">
        <ele>694.40002441406</ele>
        <time>2012-07-28T10:37:47Z</time>
      </trkpt>
      <trkpt lat="45.55576" lon="6.65064">
        <ele>693.40002441406</ele>
        <time>2012-07-28T10:37:55Z</time>
      </trkpt>
      <trkpt lat="45.55578" lon="6.65087">
        <ele>692.79998779297</ele>
        <time>2012-07-28T10:38:02Z</time>
      </trkpt>
      <trkpt lat="45.55578" lon="6.65092">
        <ele>692.79998779297</ele>
        <time>2012-07-28T10:38:04Z</time>
      </trkpt>
      <trkpt lat="45.55585" lon="6.65114">
        <ele>692.20001220703</ele>
        <time>2012-07-28T10:38:11Z</time>
      </trkpt>
      <trkpt lat="45.55585" lon="6.65118">
        <ele>692</ele>
        <time>2012-07-28T10:38:12Z</time>
      </trkpt>
      <trkpt lat="45.5559" lon="6.65142">
        <ele>691.59997558594</ele>
        <time>2012-07-28T10:38:19Z</time>
      </trkpt>
      <trkpt lat="45.55594" lon="6.65156">
        <ele>691.40002441406</ele>
        <time>2012-07-28T10:38:24Z</time>
      </trkpt>
      <trkpt lat="45.55596" lon="6.65162">
        <ele>690.79998779297</ele>
        <time>2012-07-28T10:38:30Z</time>
      </trkpt>
      <trkpt lat="45.55597" lon="6.65168">
        <ele>690.20001220703</ele>
        <time>2012-07-28T10:38:40Z</time>
      </trkpt>
      <trkpt lat="45.55608" lon="6.65186">
        <ele>688.40002441406</ele>
        <time>2012-07-28T10:39:12Z</time>
      </trkpt>
      <trkpt lat="45.55606" lon="6.65188">
        <ele>686.20001220703</ele>
        <time>2012-07-28T10:39:41Z</time>
      </trkpt>
      <trkpt lat="45.55599" lon="6.65193">
        <ele>685.40002441406</ele>
        <time>2012-07-28T10:39:51Z</time>
      </trkpt>
      <trkpt lat="45.55601" lon="6.65196">
        <ele>685.79998779297</ele>
        <time>2012-07-28T10:40:18Z</time>
      </trkpt>
    </trkseg>
  </trk>
</gpx>